Wetterdaten: Sonntag, 19.03.2017
Datum Zeit Temp. A. Temp. A. max Feuchte A. Luftdruck Regen Wind Richtung Richtung Sonnenschein ET UV Solar Taupunkt Windchill Windböen
19.03.2017 00:00 6,7 °C 6,7 °C 91 % 1012,6 hPa 0,0 mm 15,2 km/h (3 Bft) W 280 ° 0 min 0,000 mm 0,0 UV-I 0 W/m² 5,3 °C 3,8 °C 20,9 km/h (4 Bft)
19.03.2017 00:01 6,6 °C 6,7 °C 92 % 1012,7 hPa 0,0 mm 14,5 km/h (3 Bft) W-SW 250 ° 0 min 0,000 mm 0,0 UV-I 0 W/m² 5,4 °C 3,8 °C 14,5 km/h (3 Bft)
19.03.2017 00:02 6,7 °C 6,7 °C 91 % 1012,8 hPa 0,0 mm 14,5 km/h (3 Bft) W-SW 250 ° 0 min 0,000 mm 0,0 UV-I 0 W/m² 5,3 °C 3,9 °C 14,5 km/h (3 Bft)
19.03.2017 00:03 6,7 °C 6,7 °C 91 % 1012,8 hPa 0,0 mm 19,2 km/h (3 Bft) W-SW 246 ° 0 min 0,000 mm 0,0 UV-I 0 W/m² 5,3 °C 3,3 °C 30,6 km/h (5 Bft)
19.03.2017 00:04 6,7 °C 6,7 °C 91 % 1012,8 hPa 0,0 mm 16,8 km/h (3 Bft) W-SW 239 ° 0 min 0,000 mm 0,0 UV-I 0 W/m² 5,3 °C 3,6 °C 24,1 km/h (4 Bft)
19.03.2017 00:05 6,7 °C 6,7 °C 91 % 1012,8 hPa 0,0 mm 11,9 km/h (2 Bft) W-SW 250 ° 0 min 0,000 mm 0,0 UV-I 0 W/m² 5,3 °C 4,3 °C 17,7 km/h (3 Bft)
19.03.2017 00:06 6,7 °C 6,7 °C 91 % 1012,9 hPa 0,2 mm 17,9 km/h (3 Bft) W-SW 252 ° 0 min 0,000 mm 0,0 UV-I 0 W/m² 5,3 °C 3,5 °C 22,5 km/h (4 Bft)
19.03.2017 00:07 6,7 °C 6,7 °C 91 % 1012,9 hPa 0,0 mm 16,9 km/h (3 Bft) W 259 ° 0 min 0,000 mm 0,0 UV-I 0 W/m² 5,3 °C 3,6 °C 24,1 km/h (4 Bft)
19.03.2017 00:08 6,7 °C 6,7 °C 91 % 1013,0 hPa 0,0 mm 18,0 km/h (3 Bft) SW 233 ° 0 min 0,000 mm 0,0 UV-I 0 W/m² 5,3 °C 3,4 °C 27,4 km/h (4 Bft)
19.03.2017 00:09 6,7 °C 6,7 °C 91 % 1012,9 hPa 0,0 mm 15,6 km/h (3 Bft) W-SW 243 ° 0 min 0,000 mm 0,0 UV-I 0 W/m² 5,3 °C 3,8 °C 20,9 km/h (4 Bft)
19.03.2017 00:10 6,7 °C 6,7 °C 91 % 1013,0 hPa 0,0 mm 17,2 km/h (3 Bft) W-NW 291 ° 0 min 0,000 mm 0,0 UV-I 0 W/m² 5,3 °C 3,5 °C 22,5 km/h (4 Bft)
19.03.2017 00:11 6,7 °C 6,7 °C 91 % 1013,0 hPa 0,0 mm 18,4 km/h (3 Bft) W 267 ° 0 min 0,000 mm 0,0 UV-I 0 W/m² 5,3 °C 3,4 °C 25,7 km/h (4 Bft)
19.03.2017 00:12 6,7 °C 6,7 °C 91 % 1013,0 hPa 0,0 mm 19,3 km/h (3 Bft) W-SW 244 ° 0 min 0,000 mm 0,0 UV-I 0 W/m² 5,3 °C 3,3 °C 25,7 km/h (4 Bft)
19.03.2017 00:13 6,7 °C 6,7 °C 91 % 1013,0 hPa 0,0 mm 16,9 km/h (3 Bft) W-SW 249 ° 0 min 0,000 mm 0,0 UV-I 0 W/m² 5,3 °C 3,6 °C 22,5 km/h (4 Bft)
19.03.2017 00:14 6,7 °C 6,7 °C 91 % 1013,0 hPa 0,0 mm 16,7 km/h (3 Bft) SW 219 ° 0 min 0,000 mm 0,0 UV-I 0 W/m² 5,3 °C 3,6 °C 29,0 km/h (5 Bft)
19.03.2017 00:15 6,7 °C 6,7 °C 91 % 1012,9 hPa 0,0 mm 13,1 km/h (3 Bft) W-SW 253 ° 0 min 0,000 mm 0,0 UV-I 0 W/m² 5,3 °C 4,1 °C 17,7 km/h (3 Bft)
19.03.2017 00:16 6,7 °C 6,7 °C 91 % 1013,0 hPa 0,0 mm 14,3 km/h (3 Bft) W 261 ° 0 min 0,000 mm 0,0 UV-I 0 W/m² 5,3 °C 3,9 °C 19,3 km/h (3 Bft)
19.03.2017 00:17 6,6 °C 6,7 °C 92 % 1013,1 hPa 0,0 mm 13,5 km/h (3 Bft) W 260 ° 0 min 0,000 mm 0,0 UV-I 0 W/m² 5,4 °C 3,9 °C 17,7 km/h (3 Bft)
19.03.2017 00:18 6,7 °C 6,7 °C 92 % 1013,0 hPa 0,0 mm 18,0 km/h (3 Bft) W-SW 242 ° 0 min 0,000 mm 0,0 UV-I 0 W/m² 5,5 °C 3,4 °C 22,5 km/h (4 Bft)
19.03.2017 00:19 6,6 °C 6,7 °C 91 % 1012,9 hPa 0,0 mm 14,0 km/h (3 Bft) W-SW 257 ° 0 min 0,000 mm 0,0 UV-I 0 W/m² 5,2 °C 3,9 °C 19,3 km/h (3 Bft)
19.03.2017 00:20 6,6 °C 6,6 °C 91 % 1013,0 hPa 0,2 mm 19,0 km/h (3 Bft) W 261 ° 0 min 0,000 mm 0,0 UV-I 0 W/m² 5,2 °C 3,2 °C 27,4 km/h (4 Bft)
19.03.2017 00:21 6,6 °C 6,7 °C 91 % 1013,0 hPa 0,0 mm 18,1 km/h (3 Bft) W-SW 254 ° 0 min 0,000 mm 0,0 UV-I 0 W/m² 5,2 °C 3,3 °C 22,5 km/h (4 Bft)
19.03.2017 00:22 6,6 °C 6,6 °C 91 % 1013,0 hPa 0,0 mm 14,0 km/h (3 Bft) W-SW 256 ° 0 min 0,000 mm 0,0 UV-I 0 W/m² 5,2 °C 3,9 °C 19,3 km/h (3 Bft)
19.03.2017 00:23 6,6 °C 6,6 °C 91 % 1012,9 hPa 0,0 mm 18,4 km/h (3 Bft) W-SW 244 ° 0 min 0,000 mm 0,0 UV-I 0 W/m² 5,2 °C 3,3 °C 25,7 km/h (4 Bft)
19.03.2017 00:24 6,6 °C 6,7 °C 91 % 1012,8 hPa 0,0 mm 18,8 km/h (3 Bft) W 268 ° 0 min 0,000 mm 0,0 UV-I 0 W/m² 5,2 °C 3,2 °C 24,1 km/h (4 Bft)
19.03.2017 00:25 6,6 °C 6,7 °C 91 % 1012,8 hPa 0,0 mm 18,3 km/h (3 Bft) W-NW 289 ° 0 min 0,000 mm 0,0 UV-I 0 W/m² 5,2 °C 3,3 °C 29,0 km/h (5 Bft)
19.03.2017 00:26 6,6 °C 6,7 °C 91 % 1012,8 hPa 0,0 mm 16,6 km/h (3 Bft) W-SW 246 ° 0 min 0,000 mm 0,0 UV-I 0 W/m² 5,2 °C 3,5 °C 22,5 km/h (4 Bft)
19.03.2017 00:27 6,6 °C 6,7 °C 91 % 1012,9 hPa 0,0 mm 15,5 km/h (3 Bft) W-SW 241 ° 0 min 0,000 mm 0,0 UV-I 0 W/m² 5,2 °C 3,7 °C 22,5 km/h (4 Bft)
19.03.2017 00:28 6,6 °C 6,6 °C 91 % 1012,9 hPa 0,0 mm 16,7 km/h (3 Bft) W-SW 246 ° 0 min 0,000 mm 0,0 UV-I 0 W/m² 5,2 °C 3,5 °C 27,4 km/h (4 Bft)
19.03.2017 00:29 6,7 °C 6,7 °C 91 % 1012,9 hPa 0,0 mm 16,7 km/h (3 Bft) W-SW 257 ° 0 min 0,000 mm 0,0 UV-I 0 W/m² 5,3 °C 3,6 °C 22,5 km/h (4 Bft)
19.03.2017 00:30 6,7 °C 6,7 °C 91 % 1012,9 hPa 0,2 mm 16,5 km/h (3 Bft) W-SW 245 ° 0 min 0,000 mm 0,0 UV-I 0 W/m² 5,3 °C 3,6 °C 24,1 km/h (4 Bft)
19.03.2017 00:31 6,6 °C 6,7 °C 91 % 1012,8 hPa 0,0 mm 21,9 km/h (4 Bft) W 263 ° 0 min 0,000 mm 0,0 UV-I 0 W/m² 5,2 °C 2,9 °C 27,4 km/h (4 Bft)
19.03.2017 00:32 6,7 °C 6,7 °C 91 % 1012,9 hPa 0,0 mm 15,2 km/h (3 Bft) W-SW 252 ° 0 min 0,000 mm 0,0 UV-I 0 W/m² 5,3 °C 3,8 °C 19,3 km/h (3 Bft)
19.03.2017 00:33 6,7 °C 6,7 °C 91 % 1012,8 hPa 0,0 mm 15,2 km/h (3 Bft) W-SW 252 ° 0 min 0,000 mm 0,0 UV-I 0 W/m² 5,3 °C 3,8 °C 19,3 km/h (3 Bft)
19.03.2017 00:34 6,7 °C 6,7 °C 91 % 1012,8 hPa 0,0 mm 15,2 km/h (3 Bft) W 277 ° 0 min 0,000 mm 0,0 UV-I 0 W/m² 5,3 °C 3,8 °C 17,7 km/h (3 Bft)
19.03.2017 00:35 6,7 °C 6,7 °C 91 % 1012,8 hPa 0,0 mm 14,8 km/h (3 Bft) W-NW 284 ° 0 min 0,000 mm 0,0 UV-I 0 W/m² 5,3 °C 3,9 °C 17,7 km/h (3 Bft)
19.03.2017 00:36 6,6 °C 6,7 °C 91 % 1012,8 hPa 0,0 mm 18,5 km/h (3 Bft) W-SW 258 ° 0 min 0,000 mm 0,0 UV-I 0 W/m² 5,2 °C 3,3 °C 24,1 km/h (4 Bft)
19.03.2017 00:37 6,6 °C 6,7 °C 91 % 1012,8 hPa 0,0 mm 19,0 km/h (3 Bft) W 269 ° 0 min 0,000 mm 0,0 UV-I 0 W/m² 5,2 °C 3,2 °C 25,7 km/h (4 Bft)
19.03.2017 00:38 6,6 °C 6,6 °C 91 % 1012,8 hPa 0,0 mm 23,3 km/h (4 Bft) W 269 ° 0 min 0,000 mm 0,0 UV-I 0 W/m² 5,2 °C 2,7 °C 29,0 km/h (5 Bft)
19.03.2017 00:39 6,6 °C 6,7 °C 91 % 1012,8 hPa 0,0 mm 24,7 km/h (4 Bft) W-SW 245 ° 0 min 0,000 mm 0,0 UV-I 0 W/m² 5,2 °C 2,6 °C 33,8 km/h (5 Bft)
19.03.2017 00:40 6,7 °C 6,7 °C 91 % 1013,0 hPa 0,0 mm 17,7 km/h (3 Bft) W-SW 247 ° 0 min 0,000 mm 0,0 UV-I 0 W/m² 5,3 °C 3,5 °C 24,1 km/h (4 Bft)
19.03.2017 00:41 6,7 °C 6,7 °C 91 % 1013,0 hPa 0,0 mm 13,7 km/h (3 Bft) W-NW 284 ° 0 min 0,000 mm 0,0 UV-I 0 W/m² 5,3 °C 4,0 °C 22,5 km/h (4 Bft)
19.03.2017 00:42 6,7 °C 6,7 °C 91 % 1012,9 hPa 0,0 mm 12,8 km/h (3 Bft) W 259 ° 0 min 0,000 mm 0,0 UV-I 0 W/m² 5,3 °C 4,2 °C 20,9 km/h (4 Bft)
19.03.2017 00:43 6,7 °C 6,7 °C 91 % 1013,0 hPa 0,0 mm 21,5 km/h (4 Bft) W-SW 250 ° 0 min 0,000 mm 0,0 UV-I 0 W/m² 5,3 °C 3,0 °C 33,8 km/h (5 Bft)
19.03.2017 00:44 6,7 °C 6,7 °C 91 % 1013,0 hPa 0,0 mm 18,7 km/h (3 Bft) W-SW 250 ° 0 min 0,000 mm 0,0 UV-I 0 W/m² 5,3 °C 3,4 °C 27,4 km/h (4 Bft)
19.03.2017 00:45 6,7 °C 6,7 °C 91 % 1013,0 hPa 0,0 mm 18,7 km/h (3 Bft) S-SW 212 ° 0 min 0,000 mm 0,0 UV-I 0 W/m² 5,3 °C 3,4 °C 25,7 km/h (4 Bft)
19.03.2017 00:46 6,7 °C 6,7 °C 91 % 1013,0 hPa 0,0 mm 19,0 km/h (3 Bft) W-SW 245 ° 0 min 0,000 mm 0,0 UV-I 0 W/m² 5,3 °C 3,3 °C 27,4 km/h (4 Bft)
19.03.2017 00:47 6,7 °C 6,7 °C 91 % 1013,0 hPa 0,0 mm 19,4 km/h (3 Bft) W 261 ° 0 min 0,000 mm 0,0 UV-I 0 W/m² 5,3 °C 3,3 °C 27,4 km/h (4 Bft)
19.03.2017 00:48 6,7 °C 6,7 °C 91 % 1013,0 hPa 0,0 mm 19,3 km/h (3 Bft) W-SW 250 ° 0 min 0,000 mm 0,0 UV-I 0 W/m² 5,3 °C 3,3 °C 24,1 km/h (4 Bft)
19.03.2017 00:49 6,7 °C 6,7 °C 91 % 1013,0 hPa 0,0 mm 12,7 km/h (3 Bft) W 259 ° 0 min 0,000 mm 0,0 UV-I 0 W/m² 5,3 °C 4,2 °C 17,7 km/h (3 Bft)
19.03.2017 00:50 6,7 °C 6,7 °C 91 % 1012,9 hPa 0,0 mm 21,1 km/h (4 Bft) W 260 ° 0 min 0,000 mm 0,0 UV-I 0 W/m² 5,3 °C 3,1 °C 32,2 km/h (5 Bft)
19.03.2017 00:51 6,7 °C 6,7 °C 91 % 1012,9 hPa 0,0 mm 22,7 km/h (4 Bft) W-SW 252 ° 0 min 0,000 mm 0,0 UV-I 0 W/m² 5,3 °C 2,9 °C 27,4 km/h (4 Bft)
19.03.2017 00:52 6,7 °C 6,7 °C 91 % 1012,9 hPa 0,0 mm 20,5 km/h (4 Bft) W-SW 244 ° 0 min 0,000 mm 0,0 UV-I 0 W/m² 5,3 °C 3,2 °C 27,4 km/h (4 Bft)
19.03.2017 00:53 6,7 °C 6,7 °C 91 % 1012,7 hPa 0,0 mm 13,9 km/h (3 Bft) W-SW 242 ° 0 min 0,000 mm 0,0 UV-I 0 W/m² 5,3 °C 4,0 °C 24,1 km/h (4 Bft)
19.03.2017 00:54 6,7 °C 6,7 °C 91 % 1012,9 hPa 0,0 mm 9,9 km/h (2 Bft) W-NW 284 ° 0 min 0,000 mm 0,0 UV-I 0 W/m² 5,3 °C 4,7 °C 16,1 km/h (3 Bft)
19.03.2017 00:55 6,7 °C 6,7 °C 91 % 1012,9 hPa 0,2 mm 11,7 km/h (2 Bft) W-NW 285 ° 0 min 0,000 mm 0,0 UV-I 0 W/m² 5,3 °C 4,4 °C 17,7 km/h (3 Bft)
19.03.2017 00:56 6,7 °C 6,7 °C 91 % 1012,9 hPa 0,0 mm 14,6 km/h (3 Bft) W-SW 252 ° 0 min 0,000 mm 0,0 UV-I 0 W/m² 5,3 °C 3,9 °C 24,1 km/h (4 Bft)
19.03.2017 00:57 6,6 °C 6,7 °C 91 % 1012,8 hPa 0,0 mm 14,2 km/h (3 Bft) W-SW 256 ° 0 min 0,000 mm 0,0 UV-I 0 W/m² 5,2 °C 3,8 °C 24,1 km/h (4 Bft)
19.03.2017 00:58 6,6 °C 6,6 °C 91 % 1012,8 hPa 0,0 mm 20,0 km/h (4 Bft) W 260 ° 0 min 0,000 mm 0,0 UV-I 0 W/m² 5,2 °C 3,1 °C 29,0 km/h (5 Bft)
19.03.2017 00:59 6,6 °C 6,6 °C 91 % 1012,8 hPa 0,0 mm 15,3 km/h (3 Bft) W 267 ° 0 min 0,000 mm 0,0 UV-I 0 W/m² 5,2 °C 3,7 °C 20,9 km/h (4 Bft)
19.03.2017 01:00 6,6 °C 6,6 °C 91 % 1012,9 hPa 0,0 mm 15,0 km/h (3 Bft) SW 219 ° 0 min 0,025 mm 0,0 UV-I 0 W/m² 5,2 °C 3,7 °C 22,5 km/h (4 Bft)
19.03.2017 01:01 6,6 °C 6,6 °C 91 % 1012,9 hPa 0,0 mm 13,8 km/h (3 Bft) W 265 ° 0 min 0,000 mm 0,0 UV-I 0 W/m² 5,2 °C 3,9 °C 19,3 km/h (3 Bft)
19.03.2017 01:02 6,6 °C 6,6 °C 91 % 1012,8 hPa 0,0 mm 18,0 km/h (3 Bft) W 267 ° 0 min 0,000 mm 0,0 UV-I 0 W/m² 5,2 °C 3,3 °C 24,1 km/h (4 Bft)
19.03.2017 01:03 6,6 °C 6,6 °C 91 % 1012,8 hPa 0,0 mm 15,4 km/h (3 Bft) W-NW 288 ° 0 min 0,000 mm 0,0 UV-I 0 W/m² 5,2 °C 3,7 °C 22,5 km/h (4 Bft)
19.03.2017 01:04 6,6 °C 6,6 °C 91 % 1012,8 hPa 0,0 mm 14,3 km/h (3 Bft) SW 232 ° 0 min 0,000 mm 0,0 UV-I 0 W/m² 5,2 °C 3,8 °C 17,7 km/h (3 Bft)
19.03.2017 01:05 6,6 °C 6,6 °C 91 % 1012,8 hPa 0,0 mm 14,6 km/h (3 Bft) W-SW 242 ° 0 min 0,000 mm 0,0 UV-I 0 W/m² 5,2 °C 3,8 °C 19,3 km/h (3 Bft)
19.03.2017 01:06 6,6 °C 6,6 °C 91 % 1012,9 hPa 0,0 mm 15,1 km/h (3 Bft) W 272 ° 0 min 0,000 mm 0,0 UV-I 0 W/m² 5,2 °C 3,7 °C 24,1 km/h (4 Bft)
19.03.2017 01:07 6,6 °C 6,6 °C 91 % 1012,8 hPa 0,0 mm 15,2 km/h (3 Bft) W-SW 257 ° 0 min 0,000 mm 0,0 UV-I 0 W/m² 5,2 °C 3,7 °C 19,3 km/h (3 Bft)
19.03.2017 01:08 6,5 °C 6,6 °C 92 % 1012,9 hPa 0,0 mm 16,4 km/h (3 Bft) W-SW 258 ° 0 min 0,000 mm 0,0 UV-I 0 W/m² 5,3 °C 3,4 °C 22,5 km/h (4 Bft)
19.03.2017 01:09 6,5 °C 6,6 °C 92 % 1012,9 hPa 0,0 mm 12,8 km/h (3 Bft) W 265 ° 0 min 0,000 mm 0,0 UV-I 0 W/m² 5,3 °C 3,9 °C 17,7 km/h (3 Bft)
19.03.2017 01:10 6,5 °C 6,5 °C 92 % 1013,0 hPa 0,0 mm 17,0 km/h (3 Bft) W 264 ° 0 min 0,000 mm 0,0 UV-I 0 W/m² 5,3 °C 3,3 °C 22,5 km/h (4 Bft)
19.03.2017 01:11 6,5 °C 6,5 °C 92 % 1012,8 hPa 0,2 mm 13,6 km/h (3 Bft) W-SW 242 ° 0 min 0,000 mm 0,0 UV-I 0 W/m² 5,3 °C 3,8 °C 17,7 km/h (3 Bft)
19.03.2017 01:12 6,5 °C 6,5 °C 92 % 1012,8 hPa 0,0 mm 15,5 km/h (3 Bft) W-SW 247 ° 0 min 0,000 mm 0,0 UV-I 0 W/m² 5,3 °C 3,5 °C 27,4 km/h (4 Bft)
19.03.2017 01:13 6,5 °C 6,5 °C 92 % 1012,8 hPa 0,0 mm 20,9 km/h (4 Bft) W-SW 247 ° 0 min 0,000 mm 0,0 UV-I 0 W/m² 5,3 °C 2,9 °C 27,4 km/h (4 Bft)
19.03.2017 01:14 6,5 °C 6,5 °C 92 % 1012,8 hPa 0,0 mm 18,2 km/h (3 Bft) SW 234 ° 0 min 0,000 mm 0,0 UV-I 0 W/m² 5,3 °C 3,2 °C 27,4 km/h (4 Bft)
19.03.2017 01:15 6,5 °C 6,5 °C 92 % 1012,8 hPa 0,0 mm 11,9 km/h (2 Bft) W 263 ° 0 min 0,000 mm 0,0 UV-I 0 W/m² 5,3 °C 4,1 °C 20,9 km/h (4 Bft)
19.03.2017 01:16 6,5 °C 6,5 °C 91 % 1012,7 hPa 0,0 mm 18,3 km/h (3 Bft) W-SW 241 ° 0 min 0,000 mm 0,0 UV-I 0 W/m² 5,1 °C 3,2 °C 24,1 km/h (4 Bft)
19.03.2017 01:17 6,5 °C 6,5 °C 91 % 1012,8 hPa 0,0 mm 16,2 km/h (3 Bft) W-SW 244 ° 0 min 0,000 mm 0,0 UV-I 0 W/m² 5,1 °C 3,4 °C 25,7 km/h (4 Bft)
19.03.2017 01:18 6,5 °C 6,5 °C 91 % 1012,8 hPa 0,0 mm 15,1 km/h (3 Bft) W 268 ° 0 min 0,000 mm 0,0 UV-I 0 W/m² 5,1 °C 3,6 °C 24,1 km/h (4 Bft)
19.03.2017 01:19 6,5 °C 6,5 °C 91 % 1012,7 hPa 0,0 mm 13,7 km/h (3 Bft) W-SW 250 ° 0 min 0,000 mm 0,0 UV-I 0 W/m² 5,1 °C 3,8 °C 22,5 km/h (4 Bft)
19.03.2017 01:20 6,5 °C 6,5 °C 91 % 1012,8 hPa 0,0 mm 13,6 km/h (3 Bft) W 275 ° 0 min 0,000 mm 0,0 UV-I 0 W/m² 5,1 °C 3,8 °C 20,9 km/h (4 Bft)
19.03.2017 01:21 6,5 °C 6,5 °C 91 % 1012,8 hPa 0,0 mm 12,8 km/h (3 Bft) W-SW 237 ° 0 min 0,000 mm 0,0 UV-I 0 W/m² 5,1 °C 3,9 °C 22,5 km/h (4 Bft)
19.03.2017 01:22 6,5 °C 6,5 °C 91 % 1012,8 hPa 0,2 mm 15,4 km/h (3 Bft) W-SW 254 ° 0 min 0,000 mm 0,0 UV-I 0 W/m² 5,1 °C 3,5 °C 19,3 km/h (3 Bft)
19.03.2017 01:23 6,5 °C 6,5 °C 91 % 1012,9 hPa 0,0 mm 14,3 km/h (3 Bft) W 261 ° 0 min 0,000 mm 0,0 UV-I 0 W/m² 5,1 °C 3,7 °C 19,3 km/h (3 Bft)
19.03.2017 01:24 6,5 °C 6,5 °C 91 % 1012,9 hPa 0,0 mm 14,7 km/h (3 Bft) W-SW 244 ° 0 min 0,000 mm 0,0 UV-I 0 W/m² 5,1 °C 3,6 °C 20,9 km/h (4 Bft)
19.03.2017 01:25 6,4 °C 6,5 °C 91 % 1012,7 hPa 0,0 mm 15,6 km/h (3 Bft) W 263 ° 0 min 0,000 mm 0,0 UV-I 0 W/m² 5,0 °C 3,4 °C 22,5 km/h (4 Bft)
19.03.2017 01:26 6,4 °C 6,5 °C 91 % 1012,8 hPa 0,0 mm 20,0 km/h (4 Bft) W 271 ° 0 min 0,000 mm 0,0 UV-I 0 W/m² 5,0 °C 2,8 °C 29,0 km/h (5 Bft)
19.03.2017 01:27 6,4 °C 6,5 °C 91 % 1012,7 hPa 0,0 mm 19,5 km/h (3 Bft) W-SW 248 ° 0 min 0,000 mm 0,0 UV-I 0 W/m² 5,0 °C 2,9 °C 25,7 km/h (4 Bft)
19.03.2017 01:28 6,4 °C 6,5 °C 91 % 1012,7 hPa 0,0 mm 17,6 km/h (3 Bft) W-SW 244 ° 0 min 0,000 mm 0,0 UV-I 0 W/m² 5,0 °C 3,1 °C 24,1 km/h (4 Bft)
19.03.2017 01:29 6,5 °C 6,5 °C 91 % 1012,7 hPa 0,0 mm 16,7 km/h (3 Bft) W-SW 238 ° 0 min 0,000 mm 0,0 UV-I 0 W/m² 5,1 °C 3,4 °C 22,5 km/h (4 Bft)
19.03.2017 01:30 6,5 °C 6,5 °C 91 % 1012,7 hPa 0,0 mm 18,8 km/h (3 Bft) W 263 ° 0 min 0,000 mm 0,0 UV-I 0 W/m² 5,1 °C 3,1 °C 27,4 km/h (4 Bft)
19.03.2017 01:31 6,4 °C 6,5 °C 91 % 1012,7 hPa 0,0 mm 19,5 km/h (3 Bft) W-SW 245 ° 0 min 0,000 mm 0,0 UV-I 0 W/m² 5,0 °C 2,9 °C 25,7 km/h (4 Bft)
19.03.2017 01:32 6,4 °C 6,5 °C 91 % 1012,6 hPa 0,0 mm 15,8 km/h (3 Bft) W-NW 290 ° 0 min 0,000 mm 0,0 UV-I 0 W/m² 5,0 °C 3,4 °C 22,5 km/h (4 Bft)
19.03.2017 01:33 6,4 °C 6,5 °C 91 % 1012,7 hPa 0,0 mm 20,6 km/h (4 Bft) W-SW 252 ° 0 min 0,000 mm 0,0 UV-I 0 W/m² 5,0 °C 2,8 °C 27,4 km/h (4 Bft)
19.03.2017 01:34 6,5 °C 6,5 °C 91 % 1012,7 hPa 0,0 mm 19,6 km/h (3 Bft) W-SW 256 ° 0 min 0,000 mm 0,0 UV-I 0 W/m² 5,1 °C 3,0 °C 30,6 km/h (5 Bft)
19.03.2017 01:35 6,5 °C 6,5 °C 91 % 1012,7 hPa 0,0 mm 14,2 km/h (3 Bft) W-NW 292 ° 0 min 0,000 mm 0,0 UV-I 0 W/m² 5,1 °C 3,7 °C 25,7 km/h (4 Bft)
19.03.2017 01:36 6,5 °C 6,5 °C 91 % 1012,8 hPa 0,0 mm 13,5 km/h (3 Bft) W-SW 241 ° 0 min 0,000 mm 0,0 UV-I 0 W/m² 5,1 °C 3,8 °C 20,9 km/h (4 Bft)
19.03.2017 01:37 6,5 °C 6,5 °C 91 % 1012,8 hPa 0,0 mm 18,7 km/h (3 Bft) W-NW 295 ° 0 min 0,000 mm 0,0 UV-I 0 W/m² 5,1 °C 3,1 °C 29,0 km/h (5 Bft)
19.03.2017 01:38 6,5 °C 6,5 °C 91 % 1012,8 hPa 0,0 mm 15,9 km/h (3 Bft) W-SW 250 ° 0 min 0,000 mm 0,0 UV-I 0 W/m² 5,1 °C 3,5 °C 19,3 km/h (3 Bft)
19.03.2017 01:39 6,5 °C 6,5 °C 91 % 1012,8 hPa 0,0 mm 14,7 km/h (3 Bft) SW 236 ° 0 min 0,000 mm 0,0 UV-I 0 W/m² 5,1 °C 3,6 °C 17,7 km/h (3 Bft)
19.03.2017 01:40 6,5 °C 6,5 °C 91 % 1012,9 hPa 0,0 mm 18,8 km/h (3 Bft) W-SW 248 ° 0 min 0,000 mm 0,0 UV-I 0 W/m² 5,1 °C 3,1 °C 25,7 km/h (4 Bft)
19.03.2017 01:41 6,5 °C 6,5 °C 91 % 1012,8 hPa 0,0 mm 19,3 km/h (3 Bft) W-SW 257 ° 0 min 0,000 mm 0,0 UV-I 0 W/m² 5,1 °C 3,0 °C 25,7 km/h (4 Bft)
19.03.2017 01:42 6,5 °C 6,5 °C 91 % 1012,8 hPa 0,0 mm 16,8 km/h (3 Bft) W-SW 246 ° 0 min 0,000 mm 0,0 UV-I 0 W/m² 5,1 °C 3,4 °C 24,1 km/h (4 Bft)
19.03.2017 01:43 6,5 °C 6,5 °C 91 % 1012,8 hPa 0,0 mm 16,4 km/h (3 Bft) W 273 ° 0 min 0,000 mm 0,0 UV-I 0 W/m² 5,1 °C 3,4 °C 22,5 km/h (4 Bft)
19.03.2017 01:44 6,5 °C 6,5 °C 91 % 1012,8 hPa 0,0 mm 15,7 km/h (3 Bft) W-SW 242 ° 0 min 0,000 mm 0,0 UV-I 0 W/m² 5,1 °C 3,5 °C 24,1 km/h (4 Bft)
19.03.2017 01:45 6,5 °C 6,5 °C 91 % 1012,8 hPa 0,0 mm 19,2 km/h (3 Bft) W-SW 252 ° 0 min 0,000 mm 0,0 UV-I 0 W/m² 5,1 °C 3,1 °C 30,6 km/h (5 Bft)
19.03.2017 01:46 6,4 °C 6,5 °C 91 % 1012,8 hPa 0,0 mm 21,8 km/h (4 Bft) W-SW 244 ° 0 min 0,000 mm 0,0 UV-I 0 W/m² 5,0 °C 2,6 °C 30,6 km/h (5 Bft)
19.03.2017 01:47 6,4 °C 6,5 °C 91 % 1012,8 hPa 0,0 mm 14,8 km/h (3 Bft) W 273 ° 0 min 0,000 mm 0,0 UV-I 0 W/m² 5,0 °C 3,5 °C 27,4 km/h (4 Bft)
19.03.2017 01:48 6,4 °C 6,5 °C 91 % 1012,8 hPa 0,0 mm 16,8 km/h (3 Bft) W 269 ° 0 min 0,000 mm 0,0 UV-I 0 W/m² 5,0 °C 3,2 °C 24,1 km/h (4 Bft)
19.03.2017 01:49 6,5 °C 6,5 °C 91 % 1012,8 hPa 0,2 mm 17,2 km/h (3 Bft) W 260 ° 0 min 0,000 mm 0,0 UV-I 0 W/m² 5,1 °C 3,3 °C 22,5 km/h (4 Bft)
19.03.2017 01:50 6,4 °C 6,5 °C 91 % 1012,8 hPa 0,0 mm 19,3 km/h (3 Bft) W-SW 253 ° 0 min 0,000 mm 0,0 UV-I 0 W/m² 5,0 °C 2,9 °C 27,4 km/h (4 Bft)
19.03.2017 01:51 6,4 °C 6,4 °C 91 % 1012,8 hPa 0,0 mm 16,5 km/h (3 Bft) W 264 ° 0 min 0,000 mm 0,0 UV-I 0 W/m² 5,0 °C 3,3 °C 25,7 km/h (4 Bft)
19.03.2017 01:52 6,4 °C 6,4 °C 91 % 1012,8 hPa 0,0 mm 13,9 km/h (3 Bft) SW 227 ° 0 min 0,000 mm 0,0 UV-I 0 W/m² 5,0 °C 3,6 °C 22,5 km/h (4 Bft)
19.03.2017 01:53 6,4 °C 6,4 °C 91 % 1012,8 hPa 0,0 mm 15,0 km/h (3 Bft) W-SW 257 ° 0 min 0,000 mm 0,0 UV-I 0 W/m² 5,0 °C 3,5 °C 19,3 km/h (3 Bft)
19.03.2017 01:54 6,4 °C 6,4 °C 91 % 1012,8 hPa 0,0 mm 13,5 km/h (3 Bft) W-SW 240 ° 0 min 0,000 mm 0,0 UV-I 0 W/m² 5,0 °C 3,7 °C 17,7 km/h (3 Bft)
19.03.2017 01:55 6,4 °C 6,4 °C 91 % 1012,8 hPa 0,0 mm 11,3 km/h (2 Bft) W-SW 253 ° 0 min 0,000 mm 0,0 UV-I 0 W/m² 5,0 °C 4,1 °C 14,5 km/h (3 Bft)
19.03.2017 01:56 6,4 °C 6,4 °C 92 % 1012,8 hPa 0,0 mm 17,6 km/h (3 Bft) W 265 ° 0 min 0,000 mm 0,0 UV-I 0 W/m² 5,2 °C 3,1 °C 24,1 km/h (4 Bft)
19.03.2017 01:57 6,4 °C 6,4 °C 92 % 1012,8 hPa 0,0 mm 15,0 km/h (3 Bft) W 271 ° 0 min 0,000 mm 0,0 UV-I 0 W/m² 5,2 °C 3,5 °C 22,5 km/h (4 Bft)
19.03.2017 01:58 6,4 °C 6,4 °C 92 % 1012,8 hPa 0,0 mm 14,5 km/h (3 Bft) W-SW 257 ° 0 min 0,000 mm 0,0 UV-I 0 W/m² 5,2 °C 3,5 °C 19,3 km/h (3 Bft)
19.03.2017 01:59 6,3 °C 6,4 °C 92 % 1012,8 hPa 0,0 mm 12,1 km/h (2 Bft) SW 233 ° 0 min 0,000 mm 0,0 UV-I 0 W/m² 5,1 °C 3,8 °C 16,1 km/h (3 Bft)
19.03.2017 02:00 6,4 °C 6,4 °C 92 % 1012,8 hPa 0,0 mm 14,1 km/h (3 Bft) W-SW 239 ° 0 min 0,000 mm 0,0 UV-I 0 W/m² 5,2 °C 3,6 °C 19,3 km/h (3 Bft)
19.03.2017 02:01 6,3 °C 6,4 °C 92 % 1012,8 hPa 0,2 mm 15,6 km/h (3 Bft) W 273 ° 0 min 0,026 mm 0,0 UV-I 0 W/m² 5,1 °C 3,3 °C 24,1 km/h (4 Bft)
19.03.2017 02:02 6,3 °C 6,3 °C 92 % 1012,7 hPa 0,0 mm 13,0 km/h (3 Bft) W 261 ° 0 min 0,000 mm 0,0 UV-I 0 W/m² 5,1 °C 3,7 °C 19,3 km/h (3 Bft)
19.03.2017 02:03 6,3 °C 6,3 °C 92 % 1012,7 hPa 0,0 mm 15,9 km/h (3 Bft) W-SW 248 ° 0 min 0,000 mm 0,0 UV-I 0 W/m² 5,1 °C 3,2 °C 24,1 km/h (4 Bft)
19.03.2017 02:04 6,3 °C 6,3 °C 92 % 1012,7 hPa 0,0 mm 12,7 km/h (3 Bft) W 261 ° 0 min 0,000 mm 0,0 UV-I 0 W/m² 5,1 °C 3,7 °C 17,7 km/h (3 Bft)
19.03.2017 02:05 6,3 °C 6,3 °C 92 % 1012,7 hPa 0,0 mm 12,2 km/h (2 Bft) W-SW 255 ° 0 min 0,000 mm 0,0 UV-I 0 W/m² 5,1 °C 3,8 °C 16,1 km/h (3 Bft)
19.03.2017 02:06 6,3 °C 6,3 °C 92 % 1012,7 hPa 0,2 mm 19,1 km/h (3 Bft) W-SW 256 ° 0 min 0,000 mm 0,0 UV-I 0 W/m² 5,1 °C 2,8 °C 22,5 km/h (4 Bft)
19.03.2017 02:07 6,3 °C 6,3 °C 92 % 1012,7 hPa 0,0 mm 16,1 km/h (3 Bft) W-SW 255 ° 0 min 0,000 mm 0,0 UV-I 0 W/m² 5,1 °C 3,2 °C 17,7 km/h (3 Bft)
19.03.2017 02:08 6,3 °C 6,3 °C 92 % 1012,7 hPa 0,0 mm 12,3 km/h (3 Bft) W-SW 244 ° 0 min 0,000 mm 0,0 UV-I 0 W/m² 5,1 °C 3,8 °C 16,1 km/h (3 Bft)
19.03.2017 02:09 6,3 °C 6,3 °C 92 % 1012,7 hPa 0,0 mm 15,0 km/h (3 Bft) W-SW 252 ° 0 min 0,000 mm 0,0 UV-I 0 W/m² 5,1 °C 3,4 °C 19,3 km/h (3 Bft)
19.03.2017 02:10 6,3 °C 6,3 °C 92 % 1012,7 hPa 0,0 mm 18,1 km/h (3 Bft) SW 232 ° 0 min 0,000 mm 0,0 UV-I 0 W/m² 5,1 °C 2,9 °C 24,1 km/h (4 Bft)
19.03.2017 02:11 6,3 °C 6,3 °C 92 % 1012,7 hPa 0,2 mm 12,2 km/h (2 Bft) W-SW 248 ° 0 min 0,000 mm 0,0 UV-I 0 W/m² 5,1 °C 3,8 °C 24,1 km/h (4 Bft)
19.03.2017 02:12 6,3 °C 6,3 °C 92 % 1012,7 hPa 0,0 mm 13,4 km/h (3 Bft) W-SW 237 ° 0 min 0,000 mm 0,0 UV-I 0 W/m² 5,1 °C 3,6 °C 24,1 km/h (4 Bft)
19.03.2017 02:13 6,3 °C 6,3 °C 92 % 1012,7 hPa 0,0 mm 17,2 km/h (3 Bft) W-NW 282 ° 0 min 0,000 mm 0,0 UV-I 0 W/m² 5,1 °C 3,0 °C 22,5 km/h (4 Bft)
19.03.2017 02:14 6,3 °C 6,3 °C 92 % 1012,8 hPa 0,0 mm 17,3 km/h (3 Bft) SW 232 ° 0 min 0,000 mm 0,0 UV-I 0 W/m² 5,1 °C 3,0 °C 24,1 km/h (4 Bft)
19.03.2017 02:15 6,3 °C 6,3 °C 92 % 1012,8 hPa 0,2 mm 19,8 km/h (3 Bft) W 277 ° 0 min 0,000 mm 0,0 UV-I 0 W/m² 5,1 °C 2,7 °C 24,1 km/h (4 Bft)
19.03.2017 02:16 6,3 °C 6,3 °C 92 % 1012,7 hPa 0,0 mm 21,0 km/h (4 Bft) W 280 ° 0 min 0,000 mm 0,0 UV-I 0 W/m² 5,1 °C 2,6 °C 29,0 km/h (5 Bft)
19.03.2017 02:17 6,3 °C 6,3 °C 92 % 1012,8 hPa 0,0 mm 18,5 km/h (3 Bft) W-NW 290 ° 0 min 0,000 mm 0,0 UV-I 0 W/m² 5,1 °C 2,9 °C 24,1 km/h (4 Bft)
19.03.2017 02:18 6,3 °C 6,3 °C 92 % 1012,7 hPa 0,0 mm 14,8 km/h (3 Bft) W-SW 256 ° 0 min 0,000 mm 0,0 UV-I 0 W/m² 5,1 °C 3,4 °C 19,3 km/h (3 Bft)
19.03.2017 02:19 6,3 °C 6,3 °C 92 % 1012,8 hPa 0,0 mm 12,7 km/h (3 Bft) W-SW 254 ° 0 min 0,000 mm 0,0 UV-I 0 W/m² 5,1 °C 3,7 °C 19,3 km/h (3 Bft)
19.03.2017 02:20 6,3 °C 6,3 °C 93 % 1012,8 hPa 0,0 mm 14,3 km/h (3 Bft) W 268 ° 0 min 0,000 mm 0,0 UV-I 0 W/m² 5,3 °C 3,5 °C 20,9 km/h (4 Bft)
19.03.2017 02:21 6,3 °C 6,3 °C 92 % 1012,7 hPa 0,2 mm 16,7 km/h (3 Bft) W 271 ° 0 min 0,000 mm 0,0 UV-I 0 W/m² 5,1 °C 3,1 °C 22,5 km/h (4 Bft)
19.03.2017 02:22 6,3 °C 6,3 °C 92 % 1012,7 hPa 0,0 mm 8,4 km/h (2 Bft) SW 236 ° 0 min 0,000 mm 0,0 UV-I 0 W/m² 5,1 °C 4,6 °C 14,5 km/h (3 Bft)
19.03.2017 02:23 6,3 °C 6,3 °C 92 % 1012,8 hPa 0,0 mm 11,4 km/h (2 Bft) W 259 ° 0 min 0,000 mm 0,0 UV-I 0 W/m² 5,1 °C 3,9 °C 16,1 km/h (3 Bft)
19.03.2017 02:24 6,3 °C 6,3 °C 92 % 1012,7 hPa 0,2 mm 14,8 km/h (3 Bft) W-SW 248 ° 0 min 0,000 mm 0,0 UV-I 0 W/m² 5,1 °C 3,4 °C 19,3 km/h (3 Bft)
19.03.2017 02:25 6,3 °C 6,3 °C 93 % 1012,8 hPa 0,0 mm 11,3 km/h (2 Bft) W-SW 245 ° 0 min 0,000 mm 0,0 UV-I 0 W/m² 5,3 °C 4,0 °C 16,1 km/h (3 Bft)
19.03.2017 02:26 6,3 °C 6,3 °C 93 % 1012,7 hPa 0,0 mm 20,0 km/h (4 Bft) W-SW 251 ° 0 min 0,000 mm 0,0 UV-I 0 W/m² 5,3 °C 2,7 °C 24,1 km/h (4 Bft)
19.03.2017 02:27 6,3 °C 6,3 °C 92 % 1012,7 hPa 0,0 mm 18,2 km/h (3 Bft) W-SW 244 ° 0 min 0,000 mm 0,0 UV-I 0 W/m² 5,1 °C 2,9 °C 30,6 km/h (5 Bft)
19.03.2017 02:28 6,3 °C 6,3 °C 93 % 1012,7 hPa 0,2 mm 14,3 km/h (3 Bft) W-SW 241 ° 0 min 0,000 mm 0,0 UV-I 0 W/m² 5,3 °C 3,5 °C 20,9 km/h (4 Bft)
19.03.2017 02:29 6,3 °C 6,3 °C 93 % 1012,7 hPa 0,0 mm 15,3 km/h (3 Bft) W-NW 288 ° 0 min 0,000 mm 0,0 UV-I 0 W/m² 5,3 °C 3,3 °C 17,7 km/h (3 Bft)
19.03.2017 02:30 6,3 °C 6,3 °C 93 % 1012,7 hPa 0,0 mm 13,4 km/h (3 Bft) W 263 ° 0 min 0,000 mm 0,0 UV-I 0 W/m² 5,3 °C 3,6 °C 19,3 km/h (3 Bft)
19.03.2017 02:31 6,3 °C 6,3 °C 93 % 1012,6 hPa 0,0 mm 14,7 km/h (3 Bft) SW 235 ° 0 min 0,000 mm 0,0 UV-I 0 W/m² 5,3 °C 3,4 °C 25,7 km/h (4 Bft)
19.03.2017 02:32 6,3 °C 6,3 °C 93 % 1012,7 hPa 0,2 mm 13,8 km/h (3 Bft) W 278 ° 0 min 0,000 mm 0,0 UV-I 0 W/m² 5,3 °C 3,5 °C 22,5 km/h (4 Bft)
19.03.2017 02:33 6,3 °C 6,3 °C 93 % 1012,7 hPa 0,0 mm 13,4 km/h (3 Bft) W 267 ° 0 min 0,000 mm 0,0 UV-I 0 W/m² 5,3 °C 3,6 °C 20,9 km/h (4 Bft)
19.03.2017 02:34 6,4 °C 6,4 °C 93 % 1012,6 hPa 0,0 mm 14,3 km/h (3 Bft) W-NW 284 ° 0 min 0,000 mm 0,0 UV-I 0 W/m² 5,4 °C 3,6 °C 19,3 km/h (3 Bft)
19.03.2017 02:35 6,3 °C 6,4 °C 93 % 1012,7 hPa 0,0 mm 14,6 km/h (3 Bft) W-SW 248 ° 0 min 0,000 mm 0,0 UV-I 0 W/m² 5,3 °C 3,4 °C 19,3 km/h (3 Bft)
19.03.2017 02:36 6,4 °C 6,4 °C 93 % 1012,7 hPa 0,2 mm 11,3 km/h (2 Bft) W-SW 243 ° 0 min 0,000 mm 0,0 UV-I 0 W/m² 5,4 °C 4,1 °C 16,1 km/h (3 Bft)
19.03.2017 02:37 6,3 °C 6,4 °C 93 % 1012,6 hPa 0,0 mm 13,1 km/h (3 Bft) W-SW 248 ° 0 min 0,000 mm 0,0 UV-I 0 W/m² 5,3 °C 3,6 °C 17,7 km/h (3 Bft)
19.03.2017 02:38 6,3 °C 6,3 °C 92 % 1012,7 hPa 0,0 mm 10,8 km/h (2 Bft) W-SW 244 ° 0 min 0,000 mm 0,0 UV-I 0 W/m² 5,1 °C 4,1 °C 14,5 km/h (3 Bft)
19.03.2017 02:39 6,3 °C 6,4 °C 92 % 1012,6 hPa 0,2 mm 9,4 km/h (2 Bft) W 270 ° 0 min 0,000 mm 0,0 UV-I 0 W/m² 5,1 °C 4,3 °C 12,9 km/h (3 Bft)
19.03.2017 02:40 6,3 °C 6,3 °C 93 % 1012,6 hPa 0,0 mm 17,2 km/h (3 Bft) W-SW 251 ° 0 min 0,000 mm 0,0 UV-I 0 W/m² 5,3 °C 3,0 °C 25,7 km/h (4 Bft)
19.03.2017 02:41 6,3 °C 6,3 °C 92 % 1012,5 hPa 0,0 mm 14,3 km/h (3 Bft) W 270 ° 0 min 0,000 mm 0,0 UV-I 0 W/m² 5,1 °C 3,5 °C 17,7 km/h (3 Bft)
19.03.2017 02:42 6,3 °C 6,3 °C 93 % 1012,6 hPa 0,2 mm 13,9 km/h (3 Bft) W 263 ° 0 min 0,000 mm 0,0 UV-I 0 W/m² 5,3 °C 3,5 °C 19,3 km/h (3 Bft)
19.03.2017 02:43 6,3 °C 6,3 °C 93 % 1012,6 hPa 0,0 mm 11,0 km/h (2 Bft) W-SW 254 ° 0 min 0,000 mm 0,0 UV-I 0 W/m² 5,3 °C 4,0 °C 19,3 km/h (3 Bft)
19.03.2017 02:44 6,3 °C 6,4 °C 93 % 1012,6 hPa 0,0 mm 14,8 km/h (3 Bft) W 266 ° 0 min 0,000 mm 0,0 UV-I 0 W/m² 5,3 °C 3,4 °C 25,7 km/h (4 Bft)
19.03.2017 02:45 6,3 °C 6,3 °C 93 % 1012,6 hPa 0,0 mm 16,6 km/h (3 Bft) W 263 ° 0 min 0,000 mm 0,0 UV-I 0 W/m² 5,3 °C 3,1 °C 20,9 km/h (4 Bft)
19.03.2017 02:46 6,3 °C 6,4 °C 93 % 1012,7 hPa 0,2 mm 13,9 km/h (3 Bft) W 269 ° 0 min 0,000 mm 0,0 UV-I 0 W/m² 5,3 °C 3,5 °C 17,7 km/h (3 Bft)
19.03.2017 02:47 6,4 °C 6,4 °C 93 % 1012,7 hPa 0,0 mm 12,9 km/h (3 Bft) SW 234 ° 0 min 0,000 mm 0,0 UV-I 0 W/m² 5,4 °C 3,8 °C 17,7 km/h (3 Bft)
19.03.2017 02:48 6,3 °C 6,4 °C 93 % 1012,6 hPa 0,0 mm 13,3 km/h (3 Bft) W-SW 251 ° 0 min 0,000 mm 0,0 UV-I 0 W/m² 5,3 °C 3,6 °C 19,3 km/h (3 Bft)
19.03.2017 02:49 6,3 °C 6,4 °C 93 % 1012,6 hPa 0,0 mm 16,2 km/h (3 Bft) NW 308 ° 0 min 0,000 mm 0,0 UV-I 0 W/m² 5,3 °C 3,2 °C 20,9 km/h (4 Bft)
19.03.2017 02:50 6,4 °C 6,4 °C 92 % 1012,6 hPa 0,0 mm 15,6 km/h (3 Bft) SW 232 ° 0 min 0,000 mm 0,0 UV-I 0 W/m² 5,2 °C 3,4 °C 20,9 km/h (4 Bft)
19.03.2017 02:51 6,4 °C 6,4 °C 93 % 1012,6 hPa 0,2 mm 14,4 km/h (3 Bft) W 260 ° 0 min 0,000 mm 0,0 UV-I 0 W/m² 5,4 °C 3,6 °C 20,9 km/h (4 Bft)
19.03.2017 02:52 6,4 °C 6,4 °C 93 % 1012,6 hPa 0,0 mm 12,1 km/h (2 Bft) W 264 ° 0 min 0,000 mm 0,0 UV-I 0 W/m² 5,4 °C 3,9 °C 17,7 km/h (3 Bft)
19.03.2017 02:53 6,4 °C 6,4 °C 93 % 1012,6 hPa 0,0 mm 15,0 km/h (3 Bft) W 261 ° 0 min 0,000 mm 0,0 UV-I 0 W/m² 5,4 °C 3,5 °C 20,9 km/h (4 Bft)
19.03.2017 02:54 6,4 °C 6,4 °C 93 % 1012,6 hPa 0,2 mm 14,6 km/h (3 Bft) W-SW 248 ° 0 min 0,000 mm 0,0 UV-I 0 W/m² 5,4 °C 3,5 °C 20,9 km/h (4 Bft)
19.03.2017 02:55 6,4 °C 6,4 °C 93 % 1012,5 hPa 0,0 mm 14,6 km/h (3 Bft) W 266 ° 0 min 0,000 mm 0,0 UV-I 0 W/m² 5,4 °C 3,5 °C 24,1 km/h (4 Bft)
19.03.2017 02:56 6,4 °C 6,4 °C 93 % 1012,5 hPa 0,0 mm 14,2 km/h (3 Bft) W-SW 242 ° 0 min 0,000 mm 0,0 UV-I 0 W/m² 5,4 °C 3,6 °C 25,7 km/h (4 Bft)
19.03.2017 02:57 6,3 °C 6,4 °C 92 % 1012,6 hPa 0,0 mm 12,3 km/h (3 Bft) W-SW 250 ° 0 min 0,000 mm 0,0 UV-I 0 W/m² 5,1 °C 3,8 °C 16,1 km/h (3 Bft)
19.03.2017 02:58 6,3 °C 6,4 °C 93 % 1012,6 hPa 0,2 mm 13,5 km/h (3 Bft) W 260 ° 0 min 0,000 mm 0,0 UV-I 0 W/m² 5,3 °C 3,6 °C 17,7 km/h (3 Bft)
19.03.2017 02:59 6,4 °C 6,4 °C 93 % 1012,6 hPa 0,0 mm 12,3 km/h (3 Bft) W 276 ° 0 min 0,000 mm 0,0 UV-I 0 W/m² 5,4 °C 3,9 °C 16,1 km/h (3 Bft)
19.03.2017 03:00 6,4 °C 6,4 °C 92 % 1012,6 hPa 0,0 mm 12,9 km/h (3 Bft) W 261 ° 0 min 0,000 mm 0,0 UV-I 0 W/m² 5,2 °C 3,8 °C 17,7 km/h (3 Bft)
19.03.2017 03:01 6,4 °C 6,4 °C 92 % 1012,5 hPa 0,2 mm 13,0 km/h (3 Bft) W 277 ° 0 min 0,000 mm 0,0 UV-I 0 W/m² 5,2 °C 3,8 °C 20,9 km/h (4 Bft)
19.03.2017 03:03 6,3 °C 6,4 °C 93 % 1012,6 hPa 0,0 mm 14,9 km/h (3 Bft) W-SW 243 ° 0 min 0,000 mm 0,0 UV-I 0 W/m² 5,3 °C 3,4 °C 20,9 km/h (4 Bft)
19.03.2017 03:04 6,4 °C 6,4 °C 93 % 1012,6 hPa 0,0 mm 14,3 km/h (3 Bft) W 276 ° 0 min 0,000 mm 0,0 UV-I 0 W/m² 5,4 °C 3,6 °C 20,9 km/h (4 Bft)
19.03.2017 03:05 6,4 °C 6,4 °C 93 % 1012,5 hPa 0,0 mm 11,5 km/h (2 Bft) W-SW 245 ° 0 min 0,000 mm 0,0 UV-I 0 W/m² 5,4 °C 4,0 °C 16,1 km/h (3 Bft)
19.03.2017 03:06 6,4 °C 6,4 °C 92 % 1012,5 hPa 0,0 mm 16,2 km/h (3 Bft) W-SW 243 ° 0 min 0,000 mm 0,0 UV-I 0 W/m² 5,2 °C 3,3 °C 24,1 km/h (4 Bft)
19.03.2017 03:07 6,4 °C 6,4 °C 92 % 1012,5 hPa 0,0 mm 16,2 km/h (3 Bft) W-SW 251 ° 0 min 0,000 mm 0,0 UV-I 0 W/m² 5,2 °C 3,3 °C 27,4 km/h (4 Bft)
19.03.2017 03:08 6,4 °C 6,4 °C 92 % 1012,5 hPa 0,2 mm 16,7 km/h (3 Bft) W-SW 244 ° 0 min 0,000 mm 0,0 UV-I 0 W/m² 5,2 °C 3,2 °C 24,1 km/h (4 Bft)
19.03.2017 03:09 6,4 °C 6,5 °C 92 % 1012,6 hPa 0,0 mm 14,8 km/h (3 Bft) W-SW 247 ° 0 min 0,000 mm 0,0 UV-I 0 W/m² 5,2 °C 3,5 °C 20,9 km/h (4 Bft)
19.03.2017 03:10 6,5 °C 6,5 °C 92 % 1012,5 hPa 0,0 mm 17,0 km/h (3 Bft) W 262 ° 0 min 0,000 mm 0,0 UV-I 0 W/m² 5,3 °C 3,3 °C 24,1 km/h (4 Bft)
19.03.2017 03:11 6,5 °C 6,5 °C 92 % 1012,5 hPa 0,0 mm 15,9 km/h (3 Bft) W 263 ° 0 min 0,000 mm 0,0 UV-I 0 W/m² 5,3 °C 3,5 °C 24,1 km/h (4 Bft)
19.03.2017 03:12 6,5 °C 6,5 °C 92 % 1012,5 hPa 0,0 mm 14,4 km/h (3 Bft) W-SW 250 ° 0 min 0,000 mm 0,0 UV-I 0 W/m² 5,3 °C 3,7 °C 17,7 km/h (3 Bft)
19.03.2017 03:13 6,5 °C 6,5 °C 92 % 1012,5 hPa 0,2 mm 15,2 km/h (3 Bft) W-SW 257 ° 0 min 0,000 mm 0,0 UV-I 0 W/m² 5,3 °C 3,6 °C 17,7 km/h (3 Bft)
19.03.2017 03:14 6,5 °C 6,5 °C 92 % 1012,5 hPa 0,0 mm 15,8 km/h (3 Bft) W-SW 255 ° 0 min 0,000 mm 0,0 UV-I 0 W/m² 5,3 °C 3,5 °C 22,5 km/h (4 Bft)
19.03.2017 03:15 6,5 °C 6,5 °C 92 % 1012,5 hPa 0,0 mm 12,9 km/h (3 Bft) W-SW 240 ° 0 min 0,000 mm 0,0 UV-I 0 W/m² 5,3 °C 3,9 °C 17,7 km/h (3 Bft)
19.03.2017 03:16 6,5 °C 6,6 °C 92 % 1012,5 hPa 0,0 mm 14,9 km/h (3 Bft) W-SW 249 ° 0 min 0,000 mm 0,0 UV-I 0 W/m² 5,3 °C 3,6 °C 24,1 km/h (4 Bft)
19.03.2017 03:17 6,5 °C 6,6 °C 92 % 1012,5 hPa 0,0 mm 15,4 km/h (3 Bft) W-SW 255 ° 0 min 0,000 mm 0,0 UV-I 0 W/m² 5,3 °C 3,5 °C 19,3 km/h (3 Bft)
19.03.2017 03:18 6,6 °C 6,6 °C 92 % 1012,4 hPa 0,2 mm 14,3 km/h (3 Bft) W-SW 252 ° 0 min 0,000 mm 0,0 UV-I 0 W/m² 5,4 °C 3,8 °C 19,3 km/h (3 Bft)
19.03.2017 03:19 6,5 °C 6,6 °C 92 % 1012,5 hPa 0,0 mm 13,9 km/h (3 Bft) W-SW 252 ° 0 min 0,000 mm 0,0 UV-I 0 W/m² 5,3 °C 3,8 °C 17,7 km/h (3 Bft)
19.03.2017 03:20 6,5 °C 6,6 °C 92 % 1012,5 hPa 0,0 mm 15,5 km/h (3 Bft) W-SW 253 ° 0 min 0,000 mm 0,0 UV-I 0 W/m² 5,3 °C 3,5 °C 22,5 km/h (4 Bft)
19.03.2017 03:21 6,6 °C 6,6 °C 92 % 1012,5 hPa 0,0 mm 14,5 km/h (3 Bft) W 269 ° 0 min 0,000 mm 0,0 UV-I 0 W/m² 5,4 °C 3,8 °C 22,5 km/h (4 Bft)
19.03.2017 03:22 6,6 °C 6,6 °C 92 % 1012,5 hPa 0,0 mm 12,9 km/h (3 Bft) SW 236 ° 0 min 0,000 mm 0,0 UV-I 0 W/m² 5,4 °C 4,0 °C 17,7 km/h (3 Bft)
19.03.2017 03:23 6,6 °C 6,6 °C 92 % 1012,4 hPa 0,2 mm 12,3 km/h (3 Bft) W 271 ° 0 min 0,000 mm 0,0 UV-I 0 W/m² 5,4 °C 4,1 °C 17,7 km/h (3 Bft)
19.03.2017 03:24 6,6 °C 6,6 °C 92 % 1012,5 hPa 0,0 mm 14,6 km/h (3 Bft) W-SW 254 ° 0 min 0,000 mm 0,0 UV-I 0 W/m² 5,4 °C 3,8 °C 20,9 km/h (4 Bft)
19.03.2017 03:25 6,6 °C 6,6 °C 92 % 1012,4 hPa 0,0 mm 18,8 km/h (3 Bft) W-SW 258 ° 0 min 0,000 mm 0,0 UV-I 0 W/m² 5,4 °C 3,2 °C 24,1 km/h (4 Bft)
19.03.2017 03:26 6,6 °C 6,6 °C 92 % 1012,5 hPa 0,0 mm 18,9 km/h (3 Bft) W-SW 246 ° 0 min 0,000 mm 0,0 UV-I 0 W/m² 5,4 °C 3,2 °C 22,5 km/h (4 Bft)
19.03.2017 03:27 6,5 °C 6,6 °C 92 % 1012,4 hPa 0,0 mm 11,8 km/h (2 Bft) W-SW 246 ° 0 min 0,000 mm 0,0 UV-I 0 W/m² 5,3 °C 4,1 °C 16,1 km/h (3 Bft)
19.03.2017 03:28 6,5 °C 6,6 °C 92 % 1012,5 hPa 0,0 mm 14,7 km/h (3 Bft) W-NW 285 ° 0 min 0,000 mm 0,0 UV-I 0 W/m² 5,3 °C 3,6 °C 22,5 km/h (4 Bft)
19.03.2017 03:29 6,5 °C 6,6 °C 92 % 1012,5 hPa 0,2 mm 14,7 km/h (3 Bft) W 272 ° 0 min 0,000 mm 0,0 UV-I 0 W/m² 5,3 °C 3,6 °C 22,5 km/h (4 Bft)
19.03.2017 03:30 6,6 °C 6,6 °C 92 % 1012,5 hPa 0,0 mm 18,8 km/h (3 Bft) W-SW 250 ° 0 min 0,000 mm 0,0 UV-I 0 W/m² 5,4 °C 3,2 °C 24,1 km/h (4 Bft)
19.03.2017 03:31 6,6 °C 6,6 °C 92 % 1012,5 hPa 0,0 mm 13,3 km/h (3 Bft) W 261 ° 0 min 0,000 mm 0,0 UV-I 0 W/m² 5,4 °C 4,0 °C 20,9 km/h (4 Bft)
19.03.2017 03:32 6,6 °C 6,6 °C 92 % 1012,5 hPa 0,0 mm 12,5 km/h (3 Bft) W 273 ° 0 min 0,000 mm 0,0 UV-I 0 W/m² 5,4 °C 4,1 °C 19,3 km/h (3 Bft)
19.03.2017 03:33 6,6 °C 6,6 °C 92 % 1012,5 hPa 0,0 mm 16,8 km/h (3 Bft) SW 230 ° 0 min 0,000 mm 0,0 UV-I 0 W/m² 5,4 °C 3,5 °C 22,5 km/h (4 Bft)
19.03.2017 03:34 6,6 °C 6,6 °C 92 % 1012,5 hPa 0,0 mm 14,8 km/h (3 Bft) W-SW 258 ° 0 min 0,000 mm 0,0 UV-I 0 W/m² 5,4 °C 3,8 °C 19,3 km/h (3 Bft)
19.03.2017 03:35 6,5 °C 6,6 °C 92 % 1012,5 hPa 0,2 mm 13,4 km/h (3 Bft) W 273 ° 0 min 0,000 mm 0,0 UV-I 0 W/m² 5,3 °C 3,8 °C 17,7 km/h (3 Bft)
19.03.2017 03:36 6,6 °C 6,6 °C 92 % 1012,4 hPa 0,0 mm 15,4 km/h (3 Bft) W 281 ° 0 min 0,000 mm 0,0 UV-I 0 W/m² 5,4 °C 3,7 °C 20,9 km/h (4 Bft)
19.03.2017 03:37 6,6 °C 6,6 °C 92 % 1012,5 hPa 0,0 mm 9,7 km/h (2 Bft) W 265 ° 0 min 0,000 mm 0,0 UV-I 0 W/m² 5,4 °C 4,6 °C 12,9 km/h (3 Bft)
19.03.2017 03:38 6,6 °C 6,6 °C 92 % 1012,5 hPa 0,0 mm 13,4 km/h (3 Bft) SW 221 ° 0 min 0,000 mm 0,0 UV-I 0 W/m² 5,4 °C 4,0 °C 17,7 km/h (3 Bft)
19.03.2017 03:39 6,6 °C 6,6 °C 92 % 1012,5 hPa 0,0 mm 10,8 km/h (2 Bft) W 265 ° 0 min 0,000 mm 0,0 UV-I 0 W/m² 5,4 °C 4,4 °C 16,1 km/h (3 Bft)
19.03.2017 03:40 6,5 °C 6,6 °C 92 % 1012,5 hPa 0,0 mm 13,5 km/h (3 Bft) W-SW 247 ° 0 min 0,000 mm 0,0 UV-I 0 W/m² 5,3 °C 3,8 °C 16,1 km/h (3 Bft)
19.03.2017 03:41 6,5 °C 6,6 °C 92 % 1012,5 hPa 0,2 mm 11,6 km/h (2 Bft) W 263 ° 0 min 0,000 mm 0,0 UV-I 0 W/m² 5,3 °C 4,1 °C 17,7 km/h (3 Bft)
19.03.2017 03:42 6,6 °C 6,6 °C 92 % 1012,5 hPa 0,0 mm 18,6 km/h (3 Bft) W-SW 242 ° 0 min 0,000 mm 0,0 UV-I 0 W/m² 5,4 °C 3,2 °C 29,0 km/h (5 Bft)
19.03.2017 03:43 6,5 °C 6,6 °C 92 % 1012,5 hPa 0,0 mm 18,8 km/h (3 Bft) W-SW 241 ° 0 min 0,000 mm 0,0 UV-I 0 W/m² 5,3 °C 3,1 °C 25,7 km/h (4 Bft)
19.03.2017 03:44 6,6 °C 6,6 °C 92 % 1012,4 hPa 0,0 mm 13,5 km/h (3 Bft) W 270 ° 0 min 0,000 mm 0,0 UV-I 0 W/m² 5,4 °C 3,9 °C 19,3 km/h (3 Bft)
19.03.2017 03:45 6,6 °C 6,6 °C 92 % 1012,5 hPa 0,0 mm 23,3 km/h (4 Bft) W 274 ° 0 min 0,000 mm 0,0 UV-I 0 W/m² 5,4 °C 2,7 °C 32,2 km/h (5 Bft)
19.03.2017 03:46 6,6 °C 6,6 °C 92 % 1012,3 hPa 0,0 mm 11,7 km/h (2 Bft) W 279 ° 0 min 0,000 mm 0,0 UV-I 0 W/m² 5,4 °C 4,2 °C 17,7 km/h (3 Bft)
19.03.2017 03:47 6,6 °C 6,6 °C 92 % 1012,4 hPa 0,2 mm 13,8 km/h (3 Bft) W-SW 246 ° 0 min 0,000 mm 0,0 UV-I 0 W/m² 5,4 °C 3,9 °C 24,1 km/h (4 Bft)
19.03.2017 03:48 6,6 °C 6,6 °C 92 % 1012,4 hPa 0,0 mm 21,5 km/h (4 Bft) W 273 ° 0 min 0,000 mm 0,0 UV-I 0 W/m² 5,4 °C 2,9 °C 32,2 km/h (5 Bft)
19.03.2017 03:49 6,6 °C 6,7 °C 92 % 1012,4 hPa 0,0 mm 11,7 km/h (2 Bft) W 280 ° 0 min 0,000 mm 0,0 UV-I 0 W/m² 5,4 °C 4,2 °C 17,7 km/h (3 Bft)
19.03.2017 03:50 6,7 °C 6,7 °C 92 % 1012,4 hPa 0,0 mm 15,4 km/h (3 Bft) W-NW 283 ° 0 min 0,000 mm 0,0 UV-I 0 W/m² 5,5 °C 3,8 °C 19,3 km/h (3 Bft)
19.03.2017 03:51 6,7 °C 6,7 °C 92 % 1012,4 hPa 0,0 mm 11,3 km/h (2 Bft) W-SW 242 ° 0 min 0,000 mm 0,0 UV-I 0 W/m² 5,5 °C 4,4 °C 14,5 km/h (3 Bft)
19.03.2017 03:52 6,6 °C 6,7 °C 92 % 1012,4 hPa 0,0 mm 14,7 km/h (3 Bft) W 261 ° 0 min 0,000 mm 0,0 UV-I 0 W/m² 5,4 °C 3,8 °C 24,1 km/h (4 Bft)
19.03.2017 03:53 6,6 °C 6,7 °C 92 % 1012,4 hPa 0,2 mm 14,9 km/h (3 Bft) W 259 ° 0 min 0,000 mm 0,0 UV-I 0 W/m² 5,4 °C 3,7 °C 19,3 km/h (3 Bft)
19.03.2017 03:54 6,6 °C 6,6 °C 92 % 1012,4 hPa 0,0 mm 15,8 km/h (3 Bft) W-SW 248 ° 0 min 0,000 mm 0,0 UV-I 0 W/m² 5,4 °C 3,6 °C 22,5 km/h (4 Bft)
19.03.2017 03:55 6,7 °C 6,7 °C 92 % 1012,4 hPa 0,0 mm 12,6 km/h (3 Bft) W 268 ° 0 min 0,000 mm 0,0 UV-I 0 W/m² 5,5 °C 4,2 °C 19,3 km/h (3 Bft)
19.03.2017 03:56 6,7 °C 6,7 °C 92 % 1012,5 hPa 0,0 mm 17,0 km/h (3 Bft) W-SW 244 ° 0 min 0,000 mm 0,0 UV-I 0 W/m² 5,5 °C 3,6 °C 25,7 km/h (4 Bft)
19.03.2017 03:57 6,7 °C 6,7 °C 92 % 1012,4 hPa 0,0 mm 14,2 km/h (3 Bft) W 273 ° 0 min 0,000 mm 0,0 UV-I 0 W/m² 5,5 °C 4,0 °C 24,1 km/h (4 Bft)
19.03.2017 03:58 6,7 °C 6,7 °C 92 % 1012,4 hPa 0,0 mm 15,2 km/h (3 Bft) W 261 ° 0 min 0,000 mm 0,0 UV-I 0 W/m² 5,5 °C 3,8 °C 25,7 km/h (4 Bft)
19.03.2017 03:59 6,7 °C 6,7 °C 92 % 1012,5 hPa 0,0 mm 19,4 km/h (3 Bft) W 266 ° 0 min 0,000 mm 0,0 UV-I 0 W/m² 5,5 °C 3,3 °C 25,7 km/h (4 Bft)
19.03.2017 04:00 6,7 °C 6,7 °C 92 % 1012,5 hPa 0,2 mm 17,2 km/h (3 Bft) SW 236 ° 0 min 0,000 mm 0,0 UV-I 0 W/m² 5,5 °C 3,5 °C 25,7 km/h (4 Bft)
19.03.2017 04:01 6,8 °C 6,8 °C 92 % 1012,5 hPa 0,0 mm 14,4 km/h (3 Bft) W-SW 252 ° 0 min 0,000 mm 0,0 UV-I 0 W/m² 5,6 °C 4,1 °C 20,9 km/h (4 Bft)
19.03.2017 04:02 6,8 °C 6,8 °C 92 % 1012,5 hPa 0,0 mm 13,7 km/h (3 Bft) W-SW 255 ° 0 min 0,000 mm 0,0 UV-I 0 W/m² 5,6 °C 4,2 °C 22,5 km/h (4 Bft)
19.03.2017 04:03 6,8 °C 6,8 °C 92 % 1012,5 hPa 0,0 mm 15,4 km/h (3 Bft) W-NW 282 ° 0 min 0,000 mm 0,0 UV-I 0 W/m² 5,6 °C 3,9 °C 24,1 km/h (4 Bft)
19.03.2017 04:04 6,8 °C 6,8 °C 92 % 1012,4 hPa 0,0 mm 9,5 km/h (2 Bft) W-SW 258 ° 0 min 0,000 mm 0,0 UV-I 0 W/m² 5,6 °C 4,9 °C 20,9 km/h (4 Bft)
19.03.2017 04:05 6,8 °C 6,8 °C 92 % 1012,4 hPa 0,0 mm 10,7 km/h (2 Bft) W-NW 288 ° 0 min 0,000 mm 0,0 UV-I 0 W/m² 5,6 °C 4,7 °C 16,1 km/h (3 Bft)
19.03.2017 04:06 6,8 °C 6,8 °C 92 % 1012,5 hPa 0,0 mm 12,0 km/h (2 Bft) W-SW 248 ° 0 min 0,000 mm 0,0 UV-I 0 W/m² 5,6 °C 4,4 °C 20,9 km/h (4 Bft)
19.03.2017 04:07 6,8 °C 6,8 °C 92 % 1012,4 hPa 0,0 mm 19,9 km/h (4 Bft) W 267 ° 0 min 0,000 mm 0,0 UV-I 0 W/m² 5,6 °C 3,3 °C 24,1 km/h (4 Bft)
19.03.2017 04:08 6,8 °C 6,8 °C 92 % 1012,4 hPa 0,2 mm 17,9 km/h (3 Bft) W-SW 256 ° 0 min 0,000 mm 0,0 UV-I 0 W/m² 5,6 °C 3,6 °C 22,5 km/h (4 Bft)
19.03.2017 04:09 6,8 °C 6,8 °C 92 % 1012,4 hPa 0,0 mm 18,5 km/h (3 Bft) W 272 ° 0 min 0,000 mm 0,0 UV-I 0 W/m² 5,6 °C 3,5 °C 24,1 km/h (4 Bft)
19.03.2017 04:10 6,8 °C 6,8 °C 92 % 1012,5 hPa 0,0 mm 17,3 km/h (3 Bft) W-SW 258 ° 0 min 0,000 mm 0,0 UV-I 0 W/m² 5,6 °C 3,7 °C 25,7 km/h (4 Bft)
19.03.2017 04:11 6,8 °C 6,8 °C 92 % 1012,5 hPa 0,0 mm 18,1 km/h (3 Bft) W 268 ° 0 min 0,000 mm 0,0 UV-I 0 W/m² 5,6 °C 3,6 °C 30,6 km/h (5 Bft)
19.03.2017 04:12 6,8 °C 6,8 °C 92 % 1012,5 hPa 0,0 mm 20,9 km/h (4 Bft) W 259 ° 0 min 0,000 mm 0,0 UV-I 0 W/m² 5,6 °C 3,2 °C 32,2 km/h (5 Bft)
19.03.2017 04:13 6,8 °C 6,8 °C 92 % 1012,6 hPa 0,0 mm 14,2 km/h (3 Bft) SW 229 ° 0 min 0,000 mm 0,0 UV-I 0 W/m² 5,6 °C 4,1 °C 19,3 km/h (3 Bft)
19.03.2017 04:14 6,8 °C 6,8 °C 92 % 1012,6 hPa 0,2 mm 12,4 km/h (3 Bft) W 267 ° 0 min 0,000 mm 0,0 UV-I 0 W/m² 5,6 °C 4,4 °C 17,7 km/h (3 Bft)
19.03.2017 04:15 6,8 °C 6,8 °C 92 % 1012,6 hPa 0,0 mm 15,9 km/h (3 Bft) W-SW 250 ° 0 min 0,000 mm 0,0 UV-I 0 W/m² 5,6 °C 3,8 °C 20,9 km/h (4 Bft)
19.03.2017 04:16 6,8 °C 6,8 °C 92 % 1012,6 hPa 0,0 mm 16,0 km/h (3 Bft) W 275 ° 0 min 0,000 mm 0,0 UV-I 0 W/m² 5,6 °C 3,8 °C 24,1 km/h (4 Bft)
19.03.2017 04:17 6,8 °C 6,8 °C 92 % 1012,6 hPa 0,0 mm 21,4 km/h (4 Bft) W-SW 239 ° 0 min 0,000 mm 0,0 UV-I 0 W/m² 5,6 °C 3,2 °C 29,0 km/h (5 Bft)
19.03.2017 04:18 6,9 °C 6,9 °C 92 % 1012,6 hPa 0,0 mm 17,1 km/h (3 Bft) W 260 ° 0 min 0,000 mm 0,0 UV-I 0 W/m² 5,7 °C 3,8 °C 27,4 km/h (4 Bft)
19.03.2017 04:19 6,8 °C 6,9 °C 92 % 1012,5 hPa 0,2 mm 15,0 km/h (3 Bft) W-SW 258 ° 0 min 0,000 mm 0,0 UV-I 0 W/m² 5,6 °C 4,0 °C 19,3 km/h (3 Bft)
19.03.2017 04:20 6,8 °C 6,9 °C 92 % 1012,5 hPa 0,0 mm 16,8 km/h (3 Bft) NW 306 ° 0 min 0,000 mm 0,0 UV-I 0 W/m² 5,6 °C 3,7 °C 22,5 km/h (4 Bft)
19.03.2017 04:21 6,9 °C 6,9 °C 92 % 1012,6 hPa 0,0 mm 10,6 km/h (2 Bft) W-SW 257 ° 0 min 0,000 mm 0,0 UV-I 0 W/m² 5,7 °C 4,8 °C 16,1 km/h (3 Bft)
19.03.2017 04:22 6,8 °C 6,9 °C 92 % 1012,6 hPa 0,0 mm 17,3 km/h (3 Bft) W-SW 242 ° 0 min 0,000 mm 0,0 UV-I 0 W/m² 5,6 °C 3,7 °C 24,1 km/h (4 Bft)
19.03.2017 04:23 6,9 °C 6,9 °C 92 % 1012,6 hPa 0,0 mm 15,6 km/h (3 Bft) W-SW 243 ° 0 min 0,000 mm 0,0 UV-I 0 W/m² 5,7 °C 4,0 °C 19,3 km/h (3 Bft)
19.03.2017 04:24 6,8 °C 6,9 °C 92 % 1012,6 hPa 0,2 mm 15,9 km/h (3 Bft) SW 228 ° 0 min 0,000 mm 0,0 UV-I 0 W/m² 5,6 °C 3,8 °C 22,5 km/h (4 Bft)
19.03.2017 04:25 6,8 °C 6,8 °C 92 % 1012,6 hPa 0,0 mm 16,1 km/h (3 Bft) SW 228 ° 0 min 0,000 mm 0,0 UV-I 0 W/m² 5,6 °C 3,8 °C 22,5 km/h (4 Bft)
19.03.2017 04:26 6,9 °C 6,9 °C 92 % 1012,5 hPa 0,0 mm 12,1 km/h (2 Bft) W-SW 254 ° 0 min 0,000 mm 0,0 UV-I 0 W/m² 5,7 °C 4,5 °C 17,7 km/h (3 Bft)
19.03.2017 04:27 6,8 °C 6,9 °C 92 % 1012,6 hPa 0,0 mm 15,4 km/h (3 Bft) W 270 ° 0 min 0,000 mm 0,0 UV-I 0 W/m² 5,6 °C 3,9 °C 22,5 km/h (4 Bft)
19.03.2017 04:28 6,9 °C 6,9 °C 92 % 1012,5 hPa 0,0 mm 18,7 km/h (3 Bft) W-SW 245 ° 0 min 0,000 mm 0,0 UV-I 0 W/m² 5,7 °C 3,6 °C 25,7 km/h (4 Bft)
19.03.2017 04:29 6,9 °C 6,9 °C 92 % 1012,6 hPa 0,0 mm 13,7 km/h (3 Bft) W 266 ° 0 min 0,000 mm 0,0 UV-I 0 W/m² 5,7 °C 4,3 °C 25,7 km/h (4 Bft)
19.03.2017 04:30 6,8 °C 6,9 °C 92 % 1012,6 hPa 0,2 mm 13,2 km/h (3 Bft) W-NW 302 ° 0 min 0,000 mm 0,0 UV-I 0 W/m² 5,6 °C 4,2 °C 22,5 km/h (4 Bft)
19.03.2017 04:31 6,9 °C 6,9 °C 92 % 1012,6 hPa 0,0 mm 19,2 km/h (3 Bft) W-SW 241 ° 0 min 0,000 mm 0,0 UV-I 0 W/m² 5,7 °C 3,6 °C 25,7 km/h (4 Bft)
19.03.2017 04:32 6,9 °C 6,9 °C 92 % 1012,6 hPa 0,0 mm 16,1 km/h (3 Bft) W-NW 295 ° 0 min 0,000 mm 0,0 UV-I 0 W/m² 5,7 °C 3,9 °C 24,1 km/h (4 Bft)
19.03.2017 04:33 6,9 °C 6,9 °C 92 % 1012,7 hPa 0,0 mm 17,3 km/h (3 Bft) W-SW 250 ° 0 min 0,000 mm 0,0 UV-I 0 W/m² 5,7 °C 3,8 °C 24,1 km/h (4 Bft)
19.03.2017 04:34 6,9 °C 6,9 °C 92 % 1012,8 hPa 0,0 mm 14,4 km/h (3 Bft) SW 235 ° 0 min 0,000 mm 0,0 UV-I 0 W/m² 5,7 °C 4,2 °C 19,3 km/h (3 Bft)
19.03.2017 04:35 6,9 °C 6,9 °C 92 % 1012,7 hPa 0,0 mm 11,7 km/h (2 Bft) SW 236 ° 0 min 0,000 mm 0,0 UV-I 0 W/m² 5,7 °C 4,6 °C 20,9 km/h (4 Bft)
19.03.2017 04:36 6,9 °C 6,9 °C 92 % 1012,7 hPa 0,0 mm 16,9 km/h (3 Bft) W 266 ° 0 min 0,000 mm 0,0 UV-I 0 W/m² 5,7 °C 3,8 °C 25,7 km/h (4 Bft)
19.03.2017 04:37 6,9 °C 6,9 °C 92 % 1012,7 hPa 0,2 mm 23,7 km/h (4 Bft) W 264 ° 0 min 0,000 mm 0,0 UV-I 0 W/m² 5,7 °C 3,1 °C 30,6 km/h (5 Bft)
19.03.2017 04:38 7,0 °C 7,0 °C 92 % 1012,8 hPa 0,0 mm 19,4 km/h (3 Bft) W-SW 258 ° 0 min 0,000 mm 0,0 UV-I 0 W/m² 5,8 °C 3,7 °C 29,0 km/h (5 Bft)
19.03.2017 04:39 7,0 °C 7,0 °C 92 % 1012,8 hPa 0,0 mm 17,6 km/h (3 Bft) W-SW 256 ° 0 min 0,000 mm 0,0 UV-I 0 W/m² 5,8 °C 3,9 °C 24,1 km/h (4 Bft)
19.03.2017 04:40 7,1 °C 7,1 °C 92 % 1012,8 hPa 0,0 mm 14,8 km/h (3 Bft) W-SW 257 ° 0 min 0,000 mm 0,0 UV-I 0 W/m² 5,9 °C 4,4 °C 20,9 km/h (4 Bft)
19.03.2017 04:41 7,1 °C 7,1 °C 92 % 1012,9 hPa 0,0 mm 16,5 km/h (3 Bft) W 264 ° 0 min 0,000 mm 0,0 UV-I 0 W/m² 5,9 °C 4,1 °C 25,7 km/h (4 Bft)
19.03.2017 04:42 7,0 °C 7,1 °C 92 % 1012,9 hPa 0,0 mm 16,2 km/h (3 Bft) W 271 ° 0 min 0,000 mm 0,0 UV-I 0 W/m² 5,8 °C 4,1 °C 22,5 km/h (4 Bft)
19.03.2017 04:43 7,1 °C 7,1 °C 92 % 1012,9 hPa 0,0 mm 19,4 km/h (3 Bft) W-SW 251 ° 0 min 0,000 mm 0,0 UV-I 0 W/m² 5,9 °C 3,8 °C 22,5 km/h (4 Bft)
19.03.2017 04:44 7,1 °C 7,1 °C 92 % 1012,9 hPa 0,2 mm 13,1 km/h (3 Bft) W 263 ° 0 min 0,000 mm 0,0 UV-I 0 W/m² 5,9 °C 4,6 °C 17,7 km/h (3 Bft)
19.03.2017 04:45 7,1 °C 7,1 °C 92 % 1012,9 hPa 0,0 mm 17,4 km/h (3 Bft) W-SW 257 ° 0 min 0,000 mm 0,0 UV-I 0 W/m² 5,9 °C 4,0 °C 27,4 km/h (4 Bft)
19.03.2017 04:46 7,1 °C 7,1 °C 92 % 1012,9 hPa 0,0 mm 23,0 km/h (4 Bft) W-SW 251 ° 0 min 0,000 mm 0,0 UV-I 0 W/m² 5,9 °C 3,4 °C 33,8 km/h (5 Bft)
19.03.2017 04:47 7,1 °C 7,1 °C 92 % 1012,9 hPa 0,0 mm 17,9 km/h (3 Bft) W 274 ° 0 min 0,000 mm 0,0 UV-I 0 W/m² 5,9 °C 4,0 °C 24,1 km/h (4 Bft)
19.03.2017 04:48 7,1 °C 7,1 °C 92 % 1012,9 hPa 0,2 mm 15,2 km/h (3 Bft) W 277 ° 0 min 0,000 mm 0,0 UV-I 0 W/m² 5,9 °C 4,3 °C 22,5 km/h (4 Bft)
19.03.2017 04:49 7,1 °C 7,1 °C 92 % 1013,0 hPa 0,0 mm 21,8 km/h (4 Bft) W 281 ° 0 min 0,000 mm 0,0 UV-I 0 W/m² 5,9 °C 3,5 °C 30,6 km/h (5 Bft)
19.03.2017 04:50 7,1 °C 7,1 °C 92 % 1012,9 hPa 0,0 mm 25,1 km/h (4 Bft) W 265 ° 0 min 0,000 mm 0,0 UV-I 0 W/m² 5,9 °C 3,2 °C 33,8 km/h (5 Bft)
19.03.2017 04:51 7,1 °C 7,1 °C 92 % 1012,9 hPa 0,0 mm 18,5 km/h (3 Bft) W 273 ° 0 min 0,000 mm 0,0 UV-I 0 W/m² 5,9 °C 3,9 °C 24,1 km/h (4 Bft)
19.03.2017 04:52 7,1 °C 7,2 °C 92 % 1013,0 hPa 0,0 mm 11,7 km/h (2 Bft) W 266 ° 0 min 0,000 mm 0,0 UV-I 0 W/m² 5,9 °C 4,9 °C 17,7 km/h (3 Bft)
19.03.2017 04:53 7,1 °C 7,2 °C 92 % 1013,0 hPa 0,2 mm 15,7 km/h (3 Bft) W 266 ° 0 min 0,000 mm 0,0 UV-I 0 W/m² 5,9 °C 4,2 °C 22,5 km/h (4 Bft)
19.03.2017 04:54 7,1 °C 7,2 °C 92 % 1013,1 hPa 0,0 mm 15,4 km/h (3 Bft) W 262 ° 0 min 0,000 mm 0,0 UV-I 0 W/m² 5,9 °C 4,3 °C 25,7 km/h (4 Bft)
19.03.2017 04:55 7,1 °C 7,1 °C 92 % 1013,1 hPa 0,0 mm 12,8 km/h (3 Bft) W 271 ° 0 min 0,000 mm 0,0 UV-I 0 W/m² 5,9 °C 4,7 °C 19,3 km/h (3 Bft)
19.03.2017 04:56 7,1 °C 7,1 °C 92 % 1013,1 hPa 0,2 mm 16,0 km/h (3 Bft) W 272 ° 0 min 0,000 mm 0,0 UV-I 0 W/m² 5,9 °C 4,2 °C 22,5 km/h (4 Bft)
19.03.2017 04:57 7,1 °C 7,1 °C 92 % 1013,1 hPa 0,0 mm 17,1 km/h (3 Bft) W 279 ° 0 min 0,000 mm 0,0 UV-I 0 W/m² 5,9 °C 4,1 °C 24,1 km/h (4 Bft)
19.03.2017 04:58 7,1 °C 7,1 °C 92 % 1013,1 hPa 0,0 mm 15,2 km/h (3 Bft) W-SW 246 ° 0 min 0,000 mm 0,0 UV-I 0 W/m² 5,9 °C 4,3 °C 19,3 km/h (3 Bft)
19.03.2017 04:59 7,1 °C 7,1 °C 92 % 1013,1 hPa 0,0 mm 17,5 km/h (3 Bft) W 269 ° 0 min 0,000 mm 0,0 UV-I 0 W/m² 5,9 °C 4,0 °C 20,9 km/h (4 Bft)
19.03.2017 05:00 7,1 °C 7,1 °C 92 % 1013,1 hPa 0,2 mm 16,3 km/h (3 Bft) W 263 ° 0 min 0,025 mm 0,0 UV-I 0 W/m² 5,9 °C 4,2 °C 22,5 km/h (4 Bft)
19.03.2017 05:01 7,1 °C 7,1 °C 92 % 1013,2 hPa 0,0 mm 12,9 km/h (3 Bft) W-SW 246 ° 0 min 0,000 mm 0,0 UV-I 0 W/m² 5,9 °C 4,7 °C 19,3 km/h (3 Bft)
19.03.2017 05:02 7,1 °C 7,1 °C 92 % 1013,2 hPa 0,2 mm 14,0 km/h (3 Bft) W 274 ° 0 min 0,000 mm 0,0 UV-I 0 W/m² 5,9 °C 4,5 °C 19,3 km/h (3 Bft)
19.03.2017 05:03 7,1 °C 7,1 °C 92 % 1013,2 hPa 0,0 mm 15,0 km/h (3 Bft) W-SW 251 ° 0 min 0,000 mm 0,0 UV-I 0 W/m² 5,9 °C 4,3 °C 20,9 km/h (4 Bft)
19.03.2017 05:04 7,1 °C 7,1 °C 92 % 1013,2 hPa 0,0 mm 15,6 km/h (3 Bft) W-SW 252 ° 0 min 0,000 mm 0,0 UV-I 0 W/m² 5,9 °C 4,3 °C 19,3 km/h (3 Bft)
19.03.2017 05:05 7,1 °C 7,1 °C 92 % 1013,2 hPa 0,2 mm 14,4 km/h (3 Bft) S-SW 197 ° 0 min 0,000 mm 0,0 UV-I 0 W/m² 5,9 °C 4,4 °C 20,9 km/h (4 Bft)
19.03.2017 05:06 7,0 °C 7,1 °C 92 % 1013,2 hPa 0,0 mm 13,5 km/h (3 Bft) W-SW 244 ° 0 min 0,000 mm 0,0 UV-I 0 W/m² 5,8 °C 4,4 °C 17,7 km/h (3 Bft)
19.03.2017 05:07 7,0 °C 7,1 °C 92 % 1013,2 hPa 0,0 mm 14,6 km/h (3 Bft) W 261 ° 0 min 0,000 mm 0,0 UV-I 0 W/m² 5,8 °C 4,3 °C 24,1 km/h (4 Bft)
19.03.2017 05:08 7,1 °C 7,1 °C 92 % 1013,1 hPa 0,2 mm 11,5 km/h (2 Bft) W-SW 251 ° 0 min 0,000 mm 0,0 UV-I 0 W/m² 5,9 °C 4,9 °C 20,9 km/h (4 Bft)
19.03.2017 05:09 7,1 °C 7,1 °C 92 % 1013,2 hPa 0,0 mm 16,4 km/h (3 Bft) W-SW 255 ° 0 min 0,000 mm 0,0 UV-I 0 W/m² 5,9 °C 4,1 °C 25,7 km/h (4 Bft)
19.03.2017 05:10 7,1 °C 7,1 °C 92 % 1013,2 hPa 0,0 mm 14,1 km/h (3 Bft) W-SW 253 ° 0 min 0,000 mm 0,0 UV-I 0 W/m² 5,9 °C 4,5 °C 20,9 km/h (4 Bft)
19.03.2017 05:11 7,1 °C 7,1 °C 92 % 1013,2 hPa 0,0 mm 14,2 km/h (3 Bft) S-SW 209 ° 0 min 0,000 mm 0,0 UV-I 0 W/m² 5,9 °C 4,5 °C 22,5 km/h (4 Bft)
19.03.2017 05:12 7,0 °C 7,1 °C 92 % 1013,2 hPa 0,2 mm 12,6 km/h (3 Bft) SW 234 ° 0 min 0,000 mm 0,0 UV-I 0 W/m² 5,8 °C 4,6 °C 17,7 km/h (3 Bft)
19.03.2017 05:13 7,1 °C 7,1 °C 92 % 1013,2 hPa 0,0 mm 12,7 km/h (3 Bft) W 271 ° 0 min 0,000 mm 0,0 UV-I 0 W/m² 5,9 °C 4,7 °C 17,7 km/h (3 Bft)
19.03.2017 05:14 7,0 °C 7,1 °C 92 % 1013,2 hPa 0,0 mm 10,0 km/h (2 Bft) W 265 ° 0 min 0,000 mm 0,0 UV-I 0 W/m² 5,8 °C 5,0 °C 16,1 km/h (3 Bft)
19.03.2017 05:15 7,1 °C 7,1 °C 92 % 1013,2 hPa 0,2 mm 12,2 km/h (2 Bft) SW 221 ° 0 min 0,000 mm 0,0 UV-I 0 W/m² 5,9 °C 4,8 °C 20,9 km/h (4 Bft)
19.03.2017 05:16 7,1 °C 7,1 °C 92 % 1013,2 hPa 0,0 mm 18,5 km/h (3 Bft) W 259 ° 0 min 0,000 mm 0,0 UV-I 0 W/m² 5,9 °C 3,9 °C 24,1 km/h (4 Bft)
19.03.2017 05:17 7,0 °C 7,1 °C 92 % 1013,2 hPa 0,0 mm 10,1 km/h (2 Bft) W 267 ° 0 min 0,000 mm 0,0 UV-I 0 W/m² 5,8 °C 5,0 °C 16,1 km/h (3 Bft)
19.03.2017 05:18 7,0 °C 7,1 °C 92 % 1013,2 hPa 0,0 mm 12,3 km/h (3 Bft) W-SW 242 ° 0 min 0,000 mm 0,0 UV-I 0 W/m² 5,8 °C 4,6 °C 16,1 km/h (3 Bft)
19.03.2017 05:19 7,0 °C 7,1 °C 92 % 1013,2 hPa 0,2 mm 17,0 km/h (3 Bft) W 267 ° 0 min 0,000 mm 0,0 UV-I 0 W/m² 5,8 °C 3,9 °C 33,8 km/h (5 Bft)
19.03.2017 05:20 7,1 °C 7,1 °C 92 % 1013,2 hPa 0,0 mm 13,1 km/h (3 Bft) W 263 ° 0 min 0,000 mm 0,0 UV-I 0 W/m² 5,9 °C 4,6 °C 22,5 km/h (4 Bft)
19.03.2017 05:21 7,1 °C 7,1 °C 92 % 1013,2 hPa 0,0 mm 15,8 km/h (3 Bft) W-SW 246 ° 0 min 0,000 mm 0,0 UV-I 0 W/m² 5,9 °C 4,2 °C 20,9 km/h (4 Bft)
19.03.2017 05:22 7,1 °C 7,1 °C 92 % 1013,2 hPa 0,0 mm 18,1 km/h (3 Bft) W-SW 257 ° 0 min 0,000 mm 0,0 UV-I 0 W/m² 5,9 °C 3,9 °C 30,6 km/h (5 Bft)
19.03.2017 05:23 7,1 °C 7,1 °C 92 % 1013,1 hPa 0,2 mm 18,5 km/h (3 Bft) S-SW 198 ° 0 min 0,000 mm 0,0 UV-I 0 W/m² 5,9 °C 3,9 °C 24,1 km/h (4 Bft)
19.03.2017 05:24 7,0 °C 7,1 °C 92 % 1013,1 hPa 0,0 mm 14,4 km/h (3 Bft) W-SW 238 ° 0 min 0,000 mm 0,0 UV-I 0 W/m² 5,8 °C 4,3 °C 24,1 km/h (4 Bft)
19.03.2017 05:25 7,1 °C 7,1 °C 92 % 1013,0 hPa 0,0 mm 12,7 km/h (3 Bft) W-SW 252 ° 0 min 0,000 mm 0,0 UV-I 0 W/m² 5,9 °C 4,7 °C 20,9 km/h (4 Bft)
19.03.2017 05:26 7,1 °C 7,1 °C 92 % 1013,1 hPa 0,2 mm 18,5 km/h (3 Bft) W-SW 244 ° 0 min 0,000 mm 0,0 UV-I 0 W/m² 5,9 °C 3,9 °C 29,0 km/h (5 Bft)
19.03.2017 05:27 7,0 °C 7,1 °C 92 % 1013,1 hPa 0,0 mm 15,7 km/h (3 Bft) W 265 ° 0 min 0,000 mm 0,0 UV-I 0 W/m² 5,8 °C 4,1 °C 20,9 km/h (4 Bft)
19.03.2017 05:28 7,1 °C 7,1 °C 92 % 1013,1 hPa 0,0 mm 16,4 km/h (3 Bft) W-SW 247 ° 0 min 0,000 mm 0,0 UV-I 0 W/m² 5,9 °C 4,1 °C 22,5 km/h (4 Bft)
19.03.2017 05:29 7,1 °C 7,1 °C 92 % 1013,0 hPa 0,0 mm 17,3 km/h (3 Bft) W 259 ° 0 min 0,000 mm 0,0 UV-I 0 W/m² 5,9 °C 4,0 °C 33,8 km/h (5 Bft)
19.03.2017 05:30 7,1 °C 7,1 °C 92 % 1013,1 hPa 0,0 mm 18,5 km/h (3 Bft) W-SW 254 ° 0 min 0,000 mm 0,0 UV-I 0 W/m² 5,9 °C 3,9 °C 25,7 km/h (4 Bft)
19.03.2017 05:31 7,1 °C 7,1 °C 92 % 1013,1 hPa 0,2 mm 13,9 km/h (3 Bft) W 274 ° 0 min 0,000 mm 0,0 UV-I 0 W/m² 5,9 °C 4,5 °C 19,3 km/h (3 Bft)
19.03.2017 05:32 7,1 °C 7,1 °C 92 % 1013,0 hPa 0,0 mm 13,9 km/h (3 Bft) W-SW 252 ° 0 min 0,000 mm 0,0 UV-I 0 W/m² 5,9 °C 4,5 °C 25,7 km/h (4 Bft)
19.03.2017 05:33 7,1 °C 7,1 °C 92 % 1013,0 hPa 0,0 mm 17,1 km/h (3 Bft) W-SW 244 ° 0 min 0,000 mm 0,0 UV-I 0 W/m² 5,9 °C 4,1 °C 30,6 km/h (5 Bft)
19.03.2017 05:34 7,1 °C 7,1 °C 92 % 1013,1 hPa 0,0 mm 13,9 km/h (3 Bft) W-SW 258 ° 0 min 0,000 mm 0,0 UV-I 0 W/m² 5,9 °C 4,5 °C 22,5 km/h (4 Bft)
19.03.2017 05:35 7,1 °C 7,1 °C 92 % 1013,1 hPa 0,0 mm 11,0 km/h (2 Bft) W 281 ° 0 min 0,000 mm 0,0 UV-I 0 W/m² 5,9 °C 5,0 °C 14,5 km/h (3 Bft)
19.03.2017 05:36 7,1 °C 7,1 °C 92 % 1013,1 hPa 0,0 mm 12,7 km/h (3 Bft) S 180 ° 0 min 0,000 mm 0,0 UV-I 0 W/m² 5,9 °C 4,7 °C 19,3 km/h (3 Bft)
19.03.2017 05:37 7,1 °C 7,1 °C 92 % 1013,1 hPa 0,2 mm 13,6 km/h (3 Bft) W 265 ° 0 min 0,000 mm 0,0 UV-I 0 W/m² 5,9 °C 4,5 °C 14,5 km/h (3 Bft)
19.03.2017 05:38 7,1 °C 7,1 °C 92 % 1013,1 hPa 0,0 mm 11,5 km/h (2 Bft) W 262 ° 0 min 0,000 mm 0,0 UV-I 0 W/m² 5,9 °C 4,9 °C 19,3 km/h (3 Bft)
19.03.2017 05:39 7,1 °C 7,1 °C 92 % 1013,2 hPa 0,0 mm 13,4 km/h (3 Bft) W-SW 240 ° 0 min 0,000 mm 0,0 UV-I 0 W/m² 5,9 °C 4,6 °C 20,9 km/h (4 Bft)
19.03.2017 05:40 7,0 °C 7,1 °C 92 % 1013,2 hPa 0,0 mm 14,6 km/h (3 Bft) W-SW 238 ° 0 min 0,000 mm 0,0 UV-I 0 W/m² 5,8 °C 4,3 °C 20,9 km/h (4 Bft)
19.03.2017 05:41 7,1 °C 7,1 °C 92 % 1013,2 hPa 0,0 mm 12,7 km/h (3 Bft) W-SW 243 ° 0 min 0,000 mm 0,0 UV-I 0 W/m² 5,9 °C 4,7 °C 16,1 km/h (3 Bft)
19.03.2017 05:42 7,0 °C 7,1 °C 92 % 1013,2 hPa 0,0 mm 13,5 km/h (3 Bft) W-SW 237 ° 0 min 0,000 mm 0,0 UV-I 0 W/m² 5,8 °C 4,4 °C 17,7 km/h (3 Bft)
19.03.2017 05:43 7,0 °C 7,1 °C 92 % 1013,2 hPa 0,0 mm 16,1 km/h (3 Bft) W-SW 250 ° 0 min 0,000 mm 0,0 UV-I 0 W/m² 5,8 °C 4,1 °C 24,1 km/h (4 Bft)
19.03.2017 05:44 7,0 °C 7,0 °C 92 % 1013,2 hPa 0,0 mm 19,2 km/h (3 Bft) W-SW 250 ° 0 min 0,000 mm 0,0 UV-I 0 W/m² 5,8 °C 3,7 °C 29,0 km/h (5 Bft)
19.03.2017 05:45 7,0 °C 7,0 °C 92 % 1013,4 hPa 0,2 mm 15,6 km/h (3 Bft) W 267 ° 0 min 0,000 mm 0,0 UV-I 0 W/m² 5,8 °C 4,1 °C 22,5 km/h (4 Bft)
19.03.2017 05:46 7,1 °C 7,1 °C 92 % 1013,3 hPa 0,0 mm 15,0 km/h (3 Bft) W-SW 257 ° 0 min 0,000 mm 0,0 UV-I 0 W/m² 5,9 °C 4,3 °C 20,9 km/h (4 Bft)
19.03.2017 05:47 7,1 °C 7,1 °C 92 % 1013,3 hPa 0,0 mm 13,4 km/h (3 Bft) W-SW 246 ° 0 min 0,000 mm 0,0 UV-I 0 W/m² 5,9 °C 4,6 °C 16,1 km/h (3 Bft)
19.03.2017 05:48 7,1 °C 7,1 °C 92 % 1013,3 hPa 0,0 mm 13,1 km/h (3 Bft) W 272 ° 0 min 0,000 mm 0,0 UV-I 0 W/m² 5,9 °C 4,6 °C 17,7 km/h (3 Bft)
19.03.2017 05:49 7,1 °C 7,1 °C 92 % 1013,3 hPa 0,0 mm 17,1 km/h (3 Bft) W-NW 291 ° 0 min 0,000 mm 0,0 UV-I 0 W/m² 5,9 °C 4,1 °C 22,5 km/h (4 Bft)
19.03.2017 05:50 7,1 °C 7,1 °C 92 % 1013,3 hPa 0,0 mm 19,7 km/h (3 Bft) W 278 ° 0 min 0,000 mm 0,0 UV-I 0 W/m² 5,9 °C 3,8 °C 27,4 km/h (4 Bft)
19.03.2017 05:51 7,1 °C 7,1 °C 92 % 1013,3 hPa 0,0 mm 14,3 km/h (3 Bft) W 265 ° 0 min 0,000 mm 0,0 UV-I 0 W/m² 5,9 °C 4,4 °C 19,3 km/h (3 Bft)
19.03.2017 05:52 7,1 °C 7,1 °C 92 % 1013,3 hPa 0,0 mm 16,1 km/h (3 Bft) W-SW 251 ° 0 min 0,000 mm 0,0 UV-I 0 W/m² 5,9 °C 4,2 °C 25,7 km/h (4 Bft)
19.03.2017 05:53 7,1 °C 7,1 °C 92 % 1013,4 hPa 0,2 mm 20,9 km/h (4 Bft) W-SW 255 ° 0 min 0,000 mm 0,0 UV-I 0 W/m² 5,9 °C 3,6 °C 29,0 km/h (5 Bft)
19.03.2017 05:54 7,1 °C 7,1 °C 92 % 1013,4 hPa 0,0 mm 14,3 km/h (3 Bft) W 265 ° 0 min 0,000 mm 0,0 UV-I 0 W/m² 5,9 °C 4,4 °C 24,1 km/h (4 Bft)
19.03.2017 05:55 7,1 °C 7,1 °C 92 % 1013,4 hPa 0,0 mm 14,8 km/h (3 Bft) W 270 ° 0 min 0,000 mm 0,0 UV-I 0 W/m² 5,9 °C 4,4 °C 20,9 km/h (4 Bft)
19.03.2017 05:56 7,1 °C 7,1 °C 92 % 1013,3 hPa 0,0 mm 15,9 km/h (3 Bft) W-SW 246 ° 0 min 0,000 mm 0,0 UV-I 0 W/m² 5,9 °C 4,2 °C 29,0 km/h (5 Bft)
19.03.2017 05:57 7,1 °C 7,1 °C 92 % 1013,4 hPa 0,0 mm 16,8 km/h (3 Bft) W 262 ° 0 min 0,000 mm 0,0 UV-I 0 W/m² 5,9 °C 4,1 °C 27,4 km/h (4 Bft)
19.03.2017 05:58 7,1 °C 7,1 °C 91 % 1013,4 hPa 0,0 mm 20,7 km/h (4 Bft) W-NW 286 ° 0 min 0,000 mm 0,0 UV-I 0 W/m² 5,7 °C 3,6 °C 29,0 km/h (5 Bft)
19.03.2017 05:59 7,1 °C 7,2 °C 91 % 1013,4 hPa 0,0 mm 16,8 km/h (3 Bft) S-SW 213 ° 0 min 0,000 mm 0,0 UV-I 0 W/m² 5,7 °C 4,1 °C 24,1 km/h (4 Bft)
19.03.2017 06:00 7,2 °C 7,2 °C 91 % 1013,4 hPa 0,2 mm 13,3 km/h (3 Bft) S-SW 200 ° 0 min 0,026 mm 0,0 UV-I 0 W/m² 5,8 °C 4,7 °C 24,1 km/h (4 Bft)
19.03.2017 06:01 7,1 °C 7,2 °C 91 % 1013,5 hPa 0,0 mm 20,4 km/h (4 Bft) W-SW 240 ° 0 min 0,000 mm 0,0 UV-I 0 W/m² 5,7 °C 3,7 °C 27,4 km/h (4 Bft)
19.03.2017 06:02 7,1 °C 7,1 °C 92 % 1013,5 hPa 0,0 mm 13,4 km/h (3 Bft) W-SW 252 ° 0 min 0,000 mm 0,0 UV-I 0 W/m² 5,9 °C 4,6 °C 16,1 km/h (3 Bft)
19.03.2017 06:03 7,1 °C 7,1 °C 92 % 1013,5 hPa 0,0 mm 19,0 km/h (3 Bft) W 260 ° 0 min 0,000 mm 0,0 UV-I 0 W/m² 5,9 °C 3,8 °C 29,0 km/h (5 Bft)
19.03.2017 06:04 7,1 °C 7,1 °C 92 % 1013,5 hPa 0,0 mm 19,6 km/h (3 Bft) W-SW 250 ° 0 min 0,000 mm 0,0 UV-I 0 W/m² 5,9 °C 3,8 °C 24,1 km/h (4 Bft)
19.03.2017 06:05 7,1 °C 7,1 °C 92 % 1013,6 hPa 0,0 mm 19,0 km/h (3 Bft) W 263 ° 0 min 0,000 mm 0,0 UV-I 0 W/m² 5,9 °C 3,8 °C 24,1 km/h (4 Bft)
19.03.2017 06:06 7,1 °C 7,1 °C 92 % 1013,6 hPa 0,2 mm 13,1 km/h (3 Bft) W-SW 255 ° 0 min 0,000 mm 0,0 UV-I 0 W/m² 5,9 °C 4,6 °C 16,1 km/h (3 Bft)
19.03.2017 06:07 7,1 °C 7,1 °C 92 % 1013,6 hPa 0,0 mm 16,4 km/h (3 Bft) W 261 ° 0 min 0,000 mm 0,0 UV-I 0 W/m² 5,9 °C 4,1 °C 22,5 km/h (4 Bft)
19.03.2017 06:08 7,1 °C 7,1 °C 92 % 1013,6 hPa 0,0 mm 13,7 km/h (3 Bft) W-SW 250 ° 0 min 0,000 mm 0,0 UV-I 0 W/m² 5,9 °C 4,5 °C 20,9 km/h (4 Bft)
19.03.2017 06:09 7,1 °C 7,1 °C 92 % 1013,6 hPa 0,0 mm 15,8 km/h (3 Bft) W-SW 257 ° 0 min 0,000 mm 0,0 UV-I 0 W/m² 5,9 °C 4,2 °C 20,9 km/h (4 Bft)
19.03.2017 06:10 7,1 °C 7,1 °C 92 % 1013,7 hPa 0,0 mm 15,6 km/h (3 Bft) W 279 ° 0 min 0,000 mm 0,0 UV-I 0 W/m² 5,9 °C 4,3 °C 20,9 km/h (4 Bft)
19.03.2017 06:11 7,1 °C 7,1 °C 92 % 1013,7 hPa 0,2 mm 14,8 km/h (3 Bft) W 259 ° 0 min 0,000 mm 0,0 UV-I 0 W/m² 5,9 °C 4,4 °C 19,3 km/h (3 Bft)
19.03.2017 06:12 7,0 °C 7,1 °C 92 % 1013,8 hPa 0,0 mm 16,0 km/h (3 Bft) W-SW 254 ° 0 min 0,000 mm 0,0 UV-I 0 W/m² 5,8 °C 4,1 °C 25,7 km/h (4 Bft)
19.03.2017 06:13 7,0 °C 7,0 °C 92 % 1013,8 hPa 0,0 mm 17,9 km/h (3 Bft) W 267 ° 0 min 0,000 mm 0,0 UV-I 0 W/m² 5,8 °C 3,8 °C 25,7 km/h (4 Bft)
19.03.2017 06:14 7,0 °C 7,1 °C 92 % 1013,7 hPa 0,0 mm 15,8 km/h (3 Bft) W-SW 251 ° 0 min 0,000 mm 0,0 UV-I 0 W/m² 5,8 °C 4,1 °C 19,3 km/h (3 Bft)
19.03.2017 06:15 7,0 °C 7,0 °C 92 % 1013,9 hPa 0,0 mm 11,5 km/h (2 Bft) W-SW 249 ° 0 min 0,000 mm 0,0 UV-I 0 W/m² 5,8 °C 4,8 °C 17,7 km/h (3 Bft)
19.03.2017 06:16 7,1 °C 7,1 °C 92 % 1013,8 hPa 0,0 mm 14,5 km/h (3 Bft) W-SW 257 ° 0 min 0,000 mm 0,0 UV-I 0 W/m² 5,9 °C 4,4 °C 19,3 km/h (3 Bft)
19.03.2017 06:17 7,1 °C 7,1 °C 92 % 1013,8 hPa 0,0 mm 14,5 km/h (3 Bft) W 259 ° 0 min 0,000 mm 0,0 UV-I 0 W/m² 5,9 °C 4,4 °C 25,7 km/h (4 Bft)
19.03.2017 06:18 7,1 °C 7,1 °C 92 % 1013,8 hPa 0,2 mm 13,5 km/h (3 Bft) W-SW 242 ° 0 min 0,000 mm 0,0 UV-I 0 W/m² 5,9 °C 4,6 °C 16,1 km/h (3 Bft)
19.03.2017 06:19 7,0 °C 7,1 °C 92 % 1013,8 hPa 0,0 mm 12,0 km/h (2 Bft) W 265 ° 0 min 0,000 mm 0,0 UV-I 0 W/m² 5,8 °C 4,7 °C 17,7 km/h (3 Bft)
19.03.2017 06:20 7,0 °C 7,0 °C 92 % 1013,8 hPa 0,0 mm 17,0 km/h (3 Bft) W 281 ° 0 min 0,000 mm 0,0 UV-I 0 W/m² 5,8 °C 3,9 °C 24,1 km/h (4 Bft)
19.03.2017 06:21 7,0 °C 7,0 °C 92 % 1013,7 hPa 0,0 mm 13,1 km/h (3 Bft) W 275 ° 0 min 0,000 mm 0,0 UV-I 0 W/m² 5,8 °C 4,5 °C 17,7 km/h (3 Bft)
19.03.2017 06:22 7,0 °C 7,0 °C 92 % 1013,8 hPa 0,0 mm 14,1 km/h (3 Bft) W 271 ° 0 min 0,000 mm 0,0 UV-I 0 W/m² 5,8 °C 4,3 °C 20,9 km/h (4 Bft)
19.03.2017 06:23 6,9 °C 7,0 °C 92 % 1013,8 hPa 0,0 mm 13,6 km/h (3 Bft) W 274 ° 0 min 0,000 mm 0,0 UV-I 0 W/m² 5,7 °C 4,3 °C 19,3 km/h (3 Bft)
19.03.2017 06:24 7,0 °C 7,0 °C 92 % 1013,8 hPa 0,2 mm 11,0 km/h (2 Bft) W-SW 243 ° 0 min 0,000 mm 0,0 UV-I 0 W/m² 5,8 °C 4,9 °C 14,5 km/h (3 Bft)
19.03.2017 06:25 7,0 °C 7,0 °C 92 % 1013,8 hPa 0,0 mm 18,2 km/h (3 Bft) W 268 ° 0 min 0,000 mm 0,0 UV-I 0 W/m² 5,8 °C 3,8 °C 27,4 km/h (4 Bft)
19.03.2017 06:26 7,0 °C 7,0 °C 92 % 1013,8 hPa 0,0 mm 15,3 km/h (3 Bft) W-SW 254 ° 0 min 0,000 mm 0,0 UV-I 0 W/m² 5,8 °C 4,2 °C 20,9 km/h (4 Bft)
19.03.2017 06:27 6,9 °C 7,0 °C 92 % 1013,8 hPa 0,0 mm 13,4 km/h (3 Bft) W 265 ° 0 min 0,000 mm 0,0 UV-I 0 W/m² 5,7 °C 4,3 °C 17,7 km/h (3 Bft)
19.03.2017 06:28 7,0 °C 7,0 °C 92 % 1013,8 hPa 0,0 mm 13,5 km/h (3 Bft) SW 234 ° 0 min 0,000 mm 0,0 UV-I 0 W/m² 5,8 °C 4,4 °C 17,7 km/h (3 Bft)
19.03.2017 06:29 7,0 °C 7,0 °C 92 % 1013,7 hPa 0,2 mm 13,5 km/h (3 Bft) W 267 ° 0 min 0,000 mm 0,0 UV-I 0 W/m² 5,8 °C 4,4 °C 22,5 km/h (4 Bft)
19.03.2017 06:30 7,0 °C 7,0 °C 92 % 1013,8 hPa 0,0 mm 17,6 km/h (3 Bft) W 269 ° 0 min 0,000 mm 0,0 UV-I 0 W/m² 5,8 °C 3,9 °C 24,1 km/h (4 Bft)
19.03.2017 06:31 6,9 °C 7,0 °C 92 % 1013,8 hPa 0,0 mm 11,0 km/h (2 Bft) W 269 ° 0 min 0,000 mm 0,0 UV-I 0 W/m² 5,7 °C 4,7 °C 16,1 km/h (3 Bft)
19.03.2017 06:32 7,0 °C 7,0 °C 92 % 1013,8 hPa 0,0 mm 14,9 km/h (3 Bft) W 279 ° 0 min 0,000 mm 0,0 UV-I 0 W/m² 5,8 °C 4,2 °C 22,5 km/h (4 Bft)
19.03.2017 06:33 7,0 °C 7,0 °C 92 % 1013,9 hPa 0,0 mm 16,4 km/h (3 Bft) SW 217 ° 0 min 0,000 mm 0,0 UV-I 0 W/m² 5,8 °C 4,0 °C 22,5 km/h (4 Bft)
19.03.2017 06:34 7,0 °C 7,0 °C 92 % 1013,8 hPa 0,0 mm 14,8 km/h (3 Bft) W 275 ° 0 min 0,000 mm 0,0 UV-I 0 W/m² 5,8 °C 4,2 °C 25,7 km/h (4 Bft)
19.03.2017 06:35 7,0 °C 7,1 °C 92 % 1013,7 hPa 0,0 mm 12,7 km/h (3 Bft) W 259 ° 0 min 0,000 mm 0,0 UV-I 0 W/m² 5,8 °C 4,6 °C 17,7 km/h (3 Bft)
19.03.2017 06:36 7,1 °C 7,1 °C 92 % 1013,8 hPa 0,0 mm 15,2 km/h (3 Bft) W 264 ° 0 min 0,000 mm 0,0 UV-I 0 W/m² 5,9 °C 4,3 °C 20,9 km/h (4 Bft)
19.03.2017 06:37 7,1 °C 7,1 °C 92 % 1013,7 hPa 0,0 mm 18,8 km/h (3 Bft) W-SW 258 ° 0 min 0,000 mm 0,0 UV-I 0 W/m² 5,9 °C 3,9 °C 25,7 km/h (4 Bft)
19.03.2017 06:38 7,1 °C 7,1 °C 92 % 1013,7 hPa 0,0 mm 18,4 km/h (3 Bft) W-SW 257 ° 0 min 0,000 mm 0,0 UV-I 0 W/m² 5,9 °C 3,9 °C 27,4 km/h (4 Bft)
19.03.2017 06:39 7,1 °C 7,1 °C 92 % 1013,7 hPa 0,0 mm 12,9 km/h (3 Bft) SW 230 ° 0 min 0,000 mm 0,0 UV-I 0 W/m² 5,9 °C 4,7 °C 17,7 km/h (3 Bft)
19.03.2017 06:40 7,1 °C 7,1 °C 92 % 1013,7 hPa 0,2 mm 15,5 km/h (3 Bft) W 273 ° 0 min 0,000 mm 0,0 UV-I 0 W/m² 5,9 °C 4,3 °C 20,9 km/h (4 Bft)
19.03.2017 06:41 7,1 °C 7,1 °C 92 % 1013,8 hPa 0,0 mm 15,4 km/h (3 Bft) W-SW 248 ° 0 min 0,000 mm 0,0 UV-I 5 W/m² 5,9 °C 4,3 °C 20,9 km/h (4 Bft)
19.03.2017 06:42 7,1 °C 7,1 °C 92 % 1013,7 hPa 0,0 mm 14,9 km/h (3 Bft) W-SW 242 ° 0 min 0,000 mm 0,0 UV-I 5 W/m² 5,9 °C 4,4 °C 20,9 km/h (4 Bft)
19.03.2017 06:43 7,1 °C 7,1 °C 92 % 1013,8 hPa 0,0 mm 16,0 km/h (3 Bft) W-SW 258 ° 0 min 0,000 mm 0,0 UV-I 5 W/m² 5,9 °C 4,2 °C 24,1 km/h (4 Bft)
19.03.2017 06:44 7,1 °C 7,1 °C 92 % 1013,8 hPa 0,0 mm 21,1 km/h (4 Bft) W 263 ° 0 min 0,000 mm 0,0 UV-I 5 W/m² 5,9 °C 3,6 °C 27,4 km/h (4 Bft)
19.03.2017 06:45 7,1 °C 7,1 °C 92 % 1013,8 hPa 0,0 mm 16,8 km/h (3 Bft) W-SW 244 ° 0 min 0,000 mm 0,0 UV-I 7 W/m² 5,9 °C 4,1 °C 24,1 km/h (4 Bft)
19.03.2017 06:46 7,1 °C 7,2 °C 92 % 1013,7 hPa 0,0 mm 15,9 km/h (3 Bft) W-SW 244 ° 0 min 0,000 mm 0,0 UV-I 7 W/m² 5,9 °C 4,2 °C 20,9 km/h (4 Bft)
19.03.2017 06:47 7,1 °C 7,2 °C 92 % 1013,8 hPa 0,0 mm 15,9 km/h (3 Bft) W 267 ° 0 min 0,000 mm 0,0 UV-I 5 W/m² 5,9 °C 4,2 °C 19,3 km/h (3 Bft)
19.03.2017 06:48 7,1 °C 7,2 °C 92 % 1013,8 hPa 0,0 mm 16,8 km/h (3 Bft) W-SW 237 ° 0 min 0,000 mm 0,0 UV-I 5 W/m² 5,9 °C 4,1 °C 24,1 km/h (4 Bft)
19.03.2017 06:49 7,2 °C 7,2 °C 92 % 1013,9 hPa 0,0 mm 16,6 km/h (3 Bft) W-NW 288 ° 0 min 0,000 mm 0,0 UV-I 5 W/m² 6,0 °C 4,2 °C 29,0 km/h (5 Bft)
19.03.2017 06:50 7,2 °C 7,2 °C 92 % 1013,9 hPa 0,0 mm 25,1 km/h (4 Bft) SW 227 ° 0 min 0,000 mm 0,0 UV-I 0 W/m² 6,0 °C 3,3 °C 38,6 km/h (5 Bft)
19.03.2017 06:51 7,2 °C 7,2 °C 92 % 1013,9 hPa 0,0 mm 14,4 km/h (3 Bft) W 263 ° 0 min 0,000 mm 0,0 UV-I 0 W/m² 6,0 °C 4,5 °C 22,5 km/h (4 Bft)
19.03.2017 06:52 7,2 °C 7,2 °C 92 % 1013,9 hPa 0,0 mm 16,4 km/h (3 Bft) W-SW 253 ° 0 min 0,000 mm 0,0 UV-I 5 W/m² 6,0 °C 4,3 °C 22,5 km/h (4 Bft)
19.03.2017 06:53 7,2 °C 7,2 °C 92 % 1014,0 hPa 0,0 mm 10,2 km/h (2 Bft) W-SW 238 ° 0 min 0,000 mm 0,0 UV-I 5 W/m² 6,0 °C 5,2 °C 16,1 km/h (3 Bft)
19.03.2017 06:54 7,2 °C 7,2 °C 92 % 1014,0 hPa 0,0 mm 16,2 km/h (3 Bft) W-NW 284 ° 0 min 0,000 mm 0,0 UV-I 5 W/m² 6,0 °C 4,3 °C 22,5 km/h (4 Bft)
19.03.2017 06:55 7,2 °C 7,2 °C 92 % 1014,0 hPa 0,0 mm 12,9 km/h (3 Bft) W-SW 241 ° 0 min 0,000 mm 0,0 UV-I 5 W/m² 6,0 °C 4,8 °C 16,1 km/h (3 Bft)
19.03.2017 06:56 7,2 °C 7,2 °C 92 % 1014,1 hPa 0,0 mm 20,3 km/h (4 Bft) W-SW 248 ° 0 min 0,000 mm 0,0 UV-I 5 W/m² 6,0 °C 3,8 °C 25,7 km/h (4 Bft)
19.03.2017 06:57 7,2 °C 7,2 °C 92 % 1014,0 hPa 0,0 mm 13,3 km/h (3 Bft) W 277 ° 0 min 0,000 mm 0,0 UV-I 5 W/m² 6,0 °C 4,7 °C 20,9 km/h (4 Bft)
19.03.2017 06:58 7,2 °C 7,2 °C 92 % 1013,9 hPa 0,0 mm 14,4 km/h (3 Bft) W-SW 247 ° 0 min 0,000 mm 0,0 UV-I 5 W/m² 6,0 °C 4,5 °C 20,9 km/h (4 Bft)
19.03.2017 06:59 7,2 °C 7,2 °C 92 % 1014,0 hPa 0,0 mm 12,6 km/h (3 Bft) W-SW 243 ° 0 min 0,000 mm 0,0 UV-I 5 W/m² 6,0 °C 4,8 °C 19,3 km/h (3 Bft)
19.03.2017 07:00 7,2 °C 7,2 °C 92 % 1014,1 hPa 0,0 mm 10,9 km/h (2 Bft) W 261 ° 0 min 0,025 mm 0,0 UV-I 5 W/m² 6,0 °C 5,1 °C 17,7 km/h (3 Bft)
19.03.2017 07:01 7,2 °C 7,2 °C 92 % 1014,1 hPa 0,0 mm 14,3 km/h (3 Bft) W-SW 246 ° 0 min 0,000 mm 0,0 UV-I 5 W/m² 6,0 °C 4,6 °C 20,9 km/h (4 Bft)
19.03.2017 07:02 7,2 °C 7,2 °C 92 % 1014,1 hPa 0,0 mm 16,0 km/h (3 Bft) W-SW 244 ° 0 min 0,000 mm 0,0 UV-I 7 W/m² 6,0 °C 4,3 °C 20,9 km/h (4 Bft)
19.03.2017 07:03 7,2 °C 7,2 °C 92 % 1014,1 hPa 0,0 mm 14,3 km/h (3 Bft) W-SW 254 ° 0 min 0,000 mm 0,0 UV-I 7 W/m² 6,0 °C 4,6 °C 24,1 km/h (4 Bft)
19.03.2017 07:04 7,2 °C 7,2 °C 92 % 1014,1 hPa 0,0 mm 17,3 km/h (3 Bft) W 263 ° 0 min 0,000 mm 0,0 UV-I 9 W/m² 6,0 °C 4,2 °C 24,1 km/h (4 Bft)
19.03.2017 07:05 7,2 °C 7,2 °C 92 % 1014,0 hPa 0,0 mm 13,3 km/h (3 Bft) W-SW 244 ° 0 min 0,000 mm 0,0 UV-I 11 W/m² 6,0 °C 4,7 °C 19,3 km/h (3 Bft)
19.03.2017 07:06 7,2 °C 7,2 °C 92 % 1014,1 hPa 0,0 mm 10,9 km/h (2 Bft) SW 232 ° 0 min 0,000 mm 0,0 UV-I 11 W/m² 6,0 °C 5,1 °C 17,7 km/h (3 Bft)
19.03.2017 07:07 7,2 °C 7,2 °C 92 % 1014,0 hPa 0,2 mm 14,3 km/h (3 Bft) W-SW 252 ° 0 min 0,000 mm 0,0 UV-I 11 W/m² 6,0 °C 4,6 °C 20,9 km/h (4 Bft)
19.03.2017 07:08 7,2 °C 7,2 °C 92 % 1013,9 hPa 0,0 mm 12,0 km/h (2 Bft) W-SW 245 ° 0 min 0,000 mm 0,0 UV-I 11 W/m² 6,0 °C 4,9 °C 16,1 km/h (3 Bft)
19.03.2017 07:09 7,2 °C 7,2 °C 92 % 1013,9 hPa 0,0 mm 16,0 km/h (3 Bft) W 265 ° 0 min 0,000 mm 0,0 UV-I 12 W/m² 6,0 °C 4,3 °C 30,6 km/h (5 Bft)
19.03.2017 07:10 7,2 °C 7,2 °C 92 % 1014,0 hPa 0,0 mm 12,0 km/h (2 Bft) W-SW 254 ° 0 min 0,000 mm 0,0 UV-I 12 W/m² 6,0 °C 4,9 °C 17,7 km/h (3 Bft)
19.03.2017 07:11 7,2 °C 7,2 °C 92 % 1014,0 hPa 0,0 mm 16,6 km/h (3 Bft) W 273 ° 0 min 0,000 mm 0,0 UV-I 12 W/m² 6,0 °C 4,2 °C 20,9 km/h (4 Bft)
19.03.2017 07:12 7,2 °C 7,2 °C 92 % 1014,0 hPa 0,2 mm 11,4 km/h (2 Bft) W 263 ° 0 min 0,000 mm 0,0 UV-I 12 W/m² 6,0 °C 5,0 °C 20,9 km/h (4 Bft)
19.03.2017 07:13 7,2 °C 7,2 °C 92 % 1014,1 hPa 0,0 mm 14,1 km/h (3 Bft) W-SW 252 ° 0 min 0,000 mm 0,0 UV-I 12 W/m² 6,0 °C 4,6 °C 19,3 km/h (3 Bft)
19.03.2017 07:14 7,2 °C 7,2 °C 92 % 1014,0 hPa 0,0 mm 12,8 km/h (3 Bft) W 266 ° 0 min 0,000 mm 0,0 UV-I 14 W/m² 6,0 °C 4,8 °C 16,1 km/h (3 Bft)
19.03.2017 07:15 7,2 °C 7,2 °C 92 % 1014,0 hPa 0,2 mm 13,3 km/h (3 Bft) W 277 ° 0 min 0,000 mm 0,0 UV-I 14 W/m² 6,0 °C 4,7 °C 19,3 km/h (3 Bft)
19.03.2017 07:16 7,2 °C 7,2 °C 92 % 1014,0 hPa 0,0 mm 8,9 km/h (2 Bft) W-SW 250 ° 0 min 0,000 mm 0,0 UV-I 16 W/m² 6,0 °C 5,5 °C 14,5 km/h (3 Bft)
19.03.2017 07:17 7,2 °C 7,2 °C 92 % 1014,0 hPa 0,0 mm 12,5 km/h (3 Bft) W-SW 252 ° 0 min 0,000 mm 0,0 UV-I 18 W/m² 6,0 °C 4,8 °C 19,3 km/h (3 Bft)
19.03.2017 07:18 7,2 °C 7,2 °C 92 % 1013,9 hPa 0,0 mm 15,0 km/h (3 Bft) W-SW 252 ° 0 min 0,000 mm 0,0 UV-I 19 W/m² 6,0 °C 4,5 °C 19,3 km/h (3 Bft)
19.03.2017 07:19 7,2 °C 7,2 °C 92 % 1013,9 hPa 0,0 mm 11,3 km/h (2 Bft) W-SW 247 ° 0 min 0,000 mm 0,0 UV-I 21 W/m² 6,0 °C 5,0 °C 19,3 km/h (3 Bft)
19.03.2017 07:20 7,2 °C 7,2 °C 92 % 1014,0 hPa 0,0 mm 11,4 km/h (2 Bft) W-SW 247 ° 0 min 0,000 mm 0,0 UV-I 26 W/m² 6,0 °C 5,0 °C 17,7 km/h (3 Bft)
19.03.2017 07:21 7,2 °C 7,2 °C 92 % 1013,9 hPa 0,2 mm 13,8 km/h (3 Bft) SW 234 ° 0 min 0,000 mm 0,0 UV-I 28 W/m² 6,0 °C 4,6 °C 17,7 km/h (3 Bft)
19.03.2017 07:22 7,2 °C 7,2 °C 92 % 1013,9 hPa 0,0 mm 7,9 km/h (2 Bft) W-SW 251 ° 0 min 0,000 mm 0,0 UV-I 30 W/m² 6,0 °C 5,7 °C 14,5 km/h (3 Bft)
19.03.2017 07:23 7,2 °C 7,2 °C 92 % 1013,9 hPa 0,0 mm 11,6 km/h (2 Bft) W-SW 241 ° 0 min 0,000 mm 0,0 UV-I 32 W/m² 6,0 °C 5,0 °C 16,1 km/h (3 Bft)
19.03.2017 07:24 7,2 °C 7,2 °C 92 % 1013,9 hPa 0,0 mm 6,6 km/h (2 Bft) W-SW 243 ° 0 min 0,000 mm 0,0 UV-I 32 W/m² 6,0 °C 6,1 °C 9,7 km/h (2 Bft)
19.03.2017 07:25 7,2 °C 7,2 °C 92 % 1014,0 hPa 0,0 mm 10,3 km/h (2 Bft) W-SW 251 ° 0 min 0,000 mm 0,0 UV-I 30 W/m² 6,0 °C 5,2 °C 19,3 km/h (3 Bft)
19.03.2017 07:26 7,2 °C 7,2 °C 92 % 1014,0 hPa 0,0 mm 10,2 km/h (2 Bft) W-SW 251 ° 0 min 0,000 mm 0,0 UV-I 28 W/m² 6,0 °C 5,2 °C 12,9 km/h (3 Bft)
19.03.2017 07:27 7,2 °C 7,2 °C 93 % 1014,1 hPa 0,0 mm 10,6 km/h (2 Bft) W-SW 252 ° 0 min 0,000 mm 0,0 UV-I 28 W/m² 6,1 °C 5,2 °C 14,5 km/h (3 Bft)
19.03.2017 07:28 7,2 °C 7,2 °C 93 % 1014,1 hPa 0,0 mm 10,1 km/h (2 Bft) SW 234 ° 0 min 0,000 mm 0,0 UV-I 28 W/m² 6,1 °C 5,3 °C 14,5 km/h (3 Bft)
19.03.2017 07:29 7,2 °C 7,2 °C 93 % 1014,1 hPa 0,0 mm 12,1 km/h (2 Bft) W-SW 251 ° 0 min 0,000 mm 0,0 UV-I 28 W/m² 6,1 °C 4,9 °C 17,7 km/h (3 Bft)
19.03.2017 07:30 7,2 °C 7,2 °C 93 % 1014,1 hPa 0,0 mm 10,3 km/h (2 Bft) W 268 ° 0 min 0,000 mm 0,0 UV-I 28 W/m² 6,1 °C 5,2 °C 19,3 km/h (3 Bft)
19.03.2017 07:31 7,2 °C 7,2 °C 93 % 1014,1 hPa 0,0 mm 10,7 km/h (2 Bft) W-SW 244 ° 0 min 0,000 mm 0,0 UV-I 30 W/m² 6,1 °C 5,2 °C 16,1 km/h (3 Bft)
19.03.2017 07:32 7,2 °C 7,2 °C 93 % 1014,1 hPa 0,0 mm 9,9 km/h (2 Bft) W-SW 243 ° 0 min 0,000 mm 0,0 UV-I 33 W/m² 6,1 °C 5,3 °C 14,5 km/h (3 Bft)
19.03.2017 07:33 7,2 °C 7,2 °C 93 % 1014,1 hPa 0,0 mm 10,4 km/h (2 Bft) W-SW 249 ° 0 min 0,000 mm 0,0 UV-I 35 W/m² 6,1 °C 5,2 °C 16,1 km/h (3 Bft)
19.03.2017 07:34 7,2 °C 7,2 °C 93 % 1014,1 hPa 0,0 mm 8,4 km/h (2 Bft) W 262 ° 0 min 0,000 mm 0,0 UV-I 35 W/m² 6,1 °C 5,6 °C 11,3 km/h (2 Bft)
19.03.2017 07:35 7,2 °C 7,2 °C 93 % 1014,1 hPa 0,0 mm 10,4 km/h (2 Bft) W 260 ° 0 min 0,000 mm 0,0 UV-I 37 W/m² 6,1 °C 5,2 °C 14,5 km/h (3 Bft)
19.03.2017 07:36 7,2 °C 7,2 °C 93 % 1014,1 hPa 0,0 mm 6,8 km/h (2 Bft) W-SW 248 ° 0 min 0,000 mm 0,0 UV-I 35 W/m² 6,1 °C 6,0 °C 12,9 km/h (3 Bft)
19.03.2017 07:37 7,2 °C 7,3 °C 92 % 1014,1 hPa 0,0 mm 14,5 km/h (3 Bft) W-SW 253 ° 0 min 0,000 mm 0,0 UV-I 39 W/m² 6,0 °C 4,5 °C 20,9 km/h (4 Bft)
19.03.2017 07:38 7,3 °C 7,3 °C 92 % 1014,1 hPa 0,0 mm 10,0 km/h (2 Bft) W-SW 253 ° 0 min 0,000 mm 0,0 UV-I 40 W/m² 6,1 °C 5,4 °C 16,1 km/h (3 Bft)
19.03.2017 07:39 7,3 °C 7,3 °C 92 % 1014,1 hPa 0,0 mm 9,7 km/h (2 Bft) W-SW 251 ° 0 min 0,000 mm 0,0 UV-I 40 W/m² 6,1 °C 5,5 °C 12,9 km/h (3 Bft)
19.03.2017 07:40 7,3 °C 7,3 °C 92 % 1014,1 hPa 0,0 mm 13,5 km/h (3 Bft) W-SW 245 ° 0 min 0,000 mm 0,0 UV-I 42 W/m² 6,1 °C 4,8 °C 19,3 km/h (3 Bft)
19.03.2017 07:41 7,3 °C 7,3 °C 92 % 1014,1 hPa 0,0 mm 14,0 km/h (3 Bft) W 272 ° 0 min 0,000 mm 0,0 UV-I 46 W/m² 6,1 °C 4,7 °C 19,3 km/h (3 Bft)
19.03.2017 07:42 7,3 °C 7,3 °C 92 % 1014,1 hPa 0,0 mm 8,1 km/h (2 Bft) W-SW 254 ° 0 min 0,000 mm 0,0 UV-I 49 W/m² 6,1 °C 5,8 °C 12,9 km/h (3 Bft)
19.03.2017 07:43 7,3 °C 7,3 °C 92 % 1014,1 hPa 0,0 mm 15,4 km/h (3 Bft) W-SW 254 ° 0 min 0,000 mm 0,0 UV-I 47 W/m² 6,1 °C 4,5 °C 22,5 km/h (4 Bft)
19.03.2017 07:44 7,3 °C 7,3 °C 92 % 1014,1 hPa 0,0 mm 9,1 km/h (2 Bft) W-SW 256 ° 0 min 0,000 mm 0,0 UV-I 46 W/m² 6,1 °C 5,6 °C 14,5 km/h (3 Bft)
19.03.2017 07:45 7,4 °C 7,4 °C 92 % 1014,1 hPa 0,0 mm 14,8 km/h (3 Bft) W 261 ° 0 min 0,000 mm 0,0 UV-I 46 W/m² 6,2 °C 4,7 °C 19,3 km/h (3 Bft)
19.03.2017 07:46 7,4 °C 7,4 °C 92 % 1014,1 hPa 0,0 mm 15,0 km/h (3 Bft) W-SW 248 ° 0 min 0,000 mm 0,0 UV-I 46 W/m² 6,2 °C 4,7 °C 19,3 km/h (3 Bft)
19.03.2017 07:47 7,4 °C 7,4 °C 92 % 1014,1 hPa 0,0 mm 8,1 km/h (2 Bft) SW 232 ° 0 min 0,000 mm 0,0 UV-I 47 W/m² 6,2 °C 5,9 °C 12,9 km/h (3 Bft)
19.03.2017 07:48 7,4 °C 7,4 °C 92 % 1014,1 hPa 0,0 mm 12,9 km/h (3 Bft) W-SW 246 ° 0 min 0,000 mm 0,0 UV-I 47 W/m² 6,2 °C 5,0 °C 19,3 km/h (3 Bft)
19.03.2017 07:49 7,4 °C 7,4 °C 92 % 1014,1 hPa 0,0 mm 15,8 km/h (3 Bft) SW 230 ° 0 min 0,000 mm 0,0 UV-I 51 W/m² 6,2 °C 4,6 °C 20,9 km/h (4 Bft)
19.03.2017 07:50 7,4 °C 7,4 °C 92 % 1014,1 hPa 0,0 mm 9,3 km/h (2 Bft) W 260 ° 0 min 0,000 mm 0,0 UV-I 53 W/m² 6,2 °C 5,7 °C 17,7 km/h (3 Bft)
19.03.2017 07:51 7,4 °C 7,4 °C 92 % 1014,1 hPa 0,0 mm 10,8 km/h (2 Bft) SW 232 ° 0 min 0,000 mm 0,0 UV-I 56 W/m² 6,2 °C 5,4 °C 20,9 km/h (4 Bft)
19.03.2017 07:52 7,4 °C 7,4 °C 92 % 1014,1 hPa 0,0 mm 14,0 km/h (3 Bft) W-SW 244 ° 0 min 0,000 mm 0,0 UV-I 60 W/m² 6,2 °C 4,9 °C 20,9 km/h (4 Bft)
19.03.2017 07:53 7,4 °C 7,5 °C 92 % 1014,1 hPa 0,0 mm 16,2 km/h (3 Bft) S-SW 205 ° 0 min 0,000 mm 0,0 UV-I 62 W/m² 6,2 °C 4,5 °C 24,1 km/h (4 Bft)
19.03.2017 07:54 7,5 °C 7,5 °C 92 % 1014,1 hPa 0,0 mm 13,3 km/h (3 Bft) W 261 ° 0 min 0,000 mm 0,0 UV-I 63 W/m² 6,3 °C 5,1 °C 20,9 km/h (4 Bft)
19.03.2017 07:55 7,6 °C 7,6 °C 92 % 1014,2 hPa 0,0 mm 17,0 km/h (3 Bft) W-SW 248 ° 0 min 0,000 mm 0,0 UV-I 62 W/m² 6,4 °C 4,7 °C 22,5 km/h (4 Bft)
19.03.2017 07:56 7,6 °C 7,6 °C 92 % 1014,2 hPa 0,0 mm 10,6 km/h (2 Bft) W 263 ° 0 min 0,000 mm 0,0 UV-I 63 W/m² 6,4 °C 5,7 °C 14,5 km/h (3 Bft)
19.03.2017 07:57 7,6 °C 7,6 °C 92 % 1014,2 hPa 0,0 mm 10,4 km/h (2 Bft) W-SW 243 ° 0 min 0,000 mm 0,0 UV-I 62 W/m² 6,4 °C 5,7 °C 12,9 km/h (3 Bft)
19.03.2017 07:58 7,6 °C 7,6 °C 91 % 1014,2 hPa 0,0 mm 10,2 km/h (2 Bft) W-SW 238 ° 0 min 0,000 mm 0,0 UV-I 63 W/m² 6,2 °C 5,7 °C 14,5 km/h (3 Bft)
19.03.2017 07:59 7,6 °C 7,6 °C 91 % 1014,3 hPa 0,0 mm 16,4 km/h (3 Bft) S 174 ° 0 min 0,000 mm 0,0 UV-I 63 W/m² 6,2 °C 4,8 °C 20,9 km/h (4 Bft)
19.03.2017 08:00 7,6 °C 7,6 °C 91 % 1014,2 hPa 0,0 mm 10,4 km/h (2 Bft) SW 229 ° 0 min 0,000 mm 0,0 UV-I 65 W/m² 6,2 °C 5,7 °C 17,7 km/h (3 Bft)
19.03.2017 08:01 7,6 °C 7,6 °C 91 % 1014,2 hPa 0,0 mm 12,3 km/h (3 Bft) W-SW 251 ° 0 min 0,025 mm 0,0 UV-I 63 W/m² 6,2 °C 5,4 °C 20,9 km/h (4 Bft)
19.03.2017 08:02 7,7 °C 7,7 °C 91 % 1014,3 hPa 0,0 mm 14,3 km/h (3 Bft) W 264 ° 0 min 0,000 mm 0,0 UV-I 63 W/m² 6,3 °C 5,2 °C 19,3 km/h (3 Bft)
19.03.2017 08:03 7,7 °C 7,7 °C 91 % 1014,3 hPa 0,0 mm 14,2 km/h (3 Bft) W-SW 251 ° 0 min 0,000 mm 0,0 UV-I 63 W/m² 6,3 °C 5,2 °C 16,1 km/h (3 Bft)
19.03.2017 08:04 7,7 °C 7,7 °C 91 % 1014,4 hPa 0,0 mm 15,0 km/h (3 Bft) W 268 ° 0 min 0,000 mm 0,0 UV-I 65 W/m² 6,3 °C 5,1 °C 19,3 km/h (3 Bft)
19.03.2017 08:05 7,7 °C 7,7 °C 91 % 1014,4 hPa 0,0 mm 11,5 km/h (2 Bft) W-SW 246 ° 0 min 0,000 mm 0,0 UV-I 67 W/m² 6,3 °C 5,6 °C 14,5 km/h (3 Bft)
19.03.2017 08:06 7,7 °C 7,7 °C 91 % 1014,4 hPa 0,0 mm 10,9 km/h (2 Bft) W-SW 243 ° 0 min 0,000 mm 0,5 UV-I 72 W/m² 6,3 °C 5,7 °C 16,1 km/h (3 Bft)
19.03.2017 08:07 7,7 °C 7,7 °C 91 % 1014,3 hPa 0,0 mm 9,5 km/h (2 Bft) W-SW 249 ° 0 min 0,000 mm 0,5 UV-I 74 W/m² 6,3 °C 6,0 °C 16,1 km/h (3 Bft)
19.03.2017 08:08 7,7 °C 7,7 °C 91 % 1014,2 hPa 0,0 mm 13,4 km/h (3 Bft) SW 221 ° 0 min 0,000 mm 0,5 UV-I 76 W/m² 6,3 °C 5,3 °C 20,9 km/h (4 Bft)
19.03.2017 08:09 7,7 °C 7,7 °C 91 % 1014,2 hPa 0,0 mm 10,4 km/h (2 Bft) W-SW 247 ° 0 min 0,000 mm 0,5 UV-I 76 W/m² 6,3 °C 5,8 °C 19,3 km/h (3 Bft)
19.03.2017 08:10 7,7 °C 7,7 °C 91 % 1014,2 hPa 0,0 mm 10,6 km/h (2 Bft) W 267 ° 0 min 0,000 mm 0,5 UV-I 76 W/m² 6,3 °C 5,8 °C 16,1 km/h (3 Bft)
19.03.2017 08:11 7,7 °C 7,7 °C 91 % 1014,2 hPa 0,0 mm 9,0 km/h (2 Bft) W 259 ° 0 min 0,000 mm 0,5 UV-I 77 W/m² 6,3 °C 6,1 °C 16,1 km/h (3 Bft)
19.03.2017 08:12 7,7 °C 7,7 °C 91 % 1014,3 hPa 0,0 mm 9,7 km/h (2 Bft) W-SW 252 ° 0 min 0,000 mm 0,5 UV-I 72 W/m² 6,3 °C 5,9 °C 14,5 km/h (3 Bft)
19.03.2017 08:13 7,7 °C 7,7 °C 91 % 1014,3 hPa 0,0 mm 11,9 km/h (2 Bft) W 273 ° 0 min 0,000 mm 0,0 UV-I 67 W/m² 6,3 °C 5,5 °C 16,1 km/h (3 Bft)
19.03.2017 08:14 7,7 °C 7,7 °C 91 % 1014,4 hPa 0,0 mm 11,7 km/h (2 Bft) W-SW 257 ° 0 min 0,000 mm 0,0 UV-I 63 W/m² 6,3 °C 5,6 °C 16,1 km/h (3 Bft)
19.03.2017 08:15 7,8 °C 7,8 °C 91 % 1014,4 hPa 0,0 mm 11,5 km/h (2 Bft) W-SW 248 ° 0 min 0,000 mm 0,0 UV-I 63 W/m² 6,4 °C 5,7 °C 16,1 km/h (3 Bft)
19.03.2017 08:16 7,8 °C 7,8 °C 91 % 1014,4 hPa 0,0 mm 9,6 km/h (2 Bft) W 267 ° 0 min 0,000 mm 0,0 UV-I 62 W/m² 6,4 °C 6,1 °C 17,7 km/h (3 Bft)
19.03.2017 08:17 7,8 °C 7,8 °C 91 % 1014,5 hPa 0,0 mm 10,5 km/h (2 Bft) W 263 ° 0 min 0,000 mm 0,0 UV-I 62 W/m² 6,4 °C 5,9 °C 14,5 km/h (3 Bft)
19.03.2017 08:18 7,8 °C 7,8 °C 91 % 1014,4 hPa 0,0 mm 11,6 km/h (2 Bft) SW 221 ° 0 min 0,000 mm 0,5 UV-I 70 W/m² 6,4 °C 5,7 °C 16,1 km/h (3 Bft)
19.03.2017 08:19 7,8 °C 7,8 °C 91 % 1014,5 hPa 0,0 mm 17,2 km/h (3 Bft) W 265 ° 0 min 0,000 mm 0,5 UV-I 70 W/m² 6,4 °C 4,9 °C 22,5 km/h (4 Bft)
19.03.2017 08:20 7,8 °C 7,8 °C 91 % 1014,5 hPa 0,0 mm 17,9 km/h (3 Bft) W-SW 246 ° 0 min 0,000 mm 0,5 UV-I 77 W/m² 6,4 °C 4,8 °C 27,4 km/h (4 Bft)
19.03.2017 08:21 7,8 °C 7,8 °C 91 % 1014,4 hPa 0,0 mm 12,3 km/h (3 Bft) SW 221 ° 0 min 0,000 mm 0,6 UV-I 84 W/m² 6,4 °C 5,6 °C 19,3 km/h (3 Bft)
19.03.2017 08:22 7,8 °C 7,8 °C 91 % 1014,4 hPa 0,0 mm 13,2 km/h (3 Bft) W 266 ° 0 min 0,000 mm 0,6 UV-I 88 W/m² 6,4 °C 5,5 °C 17,7 km/h (3 Bft)
19.03.2017 08:23 7,8 °C 7,8 °C 91 % 1014,4 hPa 0,0 mm 11,5 km/h (2 Bft) W-SW 247 ° 0 min 0,000 mm 0,6 UV-I 88 W/m² 6,4 °C 5,7 °C 16,1 km/h (3 Bft)
19.03.2017 08:24 7,8 °C 7,8 °C 91 % 1014,4 hPa 0,0 mm 10,9 km/h (2 Bft) W-SW 254 ° 0 min 0,000 mm 0,6 UV-I 86 W/m² 6,4 °C 5,8 °C 17,7 km/h (3 Bft)
19.03.2017 08:25 7,8 °C 7,8 °C 91 % 1014,3 hPa 0,0 mm 13,2 km/h (3 Bft) W-SW 246 ° 0 min 0,000 mm 0,6 UV-I 91 W/m² 6,4 °C 5,5 °C 17,7 km/h (3 Bft)
19.03.2017 08:26 7,9 °C 7,9 °C 91 % 1014,2 hPa 0,0 mm 8,9 km/h (2 Bft) W-SW 242 ° 0 min 0,000 mm 0,7 UV-I 97 W/m² 6,5 °C 6,3 °C 12,9 km/h (3 Bft)
19.03.2017 08:27 7,8 °C 7,9 °C 91 % 1014,2 hPa 0,0 mm 11,3 km/h (2 Bft) W-SW 246 ° 0 min 0,000 mm 0,7 UV-I 98 W/m² 6,4 °C 5,8 °C 17,7 km/h (3 Bft)
19.03.2017 08:28 7,9 °C 7,9 °C 91 % 1014,3 hPa 0,0 mm 7,9 km/h (2 Bft) W 263 ° 0 min 0,000 mm 0,7 UV-I 102 W/m² 6,5 °C 6,6 °C 11,3 km/h (2 Bft)
19.03.2017 08:29 7,9 °C 7,9 °C 91 % 1014,2 hPa 0,0 mm 6,4 km/h (2 Bft) W 263 ° 0 min 0,000 mm 0,7 UV-I 105 W/m² 6,5 °C 6,9 °C 11,3 km/h (2 Bft)
19.03.2017 08:30 7,9 °C 7,9 °C 91 % 1014,2 hPa 0,0 mm 9,8 km/h (2 Bft) W 264 ° 0 min 0,000 mm 0,8 UV-I 107 W/m² 6,5 °C 6,2 °C 12,9 km/h (3 Bft)
19.03.2017 08:31 7,9 °C 7,9 °C 91 % 1014,3 hPa 0,0 mm 9,6 km/h (2 Bft) W 261 ° 0 min 0,000 mm 0,8 UV-I 107 W/m² 6,5 °C 6,2 °C 12,9 km/h (3 Bft)
19.03.2017 08:32 7,9 °C 7,9 °C 91 % 1014,3 hPa 0,0 mm 11,3 km/h (2 Bft) SW 226 ° 0 min 0,000 mm 0,8 UV-I 109 W/m² 6,5 °C 5,9 °C 12,9 km/h (3 Bft)
19.03.2017 08:33 7,9 °C 7,9 °C 91 % 1014,3 hPa 0,0 mm 11,2 km/h (2 Bft) SW 214 ° 0 min 0,000 mm 0,8 UV-I 114 W/m² 6,5 °C 5,9 °C 16,1 km/h (3 Bft)
19.03.2017 08:34 7,9 °C 8,0 °C 91 % 1014,3 hPa 0,0 mm 11,3 km/h (2 Bft) W-SW 254 ° 0 min 0,000 mm 0,8 UV-I 118 W/m² 6,5 °C 5,9 °C 17,7 km/h (3 Bft)
19.03.2017 08:35 8,0 °C 8,0 °C 91 % 1014,2 hPa 0,0 mm 12,2 km/h (2 Bft) SW 233 ° 0 min 0,000 mm 0,9 UV-I 120 W/m² 6,6 °C 5,9 °C 17,7 km/h (3 Bft)
19.03.2017 08:36 8,0 °C 8,0 °C 91 % 1014,2 hPa 0,0 mm 10,5 km/h (2 Bft) W 259 ° 0 min 0,000 mm 0,9 UV-I 132 W/m² 6,6 °C 6,1 °C 16,1 km/h (3 Bft)
19.03.2017 08:37 8,0 °C 8,0 °C 91 % 1014,2 hPa 0,0 mm 8,2 km/h (2 Bft) W-SW 257 ° 0 min 0,000 mm 0,9 UV-I 137 W/m² 6,6 °C 6,6 °C 14,5 km/h (3 Bft)
19.03.2017 08:38 8,0 °C 8,1 °C 91 % 1014,2 hPa 0,0 mm 15,0 km/h (3 Bft) W-SW 249 ° 0 min 0,000 mm 1,0 UV-I 137 W/m² 6,6 °C 5,4 °C 20,9 km/h (4 Bft)
19.03.2017 08:39 8,1 °C 8,1 °C 91 % 1014,2 hPa 0,0 mm 9,0 km/h (2 Bft) W 267 ° 0 min 0,000 mm 1,0 UV-I 141 W/m² 6,7 °C 6,6 °C 16,1 km/h (3 Bft)
19.03.2017 08:40 8,1 °C 8,1 °C 91 % 1014,2 hPa 0,0 mm 14,1 km/h (3 Bft) W 273 ° 0 min 0,000 mm 1,0 UV-I 144 W/m² 6,7 °C 5,7 °C 19,3 km/h (3 Bft)
19.03.2017 08:41 8,1 °C 8,1 °C 91 % 1014,2 hPa 0,0 mm 14,3 km/h (3 Bft) W 263 ° 0 min 0,000 mm 1,0 UV-I 155 W/m² 6,7 °C 5,7 °C 22,5 km/h (4 Bft)
19.03.2017 08:42 8,2 °C 8,2 °C 91 % 1014,1 hPa 0,0 mm 14,1 km/h (3 Bft) W-SW 257 ° 0 min 0,000 mm 1,0 UV-I 158 W/m² 6,8 °C 5,8 °C 17,7 km/h (3 Bft)
19.03.2017 08:43 8,2 °C 8,2 °C 91 % 1014,2 hPa 0,0 mm 14,6 km/h (3 Bft) SW 230 ° 0 min 0,000 mm 1,1 UV-I 163 W/m² 6,8 °C 5,7 °C 27,4 km/h (4 Bft)
19.03.2017 08:44 8,2 °C 8,2 °C 91 % 1014,1 hPa 0,0 mm 13,9 km/h (3 Bft) W 269 ° 0 min 0,000 mm 1,1 UV-I 167 W/m² 6,8 °C 5,8 °C 19,3 km/h (3 Bft)
19.03.2017 08:45 8,2 °C 8,2 °C 90 % 1014,1 hPa 0,0 mm 8,9 km/h (2 Bft) W 277 ° 0 min 0,000 mm 1,1 UV-I 171 W/m² 6,7 °C 6,7 °C 12,9 km/h (3 Bft)
19.03.2017 08:46 8,3 °C 8,3 °C 91 % 1014,1 hPa 0,0 mm 16,7 km/h (3 Bft) W-SW 257 ° 0 min 0,000 mm 1,1 UV-I 169 W/m² 6,9 °C 5,6 °C 20,9 km/h (4 Bft)
19.03.2017 08:47 8,3 °C 8,3 °C 91 % 1014,1 hPa 0,0 mm 12,8 km/h (3 Bft) W-SW 251 ° 0 min 0,000 mm 1,1 UV-I 171 W/m² 6,9 °C 6,1 °C 19,3 km/h (3 Bft)
19.03.2017 08:48 8,3 °C 8,3 °C 91 % 1014,0 hPa 0,0 mm 17,5 km/h (3 Bft) SW 221 ° 0 min 0,000 mm 1,1 UV-I 171 W/m² 6,9 °C 5,5 °C 20,9 km/h (4 Bft)
19.03.2017 08:49 8,3 °C 8,3 °C 91 % 1014,0 hPa 0,0 mm 10,3 km/h (2 Bft) W 260 ° 0 min 0,000 mm 1,1 UV-I 171 W/m² 6,9 °C 6,5 °C 19,3 km/h (3 Bft)
19.03.2017 08:50 8,3 °C 8,3 °C 90 % 1014,0 hPa 0,0 mm 9,7 km/h (2 Bft) W-SW 243 ° 0 min 0,000 mm 1,1 UV-I 169 W/m² 6,8 °C 6,7 °C 12,9 km/h (3 Bft)
19.03.2017 08:51 8,3 °C 8,3 °C 90 % 1014,0 hPa 0,0 mm 12,5 km/h (3 Bft) W-SW 247 ° 0 min 0,000 mm 1,1 UV-I 169 W/m² 6,8 °C 6,2 °C 19,3 km/h (3 Bft)
19.03.2017 08:52 8,4 °C 8,4 °C 90 % 1014,0 hPa 0,0 mm 13,5 km/h (3 Bft) W 260 ° 0 min 0,000 mm 1,1 UV-I 169 W/m² 6,9 °C 6,1 °C 17,7 km/h (3 Bft)
19.03.2017 08:53 8,4 °C 8,4 °C 90 % 1014,0 hPa 0,0 mm 10,9 km/h (2 Bft) W-SW 237 ° 0 min 0,000 mm 1,1 UV-I 171 W/m² 6,9 °C 6,6 °C 19,3 km/h (3 Bft)
19.03.2017 08:54 8,4 °C 8,4 °C 91 % 1014,0 hPa 0,0 mm 12,9 km/h (3 Bft) W 263 ° 0 min 0,000 mm 1,1 UV-I 171 W/m² 7,0 °C 6,2 °C 17,7 km/h (3 Bft)
19.03.2017 08:55 8,4 °C 8,4 °C 91 % 1014,1 hPa 0,0 mm 17,9 km/h (3 Bft) W-NW 290 ° 0 min 0,000 mm 1,1 UV-I 172 W/m² 7,0 °C 5,6 °C 24,1 km/h (4 Bft)
19.03.2017 08:56 8,4 °C 8,4 °C 91 % 1014,1 hPa 0,0 mm 17,6 km/h (3 Bft) W 272 ° 0 min 0,000 mm 1,1 UV-I 174 W/m² 7,0 °C 5,6 °C 24,1 km/h (4 Bft)
19.03.2017 08:57 8,4 °C 8,5 °C 91 % 1014,1 hPa 0,0 mm 15,5 km/h (3 Bft) W 269 ° 0 min 0,000 mm 1,1 UV-I 178 W/m² 7,0 °C 5,9 °C 20,9 km/h (4 Bft)
19.03.2017 08:58 8,5 °C 8,5 °C 90 % 1014,1 hPa 0,0 mm 11,9 km/h (2 Bft) W 263 ° 0 min 0,000 mm 1,1 UV-I 179 W/m² 7,0 °C 6,5 °C 14,5 km/h (3 Bft)
19.03.2017 08:59 8,5 °C 8,5 °C 91 % 1014,1 hPa 0,0 mm 13,6 km/h (3 Bft) W-SW 251 ° 0 min 0,000 mm 1,2 UV-I 181 W/m² 7,1 °C 6,3 °C 19,3 km/h (3 Bft)
19.03.2017 09:00 8,6 °C 8,6 °C 90 % 1014,1 hPa 0,0 mm 12,4 km/h (3 Bft) W-SW 256 ° 0 min 0,051 mm 1,2 UV-I 181 W/m² 7,1 °C 6,6 °C 16,1 km/h (3 Bft)
19.03.2017 09:01 8,6 °C 8,6 °C 90 % 1014,2 hPa 0,0 mm 10,7 km/h (2 Bft) W 259 ° 0 min 0,000 mm 1,2 UV-I 178 W/m² 7,1 °C 6,8 °C 16,1 km/h (3 Bft)
19.03.2017 09:02 8,6 °C 8,6 °C 90 % 1014,2 hPa 0,0 mm 11,2 km/h (2 Bft) W 273 ° 0 min 0,000 mm 1,1 UV-I 171 W/m² 7,1 °C 6,7 °C 16,1 km/h (3 Bft)
19.03.2017 09:03 8,6 °C 8,6 °C 90 % 1014,2 hPa 0,0 mm 16,0 km/h (3 Bft) W-SW 254 ° 0 min 0,000 mm 1,1 UV-I 167 W/m² 7,1 °C 6,1 °C 20,9 km/h (4 Bft)
19.03.2017 09:04 8,7 °C 8,7 °C 90 % 1014,2 hPa 0,0 mm 16,0 km/h (3 Bft) W-SW 242 ° 0 min 0,000 mm 1,2 UV-I 167 W/m² 7,2 °C 6,2 °C 24,1 km/h (4 Bft)
19.03.2017 09:05 8,7 °C 8,7 °C 90 % 1014,2 hPa 0,0 mm 8,9 km/h (2 Bft) S-SW 208 ° 0 min 0,000 mm 1,2 UV-I 167 W/m² 7,2 °C 7,3 °C 17,7 km/h (3 Bft)
19.03.2017 09:06 8,7 °C 8,7 °C 90 % 1014,2 hPa 0,0 mm 11,5 km/h (2 Bft) W 273 ° 0 min 0,000 mm 1,2 UV-I 165 W/m² 7,2 °C 6,8 °C 17,7 km/h (3 Bft)
19.03.2017 09:07 8,7 °C 8,7 °C 90 % 1014,2 hPa 0,0 mm 16,8 km/h (3 Bft) W-SW 257 ° 0 min 0,000 mm 1,1 UV-I 163 W/m² 7,2 °C 6,1 °C 20,9 km/h (4 Bft)
19.03.2017 09:08 8,7 °C 8,7 °C 90 % 1014,3 hPa 0,0 mm 10,4 km/h (2 Bft) W-SW 246 ° 0 min 0,000 mm 1,1 UV-I 162 W/m² 7,2 °C 7,0 °C 22,5 km/h (4 Bft)
19.03.2017 09:09 8,7 °C 8,7 °C 90 % 1014,3 hPa 0,0 mm 10,9 km/h (2 Bft) W-SW 252 ° 0 min 0,000 mm 1,2 UV-I 163 W/m² 7,2 °C 6,9 °C 19,3 km/h (3 Bft)
19.03.2017 09:10 8,7 °C 8,7 °C 90 % 1014,3 hPa 0,0 mm 17,9 km/h (3 Bft) W-SW 242 ° 0 min 0,000 mm 1,2 UV-I 165 W/m² 7,2 °C 6,0 °C 24,1 km/h (4 Bft)
19.03.2017 09:11 8,7 °C 8,7 °C 89 % 1014,3 hPa 0,0 mm 16,6 km/h (3 Bft) W-SW 252 ° 0 min 0,000 mm 1,2 UV-I 179 W/m² 7,0 °C 6,1 °C 27,4 km/h (4 Bft)
19.03.2017 09:12 8,8 °C 8,8 °C 90 % 1014,3 hPa 0,0 mm 14,1 km/h (3 Bft) W 265 ° 0 min 0,000 mm 1,3 UV-I 186 W/m² 7,3 °C 6,6 °C 24,1 km/h (4 Bft)
19.03.2017 09:13 8,7 °C 8,8 °C 90 % 1014,3 hPa 0,0 mm 15,3 km/h (3 Bft) W 259 ° 0 min 0,000 mm 1,3 UV-I 199 W/m² 7,2 °C 6,3 °C 25,7 km/h (4 Bft)
19.03.2017 09:14 8,8 °C 8,8 °C 90 % 1014,3 hPa 0,0 mm 12,0 km/h (2 Bft) W-SW 248 ° 0 min 0,000 mm 1,3 UV-I 214 W/m² 7,3 °C 6,9 °C 19,3 km/h (3 Bft)
19.03.2017 09:15 8,8 °C 8,8 °C 89 % 1014,4 hPa 0,0 mm 14,6 km/h (3 Bft) W 270 ° 0 min 0,000 mm 1,3 UV-I 218 W/m² 7,1 °C 6,5 °C 17,7 km/h (3 Bft)
19.03.2017 09:16 8,9 °C 8,9 °C 90 % 1014,4 hPa 0,0 mm 11,5 km/h (2 Bft) W-SW 253 ° 0 min 0,000 mm 1,4 UV-I 209 W/m² 7,4 °C 7,1 °C 16,1 km/h (3 Bft)
19.03.2017 09:17 8,9 °C 8,9 °C 90 % 1014,4 hPa 0,0 mm 13,9 km/h (3 Bft) W 264 ° 0 min 0,000 mm 1,4 UV-I 229 W/m² 7,4 °C 6,7 °C 20,9 km/h (4 Bft)
19.03.2017 09:18 8,9 °C 8,9 °C 89 % 1014,4 hPa 0,0 mm 23,0 km/h (4 Bft) W-SW 251 ° 0 min 0,000 mm 1,4 UV-I 211 W/m² 7,2 °C 5,7 °C 30,6 km/h (5 Bft)
19.03.2017 09:19 8,9 °C 8,9 °C 89 % 1014,3 hPa 0,0 mm 18,0 km/h (3 Bft) W 263 ° 0 min 0,000 mm 1,4 UV-I 234 W/m² 7,2 °C 6,2 °C 25,7 km/h (4 Bft)
19.03.2017 09:20 9,0 °C 9,0 °C 89 % 1014,3 hPa 0,0 mm 11,6 km/h (2 Bft) W-SW 242 ° 0 min 0,000 mm 1,4 UV-I 236 W/m² 7,3 °C 7,2 °C 20,9 km/h (4 Bft)
19.03.2017 09:21 9,0 °C 9,0 °C 89 % 1014,3 hPa 0,0 mm 10,9 km/h (2 Bft) W 265 ° 0 min 0,000 mm 1,4 UV-I 218 W/m² 7,3 °C 7,3 °C 16,1 km/h (3 Bft)
19.03.2017 09:22 9,0 °C 9,0 °C 89 % 1014,2 hPa 0,0 mm 9,3 km/h (2 Bft) W-SW 245 ° 0 min 0,000 mm 1,4 UV-I 214 W/m² 7,3 °C 7,6 °C 16,1 km/h (3 Bft)
19.03.2017 09:23 9,1 °C 9,1 °C 89 % 1014,2 hPa 0,0 mm 16,4 km/h (3 Bft) W-SW 257 ° 0 min 0,000 mm 1,4 UV-I 209 W/m² 7,4 °C 6,6 °C 22,5 km/h (4 Bft)
19.03.2017 09:24 9,1 °C 9,1 °C 89 % 1014,1 hPa 0,0 mm 12,5 km/h (3 Bft) SW 225 ° 0 min 0,000 mm 1,4 UV-I 206 W/m² 7,4 °C 7,1 °C 20,9 km/h (4 Bft)
19.03.2017 09:25 9,1 °C 9,1 °C 89 % 1014,1 hPa 0,0 mm 12,7 km/h (3 Bft) W-SW 245 ° 0 min 0,000 mm 1,4 UV-I 202 W/m² 7,4 °C 7,1 °C 19,3 km/h (3 Bft)
19.03.2017 09:26 9,1 °C 9,1 °C 89 % 1014,1 hPa 0,0 mm 16,4 km/h (3 Bft) W-SW 252 ° 0 min 0,000 mm 1,4 UV-I 199 W/m² 7,4 °C 6,6 °C 25,7 km/h (4 Bft)
19.03.2017 09:27 9,1 °C 9,1 °C 88 % 1014,0 hPa 0,0 mm 12,1 km/h (2 Bft) W-SW 244 ° 0 min 0,000 mm 1,4 UV-I 206 W/m² 7,2 °C 7,2 °C 19,3 km/h (3 Bft)
19.03.2017 09:28 9,1 °C 9,1 °C 89 % 1014,0 hPa 0,0 mm 13,8 km/h (3 Bft) W-SW 250 ° 0 min 0,000 mm 1,5 UV-I 211 W/m² 7,4 °C 7,0 °C 29,0 km/h (5 Bft)
19.03.2017 09:29 9,1 °C 9,1 °C 89 % 1014,1 hPa 0,0 mm 13,1 km/h (3 Bft) W-SW 246 ° 0 min 0,000 mm 1,6 UV-I 221 W/m² 7,4 °C 7,1 °C 29,0 km/h (5 Bft)
19.03.2017 09:30 9,2 °C 9,2 °C 89 % 1014,0 hPa 0,0 mm 10,5 km/h (2 Bft) W 268 ° 0 min 0,000 mm 1,6 UV-I 223 W/m² 7,5 °C 7,6 °C 17,7 km/h (3 Bft)
19.03.2017 09:31 9,2 °C 9,2 °C 89 % 1014,1 hPa 0,0 mm 7,6 km/h (2 Bft) W-NW 285 ° 0 min 0,000 mm 1,6 UV-I 246 W/m² 7,5 °C 8,2 °C 16,1 km/h (3 Bft)
19.03.2017 09:32 9,2 °C 9,2 °C 89 % 1014,1 hPa 0,0 mm 6,6 km/h (2 Bft) W 269 ° 0 min 0,000 mm 1,7 UV-I 262 W/m² 7,5 °C 8,4 °C 12,9 km/h (3 Bft)
19.03.2017 09:33 9,3 °C 9,3 °C 90 % 1014,1 hPa 0,0 mm 14,9 km/h (3 Bft) W 265 ° 0 min 0,000 mm 1,7 UV-I 281 W/m² 7,7 °C 7,1 °C 19,3 km/h (3 Bft)
19.03.2017 09:34 9,3 °C 9,3 °C 89 % 1014,2 hPa 0,0 mm 13,9 km/h (3 Bft) W-SW 243 ° 0 min 0,000 mm 1,8 UV-I 285 W/m² 7,6 °C 7,2 °C 17,7 km/h (3 Bft)
19.03.2017 09:35 9,3 °C 9,3 °C 90 % 1014,2 hPa 0,0 mm 11,7 km/h (2 Bft) W 261 ° 0 min 0,000 mm 1,8 UV-I 272 W/m² 7,7 °C 7,5 °C 22,5 km/h (4 Bft)
19.03.2017 09:36 9,4 °C 9,4 °C 90 % 1014,2 hPa 0,0 mm 12,3 km/h (3 Bft) W 264 ° 0 min 0,000 mm 1,7 UV-I 260 W/m² 7,8 °C 7,5 °C 19,3 km/h (3 Bft)
19.03.2017 09:37 9,4 °C 9,4 °C 89 % 1014,2 hPa 0,0 mm 10,1 km/h (2 Bft) SW 236 ° 0 min 0,000 mm 1,8 UV-I 272 W/m² 7,7 °C 7,9 °C 14,5 km/h (3 Bft)
19.03.2017 09:38 9,4 °C 9,5 °C 89 % 1014,2 hPa 0,0 mm 13,8 km/h (3 Bft) W-SW 253 ° 0 min 0,000 mm 1,9 UV-I 285 W/m² 7,7 °C 7,3 °C 17,7 km/h (3 Bft)
19.03.2017 09:39 9,5 °C 9,5 °C 89 % 1014,2 hPa 0,0 mm 18,9 km/h (3 Bft) W-SW 240 ° 1 min 0,000 mm 1,9 UV-I 290 W/m² 7,8 °C 6,9 °C 29,0 km/h (5 Bft)
19.03.2017 09:40 9,6 °C 9,6 °C 89 % 1014,1 hPa 0,0 mm 16,2 km/h (3 Bft) W-SW 249 ° 0 min 0,000 mm 1,9 UV-I 271 W/m² 7,9 °C 7,3 °C 22,5 km/h (4 Bft)
19.03.2017 09:41 9,6 °C 9,6 °C 89 % 1014,1 hPa 0,0 mm 18,2 km/h (3 Bft) W-SW 242 ° 0 min 0,000 mm 1,9 UV-I 230 W/m² 7,9 °C 7,1 °C 25,7 km/h (4 Bft)
19.03.2017 09:42 9,6 °C 9,6 °C 89 % 1014,1 hPa 0,0 mm 18,4 km/h (3 Bft) W-SW 239 ° 0 min 0,000 mm 2,0 UV-I 248 W/m² 7,9 °C 7,0 °C 24,1 km/h (4 Bft)
19.03.2017 09:43 9,6 °C 9,6 °C 89 % 1014,0 hPa 0,0 mm 17,4 km/h (3 Bft) W 261 ° 1 min 0,000 mm 2,2 UV-I 345 W/m² 7,9 °C 7,1 °C 24,1 km/h (4 Bft)
19.03.2017 09:44 9,7 °C 9,7 °C 89 % 1014,0 hPa 0,0 mm 17,2 km/h (3 Bft) W-SW 247 ° 1 min 0,000 mm 2,2 UV-I 334 W/m² 8,0 °C 7,3 °C 24,1 km/h (4 Bft)
19.03.2017 09:45 9,7 °C 9,7 °C 89 % 1014,1 hPa 0,0 mm 13,1 km/h (3 Bft) W-SW 245 ° 1 min 0,000 mm 2,2 UV-I 357 W/m² 8,0 °C 7,8 °C 17,7 km/h (3 Bft)
19.03.2017 09:46 9,7 °C 9,7 °C 89 % 1014,2 hPa 0,0 mm 16,9 km/h (3 Bft) W-SW 246 ° 1 min 0,000 mm 2,2 UV-I 369 W/m² 8,0 °C 7,3 °C 22,5 km/h (4 Bft)
19.03.2017 09:47 9,8 °C 9,8 °C 88 % 1014,2 hPa 0,0 mm 8,2 km/h (2 Bft) W 275 ° 1 min 0,000 mm 2,2 UV-I 376 W/m² 7,9 °C 8,7 °C 17,7 km/h (3 Bft)
19.03.2017 09:48 9,8 °C 9,8 °C 89 % 1014,2 hPa 0,0 mm 14,7 km/h (3 Bft) W-SW 240 ° 1 min 0,000 mm 2,2 UV-I 376 W/m² 8,1 °C 7,7 °C 22,5 km/h (4 Bft)
19.03.2017 09:49 9,9 °C 9,9 °C 88 % 1014,2 hPa 0,0 mm 16,6 km/h (3 Bft) W-SW 240 ° 1 min 0,000 mm 2,2 UV-I 343 W/m² 8,0 °C 7,6 °C 22,5 km/h (4 Bft)
19.03.2017 09:50 9,9 °C 9,9 °C 88 % 1014,2 hPa 0,0 mm 13,3 km/h (3 Bft) W-SW 248 ° 1 min 0,000 mm 2,3 UV-I 364 W/m² 8,0 °C 8,0 °C 17,7 km/h (3 Bft)
19.03.2017 09:51 9,9 °C 9,9 °C 89 % 1014,1 hPa 0,0 mm 10,4 km/h (2 Bft) W-SW 237 ° 1 min 0,000 mm 2,4 UV-I 396 W/m² 8,2 °C 8,4 °C 19,3 km/h (3 Bft)
19.03.2017 09:52 9,9 °C 10,0 °C 89 % 1014,1 hPa 0,0 mm 17,3 km/h (3 Bft) W-SW 249 ° 1 min 0,000 mm 2,5 UV-I 394 W/m² 8,2 °C 7,5 °C 22,5 km/h (4 Bft)
19.03.2017 09:53 10,0 °C 10,0 °C 89 % 1014,1 hPa 0,0 mm 18,6 km/h (3 Bft) W-SW 238 ° 1 min 0,000 mm 2,7 UV-I 399 W/m² 8,3 °C 7,5 °C 27,4 km/h (4 Bft)
19.03.2017 09:54 10,0 °C 10,0 °C 88 % 1014,1 hPa 0,0 mm 21,3 km/h (4 Bft) W 260 ° 1 min 0,000 mm 2,2 UV-I 399 W/m² 8,1 °C 7,3 °C 29,0 km/h (5 Bft)
19.03.2017 09:55 10,0 °C 10,0 °C 87 % 1014,1 hPa 0,0 mm 16,6 km/h (3 Bft) W 281 ° 1 min 0,000 mm 2,9 UV-I 399 W/m² 7,9 °C 7,7 °C 24,1 km/h (4 Bft)
19.03.2017 09:56 10,1 °C 10,1 °C 87 % 1014,1 hPa 0,0 mm 12,9 km/h (3 Bft) W 275 ° 1 min 0,000 mm 2,8 UV-I 517 W/m² 8,0 °C 10,1 °C 17,7 km/h (3 Bft)
19.03.2017 09:57 10,1 °C 10,1 °C 89 % 1014,1 hPa 0,0 mm 12,8 km/h (3 Bft) S-SW 212 ° 1 min 0,000 mm 2,8 UV-I 513 W/m² 8,4 °C 10,1 °C 14,5 km/h (3 Bft)
19.03.2017 09:58 10,2 °C 10,2 °C 88 % 1014,1 hPa 0,0 mm 17,5 km/h (3 Bft) W-SW 252 ° 1 min 0,000 mm 2,5 UV-I 371 W/m² 8,3 °C 10,2 °C 24,1 km/h (4 Bft)
19.03.2017 09:59 10,2 °C 10,2 °C 86 % 1014,1 hPa 0,0 mm 13,1 km/h (3 Bft) SW 236 ° 1 min 0,000 mm 3,3 UV-I 371 W/m² 8,0 °C 10,2 °C 17,7 km/h (3 Bft)
19.03.2017 10:00 10,3 °C 10,3 °C 87 % 1014,1 hPa 0,0 mm 15,3 km/h (3 Bft) W 263 ° 1 min 0,127 mm 3,2 UV-I 617 W/m² 8,2 °C 10,3 °C 20,9 km/h (4 Bft)
19.03.2017 10:01 10,4 °C 10,4 °C 88 % 1014,0 hPa 0,0 mm 14,4 km/h (3 Bft) W-SW 248 ° 1 min 0,000 mm 3,1 UV-I 598 W/m² 8,5 °C 10,4 °C 17,7 km/h (3 Bft)
19.03.2017 10:02 10,6 °C 10,6 °C 88 % 1014,1 hPa 0,0 mm 11,8 km/h (2 Bft) W 265 ° 1 min 0,000 mm 2,6 UV-I 598 W/m² 8,7 °C 10,6 °C 16,1 km/h (3 Bft)
19.03.2017 10:03 10,7 °C 10,7 °C 87 % 1014,0 hPa 0,0 mm 18,8 km/h (3 Bft) W-SW 238 ° 1 min 0,000 mm 2,3 UV-I 403 W/m² 8,6 °C 10,7 °C 24,1 km/h (4 Bft)
19.03.2017 10:04 10,7 °C 10,7 °C 87 % 1014,0 hPa 0,0 mm 18,3 km/h (3 Bft) W-SW 247 ° 0 min 0,000 mm 2,0 UV-I 250 W/m² 8,6 °C 10,7 °C 22,5 km/h (4 Bft)
19.03.2017 10:05 10,6 °C 10,7 °C 87 % 1014,0 hPa 0,0 mm 13,7 km/h (3 Bft) W-SW 246 ° 0 min 0,000 mm 1,8 UV-I 220 W/m² 8,5 °C 10,6 °C 17,7 km/h (3 Bft)
19.03.2017 10:06 10,6 °C 10,6 °C 88 % 1013,9 hPa 0,0 mm 13,5 km/h (3 Bft) W-SW 254 ° 0 min 0,000 mm 1,9 UV-I 225 W/m² 8,7 °C 10,6 °C 20,9 km/h (4 Bft)
19.03.2017 10:07 10,6 °C 10,6 °C 86 % 1014,0 hPa 0,0 mm 22,8 km/h (4 Bft) W 263 ° 0 min 0,000 mm 2,0 UV-I 237 W/m² 8,4 °C 10,6 °C 29,0 km/h (5 Bft)
19.03.2017 10:08 10,4 °C 10,6 °C 86 % 1014,0 hPa 0,0 mm 11,8 km/h (2 Bft) W-SW 242 ° 0 min 0,000 mm 2,1 UV-I 255 W/m² 8,2 °C 10,4 °C 22,5 km/h (4 Bft)
19.03.2017 10:09 10,3 °C 10,4 °C 85 % 1014,0 hPa 0,0 mm 17,4 km/h (3 Bft) W 271 ° 1 min 0,000 mm 2,2 UV-I 329 W/m² 7,9 °C 10,3 °C 25,7 km/h (4 Bft)
19.03.2017 10:10 10,3 °C 10,4 °C 86 % 1013,9 hPa 0,0 mm 14,6 km/h (3 Bft) W-SW 240 ° 1 min 0,000 mm 2,5 UV-I 390 W/m² 8,1 °C 10,3 °C 22,5 km/h (4 Bft)
19.03.2017 10:11 10,3 °C 10,3 °C 86 % 1013,9 hPa 0,0 mm 12,5 km/h (3 Bft) W 278 ° 1 min 0,000 mm 2,4 UV-I 388 W/m² 8,1 °C 10,3 °C 19,3 km/h (3 Bft)
19.03.2017 10:12 10,4 °C 10,4 °C 87 % 1014,0 hPa 0,0 mm 15,8 km/h (3 Bft) W 261 ° 1 min 0,000 mm 2,6 UV-I 371 W/m² 8,3 °C 10,4 °C 20,9 km/h (4 Bft)
19.03.2017 10:13 10,4 °C 10,4 °C 87 % 1014,0 hPa 0,0 mm 18,0 km/h (3 Bft) W-SW 252 ° 1 min 0,000 mm 2,5 UV-I 422 W/m² 8,3 °C 10,4 °C 25,7 km/h (4 Bft)
19.03.2017 10:14 10,5 °C 10,5 °C 88 % 1014,1 hPa 0,0 mm 10,5 km/h (2 Bft) W 274 ° 1 min 0,000 mm 2,1 UV-I 330 W/m² 8,6 °C 10,5 °C 17,7 km/h (3 Bft)
19.03.2017 10:15 10,6 °C 10,6 °C 86 % 1014,0 hPa 0,0 mm 14,3 km/h (3 Bft) W 269 ° 0 min 0,000 mm 2,0 UV-I 255 W/m² 8,4 °C 10,6 °C 16,1 km/h (3 Bft)
19.03.2017 10:16 10,5 °C 10,6 °C 87 % 1014,0 hPa 0,0 mm 14,5 km/h (3 Bft) W-SW 238 ° 0 min 0,000 mm 2,0 UV-I 258 W/m² 8,4 °C 10,5 °C 22,5 km/h (4 Bft)
19.03.2017 10:17 10,5 °C 10,5 °C 86 % 1014,0 hPa 0,0 mm 13,9 km/h (3 Bft) W-SW 250 ° 0 min 0,000 mm 2,0 UV-I 267 W/m² 8,3 °C 10,5 °C 19,3 km/h (3 Bft)
19.03.2017 10:18 10,5 °C 10,5 °C 86 % 1014,0 hPa 0,0 mm 9,7 km/h (2 Bft) W 275 ° 0 min 0,000 mm 2,1 UV-I 278 W/m² 8,3 °C 10,5 °C 16,1 km/h (3 Bft)
19.03.2017 10:19 10,6 °C 10,6 °C 87 % 1014,0 hPa 0,0 mm 9,0 km/h (2 Bft) W 275 ° 0 min 0,000 mm 2,1 UV-I 283 W/m² 8,5 °C 10,6 °C 14,5 km/h (3 Bft)
19.03.2017 10:20 10,6 °C 10,6 °C 87 % 1014,1 hPa 0,0 mm 14,3 km/h (3 Bft) W 271 ° 1 min 0,000 mm 2,2 UV-I 338 W/m² 8,5 °C 10,6 °C 20,9 km/h (4 Bft)
19.03.2017 10:21 10,6 °C 10,6 °C 86 % 1014,1 hPa 0,0 mm 9,1 km/h (2 Bft) W-SW 247 ° 0 min 0,000 mm 2,0 UV-I 262 W/m² 8,4 °C 10,6 °C 14,5 km/h (3 Bft)
19.03.2017 10:22 10,6 °C 10,6 °C 86 % 1014,1 hPa 0,0 mm 15,1 km/h (3 Bft) W-SW 254 ° 0 min 0,000 mm 1,8 UV-I 260 W/m² 8,4 °C 10,6 °C 19,3 km/h (3 Bft)
19.03.2017 10:23 10,6 °C 10,6 °C 86 % 1014,1 hPa 0,0 mm 10,9 km/h (2 Bft) SW 229 ° 0 min 0,000 mm 1,8 UV-I 267 W/m² 8,4 °C 10,6 °C 17,7 km/h (3 Bft)
19.03.2017 10:24 10,5 °C 10,6 °C 86 % 1014,1 hPa 0,0 mm 17,5 km/h (3 Bft) SW 224 ° 0 min 0,000 mm 1,7 UV-I 246 W/m² 8,3 °C 10,5 °C 20,9 km/h (4 Bft)
19.03.2017 10:25 10,4 °C 10,5 °C 85 % 1014,1 hPa 0,0 mm 16,6 km/h (3 Bft) SW 232 ° 0 min 0,000 mm 1,7 UV-I 220 W/m² 8,0 °C 10,4 °C 25,7 km/h (4 Bft)
19.03.2017 10:26 10,4 °C 10,4 °C 85 % 1014,1 hPa 0,0 mm 15,3 km/h (3 Bft) W 261 ° 0 min 0,000 mm 1,7 UV-I 218 W/m² 8,0 °C 10,4 °C 22,5 km/h (4 Bft)
19.03.2017 10:27 10,4 °C 10,4 °C 86 % 1014,0 hPa 0,0 mm 13,9 km/h (3 Bft) W 267 ° 0 min 0,000 mm 1,7 UV-I 227 W/m² 8,2 °C 10,4 °C 20,9 km/h (4 Bft)
19.03.2017 10:28 10,3 °C 10,4 °C 86 % 1014,0 hPa 0,0 mm 12,1 km/h (2 Bft) W-SW 251 ° 0 min 0,000 mm 1,8 UV-I 232 W/m² 8,1 °C 10,3 °C 16,1 km/h (3 Bft)
19.03.2017 10:29 10,3 °C 10,3 °C 87 % 1014,1 hPa 0,0 mm 15,8 km/h (3 Bft) NW 311 ° 0 min 0,000 mm 1,9 UV-I 246 W/m² 8,2 °C 10,3 °C 25,7 km/h (4 Bft)
19.03.2017 10:30 10,3 °C 10,3 °C 85 % 1014,0 hPa 0,0 mm 18,4 km/h (3 Bft) W 274 ° 0 min 0,000 mm 2,0 UV-I 258 W/m² 7,9 °C 10,3 °C 25,7 km/h (4 Bft)
19.03.2017 10:31 10,3 °C 10,3 °C 86 % 1014,0 hPa 0,0 mm 15,4 km/h (3 Bft) W 277 ° 0 min 0,000 mm 2,0 UV-I 274 W/m² 8,1 °C 10,3 °C 24,1 km/h (4 Bft)
19.03.2017 10:32 10,3 °C 10,3 °C 86 % 1014,1 hPa 0,0 mm 10,8 km/h (2 Bft) W-SW 253 ° 0 min 0,000 mm 2,0 UV-I 258 W/m² 8,1 °C 10,3 °C 17,7 km/h (3 Bft)
19.03.2017 10:33 10,3 °C 10,3 °C 87 % 1014,0 hPa 0,0 mm 11,5 km/h (2 Bft) W-SW 252 ° 0 min 0,000 mm 1,9 UV-I 236 W/m² 8,2 °C 10,3 °C 14,5 km/h (3 Bft)
19.03.2017 10:34 10,3 °C 10,3 °C 87 % 1014,0 hPa 0,0 mm 11,7 km/h (2 Bft) W-NW 290 ° 0 min 0,000 mm 1,8 UV-I 227 W/m² 8,2 °C 10,3 °C 17,7 km/h (3 Bft)
19.03.2017 10:35 10,3 °C 10,3 °C 86 % 1014,0 hPa 0,0 mm 10,7 km/h (2 Bft) W-SW 242 ° 0 min 0,000 mm 1,8 UV-I 227 W/m² 8,1 °C 10,3 °C 17,7 km/h (3 Bft)
19.03.2017 10:36 10,3 °C 10,3 °C 87 % 1014,0 hPa 0,0 mm 17,8 km/h (3 Bft) W-SW 255 ° 0 min 0,000 mm 1,9 UV-I 250 W/m² 8,2 °C 10,3 °C 24,1 km/h (4 Bft)
19.03.2017 10:37 10,3 °C 10,3 °C 86 % 1014,0 hPa 0,0 mm 14,6 km/h (3 Bft) S-SW 198 ° 0 min 0,000 mm 2,0 UV-I 269 W/m² 8,1 °C 10,3 °C 19,3 km/h (3 Bft)
19.03.2017 10:38 10,3 °C 10,3 °C 86 % 1013,9 hPa 0,0 mm 13,6 km/h (3 Bft) W-SW 255 ° 1 min 0,000 mm 2,2 UV-I 313 W/m² 8,1 °C 10,3 °C 16,1 km/h (3 Bft)
19.03.2017 10:39 10,3 °C 10,3 °C 86 % 1014,0 hPa 0,0 mm 8,8 km/h (2 Bft) W-SW 247 ° 1 min 0,000 mm 2,2 UV-I 308 W/m² 8,1 °C 10,3 °C 12,9 km/h (3 Bft)
19.03.2017 10:40 10,3 °C 10,3 °C 86 % 1013,9 hPa 0,0 mm 20,2 km/h (4 Bft) W 278 ° 1 min 0,000 mm 2,4 UV-I 346 W/m² 8,1 °C 10,3 °C 25,7 km/h (4 Bft)
19.03.2017 10:41 10,3 °C 10,3 °C 86 % 1014,0 hPa 0,0 mm 14,6 km/h (3 Bft) W 259 ° 1 min 0,000 mm 2,5 UV-I 359 W/m² 8,1 °C 10,3 °C 19,3 km/h (3 Bft)
19.03.2017 10:42 10,3 °C 10,3 °C 87 % 1014,0 hPa 0,0 mm 11,3 km/h (2 Bft) W 276 ° 1 min 0,000 mm 2,6 UV-I 364 W/m² 8,2 °C 10,3 °C 19,3 km/h (3 Bft)
19.03.2017 10:43 10,4 °C 10,4 °C 86 % 1014,0 hPa 0,0 mm 15,5 km/h (3 Bft) W-SW 253 ° 1 min 0,000 mm 2,6 UV-I 397 W/m² 8,2 °C 10,4 °C 19,3 km/h (3 Bft)
19.03.2017 10:44 10,5 °C 10,5 °C 87 % 1013,9 hPa 0,0 mm 10,3 km/h (2 Bft) SW 234 ° 1 min 0,000 mm 2,6 UV-I 383 W/m² 8,4 °C 10,5 °C 16,1 km/h (3 Bft)
19.03.2017 10:45 10,6 °C 10,6 °C 87 % 1013,9 hPa 0,0 mm 19,0 km/h (3 Bft) W-SW 246 ° 1 min 0,000 mm 2,3 UV-I 330 W/m² 8,5 °C 10,6 °C 22,5 km/h (4 Bft)
19.03.2017 10:46 10,6 °C 10,6 °C 86 % 1013,9 hPa 0,0 mm 14,2 km/h (3 Bft) W 279 ° 1 min 0,000 mm 2,3 UV-I 345 W/m² 8,4 °C 10,6 °C 22,5 km/h (4 Bft)
19.03.2017 10:47 10,6 °C 10,6 °C 86 % 1013,9 hPa 0,0 mm 16,8 km/h (3 Bft) W 280 ° 1 min 0,000 mm 2,2 UV-I 327 W/m² 8,4 °C 10,6 °C 24,1 km/h (4 Bft)
19.03.2017 10:48 10,6 °C 10,6 °C 86 % 1013,9 hPa 0,0 mm 12,6 km/h (3 Bft) W-NW 289 ° 0 min 0,000 mm 2,2 UV-I 285 W/m² 8,4 °C 10,6 °C 17,7 km/h (3 Bft)
19.03.2017 10:49 10,6 °C 10,6 °C 86 % 1013,9 hPa 0,0 mm 15,2 km/h (3 Bft) W 264 ° 0 min 0,000 mm 2,2 UV-I 288 W/m² 8,4 °C 10,6 °C 24,1 km/h (4 Bft)
19.03.2017 10:50 10,6 °C 10,6 °C 86 % 1013,9 hPa 0,0 mm 17,6 km/h (3 Bft) W-SW 249 ° 1 min 0,000 mm 2,4 UV-I 362 W/m² 8,4 °C 10,6 °C 22,5 km/h (4 Bft)
19.03.2017 10:51 10,6 °C 10,6 °C 86 % 1013,9 hPa 0,0 mm 12,5 km/h (3 Bft) W-NW 285 ° 1 min 0,000 mm 2,8 UV-I 417 W/m² 8,4 °C 10,6 °C 17,7 km/h (3 Bft)
19.03.2017 10:52 10,7 °C 10,7 °C 86 % 1013,9 hPa 0,0 mm 8,1 km/h (2 Bft) W 268 ° 1 min 0,000 mm 2,8 UV-I 455 W/m² 8,5 °C 10,7 °C 16,1 km/h (3 Bft)
19.03.2017 10:53 10,8 °C 10,8 °C 86 % 1013,8 hPa 0,0 mm 11,4 km/h (2 Bft) W 270 ° 1 min 0,000 mm 2,7 UV-I 455 W/m² 8,6 °C 10,8 °C 19,3 km/h (3 Bft)
19.03.2017 10:54 10,8 °C 10,8 °C 85 % 1013,9 hPa 0,0 mm 13,1 km/h (3 Bft) W-NW 288 ° 1 min 0,000 mm 2,8 UV-I 431 W/m² 8,4 °C 10,8 °C 19,3 km/h (3 Bft)
19.03.2017 10:55 10,8 °C 10,8 °C 86 % 1013,9 hPa 0,0 mm 14,6 km/h (3 Bft) W 260 ° 1 min 0,000 mm 2,6 UV-I 397 W/m² 8,6 °C 10,8 °C 20,9 km/h (4 Bft)
19.03.2017 10:56 10,8 °C 10,8 °C 86 % 1013,8 hPa 0,0 mm 15,7 km/h (3 Bft) W 266 ° 1 min 0,000 mm 2,4 UV-I 297 W/m² 8,6 °C 10,8 °C 22,5 km/h (4 Bft)
19.03.2017 10:57 10,8 °C 10,8 °C 85 % 1013,8 hPa 0,0 mm 11,7 km/h (2 Bft) W 261 ° 1 min 0,000 mm 2,3 UV-I 302 W/m² 8,4 °C 10,8 °C 16,1 km/h (3 Bft)
19.03.2017 10:58 10,8 °C 10,8 °C 85 % 1013,9 hPa 0,0 mm 11,4 km/h (2 Bft) W 268 ° 1 min 0,000 mm 2,3 UV-I 302 W/m² 8,4 °C 10,8 °C 12,9 km/h (3 Bft)
19.03.2017 10:59 10,8 °C 10,8 °C 85 % 1013,9 hPa 0,0 mm 9,4 km/h (2 Bft) S-SO 168 ° 1 min 0,000 mm 2,4 UV-I 316 W/m² 8,4 °C 10,8 °C 16,1 km/h (3 Bft)
19.03.2017 11:00 10,8 °C 10,8 °C 86 % 1013,9 hPa 0,0 mm 6,5 km/h (2 Bft) W 261 ° 1 min 0,000 mm 2,4 UV-I 323 W/m² 8,6 °C 10,8 °C 11,3 km/h (2 Bft)
19.03.2017 11:01 10,8 °C 10,8 °C 85 % 1013,9 hPa 0,0 mm 12,0 km/h (2 Bft) W 263 ° 1 min 0,153 mm 2,3 UV-I 311 W/m² 8,4 °C 10,8 °C 17,7 km/h (3 Bft)
19.03.2017 11:02 10,8 °C 10,8 °C 86 % 1013,8 hPa 0,0 mm 9,1 km/h (2 Bft) W-NW 285 ° 0 min 0,000 mm 2,3 UV-I 287 W/m² 8,6 °C 10,8 °C 12,9 km/h (3 Bft)
19.03.2017 11:03 10,9 °C 10,9 °C 87 % 1013,8 hPa 0,0 mm 3,9 km/h (1 Bft) W-SW 245 ° 0 min 0,000 mm 2,0 UV-I 257 W/m² 8,8 °C 10,9 °C 6,4 km/h (2 Bft)
19.03.2017 11:04 10,9 °C 10,9 °C 86 % 1013,8 hPa 0,0 mm 8,8 km/h (2 Bft) W-SW 254 ° 0 min 0,000 mm 2,0 UV-I 241 W/m² 8,7 °C 10,9 °C 16,1 km/h (3 Bft)
19.03.2017 11:05 11,0 °C 11,0 °C 86 % 1013,8 hPa 0,0 mm 9,0 km/h (2 Bft) W-NW 288 ° 0 min 0,000 mm 2,0 UV-I 243 W/m² 8,7 °C 11,0 °C 12,9 km/h (3 Bft)
19.03.2017 11:06 10,9 °C 11,0 °C 85 % 1013,8 hPa 0,0 mm 14,2 km/h (3 Bft) W-SW 255 ° 0 min 0,000 mm 2,2 UV-I 264 W/m² 8,5 °C 10,9 °C 22,5 km/h (4 Bft)
19.03.2017 11:07 10,9 °C 10,9 °C 86 % 1013,7 hPa 0,0 mm 12,9 km/h (3 Bft) W 259 ° 1 min 0,000 mm 2,4 UV-I 323 W/m² 8,7 °C 10,9 °C 17,7 km/h (3 Bft)
19.03.2017 11:08 10,9 °C 10,9 °C 86 % 1013,8 hPa 0,0 mm 13,0 km/h (3 Bft) W 273 ° 1 min 0,000 mm 2,3 UV-I 301 W/m² 8,7 °C 10,9 °C 16,1 km/h (3 Bft)
19.03.2017 11:09 11,0 °C 11,0 °C 86 % 1013,8 hPa 0,0 mm 13,5 km/h (3 Bft) SW 218 ° 1 min 0,000 mm 2,2 UV-I 294 W/m² 8,7 °C 11,0 °C 19,3 km/h (3 Bft)
19.03.2017 11:10 11,1 °C 11,1 °C 87 % 1013,7 hPa 0,0 mm 13,1 km/h (3 Bft) SW 220 ° 0 min 0,000 mm 2,2 UV-I 260 W/m² 9,0 °C 11,1 °C 19,3 km/h (3 Bft)
19.03.2017 11:11 11,1 °C 11,1 °C 85 % 1013,7 hPa 0,0 mm 16,9 km/h (3 Bft) SW 219 ° 0 min 0,000 mm 2,3 UV-I 264 W/m² 8,7 °C 11,1 °C 22,5 km/h (4 Bft)
19.03.2017 11:12 11,1 °C 11,1 °C 85 % 1013,7 hPa 0,0 mm 7,2 km/h (2 Bft) W-SW 242 ° 1 min 0,000 mm 2,4 UV-I 294 W/m² 8,7 °C 11,1 °C 11,3 km/h (2 Bft)
19.03.2017 11:13 11,1 °C 11,1 °C 85 % 1013,7 hPa 0,0 mm 8,0 km/h (2 Bft) W-SW 237 ° 1 min 0,000 mm 2,7 UV-I 336 W/m² 8,7 °C 11,1 °C 12,9 km/h (3 Bft)
19.03.2017 11:14 11,2 °C 11,2 °C 85 % 1013,7 hPa 0,0 mm 13,1 km/h (3 Bft) W-SW 241 ° 1 min 0,000 mm 2,9 UV-I 417 W/m² 8,8 °C 11,2 °C 19,3 km/h (3 Bft)
19.03.2017 11:15 11,2 °C 11,2 °C 84 % 1013,7 hPa 0,0 mm 11,1 km/h (2 Bft) W 260 ° 1 min 0,000 mm 2,2 UV-I 417 W/m² 8,6 °C 11,2 °C 16,1 km/h (3 Bft)
19.03.2017 11:16 11,2 °C 11,2 °C 85 % 1013,7 hPa 0,0 mm 14,8 km/h (3 Bft) W-SW 241 ° 1 min 0,000 mm 1,7 UV-I 417 W/m² 8,8 °C 11,2 °C 24,1 km/h (4 Bft)
19.03.2017 11:17 11,2 °C 11,2 °C 84 % 1013,7 hPa 0,0 mm 13,3 km/h (3 Bft) W-SW 250 ° 0 min 0,000 mm 1,5 UV-I 165 W/m² 8,6 °C 11,2 °C 19,3 km/h (3 Bft)
19.03.2017 11:18 11,2 °C 11,2 °C 85 % 1013,8 hPa 0,0 mm 15,5 km/h (3 Bft) W-NW 282 ° 0 min 0,000 mm 1,5 UV-I 153 W/m² 8,8 °C 11,2 °C 24,1 km/h (4 Bft)
19.03.2017 11:19 11,1 °C 11,2 °C 84 % 1013,7 hPa 0,0 mm 11,9 km/h (2 Bft) W-SW 246 ° 0 min 0,000 mm 1,9 UV-I 188 W/m² 8,5 °C 11,1 °C 14,5 km/h (3 Bft)
19.03.2017 11:20 11,1 °C 11,1 °C 83 % 1013,6 hPa 0,0 mm 9,3 km/h (2 Bft) S 188 ° 1 min 0,000 mm 2,3 UV-I 309 W/m² 8,3 °C 11,1 °C 17,7 km/h (3 Bft)
19.03.2017 11:21 11,1 °C 11,1 °C 84 % 1013,6 hPa 0,0 mm 8,4 km/h (2 Bft) SW 224 ° 1 min 0,000 mm 2,5 UV-I 364 W/m² 8,5 °C 11,1 °C 12,9 km/h (3 Bft)
19.03.2017 11:22 11,1 °C 11,1 °C 85 % 1013,7 hPa 0,0 mm 11,0 km/h (2 Bft) W-SW 256 ° 1 min 0,000 mm 2,4 UV-I 339 W/m² 8,7 °C 11,1 °C 16,1 km/h (3 Bft)
19.03.2017 11:23 11,2 °C 11,2 °C 85 % 1013,6 hPa 0,0 mm 14,0 km/h (3 Bft) S-SW 202 ° 1 min 0,000 mm 2,4 UV-I 322 W/m² 8,8 °C 11,2 °C 19,3 km/h (3 Bft)
19.03.2017 11:24 11,2 °C 11,2 °C 83 % 1013,6 hPa 0,0 mm 10,0 km/h (2 Bft) W 273 ° 1 min 0,000 mm 2,5 UV-I 336 W/m² 8,4 °C 11,2 °C 20,9 km/h (4 Bft)
19.03.2017 11:25 11,2 °C 11,2 °C 84 % 1013,5 hPa 0,0 mm 12,7 km/h (3 Bft) W-SW 255 ° 1 min 0,000 mm 2,4 UV-I 343 W/m² 8,6 °C 11,2 °C 19,3 km/h (3 Bft)
19.03.2017 11:26 11,2 °C 11,2 °C 84 % 1013,6 hPa 0,0 mm 13,2 km/h (3 Bft) W-SW 238 ° 1 min 0,000 mm 2,6 UV-I 383 W/m² 8,6 °C 11,2 °C 19,3 km/h (3 Bft)
19.03.2017 11:27 11,2 °C 11,2 °C 84 % 1013,5 hPa 0,0 mm 13,7 km/h (3 Bft) W 265 ° 1 min 0,000 mm 2,7 UV-I 373 W/m² 8,6 °C 11,2 °C 20,9 km/h (4 Bft)
19.03.2017 11:28 11,2 °C 11,2 °C 83 % 1013,5 hPa 0,0 mm 13,7 km/h (3 Bft) W-SW 257 ° 1 min 0,000 mm 2,7 UV-I 359 W/m² 8,4 °C 11,2 °C 19,3 km/h (3 Bft)
19.03.2017 11:29 11,2 °C 11,2 °C 84 % 1013,5 hPa 0,0 mm 6,0 km/h (2 Bft) W-NW 289 ° 1 min 0,000 mm 2,8 UV-I 385 W/m² 8,6 °C 11,2 °C 8,0 km/h (2 Bft)
19.03.2017 11:30 11,3 °C 11,3 °C 86 % 1013,5 hPa 0,0 mm 8,0 km/h (2 Bft) SW 233 ° 1 min 0,000 mm 2,6 UV-I 362 W/m² 9,0 °C 11,3 °C 14,5 km/h (3 Bft)
19.03.2017 11:31 11,3 °C 11,3 °C 84 % 1013,5 hPa 0,0 mm 10,1 km/h (2 Bft) W-SW 243 ° 0 min 0,000 mm 2,4 UV-I 267 W/m² 8,7 °C 11,3 °C 17,7 km/h (3 Bft)
19.03.2017 11:32 11,3 °C 11,3 °C 83 % 1013,5 hPa 0,0 mm 14,8 km/h (3 Bft) SW 234 ° 1 min 0,000 mm 2,3 UV-I 299 W/m² 8,5 °C 11,3 °C 24,1 km/h (4 Bft)
19.03.2017 11:33 11,3 °C 11,3 °C 84 % 1013,5 hPa 0,0 mm 18,0 km/h (3 Bft) W 271 ° 1 min 0,000 mm 2,7 UV-I 330 W/m² 8,7 °C 11,3 °C 22,5 km/h (4 Bft)
19.03.2017 11:34 11,3 °C 11,3 °C 84 % 1013,3 hPa 0,0 mm 14,4 km/h (3 Bft) W 267 ° 1 min 0,000 mm 2,7 UV-I 343 W/m² 8,7 °C 11,3 °C 19,3 km/h (3 Bft)
19.03.2017 11:35 11,4 °C 11,4 °C 84 % 1013,4 hPa 0,0 mm 12,1 km/h (2 Bft) SW 228 ° 1 min 0,000 mm 2,7 UV-I 341 W/m² 8,8 °C 11,4 °C 16,1 km/h (3 Bft)
19.03.2017 11:36 11,4 °C 11,4 °C 83 % 1013,5 hPa 0,0 mm 14,6 km/h (3 Bft) W-SW 258 ° 1 min 0,000 mm 2,6 UV-I 345 W/m² 8,6 °C 11,4 °C 24,1 km/h (4 Bft)
19.03.2017 11:37 11,4 °C 11,4 °C 83 % 1013,4 hPa 0,0 mm 8,6 km/h (2 Bft) SW 225 ° 1 min 0,000 mm 2,5 UV-I 292 W/m² 8,6 °C 11,4 °C 12,9 km/h (3 Bft)
19.03.2017 11:38 11,5 °C 11,5 °C 82 % 1013,5 hPa 0,0 mm 8,0 km/h (2 Bft) W 274 ° 0 min 0,000 mm 2,1 UV-I 251 W/m² 8,5 °C 11,5 °C 11,3 km/h (2 Bft)
19.03.2017 11:39 11,6 °C 11,6 °C 83 % 1013,5 hPa 0,0 mm 11,0 km/h (2 Bft) W-NW 285 ° 0 min 0,000 mm 2,1 UV-I 244 W/m² 8,8 °C 11,6 °C 16,1 km/h (3 Bft)
19.03.2017 11:40 11,5 °C 11,6 °C 83 % 1013,4 hPa 0,0 mm 7,5 km/h (2 Bft) W-SW 252 ° 0 min 0,000 mm 2,0 UV-I 227 W/m² 8,7 °C 11,5 °C 12,9 km/h (3 Bft)
19.03.2017 11:41 11,5 °C 11,6 °C 83 % 1013,4 hPa 0,0 mm 10,1 km/h (2 Bft) S-SW 211 ° 0 min 0,000 mm 2,1 UV-I 227 W/m² 8,7 °C 11,5 °C 14,5 km/h (3 Bft)
19.03.2017 11:42 11,5 °C 11,5 °C 83 % 1013,5 hPa 0,0 mm 13,7 km/h (3 Bft) W-SW 250 ° 0 min 0,000 mm 2,2 UV-I 264 W/m² 8,7 °C 11,5 °C 17,7 km/h (3 Bft)
19.03.2017 11:43 11,5 °C 11,6 °C 83 % 1013,5 hPa 0,0 mm 10,7 km/h (2 Bft) SW 232 ° 1 min 0,000 mm 2,4 UV-I 306 W/m² 8,7 °C 11,5 °C 17,7 km/h (3 Bft)
19.03.2017 11:44 11,5 °C 11,6 °C 82 % 1013,4 hPa 0,0 mm 16,0 km/h (3 Bft) W-SW 257 ° 1 min 0,000 mm 2,5 UV-I 311 W/m² 8,5 °C 11,5 °C 27,4 km/h (4 Bft)
19.03.2017 11:45 11,6 °C 11,6 °C 83 % 1013,5 hPa 0,0 mm 19,0 km/h (3 Bft) W-SW 254 ° 1 min 0,000 mm 2,5 UV-I 313 W/m² 8,8 °C 11,6 °C 27,4 km/h (4 Bft)
19.03.2017 11:46 11,6 °C 11,6 °C 83 % 1013,5 hPa 0,0 mm 20,5 km/h (4 Bft) W-NW 289 ° 1 min 0,000 mm 2,5 UV-I 306 W/m² 8,8 °C 11,6 °C 24,1 km/h (4 Bft)
19.03.2017 11:47 11,6 °C 11,6 °C 83 % 1013,5 hPa 0,0 mm 10,5 km/h (2 Bft) W 259 ° 1 min 0,000 mm 2,5 UV-I 308 W/m² 8,8 °C 11,6 °C 16,1 km/h (3 Bft)
19.03.2017 11:48 11,6 °C 11,6 °C 83 % 1013,4 hPa 0,0 mm 12,6 km/h (3 Bft) W 266 ° 1 min 0,000 mm 2,7 UV-I 327 W/m² 8,8 °C 11,6 °C 16,1 km/h (3 Bft)
19.03.2017 11:49 11,6 °C 11,6 °C 83 % 1013,4 hPa 0,0 mm 9,7 km/h (2 Bft) W-SW 254 ° 1 min 0,000 mm 2,8 UV-I 359 W/m² 8,8 °C 11,6 °C 12,9 km/h (3 Bft)
19.03.2017 11:50 11,7 °C 11,7 °C 84 % 1013,4 hPa 0,0 mm 16,0 km/h (3 Bft) W 259 ° 1 min 0,000 mm 2,8 UV-I 334 W/m² 9,1 °C 11,7 °C 25,7 km/h (4 Bft)
19.03.2017 11:51 11,7 °C 11,7 °C 82 % 1013,3 hPa 0,0 mm 12,2 km/h (2 Bft) SW 235 ° 1 min 0,000 mm 2,9 UV-I 341 W/m² 8,7 °C 11,7 °C 19,3 km/h (3 Bft)
19.03.2017 11:52 11,7 °C 11,7 °C 83 % 1013,3 hPa 0,0 mm 12,3 km/h (3 Bft) W 269 ° 1 min 0,000 mm 4,2 UV-I 341 W/m² 8,9 °C 11,7 °C 17,7 km/h (3 Bft)
19.03.2017 11:53 11,8 °C 11,8 °C 84 % 1013,2 hPa 0,0 mm 12,0 km/h (2 Bft) S-SW 199 ° 1 min 0,000 mm 3,6 UV-I 341 W/m² 9,2 °C 11,8 °C 16,1 km/h (3 Bft)
19.03.2017 11:54 11,9 °C 11,9 °C 82 % 1013,2 hPa 0,0 mm 6,2 km/h (2 Bft) W 260 ° 1 min 0,000 mm 2,9 UV-I 341 W/m² 8,9 °C 11,9 °C 14,5 km/h (3 Bft)
19.03.2017 11:55 11,9 °C 11,9 °C 83 % 1013,2 hPa 0,0 mm 14,5 km/h (3 Bft) W-SW 248 ° 1 min 0,000 mm 3,6 UV-I 543 W/m² 9,1 °C 11,9 °C 20,9 km/h (4 Bft)
19.03.2017 11:56 11,9 °C 11,9 °C 83 % 1013,2 hPa 0,0 mm 12,9 km/h (3 Bft) SW 221 ° 1 min 0,000 mm 3,2 UV-I 466 W/m² 9,1 °C 11,9 °C 19,3 km/h (3 Bft)
19.03.2017 11:57 12,0 °C 12,0 °C 82 % 1013,1 hPa 0,0 mm 12,7 km/h (3 Bft) W-SW 244 ° 1 min 0,000 mm 3,7 UV-I 506 W/m² 9,0 °C 12,0 °C 20,9 km/h (4 Bft)
19.03.2017 11:58 12,0 °C 12,0 °C 81 % 1013,2 hPa 0,0 mm 15,5 km/h (3 Bft) S-SW 211 ° 1 min 0,000 mm 3,8 UV-I 468 W/m² 8,8 °C 12,0 °C 19,3 km/h (3 Bft)
19.03.2017 11:59 12,1 °C 12,1 °C 84 % 1013,2 hPa 0,0 mm 8,5 km/h (2 Bft) W-SW 254 ° 1 min 0,000 mm 3,7 UV-I 468 W/m² 9,5 °C 12,1 °C 11,3 km/h (2 Bft)
19.03.2017 12:00 12,1 °C 12,1 °C 82 % 1013,1 hPa 0,0 mm 11,6 km/h (2 Bft) W-SW 249 ° 1 min 0,177 mm 3,3 UV-I 573 W/m² 9,1 °C 12,1 °C 14,5 km/h (3 Bft)
19.03.2017 12:01 12,2 °C 12,2 °C 84 % 1013,1 hPa 0,0 mm 6,1 km/h (2 Bft) W 259 ° 1 min 0,000 mm 2,8 UV-I 341 W/m² 9,6 °C 12,2 °C 8,0 km/h (2 Bft)
19.03.2017 12:02 12,3 °C 12,3 °C 83 % 1013,1 hPa 0,0 mm 13,6 km/h (3 Bft) SW 223 ° 1 min 0,000 mm 3,3 UV-I 341 W/m² 9,5 °C 12,3 °C 22,5 km/h (4 Bft)
19.03.2017 12:03 12,3 °C 12,4 °C 83 % 1013,1 hPa 0,0 mm 15,1 km/h (3 Bft) W 270 ° 1 min 0,000 mm 3,1 UV-I 422 W/m² 9,5 °C 12,3 °C 17,7 km/h (3 Bft)
19.03.2017 12:04 12,3 °C 12,4 °C 82 % 1013,0 hPa 0,0 mm 19,4 km/h (3 Bft) W-SW 256 ° 1 min 0,000 mm 3,1 UV-I 381 W/m² 9,3 °C 12,3 °C 29,0 km/h (5 Bft)
19.03.2017 12:05 12,3 °C 12,4 °C 81 % 1013,1 hPa 0,0 mm 11,8 km/h (2 Bft) SW 215 ° 1 min 0,000 mm 3,0 UV-I 330 W/m² 9,1 °C 12,3 °C 17,7 km/h (3 Bft)
19.03.2017 12:06 12,3 °C 12,3 °C 81 % 1013,1 hPa 0,0 mm 9,2 km/h (2 Bft) W-SW 242 ° 1 min 0,000 mm 3,0 UV-I 308 W/m² 9,1 °C 12,3 °C 12,9 km/h (3 Bft)
19.03.2017 12:07 12,4 °C 12,4 °C 82 % 1013,0 hPa 0,0 mm 8,6 km/h (2 Bft) W 259 ° 1 min 0,000 mm 3,5 UV-I 308 W/m² 9,4 °C 12,4 °C 12,9 km/h (3 Bft)
19.03.2017 12:08 12,4 °C 12,4 °C 81 % 1013,0 hPa 0,0 mm 11,0 km/h (2 Bft) W 261 ° 1 min 0,000 mm 2,8 UV-I 381 W/m² 9,2 °C 12,4 °C 20,9 km/h (4 Bft)
19.03.2017 12:09 12,4 °C 12,4 °C 82 % 1013,1 hPa 0,0 mm 15,8 km/h (3 Bft) W 261 ° 1 min 0,000 mm 3,3 UV-I 381 W/m² 9,4 °C 12,4 °C 25,7 km/h (4 Bft)
19.03.2017 12:10 12,4 °C 12,4 °C 81 % 1013,1 hPa 0,0 mm 10,4 km/h (2 Bft) W 263 ° 1 min 0,000 mm 3,2 UV-I 343 W/m² 9,2 °C 12,4 °C 14,5 km/h (3 Bft)
19.03.2017 12:11 12,4 °C 12,4 °C 81 % 1013,1 hPa 0,0 mm 7,9 km/h (2 Bft) W 267 ° 1 min 0,000 mm 3,6 UV-I 343 W/m² 9,2 °C 12,4 °C 11,3 km/h (2 Bft)
19.03.2017 12:12 12,6 °C 12,6 °C 81 % 1013,1 hPa 0,0 mm 13,4 km/h (3 Bft) NW 304 ° 1 min 0,000 mm 3,3 UV-I 568 W/m² 9,4 °C 12,6 °C 19,3 km/h (3 Bft)
19.03.2017 12:13 12,6 °C 12,6 °C 80 % 1013,1 hPa 0,0 mm 13,1 km/h (3 Bft) W 260 ° 1 min 0,000 mm 3,3 UV-I 510 W/m² 9,2 °C 12,6 °C 19,3 km/h (3 Bft)
19.03.2017 12:14 12,7 °C 12,7 °C 81 % 1013,1 hPa 0,0 mm 12,1 km/h (2 Bft) W-SW 250 ° 1 min 0,000 mm 3,4 UV-I 504 W/m² 9,5 °C 12,7 °C 22,5 km/h (4 Bft)
19.03.2017 12:15 12,7 °C 12,7 °C 79 % 1013,1 hPa 0,0 mm 18,0 km/h (3 Bft) SW 225 ° 1 min 0,000 mm 3,0 UV-I 462 W/m² 9,2 °C 12,7 °C 24,1 km/h (4 Bft)
19.03.2017 12:16 12,7 °C 12,7 °C 80 % 1013,2 hPa 0,0 mm 13,3 km/h (3 Bft) W-NW 284 ° 1 min 0,000 mm 2,9 UV-I 413 W/m² 9,3 °C 12,7 °C 20,9 km/h (4 Bft)
19.03.2017 12:17 12,7 °C 12,7 °C 79 % 1013,2 hPa 0,0 mm 18,2 km/h (3 Bft) W-NW 284 ° 1 min 0,000 mm 2,6 UV-I 334 W/m² 9,2 °C 12,7 °C 25,7 km/h (4 Bft)
19.03.2017 12:18 12,7 °C 12,7 °C 79 % 1013,2 hPa 0,0 mm 11,3 km/h (2 Bft) W-SW 246 ° 1 min 0,000 mm 3,1 UV-I 422 W/m² 9,2 °C 12,7 °C 20,9 km/h (4 Bft)
19.03.2017 12:19 12,6 °C 12,7 °C 80 % 1013,1 hPa 0,0 mm 12,9 km/h (3 Bft) W-SW 256 ° 1 min 0,000 mm 2,7 UV-I 422 W/m² 9,2 °C 12,6 °C 20,9 km/h (4 Bft)
19.03.2017 12:20 12,6 °C 12,6 °C 78 % 1013,1 hPa 0,0 mm 12,8 km/h (3 Bft) W-NW 293 ° 1 min 0,000 mm 2,5 UV-I 422 W/m² 8,9 °C 12,6 °C 20,9 km/h (4 Bft)
19.03.2017 12:21 12,6 °C 12,6 °C 78 % 1013,2 hPa 0,0 mm 16,9 km/h (3 Bft) W 263 ° 1 min 0,000 mm 2,5 UV-I 290 W/m² 8,9 °C 12,6 °C 22,5 km/h (4 Bft)
19.03.2017 12:22 12,6 °C 12,6 °C 79 % 1013,2 hPa 0,0 mm 17,4 km/h (3 Bft) W-SW 243 ° 1 min 0,000 mm 2,6 UV-I 301 W/m² 9,1 °C 12,6 °C 24,1 km/h (4 Bft)
19.03.2017 12:23 12,6 °C 12,6 °C 79 % 1013,1 hPa 0,0 mm 16,2 km/h (3 Bft) W-SW 246 ° 1 min 0,000 mm 2,9 UV-I 334 W/m² 9,1 °C 12,6 °C 25,7 km/h (4 Bft)
19.03.2017 12:24 12,6 °C 12,6 °C 80 % 1013,1 hPa 0,0 mm 11,7 km/h (2 Bft) W-SW 248 ° 1 min 0,000 mm 3,3 UV-I 466 W/m² 9,2 °C 12,6 °C 17,7 km/h (3 Bft)
19.03.2017 12:25 12,6 °C 12,6 °C 80 % 1013,0 hPa 0,0 mm 12,8 km/h (3 Bft) W 274 ° 1 min 0,000 mm 2,3 UV-I 466 W/m² 9,2 °C 12,6 °C 19,3 km/h (3 Bft)
19.03.2017 12:26 12,6 °C 12,6 °C 80 % 1013,0 hPa 0,0 mm 17,8 km/h (3 Bft) W-NW 292 ° 0 min 0,000 mm 2,2 UV-I 214 W/m² 9,2 °C 12,6 °C 24,1 km/h (4 Bft)
19.03.2017 12:27 12,6 °C 12,6 °C 77 % 1012,8 hPa 0,0 mm 20,0 km/h (4 Bft) NW 304 ° 0 min 0,000 mm 2,2 UV-I 213 W/m² 8,7 °C 12,6 °C 29,0 km/h (5 Bft)
19.03.2017 12:28 12,4 °C 12,6 °C 79 % 1012,9 hPa 0,0 mm 13,7 km/h (3 Bft) W 275 ° 0 min 0,000 mm 2,3 UV-I 218 W/m² 8,9 °C 12,4 °C 22,5 km/h (4 Bft)
19.03.2017 12:29 12,4 °C 12,4 °C 79 % 1012,9 hPa 0,0 mm 14,9 km/h (3 Bft) W-NW 301 ° 0 min 0,000 mm 2,4 UV-I 207 W/m² 8,9 °C 12,4 °C 29,0 km/h (5 Bft)
19.03.2017 12:30 12,4 °C 12,4 °C 80 % 1012,9 hPa 0,0 mm 9,0 km/h (2 Bft) W-SW 243 ° 1 min 0,000 mm 2,7 UV-I 306 W/m² 9,0 °C 12,4 °C 16,1 km/h (3 Bft)
19.03.2017 12:31 12,4 °C 12,4 °C 79 % 1012,9 hPa 0,0 mm 7,3 km/h (2 Bft) W 273 ° 1 min 0,000 mm 3,4 UV-I 348 W/m² 8,9 °C 12,4 °C 12,9 km/h (3 Bft)
19.03.2017 12:32 12,5 °C 12,5 °C 80 % 1012,9 hPa 0,0 mm 7,7 km/h (2 Bft) W 271 ° 1 min 0,000 mm 4,1 UV-I 348 W/m² 9,1 °C 12,5 °C 12,9 km/h (3 Bft)
19.03.2017 12:33 12,6 °C 12,6 °C 81 % 1012,8 hPa 0,0 mm 14,8 km/h (3 Bft) W-NW 286 ° 1 min 0,000 mm 3,9 UV-I 587 W/m² 9,4 °C 12,6 °C 27,4 km/h (4 Bft)
19.03.2017 12:34 12,7 °C 12,7 °C 79 % 1012,8 hPa 0,0 mm 18,8 km/h (3 Bft) W-SW 255 ° 1 min 0,000 mm 3,6 UV-I 557 W/m² 9,2 °C 12,7 °C 25,7 km/h (4 Bft)
19.03.2017 12:35 12,8 °C 12,8 °C 78 % 1012,7 hPa 0,0 mm 18,2 km/h (3 Bft) W-SW 252 ° 1 min 0,000 mm 3,6 UV-I 501 W/m² 9,1 °C 12,8 °C 27,4 km/h (4 Bft)
19.03.2017 12:36 12,8 °C 12,8 °C 78 % 1012,7 hPa 0,0 mm 10,6 km/h (2 Bft) W-SW 254 ° 1 min 0,000 mm 4,4 UV-I 501 W/m² 9,1 °C 12,8 °C 14,5 km/h (3 Bft)
19.03.2017 12:37 12,8 °C 12,8 °C 79 % 1012,8 hPa 0,0 mm 22,7 km/h (4 Bft) W 263 ° 1 min 0,000 mm 4,2 UV-I 501 W/m² 9,2 °C 12,8 °C 37,0 km/h (5 Bft)
19.03.2017 12:38 12,8 °C 12,8 °C 76 % 1012,8 hPa 0,0 mm 18,5 km/h (3 Bft) W 269 ° 1 min 0,000 mm 4,2 UV-I 691 W/m² 8,7 °C 12,8 °C 25,7 km/h (4 Bft)
19.03.2017 12:39 12,9 °C 12,9 °C 78 % 1012,7 hPa 0,0 mm 14,5 km/h (3 Bft) W-SW 249 ° 1 min 0,000 mm 4,0 UV-I 652 W/m² 9,2 °C 12,9 °C 19,3 km/h (3 Bft)
19.03.2017 12:40 13,0 °C 13,0 °C 78 % 1012,7 hPa 0,0 mm 14,2 km/h (3 Bft) SW 235 ° 1 min 0,000 mm 4,0 UV-I 612 W/m² 9,3 °C 13,0 °C 19,3 km/h (3 Bft)
19.03.2017 12:41 13,1 °C 13,1 °C 78 % 1012,7 hPa 0,0 mm 15,9 km/h (3 Bft) S-SW 200 ° 1 min 0,000 mm 3,9 UV-I 619 W/m² 9,4 °C 13,1 °C 20,9 km/h (4 Bft)
19.03.2017 12:42 13,2 °C 13,2 °C 77 % 1012,7 hPa 0,0 mm 17,0 km/h (3 Bft) W 260 ° 1 min 0,000 mm 4,0 UV-I 659 W/m² 9,3 °C 13,2 °C 20,9 km/h (4 Bft)
19.03.2017 12:43 13,2 °C 13,2 °C 78 % 1012,8 hPa 0,0 mm 12,1 km/h (2 Bft) W 260 ° 1 min 0,000 mm 4,3 UV-I 689 W/m² 9,4 °C 13,2 °C 20,9 km/h (4 Bft)
19.03.2017 12:44 13,3 °C 13,3 °C 78 % 1012,8 hPa 0,0 mm 12,0 km/h (2 Bft) W 264 ° 1 min 0,000 mm 4,3 UV-I 694 W/m² 9,5 °C 13,3 °C 20,9 km/h (4 Bft)
19.03.2017 12:45 13,4 °C 13,4 °C 76 % 1012,9 hPa 0,0 mm 18,5 km/h (3 Bft) W-SW 250 ° 1 min 0,000 mm 4,2 UV-I 670 W/m² 9,3 °C 13,4 °C 25,7 km/h (4 Bft)
19.03.2017 12:46 13,4 °C 13,4 °C 76 % 1012,8 hPa 0,0 mm 13,9 km/h (3 Bft) W 269 ° 1 min 0,000 mm 4,1 UV-I 656 W/m² 9,3 °C 13,4 °C 24,1 km/h (4 Bft)
19.03.2017 12:47 13,4 °C 13,4 °C 75 % 1012,9 hPa 0,0 mm 9,8 km/h (2 Bft) W 274 ° 1 min 0,000 mm 4,1 UV-I 629 W/m² 9,1 °C 13,4 °C 22,5 km/h (4 Bft)
19.03.2017 12:48 13,6 °C 13,6 °C 76 % 1012,8 hPa 0,0 mm 13,2 km/h (3 Bft) S 189 ° 1 min 0,000 mm 4,0 UV-I 610 W/m² 9,4 °C 13,6 °C 17,7 km/h (3 Bft)
19.03.2017 12:49 13,6 °C 13,6 °C 73 % 1012,9 hPa 0,0 mm 9,4 km/h (2 Bft) S-SW 209 ° 1 min 0,000 mm 4,1 UV-I 650 W/m² 8,9 °C 13,6 °C 17,7 km/h (3 Bft)
19.03.2017 12:50 13,4 °C 13,6 °C 74 % 1012,9 hPa 0,0 mm 13,3 km/h (3 Bft) W-NW 292 ° 1 min 0,000 mm 4,0 UV-I 626 W/m² 8,9 °C 13,4 °C 22,5 km/h (4 Bft)
19.03.2017 12:51 13,5 °C 13,5 °C 76 % 1012,8 hPa 0,0 mm 22,3 km/h (4 Bft) S-SW 205 ° 1 min 0,000 mm 4,2 UV-I 663 W/m² 9,4 °C 13,5 °C 32,2 km/h (5 Bft)
19.03.2017 12:52 13,5 °C 13,6 °C 73 % 1012,8 hPa 0,0 mm 18,0 km/h (3 Bft) W-SW 258 ° 1 min 0,000 mm 4,2 UV-I 650 W/m² 8,8 °C 13,5 °C 24,1 km/h (4 Bft)
19.03.2017 12:53 13,5 °C 13,5 °C 72 % 1012,8 hPa 0,0 mm 14,6 km/h (3 Bft) W-NW 292 ° 1 min 0,000 mm 4,3 UV-I 715 W/m² 8,6 °C 13,5 °C 22,5 km/h (4 Bft)
19.03.2017 12:54 13,6 °C 13,6 °C 75 % 1012,8 hPa 0,0 mm 11,8 km/h (2 Bft) W-SW 250 ° 1 min 0,000 mm 4,3 UV-I 722 W/m² 9,3 °C 13,6 °C 17,7 km/h (3 Bft)
19.03.2017 12:55 13,6 °C 13,6 °C 72 % 1012,8 hPa 0,0 mm 18,8 km/h (3 Bft) S-SW 205 ° 1 min 0,000 mm 4,4 UV-I 737 W/m² 8,6 °C 13,6 °C 25,7 km/h (4 Bft)
19.03.2017 12:56 13,6 °C 13,7 °C 73 % 1012,8 hPa 0,0 mm 20,8 km/h (4 Bft) W 265 ° 1 min 0,000 mm 4,5 UV-I 752 W/m² 8,9 °C 13,6 °C 27,4 km/h (4 Bft)
19.03.2017 12:57 13,7 °C 13,7 °C 72 % 1012,8 hPa 0,0 mm 14,0 km/h (3 Bft) W-SW 246 ° 1 min 0,000 mm 4,4 UV-I 763 W/m² 8,7 °C 13,7 °C 20,9 km/h (4 Bft)
19.03.2017 12:58 13,7 °C 13,7 °C 72 % 1012,8 hPa 0,0 mm 20,3 km/h (4 Bft) W-NW 288 ° 1 min 0,000 mm 4,4 UV-I 703 W/m² 8,7 °C 13,7 °C 25,7 km/h (4 Bft)
19.03.2017 12:59 13,8 °C 13,8 °C 73 % 1012,8 hPa 0,0 mm 18,6 km/h (3 Bft) W 266 ° 1 min 0,000 mm 4,3 UV-I 724 W/m² 9,0 °C 13,8 °C 29,0 km/h (5 Bft)
19.03.2017 13:00 13,9 °C 13,9 °C 74 % 1012,8 hPa 0,0 mm 17,5 km/h (3 Bft) W 260 ° 1 min 0,280 mm 4,2 UV-I 657 W/m² 9,3 °C 13,9 °C 24,1 km/h (4 Bft)
19.03.2017 13:01 13,9 °C 13,9 °C 72 % 1012,8 hPa 0,0 mm 17,1 km/h (3 Bft) W-SW 253 ° 1 min 0,000 mm 4,2 UV-I 657 W/m² 8,9 °C 13,9 °C 27,4 km/h (4 Bft)
19.03.2017 13:02 13,9 °C 13,9 °C 72 % 1012,8 hPa 0,0 mm 19,8 km/h (3 Bft) W-SW 252 ° 1 min 0,000 mm 3,5 UV-I 339 W/m² 8,9 °C 13,9 °C 27,4 km/h (4 Bft)
19.03.2017 13:03 13,9 °C 13,9 °C 72 % 1012,9 hPa 0,0 mm 19,9 km/h (4 Bft) W 261 ° 1 min 0,000 mm 4,6 UV-I 339 W/m² 8,9 °C 13,9 °C 29,0 km/h (5 Bft)
19.03.2017 13:04 14,0 °C 14,0 °C 72 % 1012,8 hPa 0,0 mm 16,7 km/h (3 Bft) NW 315 ° 1 min 0,000 mm 4,5 UV-I 793 W/m² 9,0 °C 14,0 °C 24,1 km/h (4 Bft)
19.03.2017 13:05 14,0 °C 14,0 °C 72 % 1012,8 hPa 0,0 mm 18,3 km/h (3 Bft) W-SW 254 ° 1 min 0,000 mm 2,7 UV-I 793 W/m² 9,0 °C 14,0 °C 27,4 km/h (4 Bft)
19.03.2017 13:06 13,9 °C 14,0 °C 73 % 1012,8 hPa 0,0 mm 21,4 km/h (4 Bft) W 266 ° 1 min 0,000 mm 4,4 UV-I 793 W/m² 9,1 °C 13,9 °C 33,8 km/h (5 Bft)
19.03.2017 13:07 13,9 °C 13,9 °C 73 % 1012,8 hPa 0,0 mm 18,9 km/h (3 Bft) W-NW 285 ° 1 min 0,000 mm 2,4 UV-I 429 W/m² 9,1 °C 13,9 °C 29,0 km/h (5 Bft)
19.03.2017 13:08 13,9 °C 13,9 °C 70 % 1012,8 hPa 0,0 mm 25,7 km/h (4 Bft) SW 217 ° 1 min 0,000 mm 2,1 UV-I 429 W/m² 8,5 °C 13,9 °C 33,8 km/h (5 Bft)
19.03.2017 13:09 13,8 °C 13,9 °C 71 % 1012,8 hPa 0,0 mm 22,8 km/h (4 Bft) W 274 ° 1 min 0,000 mm 2,2 UV-I 429 W/m² 8,6 °C 13,8 °C 33,8 km/h (5 Bft)
19.03.2017 13:10 13,7 °C 13,8 °C 73 % 1012,8 hPa 0,0 mm 14,1 km/h (3 Bft) W-SW 240 ° 1 min 0,000 mm 2,5 UV-I 429 W/m² 8,9 °C 13,7 °C 25,7 km/h (4 Bft)
19.03.2017 13:11 13,6 °C 13,7 °C 72 % 1012,8 hPa 0,0 mm 18,4 km/h (3 Bft) W-SW 257 ° 1 min 0,000 mm 2,4 UV-I 316 W/m² 8,6 °C 13,6 °C 30,6 km/h (5 Bft)
19.03.2017 13:12 13,6 °C 13,6 °C 72 % 1012,8 hPa 0,0 mm 23,2 km/h (4 Bft) W-SW 254 ° 1 min 0,000 mm 3,3 UV-I 316 W/m² 8,6 °C 13,6 °C 30,6 km/h (5 Bft)
19.03.2017 13:13 13,6 °C 13,6 °C 72 % 1012,8 hPa 0,0 mm 19,4 km/h (3 Bft) W-NW 285 ° 1 min 0,000 mm 2,1 UV-I 316 W/m² 8,6 °C 13,6 °C 30,6 km/h (5 Bft)
19.03.2017 13:14 13,6 °C 13,6 °C 72 % 1012,7 hPa 0,0 mm 17,0 km/h (3 Bft) W 260 ° 0 min 0,000 mm 1,8 UV-I 195 W/m² 8,6 °C 13,6 °C 24,1 km/h (4 Bft)
19.03.2017 13:15 13,6 °C 13,6 °C 72 % 1012,7 hPa 0,0 mm 13,7 km/h (3 Bft) W-SW 251 ° 0 min 0,000 mm 1,8 UV-I 190 W/m² 8,6 °C 13,6 °C 22,5 km/h (4 Bft)
19.03.2017 13:16 13,5 °C 13,6 °C 73 % 1012,7 hPa 0,0 mm 15,2 km/h (3 Bft) W-NW 284 ° 0 min 0,000 mm 2,0 UV-I 230 W/m² 8,8 °C 13,5 °C 29,0 km/h (5 Bft)
19.03.2017 13:17 13,4 °C 13,5 °C 72 % 1012,7 hPa 0,0 mm 22,1 km/h (4 Bft) W 277 ° 0 min 0,000 mm 2,2 UV-I 185 W/m² 8,5 °C 13,4 °C 32,2 km/h (5 Bft)
19.03.2017 13:18 13,3 °C 13,4 °C 71 % 1012,9 hPa 0,0 mm 22,9 km/h (4 Bft) SW 223 ° 0 min 0,000 mm 2,3 UV-I 185 W/m² 8,2 °C 13,3 °C 40,2 km/h (6 Bft)
19.03.2017 13:19 13,3 °C 13,3 °C 72 % 1012,8 hPa 0,0 mm 15,2 km/h (3 Bft) SW 230 ° 1 min 0,000 mm 3,6 UV-I 708 W/m² 8,4 °C 13,3 °C 25,7 km/h (4 Bft)
19.03.2017 13:20 13,3 °C 13,3 °C 72 % 1012,7 hPa 0,0 mm 23,8 km/h (4 Bft) W-SW 253 ° 1 min 0,000 mm 3,6 UV-I 714 W/m² 8,4 °C 13,3 °C 35,4 km/h (5 Bft)
19.03.2017 13:21 13,3 °C 13,3 °C 74 % 1012,8 hPa 0,0 mm 23,9 km/h (4 Bft) SW 235 ° 1 min 0,000 mm 4,2 UV-I 708 W/m² 8,8 °C 13,3 °C 32,2 km/h (5 Bft)
19.03.2017 13:22 13,4 °C 13,4 °C 72 % 1012,8 hPa 0,0 mm 17,4 km/h (3 Bft) W-SW 255 ° 1 min 0,000 mm 2,7 UV-I 708 W/m² 8,5 °C 13,4 °C 30,6 km/h (5 Bft)
19.03.2017 13:23 13,4 °C 13,4 °C 73 % 1012,8 hPa 0,0 mm 20,1 km/h (4 Bft) W-SW 242 ° 1 min 0,000 mm 4,2 UV-I 427 W/m² 8,7 °C 13,4 °C 25,7 km/h (4 Bft)
19.03.2017 13:24 13,4 °C 13,4 °C 72 % 1012,8 hPa 0,0 mm 15,2 km/h (3 Bft) W 268 ° 1 min 0,000 mm 4,2 UV-I 427 W/m² 8,5 °C 13,4 °C 20,9 km/h (4 Bft)
19.03.2017 13:25 13,5 °C 13,5 °C 73 % 1012,8 hPa 0,0 mm 13,5 km/h (3 Bft) W 263 ° 1 min 0,000 mm 4,1 UV-I 693 W/m² 8,8 °C 13,5 °C 24,1 km/h (4 Bft)
19.03.2017 13:26 13,6 °C 13,6 °C 72 % 1012,8 hPa 0,0 mm 20,8 km/h (4 Bft) W 259 ° 1 min 0,000 mm 3,1 UV-I 693 W/m² 8,6 °C 13,6 °C 30,6 km/h (5 Bft)
19.03.2017 13:27 13,7 °C 13,7 °C 72 % 1012,8 hPa 0,0 mm 15,6 km/h (3 Bft) W-SW 251 ° 1 min 0,000 mm 4,0 UV-I 693 W/m² 8,7 °C 13,7 °C 22,5 km/h (4 Bft)
19.03.2017 13:28 13,7 °C 13,7 °C 73 % 1012,8 hPa 0,0 mm 18,7 km/h (3 Bft) W 279 ° 1 min 0,000 mm 2,5 UV-I 693 W/m² 8,9 °C 13,7 °C 30,6 km/h (5 Bft)
19.03.2017 13:29 13,7 °C 13,7 °C 71 % 1012,7 hPa 0,0 mm 16,1 km/h (3 Bft) W 260 ° 1 min 0,000 mm 4,0 UV-I 693 W/m² 8,5 °C 13,7 °C 20,9 km/h (4 Bft)
19.03.2017 13:30 13,7 °C 13,7 °C 72 % 1012,7 hPa 0,0 mm 14,4 km/h (3 Bft) W-SW 244 ° 1 min 0,000 mm 3,8 UV-I 693 W/m² 8,7 °C 13,7 °C 20,9 km/h (4 Bft)
19.03.2017 13:31 13,7 °C 13,7 °C 73 % 1012,8 hPa 0,0 mm 18,0 km/h (3 Bft) W-SW 242 ° 1 min 0,000 mm 3,9 UV-I 693 W/m² 8,9 °C 13,7 °C 22,5 km/h (4 Bft)
19.03.2017 13:32 13,8 °C 13,8 °C 72 % 1012,8 hPa 0,0 mm 25,1 km/h (4 Bft) W-SW 243 ° 1 min 0,000 mm 3,8 UV-I 615 W/m² 8,8 °C 13,8 °C 37,0 km/h (5 Bft)
19.03.2017 13:33 13,8 °C 13,8 °C 72 % 1012,7 hPa 0,0 mm 17,6 km/h (3 Bft) W-SW 252 ° 1 min 0,000 mm 3,8 UV-I 603 W/m² 8,8 °C 13,8 °C 24,1 km/h (4 Bft)
19.03.2017 13:34 13,8 °C 13,8 °C 73 % 1012,6 hPa 0,0 mm 13,3 km/h (3 Bft) W-SW 246 ° 1 min 0,000 mm 3,8 UV-I 638 W/m² 9,0 °C 13,8 °C 19,3 km/h (3 Bft)
19.03.2017 13:35 13,9 °C 13,9 °C 72 % 1012,7 hPa 0,0 mm 14,6 km/h (3 Bft) W 270 ° 1 min 0,000 mm 3,7 UV-I 613 W/m² 8,9 °C 13,9 °C 24,1 km/h (4 Bft)
19.03.2017 13:36 13,8 °C 13,9 °C 72 % 1012,7 hPa 0,0 mm 13,0 km/h (3 Bft) W-NW 295 ° 1 min 0,000 mm 3,8 UV-I 613 W/m² 8,8 °C 13,8 °C 19,3 km/h (3 Bft)
19.03.2017 13:37 13,8 °C 13,8 °C 72 % 1012,7 hPa 0,0 mm 8,7 km/h (2 Bft) W-SW 245 ° 1 min 0,000 mm 3,9 UV-I 629 W/m² 8,8 °C 13,8 °C 12,9 km/h (3 Bft)
19.03.2017 13:38 13,8 °C 13,8 °C 71 % 1012,6 hPa 0,0 mm 14,0 km/h (3 Bft) W 277 ° 1 min 0,000 mm 3,9 UV-I 629 W/m² 8,6 °C 13,8 °C 19,3 km/h (3 Bft)
19.03.2017 13:39 13,8 °C 13,8 °C 72 % 1012,6 hPa 0,0 mm 6,2 km/h (2 Bft) W 261 ° 1 min 0,000 mm 3,9 UV-I 629 W/m² 8,8 °C 13,8 °C 16,1 km/h (3 Bft)
19.03.2017 13:40 13,9 °C 13,9 °C 73 % 1012,6 hPa 0,0 mm 10,8 km/h (2 Bft) W-SW 238 ° 1 min 0,000 mm 4,1 UV-I 629 W/m² 9,1 °C 13,9 °C 14,5 km/h (3 Bft)
19.03.2017 13:41 14,1 °C 14,1 °C 74 % 1012,6 hPa 0,0 mm 14,5 km/h (3 Bft) W 280 ° 1 min 0,000 mm 3,5 UV-I 779 W/m² 9,5 °C 14,1 °C 19,3 km/h (3 Bft)
19.03.2017 13:42 14,2 °C 14,2 °C 73 % 1012,5 hPa 0,0 mm 11,6 km/h (2 Bft) W 260 ° 1 min 0,000 mm 3,7 UV-I 779 W/m² 9,4 °C 14,2 °C 19,3 km/h (3 Bft)
19.03.2017 13:43 14,3 °C 14,3 °C 72 % 1012,6 hPa 0,0 mm 17,8 km/h (3 Bft) W 259 ° 1 min 0,000 mm 4,4 UV-I 591 W/m² 9,3 °C 14,3 °C 25,7 km/h (4 Bft)
19.03.2017 13:44 14,3 °C 14,3 °C 70 % 1012,5 hPa 0,0 mm 13,8 km/h (3 Bft) W 274 ° 1 min 0,000 mm 3,0 UV-I 591 W/m² 8,9 °C 14,3 °C 22,5 km/h (4 Bft)
19.03.2017 13:45 14,2 °C 14,3 °C 70 % 1012,6 hPa 0,0 mm 23,9 km/h (4 Bft) W 271 ° 1 min 0,000 mm 3,1 UV-I 410 W/m² 8,8 °C 14,2 °C 27,4 km/h (4 Bft)
19.03.2017 13:46 14,1 °C 14,2 °C 71 % 1012,5 hPa 0,0 mm 19,4 km/h (3 Bft) W 271 ° 1 min 0,000 mm 2,8 UV-I 536 W/m² 8,9 °C 14,1 °C 29,0 km/h (5 Bft)
19.03.2017 13:47 14,1 °C 14,1 °C 71 % 1012,6 hPa 0,0 mm 22,0 km/h (4 Bft) W-NW 291 ° 1 min 0,000 mm 3,4 UV-I 527 W/m² 8,9 °C 14,1 °C 29,0 km/h (5 Bft)
19.03.2017 13:48 14,1 °C 14,1 °C 71 % 1012,6 hPa 0,0 mm 9,3 km/h (2 Bft) W-SW 254 ° 1 min 0,000 mm 4,1 UV-I 527 W/m² 8,9 °C 14,1 °C 16,1 km/h (3 Bft)
19.03.2017 13:49 14,0 °C 14,1 °C 71 % 1012,6 hPa 0,0 mm 19,3 km/h (3 Bft) W 269 ° 1 min 0,000 mm 3,9 UV-I 527 W/m² 8,8 °C 14,0 °C 27,4 km/h (4 Bft)
19.03.2017 13:50 14,0 °C 14,0 °C 72 % 1012,6 hPa 0,0 mm 12,6 km/h (3 Bft) W 281 ° 1 min 0,000 mm 3,7 UV-I 527 W/m² 9,0 °C 14,0 °C 22,5 km/h (4 Bft)
19.03.2017 13:51 14,1 °C 14,1 °C 72 % 1012,5 hPa 0,0 mm 10,3 km/h (2 Bft) W-SW 251 ° 1 min 0,000 mm 3,7 UV-I 598 W/m² 9,1 °C 14,1 °C 14,5 km/h (3 Bft)
19.03.2017 13:52 14,2 °C 14,2 °C 73 % 1012,6 hPa 0,0 mm 12,1 km/h (2 Bft) W 265 ° 1 min 0,000 mm 3,6 UV-I 605 W/m² 9,4 °C 14,2 °C 20,9 km/h (4 Bft)
19.03.2017 13:53 14,2 °C 14,2 °C 70 % 1012,5 hPa 0,0 mm 24,5 km/h (4 Bft) W-NW 290 ° 1 min 0,000 mm 3,8 UV-I 645 W/m² 8,8 °C 14,2 °C 38,6 km/h (5 Bft)
19.03.2017 13:54 14,2 °C 14,2 °C 68 % 1012,5 hPa 0,0 mm 16,6 km/h (3 Bft) W 269 ° 1 min 0,000 mm 3,6 UV-I 645 W/m² 8,4 °C 14,2 °C 27,4 km/h (4 Bft)
19.03.2017 13:55 14,3 °C 14,3 °C 70 % 1012,6 hPa 0,0 mm 15,4 km/h (3 Bft) W 271 ° 1 min 0,000 mm 3,4 UV-I 587 W/m² 8,9 °C 14,3 °C 27,4 km/h (4 Bft)
19.03.2017 13:56 14,3 °C 14,3 °C 68 % 1012,6 hPa 0,0 mm 19,5 km/h (3 Bft) W-SW 256 ° 1 min 0,000 mm 3,4 UV-I 587 W/m² 8,5 °C 14,3 °C 33,8 km/h (5 Bft)
19.03.2017 13:57 14,2 °C 14,3 °C 68 % 1012,6 hPa 0,0 mm 12,9 km/h (3 Bft) W 265 ° 1 min 0,000 mm 3,1 UV-I 587 W/m² 8,4 °C 14,2 °C 22,5 km/h (4 Bft)
19.03.2017 13:58 14,1 °C 14,2 °C 69 % 1012,6 hPa 0,0 mm 17,5 km/h (3 Bft) W-SW 254 ° 1 min 0,000 mm 3,1 UV-I 367 W/m² 8,5 °C 14,1 °C 24,1 km/h (4 Bft)
19.03.2017 13:59 14,1 °C 14,1 °C 68 % 1012,7 hPa 0,0 mm 22,0 km/h (4 Bft) W-SW 257 ° 1 min 0,000 mm 2,7 UV-I 415 W/m² 8,3 °C 14,1 °C 37,0 km/h (5 Bft)
19.03.2017 14:00 13,9 °C 14,1 °C 68 % 1012,7 hPa 0,0 mm 23,0 km/h (4 Bft) W 275 ° 1 min 0,000 mm 3,2 UV-I 504 W/m² 8,1 °C 13,9 °C 30,6 km/h (5 Bft)
19.03.2017 14:01 13,9 °C 14,0 °C 68 % 1012,6 hPa 0,0 mm 15,0 km/h (3 Bft) W 277 ° 1 min 0,305 mm 2,6 UV-I 504 W/m² 8,1 °C 13,9 °C 25,7 km/h (4 Bft)
19.03.2017 14:02 13,9 °C 13,9 °C 69 % 1012,6 hPa 0,0 mm 14,8 km/h (3 Bft) W-SW 252 ° 1 min 0,000 mm 2,7 UV-I 448 W/m² 8,3 °C 13,9 °C 19,3 km/h (3 Bft)
19.03.2017 14:03 14,0 °C 14,0 °C 68 % 1012,7 hPa 0,0 mm 20,7 km/h (4 Bft) W 266 ° 1 min 0,000 mm 2,4 UV-I 355 W/m² 8,2 °C 14,0 °C 32,2 km/h (5 Bft)
19.03.2017 14:04 14,0 °C 14,0 °C 69 % 1012,6 hPa 0,0 mm 16,5 km/h (3 Bft) W-SW 250 ° 1 min 0,000 mm 2,3 UV-I 339 W/m² 8,4 °C 14,0 °C 29,0 km/h (5 Bft)
19.03.2017 14:05 14,0 °C 14,0 °C 68 % 1012,6 hPa 0,0 mm 21,1 km/h (4 Bft) W-SW 250 ° 1 min 0,000 mm 3,7 UV-I 339 W/m² 8,2 °C 14,0 °C 40,2 km/h (6 Bft)
19.03.2017 14:06 14,0 °C 14,1 °C 69 % 1012,7 hPa 0,0 mm 24,4 km/h (4 Bft) W-SW 254 ° 1 min 0,000 mm 3,7 UV-I 624 W/m² 8,4 °C 14,0 °C 37,0 km/h (5 Bft)
19.03.2017 14:07 14,1 °C 14,1 °C 69 % 1012,6 hPa 0,0 mm 18,4 km/h (3 Bft) W 281 ° 1 min 0,000 mm 2,8 UV-I 624 W/m² 8,5 °C 14,1 °C 29,0 km/h (5 Bft)
19.03.2017 14:08 14,2 °C 14,2 °C 69 % 1012,5 hPa 0,0 mm 11,7 km/h (2 Bft) W-NW 288 ° 1 min 0,000 mm 2,3 UV-I 408 W/m² 8,6 °C 14,2 °C 17,7 km/h (3 Bft)
19.03.2017 14:09 14,2 °C 14,2 °C 69 % 1012,5 hPa 0,0 mm 16,5 km/h (3 Bft) W 267 ° 1 min 0,000 mm 2,2 UV-I 408 W/m² 8,6 °C 14,2 °C 22,5 km/h (4 Bft)
19.03.2017 14:10 14,3 °C 14,3 °C 69 % 1012,6 hPa 0,0 mm 17,3 km/h (3 Bft) W-NW 283 ° 1 min 0,000 mm 3,1 UV-I 390 W/m² 8,7 °C 14,3 °C 25,7 km/h (4 Bft)
19.03.2017 14:11 14,3 °C 14,3 °C 69 % 1012,6 hPa 0,0 mm 14,8 km/h (3 Bft) W 275 ° 1 min 0,000 mm 2,7 UV-I 369 W/m² 8,7 °C 14,3 °C 19,3 km/h (3 Bft)
19.03.2017 14:12 14,3 °C 14,3 °C 68 % 1012,5 hPa 0,0 mm 12,9 km/h (3 Bft) W-NW 300 ° 1 min 0,000 mm 2,1 UV-I 369 W/m² 8,5 °C 14,3 °C 19,3 km/h (3 Bft)
19.03.2017 14:13 14,2 °C 14,3 °C 67 % 1012,5 hPa 0,0 mm 17,1 km/h (3 Bft) W-SW 257 ° 1 min 0,000 mm 1,9 UV-I 369 W/m² 8,2 °C 14,2 °C 25,7 km/h (4 Bft)
19.03.2017 14:14 14,1 °C 14,2 °C 67 % 1012,6 hPa 0,0 mm 20,0 km/h (4 Bft) W-NW 285 ° 0 min 0,000 mm 1,9 UV-I 227 W/m² 8,1 °C 14,1 °C 25,7 km/h (4 Bft)
19.03.2017 14:15 13,9 °C 14,1 °C 68 % 1012,5 hPa 0,0 mm 13,1 km/h (3 Bft) W-SW 252 ° 0 min 0,000 mm 2,0 UV-I 250 W/m² 8,1 °C 13,9 °C 17,7 km/h (3 Bft)
19.03.2017 14:16 13,9 °C 13,9 °C 69 % 1012,6 hPa 0,0 mm 13,8 km/h (3 Bft) NW 312 ° 0 min 0,000 mm 1,8 UV-I 227 W/m² 8,3 °C 13,9 °C 20,9 km/h (4 Bft)
19.03.2017 14:17 13,8 °C 13,9 °C 68 % 1012,6 hPa 0,0 mm 17,4 km/h (3 Bft) W-SW 252 ° 0 min 0,000 mm 1,7 UV-I 221 W/m² 8,0 °C 13,8 °C 25,7 km/h (4 Bft)
19.03.2017 14:18 13,8 °C 13,8 °C 69 % 1012,5 hPa 0,0 mm 20,2 km/h (4 Bft) W 264 ° 0 min 0,000 mm 1,7 UV-I 221 W/m² 8,2 °C 13,8 °C 27,4 km/h (4 Bft)
19.03.2017 14:19 13,7 °C 13,8 °C 68 % 1012,6 hPa 0,0 mm 19,0 km/h (3 Bft) W-SW 248 ° 0 min 0,000 mm 1,6 UV-I 204 W/m² 7,9 °C 13,7 °C 24,1 km/h (4 Bft)
19.03.2017 14:20 13,6 °C 13,7 °C 69 % 1012,5 hPa 0,0 mm 14,0 km/h (3 Bft) W-NW 284 ° 0 min 0,000 mm 1,5 UV-I 190 W/m² 8,0 °C 13,6 °C 17,7 km/h (3 Bft)
19.03.2017 14:21 13,6 °C 13,6 °C 69 % 1012,5 hPa 0,0 mm 19,0 km/h (3 Bft) W 259 ° 0 min 0,000 mm 1,5 UV-I 193 W/m² 8,0 °C 13,6 °C 32,2 km/h (5 Bft)
19.03.2017 14:22 13,5 °C 13,6 °C 68 % 1012,5 hPa 0,0 mm 19,4 km/h (3 Bft) W 264 ° 0 min 0,000 mm 1,3 UV-I 183 W/m² 7,7 °C 13,5 °C 25,7 km/h (4 Bft)
19.03.2017 14:23 13,4 °C 13,5 °C 69 % 1012,5 hPa 0,0 mm 14,0 km/h (3 Bft) W-NW 287 ° 0 min 0,000 mm 1,3 UV-I 181 W/m² 7,8 °C 13,4 °C 20,9 km/h (4 Bft)
19.03.2017 14:24 13,4 °C 13,4 °C 70 % 1012,5 hPa 0,0 mm 15,0 km/h (3 Bft) NW 306 ° 0 min 0,000 mm 1,3 UV-I 181 W/m² 8,0 °C 13,4 °C 22,5 km/h (4 Bft)
19.03.2017 14:25 13,4 °C 13,4 °C 70 % 1012,4 hPa 0,0 mm 13,2 km/h (3 Bft) W-NW 287 ° 0 min 0,000 mm 1,4 UV-I 176 W/m² 8,0 °C 13,4 °C 20,9 km/h (4 Bft)
19.03.2017 14:26 13,4 °C 13,4 °C 70 % 1012,5 hPa 0,0 mm 19,2 km/h (3 Bft) W 278 ° 0 min 0,000 mm 1,3 UV-I 169 W/m² 8,0 °C 13,4 °C 29,0 km/h (5 Bft)
19.03.2017 14:27 13,4 °C 13,4 °C 70 % 1012,4 hPa 0,0 mm 15,0 km/h (3 Bft) W 278 ° 0 min 0,000 mm 1,3 UV-I 160 W/m² 8,0 °C 13,4 °C 24,1 km/h (4 Bft)
19.03.2017 14:28 13,3 °C 13,4 °C 69 % 1012,4 hPa 0,0 mm 12,6 km/h (3 Bft) W-NW 297 ° 0 min 0,000 mm 1,4 UV-I 178 W/m² 7,7 °C 13,3 °C 17,7 km/h (3 Bft)
19.03.2017 14:29 13,3 °C 13,3 °C 70 % 1012,4 hPa 0,0 mm 18,4 km/h (3 Bft) W-NW 284 ° 0 min 0,000 mm 1,6 UV-I 197 W/m² 7,9 °C 13,3 °C 22,5 km/h (4 Bft)
19.03.2017 14:30 13,3 °C 13,3 °C 69 % 1012,4 hPa 0,0 mm 15,5 km/h (3 Bft) W-NW 297 ° 0 min 0,000 mm 1,7 UV-I 202 W/m² 7,7 °C 13,3 °C 25,7 km/h (4 Bft)
19.03.2017 14:31 13,4 °C 13,4 °C 69 % 1012,5 hPa 0,0 mm 17,6 km/h (3 Bft) W 263 ° 0 min 0,000 mm 1,6 UV-I 195 W/m² 7,8 °C 13,4 °C 24,1 km/h (4 Bft)
19.03.2017 14:32 13,3 °C 13,4 °C 69 % 1012,4 hPa 0,0 mm 16,3 km/h (3 Bft) W-SW 257 ° 0 min 0,000 mm 1,5 UV-I 183 W/m² 7,7 °C 13,3 °C 24,1 km/h (4 Bft)
19.03.2017 14:33 13,3 °C 13,3 °C 70 % 1012,4 hPa 0,0 mm 18,4 km/h (3 Bft) W-NW 291 ° 0 min 0,000 mm 1,5 UV-I 199 W/m² 7,9 °C 13,3 °C 30,6 km/h (5 Bft)
19.03.2017 14:34 13,3 °C 13,4 °C 70 % 1012,5 hPa 0,0 mm 15,3 km/h (3 Bft) NW 313 ° 0 min 0,000 mm 1,8 UV-I 237 W/m² 7,9 °C 13,3 °C 17,7 km/h (3 Bft)
19.03.2017 14:35 13,4 °C 13,4 °C 70 % 1012,4 hPa 0,0 mm 13,3 km/h (3 Bft) W 274 ° 0 min 0,000 mm 1,9 UV-I 265 W/m² 8,0 °C 13,4 °C 19,3 km/h (3 Bft)
19.03.2017 14:36 13,4 °C 13,4 °C 70 % 1012,4 hPa 0,0 mm 17,2 km/h (3 Bft) W 281 ° 0 min 0,000 mm 2,0 UV-I 281 W/m² 8,0 °C 13,4 °C 25,7 km/h (4 Bft)
19.03.2017 14:37 13,4 °C 13,4 °C 69 % 1012,5 hPa 0,0 mm 16,7 km/h (3 Bft) W-NW 288 ° 0 min 0,000 mm 1,8 UV-I 260 W/m² 7,8 °C 13,4 °C 24,1 km/h (4 Bft)
19.03.2017 14:38 13,4 °C 13,4 °C 69 % 1012,5 hPa 0,0 mm 20,0 km/h (4 Bft) W-NW 301 ° 0 min 0,000 mm 1,7 UV-I 236 W/m² 7,8 °C 13,4 °C 24,1 km/h (4 Bft)
19.03.2017 14:39 13,4 °C 13,4 °C 70 % 1012,4 hPa 0,0 mm 18,3 km/h (3 Bft) W 281 ° 1 min 0,000 mm 1,6 UV-I 318 W/m² 8,0 °C 13,4 °C 24,1 km/h (4 Bft)
19.03.2017 14:40 13,4 °C 13,4 °C 70 % 1012,4 hPa 0,0 mm 14,1 km/h (3 Bft) W 279 ° 0 min 0,000 mm 1,3 UV-I 167 W/m² 8,0 °C 13,4 °C 17,7 km/h (3 Bft)
19.03.2017 14:41 13,4 °C 13,4 °C 70 % 1012,4 hPa 0,0 mm 11,8 km/h (2 Bft) NW 316 ° 0 min 0,000 mm 1,3 UV-I 165 W/m² 8,0 °C 13,4 °C 17,7 km/h (3 Bft)
19.03.2017 14:42 13,4 °C 13,4 °C 70 % 1012,4 hPa 0,0 mm 10,4 km/h (2 Bft) W 261 ° 0 min 0,000 mm 1,3 UV-I 160 W/m² 8,0 °C 13,4 °C 19,3 km/h (3 Bft)
19.03.2017 14:43 13,4 °C 13,4 °C 70 % 1012,4 hPa 0,0 mm 14,2 km/h (3 Bft) W-NW 285 ° 0 min 0,000 mm 1,3 UV-I 151 W/m² 8,0 °C 13,4 °C 17,7 km/h (3 Bft)
19.03.2017 14:44 13,4 °C 13,4 °C 69 % 1012,4 hPa 0,0 mm 14,5 km/h (3 Bft) W-SW 255 ° 0 min 0,000 mm 1,2 UV-I 144 W/m² 7,8 °C 13,4 °C 19,3 km/h (3 Bft)
19.03.2017 14:45 13,4 °C 13,4 °C 70 % 1012,4 hPa 0,0 mm 13,0 km/h (3 Bft) W-NW 290 ° 0 min 0,000 mm 1,1 UV-I 127 W/m² 8,0 °C 13,4 °C 20,9 km/h (4 Bft)
19.03.2017 14:46 13,3 °C 13,4 °C 70 % 1012,4 hPa 0,0 mm 14,4 km/h (3 Bft) W-SW 246 ° 0 min 0,000 mm 0,9 UV-I 114 W/m² 7,9 °C 13,3 °C 19,3 km/h (3 Bft)
19.03.2017 14:47 13,3 °C 13,3 °C 70 % 1012,4 hPa 0,0 mm 13,4 km/h (3 Bft) W-SW 250 ° 0 min 0,000 mm 0,9 UV-I 109 W/m² 7,9 °C 13,3 °C 22,5 km/h (4 Bft)
19.03.2017 14:48 13,3 °C 13,3 °C 70 % 1012,5 hPa 0,0 mm 16,2 km/h (3 Bft) W 271 ° 0 min 0,000 mm 0,9 UV-I 114 W/m² 7,9 °C 13,3 °C 20,9 km/h (4 Bft)
19.03.2017 14:49 13,2 °C 13,3 °C 71 % 1012,5 hPa 0,0 mm 8,0 km/h (2 Bft) W-SW 247 ° 0 min 0,000 mm 0,9 UV-I 118 W/m² 8,1 °C 13,2 °C 14,5 km/h (3 Bft)
19.03.2017 14:50 13,2 °C 13,2 °C 71 % 1012,5 hPa 0,0 mm 16,6 km/h (3 Bft) W-SW 245 ° 0 min 0,000 mm 0,9 UV-I 107 W/m² 8,1 °C 13,2 °C 20,9 km/h (4 Bft)
19.03.2017 14:51 13,2 °C 13,2 °C 71 % 1012,5 hPa 0,0 mm 10,8 km/h (2 Bft) W-SW 257 ° 0 min 0,000 mm 0,9 UV-I 104 W/m² 8,1 °C 13,2 °C 25,7 km/h (4 Bft)
19.03.2017 14:52 13,1 °C 13,2 °C 71 % 1012,5 hPa 0,0 mm 11,9 km/h (2 Bft) W 273 ° 0 min 0,000 mm 0,8 UV-I 100 W/m² 8,0 °C 13,1 °C 17,7 km/h (3 Bft)
19.03.2017 14:53 13,1 °C 13,1 °C 71 % 1012,4 hPa 0,0 mm 12,0 km/h (2 Bft) W 268 ° 0 min 0,000 mm 0,8 UV-I 97 W/m² 8,0 °C 13,1 °C 17,7 km/h (3 Bft)
19.03.2017 14:54 13,1 °C 13,1 °C 72 % 1012,5 hPa 0,0 mm 9,7 km/h (2 Bft) W-SW 254 ° 0 min 0,000 mm 0,8 UV-I 93 W/m² 8,2 °C 13,1 °C 12,9 km/h (3 Bft)
19.03.2017 14:55 13,1 °C 13,1 °C 72 % 1012,5 hPa 0,0 mm 8,8 km/h (2 Bft) W-SW 250 ° 0 min 0,000 mm 0,7 UV-I 90 W/m² 8,2 °C 13,1 °C 12,9 km/h (3 Bft)
19.03.2017 14:56 13,0 °C 13,1 °C 72 % 1012,5 hPa 0,0 mm 7,0 km/h (2 Bft) W-SW 256 ° 0 min 0,000 mm 0,7 UV-I 88 W/m² 8,1 °C 13,0 °C 11,3 km/h (2 Bft)
19.03.2017 14:57 13,0 °C 13,1 °C 73 % 1012,4 hPa 0,0 mm 13,0 km/h (3 Bft) W-SW 252 ° 0 min 0,000 mm 0,7 UV-I 84 W/m² 8,3 °C 13,0 °C 24,1 km/h (4 Bft)
19.03.2017 14:58 12,9 °C 13,0 °C 72 % 1012,4 hPa 0,0 mm 14,5 km/h (3 Bft) W-NW 291 ° 0 min 0,000 mm 0,6 UV-I 77 W/m² 8,0 °C 12,9 °C 27,4 km/h (4 Bft)
19.03.2017 14:59 12,9 °C 12,9 °C 72 % 1012,5 hPa 0,0 mm 13,2 km/h (3 Bft) W 275 ° 0 min 0,000 mm 0,5 UV-I 69 W/m² 8,0 °C 12,9 °C 17,7 km/h (3 Bft)
19.03.2017 15:00 12,9 °C 12,9 °C 72 % 1012,5 hPa 0,0 mm 10,3 km/h (2 Bft) W 269 ° 0 min 0,152 mm 0,5 UV-I 65 W/m² 8,0 °C 12,9 °C 16,1 km/h (3 Bft)
19.03.2017 15:01 12,9 °C 12,9 °C 73 % 1012,5 hPa 0,0 mm 12,8 km/h (3 Bft) NW 309 ° 0 min 0,000 mm 0,5 UV-I 65 W/m² 8,2 °C 12,9 °C 16,1 km/h (3 Bft)
19.03.2017 15:02 12,8 °C 12,9 °C 73 % 1012,5 hPa 0,0 mm 12,7 km/h (3 Bft) W-SW 252 ° 0 min 0,000 mm 0,5 UV-I 67 W/m² 8,1 °C 12,8 °C 19,3 km/h (3 Bft)
19.03.2017 15:03 12,8 °C 12,8 °C 73 % 1012,5 hPa 0,0 mm 13,4 km/h (3 Bft) W 273 ° 0 min 0,000 mm 0,5 UV-I 67 W/m² 8,1 °C 12,8 °C 16,1 km/h (3 Bft)
19.03.2017 15:04 12,8 °C 12,8 °C 73 % 1012,5 hPa 0,0 mm 10,7 km/h (2 Bft) W 271 ° 0 min 0,000 mm 0,5 UV-I 67 W/m² 8,1 °C 12,8 °C 12,9 km/h (3 Bft)
19.03.2017 15:05 12,8 °C 12,8 °C 74 % 1012,5 hPa 0,0 mm 8,2 km/h (2 Bft) W-NW 284 ° 0 min 0,000 mm 0,5 UV-I 67 W/m² 8,3 °C 12,8 °C 14,5 km/h (3 Bft)
19.03.2017 15:06 12,7 °C 12,8 °C 75 % 1012,5 hPa 0,0 mm 9,3 km/h (2 Bft) W 275 ° 0 min 0,000 mm 0,5 UV-I 67 W/m² 8,4 °C 12,7 °C 14,5 km/h (3 Bft)
19.03.2017 15:07 12,7 °C 12,7 °C 74 % 1012,5 hPa 0,0 mm 8,1 km/h (2 Bft) W 263 ° 0 min 0,000 mm 0,5 UV-I 67 W/m² 8,2 °C 12,7 °C 12,9 km/h (3 Bft)
19.03.2017 15:08 12,7 °C 12,7 °C 74 % 1012,5 hPa 0,0 mm 11,0 km/h (2 Bft) W-NW 286 ° 0 min 0,000 mm 0,5 UV-I 70 W/m² 8,2 °C 12,7 °C 16,1 km/h (3 Bft)
19.03.2017 15:09 12,7 °C 12,7 °C 74 % 1012,5 hPa 0,0 mm 6,8 km/h (2 Bft) W 259 ° 0 min 0,000 mm 0,6 UV-I 74 W/m² 8,2 °C 12,7 °C 9,7 km/h (2 Bft)
19.03.2017 15:10 12,7 °C 12,7 °C 75 % 1012,5 hPa 0,0 mm 13,5 km/h (3 Bft) W-SW 248 ° 0 min 0,000 mm 0,5 UV-I 72 W/m² 8,4 °C 12,7 °C 27,4 km/h (4 Bft)
19.03.2017 15:11 12,6 °C 12,7 °C 74 % 1012,5 hPa 0,0 mm 17,1 km/h (3 Bft) W-SW 252 ° 0 min 0,000 mm 0,5 UV-I 72 W/m² 8,1 °C 12,6 °C 25,7 km/h (4 Bft)
19.03.2017 15:12 12,6 °C 12,7 °C 74 % 1012,5 hPa 0,0 mm 10,9 km/h (2 Bft) NW 311 ° 0 min 0,000 mm 0,5 UV-I 74 W/m² 8,1 °C 12,6 °C 16,1 km/h (3 Bft)
19.03.2017 15:13 12,6 °C 12,6 °C 75 % 1012,6 hPa 0,0 mm 6,4 km/h (2 Bft) W-NW 298 ° 0 min 0,000 mm 0,5 UV-I 72 W/m² 8,3 °C 12,6 °C 9,7 km/h (2 Bft)
19.03.2017 15:14 12,6 °C 12,6 °C 74 % 1012,6 hPa 0,0 mm 8,9 km/h (2 Bft) W-NW 285 ° 0 min 0,000 mm 0,6 UV-I 77 W/m² 8,1 °C 12,6 °C 12,9 km/h (3 Bft)
19.03.2017 15:15 12,6 °C 12,6 °C 75 % 1012,6 hPa 0,0 mm 11,8 km/h (2 Bft) W 278 ° 0 min 0,000 mm 0,6 UV-I 86 W/m² 8,3 °C 12,6 °C 20,9 km/h (4 Bft)
19.03.2017 15:16 12,6 °C 12,6 °C 74 % 1012,6 hPa 0,0 mm 16,9 km/h (3 Bft) SW 229 ° 0 min 0,000 mm 0,6 UV-I 90 W/m² 8,1 °C 12,6 °C 24,1 km/h (4 Bft)
19.03.2017 15:17 12,6 °C 12,6 °C 74 % 1012,5 hPa 0,0 mm 17,6 km/h (3 Bft) W-SW 250 ° 0 min 0,000 mm 0,7 UV-I 91 W/m² 8,1 °C 12,6 °C 30,6 km/h (5 Bft)
19.03.2017 15:18 12,5 °C 12,6 °C 74 % 1012,5 hPa 0,0 mm 18,8 km/h (3 Bft) W 278 ° 0 min 0,000 mm 0,7 UV-I 95 W/m² 8,0 °C 12,5 °C 24,1 km/h (4 Bft)
19.03.2017 15:19 12,5 °C 12,5 °C 74 % 1012,5 hPa 0,0 mm 14,7 km/h (3 Bft) W 267 ° 0 min 0,000 mm 0,7 UV-I 93 W/m² 8,0 °C 12,5 °C 24,1 km/h (4 Bft)
19.03.2017 15:20 12,5 °C 12,5 °C 75 % 1012,6 hPa 0,0 mm 12,9 km/h (3 Bft) W-SW 255 ° 0 min 0,000 mm 0,7 UV-I 91 W/m² 8,2 °C 12,5 °C 22,5 km/h (4 Bft)
19.03.2017 15:21 12,5 °C 12,5 °C 75 % 1012,5 hPa 0,0 mm 16,0 km/h (3 Bft) NW 317 ° 0 min 0,000 mm 0,7 UV-I 91 W/m² 8,2 °C 12,5 °C 20,9 km/h (4 Bft)
19.03.2017 15:22 12,4 °C 12,5 °C 74 % 1012,5 hPa 0,0 mm 14,4 km/h (3 Bft) W 270 ° 0 min 0,000 mm 0,7 UV-I 95 W/m² 7,9 °C 12,4 °C 24,1 km/h (4 Bft)
19.03.2017 15:23 12,4 °C 12,4 °C 75 % 1012,5 hPa 0,0 mm 12,9 km/h (3 Bft) W 261 ° 0 min 0,000 mm 0,7 UV-I 104 W/m² 8,1 °C 12,4 °C 17,7 km/h (3 Bft)
19.03.2017 15:24 12,4 °C 12,4 °C 74 % 1012,6 hPa 0,0 mm 14,6 km/h (3 Bft) W-NW 283 ° 0 min 0,000 mm 0,8 UV-I 111 W/m² 7,9 °C 12,4 °C 22,5 km/h (4 Bft)
19.03.2017 15:25 12,4 °C 12,4 °C 76 % 1012,5 hPa 0,0 mm 12,4 km/h (3 Bft) W 281 ° 0 min 0,000 mm 0,8 UV-I 120 W/m² 8,3 °C 12,4 °C 22,5 km/h (4 Bft)
19.03.2017 15:26 12,3 °C 12,4 °C 76 % 1012,6 hPa 0,0 mm 13,6 km/h (3 Bft) W 281 ° 0 min 0,000 mm 0,9 UV-I 132 W/m² 8,2 °C 12,3 °C 17,7 km/h (3 Bft)
19.03.2017 15:27 12,3 °C 12,3 °C 76 % 1012,5 hPa 0,0 mm 15,9 km/h (3 Bft) W 281 ° 0 min 0,000 mm 0,9 UV-I 132 W/m² 8,2 °C 12,3 °C 22,5 km/h (4 Bft)
19.03.2017 15:28 12,2 °C 12,3 °C 77 % 1012,5 hPa 0,0 mm 10,2 km/h (2 Bft) W-SW 253 ° 0 min 0,000 mm 0,9 UV-I 142 W/m² 8,3 °C 12,2 °C 14,5 km/h (3 Bft)
19.03.2017 15:29 12,1 °C 12,2 °C 78 % 1012,5 hPa 0,0 mm 12,3 km/h (3 Bft) W 280 ° 0 min 0,000 mm 1,0 UV-I 155 W/m² 8,4 °C 12,1 °C 17,7 km/h (3 Bft)
19.03.2017 15:30 12,1 °C 12,1 °C 77 % 1012,5 hPa 0,0 mm 12,7 km/h (3 Bft) W-NW 293 ° 0 min 0,000 mm 1,0 UV-I 158 W/m² 8,2 °C 12,1 °C 20,9 km/h (4 Bft)
19.03.2017 15:31 12,1 °C 12,1 °C 78 % 1012,4 hPa 0,0 mm 9,0 km/h (2 Bft) SW 231 ° 0 min 0,000 mm 1,0 UV-I 146 W/m² 8,4 °C 12,1 °C 17,7 km/h (3 Bft)
19.03.2017 15:32 12,1 °C 12,1 °C 78 % 1012,4 hPa 0,0 mm 16,3 km/h (3 Bft) W 274 ° 0 min 0,000 mm 0,9 UV-I 141 W/m² 8,4 °C 12,1 °C 22,5 km/h (4 Bft)
19.03.2017 15:33 12,1 °C 12,1 °C 79 % 1012,4 hPa 0,0 mm 13,4 km/h (3 Bft) W 259 ° 0 min 0,000 mm 0,9 UV-I 137 W/m² 8,6 °C 12,1 °C 19,3 km/h (3 Bft)
19.03.2017 15:34 12,1 °C 12,1 °C 79 % 1012,4 hPa 0,0 mm 12,2 km/h (2 Bft) W 279 ° 0 min 0,000 mm 0,8 UV-I 134 W/m² 8,6 °C 12,1 °C 14,5 km/h (3 Bft)
19.03.2017 15:35 12,1 °C 12,1 °C 79 % 1012,4 hPa 0,0 mm 8,5 km/h (2 Bft) NW 306 ° 0 min 0,000 mm 0,8 UV-I 127 W/m² 8,6 °C 12,1 °C 12,9 km/h (3 Bft)
19.03.2017 15:36 12,1 °C 12,1 °C 79 % 1012,4 hPa 0,0 mm 11,9 km/h (2 Bft) W 273 ° 0 min 0,000 mm 0,8 UV-I 121 W/m² 8,6 °C 12,1 °C 19,3 km/h (3 Bft)
19.03.2017 15:37 12,2 °C 12,2 °C 78 % 1012,4 hPa 0,0 mm 15,2 km/h (3 Bft) W-SW 244 ° 0 min 0,000 mm 0,8 UV-I 118 W/m² 8,5 °C 12,2 °C 19,3 km/h (3 Bft)
19.03.2017 15:38 12,2 °C 12,2 °C 78 % 1012,4 hPa 0,0 mm 12,2 km/h (2 Bft) NW 317 ° 0 min 0,000 mm 0,7 UV-I 113 W/m² 8,5 °C 12,2 °C 16,1 km/h (3 Bft)
19.03.2017 15:39 12,2 °C 12,2 °C 78 % 1012,3 hPa 0,0 mm 9,9 km/h (2 Bft) W-NW 295 ° 0 min 0,000 mm 0,7 UV-I 109 W/m² 8,5 °C 12,2 °C 16,1 km/h (3 Bft)
19.03.2017 15:40 12,2 °C 12,2 °C 78 % 1012,3 hPa 0,0 mm 5,9 km/h (2 Bft) W 277 ° 0 min 0,000 mm 0,7 UV-I 116 W/m² 8,5 °C 12,2 °C 9,7 km/h (2 Bft)
19.03.2017 15:41 12,2 °C 12,2 °C 77 % 1012,3 hPa 0,0 mm 9,0 km/h (2 Bft) W-NW 296 ° 0 min 0,000 mm 0,8 UV-I 118 W/m² 8,3 °C 12,2 °C 14,5 km/h (3 Bft)
19.03.2017 15:42 12,3 °C 12,3 °C 77 % 1012,3 hPa 0,0 mm 9,8 km/h (2 Bft) W-NW 288 ° 0 min 0,000 mm 0,7 UV-I 114 W/m² 8,4 °C 12,3 °C 14,5 km/h (3 Bft)
19.03.2017 15:43 12,3 °C 12,3 °C 78 % 1012,4 hPa 0,0 mm 9,5 km/h (2 Bft) W-SW 248 ° 0 min 0,000 mm 0,8 UV-I 123 W/m² 8,6 °C 12,3 °C 12,9 km/h (3 Bft)
19.03.2017 15:44 12,3 °C 12,3 °C 78 % 1012,3 hPa 0,0 mm 7,0 km/h (2 Bft) W 263 ° 0 min 0,000 mm 0,8 UV-I 123 W/m² 8,6 °C 12,3 °C 11,3 km/h (2 Bft)
19.03.2017 15:45 12,3 °C 12,3 °C 78 % 1012,3 hPa 0,0 mm 6,5 km/h (2 Bft) W 267 ° 0 min 0,000 mm 0,8 UV-I 116 W/m² 8,6 °C 12,3 °C 11,3 km/h (2 Bft)
19.03.2017 15:46 12,3 °C 12,3 °C 77 % 1012,3 hPa 0,0 mm 6,9 km/h (2 Bft) W-SW 256 ° 0 min 0,000 mm 0,7 UV-I 113 W/m² 8,4 °C 12,3 °C 11,3 km/h (2 Bft)
19.03.2017 15:47 12,3 °C 12,3 °C 78 % 1012,3 hPa 0,0 mm 4,7 km/h (1 Bft) W 275 ° 0 min 0,000 mm 0,7 UV-I 102 W/m² 8,6 °C 12,3 °C 9,7 km/h (2 Bft)
19.03.2017 15:48 12,3 °C 12,3 °C 78 % 1012,3 hPa 0,0 mm 8,5 km/h (2 Bft) W 265 ° 0 min 0,000 mm 0,6 UV-I 91 W/m² 8,6 °C 12,3 °C 12,9 km/h (3 Bft)
19.03.2017 15:49 12,3 °C 12,4 °C 78 % 1012,3 hPa 0,0 mm 14,6 km/h (3 Bft) W 277 ° 0 min 0,000 mm 0,5 UV-I 79 W/m² 8,6 °C 12,3 °C 19,3 km/h (3 Bft)
19.03.2017 15:50 12,4 °C 12,4 °C 77 % 1012,3 hPa 0,0 mm 9,8 km/h (2 Bft) W-SW 242 ° 0 min 0,000 mm 0,5 UV-I 77 W/m² 8,5 °C 12,4 °C 16,1 km/h (3 Bft)
19.03.2017 15:51 12,3 °C 12,4 °C 77 % 1012,3 hPa 0,0 mm 14,0 km/h (3 Bft) W-SW 240 ° 0 min 0,000 mm 0,5 UV-I 77 W/m² 8,4 °C 12,3 °C 17,7 km/h (3 Bft)
19.03.2017 15:52 12,3 °C 12,3 °C 77 % 1012,3 hPa 0,0 mm 10,4 km/h (2 Bft) W-SW 239 ° 0 min 0,000 mm 0,5 UV-I 79 W/m² 8,4 °C 12,3 °C 19,3 km/h (3 Bft)
19.03.2017 15:53 12,3 °C 12,3 °C 78 % 1012,3 hPa 0,0 mm 8,0 km/h (2 Bft) W-SW 251 ° 0 min 0,000 mm 0,5 UV-I 76 W/m² 8,6 °C 12,3 °C 14,5 km/h (3 Bft)
19.03.2017 15:54 12,3 °C 12,3 °C 78 % 1012,3 hPa 0,0 mm 13,6 km/h (3 Bft) W 275 ° 0 min 0,000 mm 0,5 UV-I 76 W/m² 8,6 °C 12,3 °C 17,7 km/h (3 Bft)
19.03.2017 15:55 12,3 °C 12,3 °C 77 % 1012,3 hPa 0,0 mm 15,8 km/h (3 Bft) W 269 ° 0 min 0,000 mm 0,5 UV-I 86 W/m² 8,4 °C 12,3 °C 19,3 km/h (3 Bft)
19.03.2017 15:56 12,3 °C 12,3 °C 76 % 1012,2 hPa 0,0 mm 8,7 km/h (2 Bft) W-SW 254 ° 0 min 0,000 mm 0,6 UV-I 95 W/m² 8,2 °C 12,3 °C 11,3 km/h (2 Bft)
19.03.2017 15:57 12,3 °C 12,3 °C 77 % 1012,3 hPa 0,0 mm 9,6 km/h (2 Bft) W-SW 250 ° 0 min 0,000 mm 0,7 UV-I 102 W/m² 8,4 °C 12,3 °C 14,5 km/h (3 Bft)
19.03.2017 15:58 12,3 °C 12,3 °C 76 % 1012,2 hPa 0,0 mm 12,5 km/h (3 Bft) W 265 ° 0 min 0,000 mm 0,7 UV-I 104 W/m² 8,2 °C 12,3 °C 19,3 km/h (3 Bft)
19.03.2017 15:59 12,3 °C 12,3 °C 76 % 1012,2 hPa 0,0 mm 17,6 km/h (3 Bft) W 271 ° 0 min 0,000 mm 0,7 UV-I 102 W/m² 8,2 °C 12,3 °C 25,7 km/h (4 Bft)
19.03.2017 16:00 12,3 °C 12,3 °C 77 % 1012,2 hPa 0,0 mm 10,5 km/h (2 Bft) W-SW 242 ° 0 min 0,000 mm 0,7 UV-I 105 W/m² 8,4 °C 12,3 °C 17,7 km/h (3 Bft)
19.03.2017 16:01 12,4 °C 12,4 °C 78 % 1012,2 hPa 0,0 mm 8,6 km/h (2 Bft) W 281 ° 0 min 0,076 mm 0,7 UV-I 107 W/m² 8,7 °C 12,4 °C 12,9 km/h (3 Bft)
19.03.2017 16:02 12,4 °C 12,4 °C 77 % 1012,1 hPa 0,0 mm 9,7 km/h (2 Bft) W-NW 296 ° 0 min 0,000 mm 0,7 UV-I 102 W/m² 8,5 °C 12,4 °C 12,9 km/h (3 Bft)
19.03.2017 16:03 12,4 °C 12,4 °C 77 % 1012,2 hPa 0,0 mm 10,8 km/h (2 Bft) W-SW 254 ° 0 min 0,000 mm 0,6 UV-I 97 W/m² 8,5 °C 12,4 °C 16,1 km/h (3 Bft)
19.03.2017 16:04 12,4 °C 12,4 °C 77 % 1012,2 hPa 0,0 mm 10,5 km/h (2 Bft) W 275 ° 0 min 0,000 mm 0,6 UV-I 95 W/m² 8,5 °C 12,4 °C 16,1 km/h (3 Bft)
19.03.2017 16:05 12,4 °C 12,4 °C 77 % 1012,2 hPa 0,0 mm 7,1 km/h (2 Bft) W-NW 285 ° 0 min 0,000 mm 0,6 UV-I 97 W/m² 8,5 °C 12,4 °C 12,9 km/h (3 Bft)
19.03.2017 16:06 12,4 °C 12,4 °C 77 % 1012,1 hPa 0,0 mm 8,7 km/h (2 Bft) W 265 ° 0 min 0,000 mm 0,6 UV-I 100 W/m² 8,5 °C 12,4 °C 17,7 km/h (3 Bft)
19.03.2017 16:07 12,4 °C 12,4 °C 77 % 1012,2 hPa 0,0 mm 11,2 km/h (2 Bft) W 279 ° 0 min 0,000 mm 0,7 UV-I 107 W/m² 8,5 °C 12,4 °C 14,5 km/h (3 Bft)
19.03.2017 16:08 12,4 °C 12,4 °C 77 % 1012,2 hPa 0,0 mm 8,4 km/h (2 Bft) SW 236 ° 0 min 0,000 mm 0,8 UV-I 121 W/m² 8,5 °C 12,4 °C 12,9 km/h (3 Bft)
19.03.2017 16:09 12,4 °C 12,4 °C 77 % 1012,2 hPa 0,0 mm 7,1 km/h (2 Bft) W 267 ° 0 min 0,000 mm 0,9 UV-I 139 W/m² 8,5 °C 12,4 °C 12,9 km/h (3 Bft)
19.03.2017 16:10 12,4 °C 12,5 °C 78 % 1012,1 hPa 0,0 mm 7,6 km/h (2 Bft) S 188 ° 0 min 0,000 mm 0,9 UV-I 146 W/m² 8,7 °C 12,4 °C 12,9 km/h (3 Bft)
19.03.2017 16:11 12,5 °C 12,5 °C 77 % 1012,1 hPa 0,0 mm 7,0 km/h (2 Bft) W-NW 286 ° 0 min 0,000 mm 0,9 UV-I 153 W/m² 8,6 °C 12,5 °C 11,3 km/h (2 Bft)
19.03.2017 16:12 12,6 °C 12,6 °C 78 % 1012,1 hPa 0,0 mm 5,7 km/h (1 Bft) W 273 ° 0 min 0,000 mm 1,0 UV-I 162 W/m² 8,9 °C 12,6 °C 8,0 km/h (2 Bft)
19.03.2017 16:13 12,6 °C 12,6 °C 77 % 1012,1 hPa 0,0 mm 10,9 km/h (2 Bft) W 263 ° 0 min 0,000 mm 1,0 UV-I 153 W/m² 8,7 °C 12,6 °C 16,1 km/h (3 Bft)
19.03.2017 16:14 12,7 °C 12,7 °C 77 % 1012,1 hPa 0,0 mm 7,3 km/h (2 Bft) W-NW 292 ° 0 min 0,000 mm 0,9 UV-I 142 W/m² 8,8 °C 12,7 °C 12,9 km/h (3 Bft)
19.03.2017 16:15 12,7 °C 12,7 °C 77 % 1012,1 hPa 0,0 mm 10,3 km/h (2 Bft) W-SW 252 ° 0 min 0,000 mm 0,8 UV-I 134 W/m² 8,8 °C 12,7 °C 16,1 km/h (3 Bft)
19.03.2017 16:16 12,7 °C 12,7 °C 77 % 1012,1 hPa 0,0 mm 11,5 km/h (2 Bft) W-SW 250 ° 0 min 0,000 mm 0,7 UV-I 121 W/m² 8,8 °C 12,7 °C 16,1 km/h (3 Bft)
19.03.2017 16:17 12,7 °C 12,7 °C 76 % 1012,1 hPa 0,0 mm 10,1 km/h (2 Bft) W-SW 252 ° 0 min 0,000 mm 0,6 UV-I 105 W/m² 8,6 °C 12,7 °C 14,5 km/h (3 Bft)
19.03.2017 16:18 12,7 °C 12,7 °C 77 % 1012,1 hPa 0,0 mm 7,9 km/h (2 Bft) W-NW 282 ° 0 min 0,000 mm 0,5 UV-I 97 W/m² 8,8 °C 12,7 °C 11,3 km/h (2 Bft)
19.03.2017 16:19 12,7 °C 12,7 °C 76 % 1012,1 hPa 0,0 mm 5,3 km/h (1 Bft) W-NW 285 ° 0 min 0,000 mm 0,5 UV-I 93 W/m² 8,6 °C 12,7 °C 9,7 km/h (2 Bft)
19.03.2017 16:20 12,7 °C 12,7 °C 76 % 1012,1 hPa 0,0 mm 8,4 km/h (2 Bft) W-SW 251 ° 0 min 0,000 mm 0,5 UV-I 95 W/m² 8,6 °C 12,7 °C 12,9 km/h (3 Bft)
19.03.2017 16:21 12,6 °C 12,7 °C 77 % 1012,1 hPa 0,0 mm 8,0 km/h (2 Bft) NW 312 ° 0 min 0,000 mm 0,5 UV-I 90 W/m² 8,7 °C 12,6 °C 11,3 km/h (2 Bft)
19.03.2017 16:22 12,6 °C 12,6 °C 77 % 1012,1 hPa 0,0 mm 5,6 km/h (1 Bft) W 264 ° 0 min 0,000 mm 0,5 UV-I 90 W/m² 8,7 °C 12,6 °C 8,0 km/h (2 Bft)
19.03.2017 16:23 12,6 °C 12,6 °C 77 % 1012,1 hPa 0,0 mm 8,8 km/h (2 Bft) W 261 ° 0 min 0,000 mm 0,5 UV-I 97 W/m² 8,7 °C 12,6 °C 11,3 km/h (2 Bft)
19.03.2017 16:24 12,6 °C 12,6 °C 77 % 1012,1 hPa 0,0 mm 7,4 km/h (2 Bft) W-SW 244 ° 0 min 0,000 mm 0,6 UV-I 114 W/m² 8,7 °C 12,6 °C 12,9 km/h (3 Bft)
19.03.2017 16:25 12,6 °C 12,6 °C 77 % 1012,1 hPa 0,0 mm 8,0 km/h (2 Bft) SW 214 ° 0 min 0,000 mm 0,7 UV-I 120 W/m² 8,7 °C 12,6 °C 12,9 km/h (3 Bft)
19.03.2017 16:26 12,6 °C 12,6 °C 76 % 1012,1 hPa 0,0 mm 10,6 km/h (2 Bft) SW 226 ° 0 min 0,000 mm 0,7 UV-I 125 W/m² 8,5 °C 12,6 °C 17,7 km/h (3 Bft)
19.03.2017 16:27 12,6 °C 12,6 °C 77 % 1012,1 hPa 0,0 mm 11,1 km/h (2 Bft) W 273 ° 0 min 0,000 mm 0,7 UV-I 128 W/m² 8,7 °C 12,6 °C 17,7 km/h (3 Bft)
19.03.2017 16:28 12,6 °C 12,6 °C 76 % 1012,1 hPa 0,0 mm 9,7 km/h (2 Bft) W 270 ° 0 min 0,000 mm 0,6 UV-I 128 W/m² 8,5 °C 12,6 °C 16,1 km/h (3 Bft)
19.03.2017 16:29 12,6 °C 12,6 °C 77 % 1012,1 hPa 0,0 mm 8,4 km/h (2 Bft) W-SW 257 ° 0 min 0,000 mm 0,6 UV-I 118 W/m² 8,7 °C 12,6 °C 14,5 km/h (3 Bft)
19.03.2017 16:30 12,6 °C 12,6 °C 77 % 1012,1 hPa 0,0 mm 8,6 km/h (2 Bft) W-SW 238 ° 0 min 0,000 mm 0,7 UV-I 130 W/m² 8,7 °C 12,6 °C 14,5 km/h (3 Bft)
19.03.2017 16:31 12,6 °C 12,6 °C 77 % 1012,1 hPa 0,0 mm 9,3 km/h (2 Bft) W 261 ° 0 min 0,000 mm 0,7 UV-I 130 W/m² 8,7 °C 12,6 °C 19,3 km/h (3 Bft)
19.03.2017 16:32 12,6 °C 12,6 °C 76 % 1012,1 hPa 0,0 mm 12,2 km/h (2 Bft) W 267 ° 0 min 0,000 mm 0,7 UV-I 134 W/m² 8,5 °C 12,6 °C 16,1 km/h (3 Bft)
19.03.2017 16:33 12,6 °C 12,6 °C 76 % 1012,1 hPa 0,0 mm 8,6 km/h (2 Bft) W-SW 249 ° 0 min 0,000 mm 0,8 UV-I 141 W/m² 8,5 °C 12,6 °C 14,5 km/h (3 Bft)
19.03.2017 16:34 12,6 °C 12,6 °C 77 % 1012,0 hPa 0,0 mm 6,5 km/h (2 Bft) W-SW 243 ° 0 min 0,000 mm 0,8 UV-I 139 W/m² 8,7 °C 12,6 °C 11,3 km/h (2 Bft)
19.03.2017 16:35 12,6 °C 12,6 °C 77 % 1012,0 hPa 0,0 mm 13,4 km/h (3 Bft) W 261 ° 0 min 0,000 mm 0,8 UV-I 135 W/m² 8,7 °C 12,6 °C 20,9 km/h (4 Bft)
19.03.2017 16:36 12,6 °C 12,6 °C 77 % 1011,9 hPa 0,0 mm 14,5 km/h (3 Bft) SW 230 ° 0 min 0,000 mm 0,9 UV-I 135 W/m² 8,7 °C 12,6 °C 17,7 km/h (3 Bft)
19.03.2017 16:37 12,6 °C 12,6 °C 76 % 1011,9 hPa 0,0 mm 11,9 km/h (2 Bft) S-SW 205 ° 0 min 0,000 mm 0,9 UV-I 130 W/m² 8,5 °C 12,6 °C 19,3 km/h (3 Bft)
19.03.2017 16:38 12,6 °C 12,6 °C 76 % 1011,9 hPa 0,0 mm 12,7 km/h (3 Bft) W-SW 245 ° 0 min 0,000 mm 0,8 UV-I 130 W/m² 8,5 °C 12,6 °C 19,3 km/h (3 Bft)
19.03.2017 16:39 12,6 °C 12,6 °C 77 % 1011,9 hPa 0,0 mm 11,2 km/h (2 Bft) W 281 ° 0 min 0,000 mm 0,8 UV-I 123 W/m² 8,7 °C 12,6 °C 16,1 km/h (3 Bft)
19.03.2017 16:40 12,6 °C 12,6 °C 77 % 1011,9 hPa 0,0 mm 12,5 km/h (3 Bft) W 279 ° 0 min 0,000 mm 0,8 UV-I 116 W/m² 8,7 °C 12,6 °C 17,7 km/h (3 Bft)
19.03.2017 16:41 12,6 °C 12,6 °C 77 % 1011,9 hPa 0,0 mm 7,0 km/h (2 Bft) W-SW 252 ° 0 min 0,000 mm 0,8 UV-I 116 W/m² 8,7 °C 12,6 °C 11,3 km/h (2 Bft)
19.03.2017 16:42 12,6 °C 12,6 °C 77 % 1011,9 hPa 0,0 mm 10,8 km/h (2 Bft) W 261 ° 0 min 0,000 mm 0,8 UV-I 120 W/m² 8,7 °C 12,6 °C 16,1 km/h (3 Bft)
19.03.2017 16:43 12,5 °C 12,6 °C 77 % 1011,8 hPa 0,0 mm 11,7 km/h (2 Bft) W 276 ° 0 min 0,000 mm 0,8 UV-I 121 W/m² 8,6 °C 12,5 °C 16,1 km/h (3 Bft)
19.03.2017 16:44 12,6 °C 12,6 °C 77 % 1011,8 hPa 0,0 mm 9,5 km/h (2 Bft) W-SW 240 ° 0 min 0,000 mm 0,8 UV-I 123 W/m² 8,7 °C 12,6 °C 14,5 km/h (3 Bft)
19.03.2017 16:45 12,6 °C 12,6 °C 77 % 1011,9 hPa 0,0 mm 5,3 km/h (1 Bft) W 261 ° 0 min 0,000 mm 0,8 UV-I 120 W/m² 8,7 °C 12,6 °C 9,7 km/h (2 Bft)
19.03.2017 16:46 12,6 °C 12,6 °C 78 % 1011,8 hPa 0,0 mm 8,4 km/h (2 Bft) W-SW 254 ° 0 min 0,000 mm 0,8 UV-I 120 W/m² 8,9 °C 12,6 °C 11,3 km/h (2 Bft)
19.03.2017 16:47 12,6 °C 12,6 °C 77 % 1011,8 hPa 0,0 mm 9,4 km/h (2 Bft) W-SW 256 ° 0 min 0,000 mm 0,8 UV-I 121 W/m² 8,7 °C 12,6 °C 11,3 km/h (2 Bft)
19.03.2017 16:48 12,6 °C 12,6 °C 77 % 1011,8 hPa 0,0 mm 7,1 km/h (2 Bft) SW 236 ° 0 min 0,000 mm 0,7 UV-I 123 W/m² 8,7 °C 12,6 °C 11,3 km/h (2 Bft)
19.03.2017 16:49 12,6 °C 12,6 °C 77 % 1011,8 hPa 0,0 mm 5,0 km/h (1 Bft) W-NW 283 ° 0 min 0,000 mm 0,7 UV-I 125 W/m² 8,7 °C 12,6 °C 9,7 km/h (2 Bft)
19.03.2017 16:50 12,6 °C 12,6 °C 78 % 1011,8 hPa 0,0 mm 9,7 km/h (2 Bft) W 269 ° 0 min 0,000 mm 0,7 UV-I 125 W/m² 8,9 °C 12,6 °C 16,1 km/h (3 Bft)
19.03.2017 16:51 12,6 °C 12,6 °C 78 % 1011,8 hPa 0,0 mm 8,0 km/h (2 Bft) SW 227 ° 0 min 0,000 mm 0,7 UV-I 141 W/m² 8,9 °C 12,6 °C 12,9 km/h (3 Bft)
19.03.2017 16:52 12,6 °C 12,6 °C 78 % 1011,8 hPa 0,0 mm 3,1 km/h (1 Bft) SW 232 ° 0 min 0,000 mm 0,7 UV-I 125 W/m² 8,9 °C 12,6 °C 4,8 km/h (1 Bft)
19.03.2017 16:53 12,6 °C 12,6 °C 77 % 1011,8 hPa 0,0 mm 7,2 km/h (2 Bft) W 261 ° 0 min 0,000 mm 0,7 UV-I 123 W/m² 8,7 °C 12,6 °C 12,9 km/h (3 Bft)
19.03.2017 16:54 12,6 °C 12,6 °C 77 % 1011,7 hPa 0,0 mm 9,6 km/h (2 Bft) SW 234 ° 0 min 0,000 mm 0,7 UV-I 120 W/m² 8,7 °C 12,6 °C 16,1 km/h (3 Bft)
19.03.2017 16:55 12,6 °C 12,6 °C 77 % 1011,8 hPa 0,0 mm 3,7 km/h (1 Bft) SW 232 ° 0 min 0,000 mm 0,7 UV-I 118 W/m² 8,7 °C 12,6 °C 4,8 km/h (1 Bft)
19.03.2017 16:56 12,6 °C 12,6 °C 77 % 1011,7 hPa 0,0 mm 4,9 km/h (1 Bft) S 189 ° 0 min 0,000 mm 0,6 UV-I 116 W/m² 8,7 °C 12,6 °C 9,7 km/h (2 Bft)
19.03.2017 16:57 12,6 °C 12,6 °C 77 % 1011,6 hPa 0,0 mm 8,1 km/h (2 Bft) SW 227 ° 0 min 0,000 mm 0,6 UV-I 114 W/m² 8,7 °C 12,6 °C 12,9 km/h (3 Bft)
19.03.2017 16:58 12,6 °C 12,6 °C 76 % 1011,7 hPa 0,0 mm 5,9 km/h (2 Bft) W-SW 252 ° 0 min 0,000 mm 0,6 UV-I 113 W/m² 8,5 °C 12,6 °C 9,7 km/h (2 Bft)
19.03.2017 16:59 12,6 °C 12,6 °C 77 % 1011,7 hPa 0,0 mm 6,4 km/h (2 Bft) SW 223 ° 0 min 0,000 mm 0,6 UV-I 113 W/m² 8,7 °C 12,6 °C 8,0 km/h (2 Bft)
19.03.2017 17:00 12,6 °C 12,6 °C 77 % 1011,6 hPa 0,0 mm 10,1 km/h (2 Bft) W-SW 254 ° 0 min 0,000 mm 0,6 UV-I 113 W/m² 8,7 °C 12,6 °C 14,5 km/h (3 Bft)
19.03.2017 17:01 12,6 °C 12,6 °C 77 % 1011,6 hPa 0,0 mm 7,2 km/h (2 Bft) SW 233 ° 0 min 0,076 mm 0,6 UV-I 114 W/m² 8,7 °C 12,6 °C 14,5 km/h (3 Bft)
19.03.2017 17:02 12,6 °C 12,6 °C 77 % 1011,6 hPa 0,0 mm 8,6 km/h (2 Bft) W-SW 244 ° 0 min 0,000 mm 0,6 UV-I 116 W/m² 8,7 °C 12,6 °C 11,3 km/h (2 Bft)
19.03.2017 17:03 12,6 °C 12,6 °C 78 % 1011,6 hPa 0,0 mm 6,0 km/h (2 Bft) W-SW 253 ° 0 min 0,000 mm 0,6 UV-I 114 W/m² 8,9 °C 12,6 °C 8,0 km/h (2 Bft)
19.03.2017 17:04 12,5 °C 12,6 °C 77 % 1011,6 hPa 0,0 mm 7,1 km/h (2 Bft) W-SW 252 ° 0 min 0,000 mm 0,6 UV-I 116 W/m² 8,6 °C 12,5 °C 12,9 km/h (3 Bft)
19.03.2017 17:05 12,5 °C 12,6 °C 78 % 1011,6 hPa 0,0 mm 8,4 km/h (2 Bft) W-SW 251 ° 0 min 0,000 mm 0,6 UV-I 120 W/m² 8,8 °C 12,5 °C 14,5 km/h (3 Bft)
19.03.2017 17:06 12,6 °C 12,6 °C 78 % 1011,6 hPa 0,0 mm 4,0 km/h (1 Bft) W 259 ° 0 min 0,000 mm 0,5 UV-I 114 W/m² 8,9 °C 12,6 °C 6,4 km/h (2 Bft)
19.03.2017 17:07 12,6 °C 12,6 °C 78 % 1011,6 hPa 0,0 mm 3,9 km/h (1 Bft) W-SW 252 ° 0 min 0,000 mm 0,5 UV-I 123 W/m² 8,9 °C 12,6 °C 6,4 km/h (2 Bft)
19.03.2017 17:08 12,6 °C 12,6 °C 77 % 1011,6 hPa 0,0 mm 7,8 km/h (2 Bft) W-SW 248 ° 0 min 0,000 mm 0,5 UV-I 107 W/m² 8,7 °C 12,6 °C 11,3 km/h (2 Bft)
19.03.2017 17:09 12,6 °C 12,6 °C 77 % 1011,7 hPa 0,0 mm 12,1 km/h (2 Bft) W-SW 257 ° 0 min 0,000 mm 0,5 UV-I 107 W/m² 8,7 °C 12,6 °C 19,3 km/h (3 Bft)
19.03.2017 17:10 12,6 °C 12,6 °C 77 % 1011,7 hPa 0,0 mm 12,1 km/h (2 Bft) W-NW 288 ° 0 min 0,000 mm 0,5 UV-I 111 W/m² 8,7 °C 12,6 °C 17,7 km/h (3 Bft)
19.03.2017 17:11 12,6 °C 12,6 °C 77 % 1011,7 hPa 0,0 mm 4,5 km/h (1 Bft) W 261 ° 0 min 0,000 mm 0,5 UV-I 116 W/m² 8,7 °C 12,6 °C 6,4 km/h (2 Bft)
19.03.2017 17:12 12,6 °C 12,6 °C 77 % 1011,7 hPa 0,0 mm 5,4 km/h (1 Bft) W-SW 248 ° 0 min 0,000 mm 0,5 UV-I 114 W/m² 8,7 °C 12,6 °C 12,9 km/h (3 Bft)
19.03.2017 17:13 12,7 °C 12,7 °C 78 % 1011,7 hPa 0,0 mm 9,7 km/h (2 Bft) W-NW 291 ° 0 min 0,000 mm 0,5 UV-I 109 W/m² 9,0 °C 12,7 °C 14,5 km/h (3 Bft)
19.03.2017 17:14 12,7 °C 12,7 °C 77 % 1011,7 hPa 0,0 mm 9,8 km/h (2 Bft) W-SW 253 ° 0 min 0,000 mm 0,5 UV-I 105 W/m² 8,8 °C 12,7 °C 12,9 km/h (3 Bft)
19.03.2017 17:15 12,7 °C 12,7 °C 78 % 1011,7 hPa 0,0 mm 6,6 km/h (2 Bft) W-SW 246 ° 0 min 0,000 mm 0,5 UV-I 102 W/m² 9,0 °C 12,7 °C 11,3 km/h (2 Bft)
19.03.2017 17:16 12,8 °C 12,8 °C 77 % 1011,6 hPa 0,0 mm 5,5 km/h (1 Bft) W-SW 238 ° 0 min 0,000 mm 0,0 UV-I 98 W/m² 8,9 °C 12,8 °C 9,7 km/h (2 Bft)
19.03.2017 17:17 12,8 °C 12,8 °C 77 % 1011,7 hPa 0,0 mm 3,1 km/h (1 Bft) W-SW 240 ° 0 min 0,000 mm 0,0 UV-I 91 W/m² 8,9 °C 12,8 °C 4,8 km/h (1 Bft)
19.03.2017 17:18 12,8 °C 12,8 °C 77 % 1011,7 hPa 0,0 mm 3,0 km/h (1 Bft) W-SW 240 ° 0 min 0,000 mm 0,0 UV-I 86 W/m² 8,9 °C 12,8 °C 4,8 km/h (1 Bft)
19.03.2017 17:19 12,8 °C 12,8 °C 77 % 1011,6 hPa 0,0 mm 8,5 km/h (2 Bft) SW 232 ° 0 min 0,000 mm 0,0 UV-I 81 W/m² 8,9 °C 12,8 °C 14,5 km/h (3 Bft)
19.03.2017 17:20 12,8 °C 12,8 °C 76 % 1011,6 hPa 0,0 mm 5,8 km/h (2 Bft) W-SW 254 ° 0 min 0,000 mm 0,0 UV-I 77 W/m² 8,7 °C 12,8 °C 11,3 km/h (2 Bft)
19.03.2017 17:21 12,7 °C 12,8 °C 77 % 1011,6 hPa 0,0 mm 13,0 km/h (3 Bft) W 264 ° 0 min 0,000 mm 0,0 UV-I 76 W/m² 8,8 °C 12,7 °C 16,1 km/h (3 Bft)
19.03.2017 17:22 12,7 °C 12,7 °C 76 % 1011,6 hPa 0,0 mm 7,6 km/h (2 Bft) W 267 ° 0 min 0,000 mm 0,0 UV-I 72 W/m² 8,6 °C 12,7 °C 11,3 km/h (2 Bft)
19.03.2017 17:23 12,6 °C 12,7 °C 77 % 1011,7 hPa 0,0 mm 6,0 km/h (2 Bft) W-SW 257 ° 0 min 0,000 mm 0,0 UV-I 69 W/m² 8,7 °C 12,6 °C 8,0 km/h (2 Bft)
19.03.2017 17:24 12,6 °C 12,6 °C 78 % 1011,6 hPa 0,0 mm 8,5 km/h (2 Bft) W-SW 246 ° 0 min 0,000 mm 0,0 UV-I 76 W/m² 8,9 °C 12,6 °C 16,1 km/h (3 Bft)
19.03.2017 17:25 12,6 °C 12,6 °C 77 % 1011,7 hPa 0,0 mm 15,3 km/h (3 Bft) W-SW 244 ° 0 min 0,000 mm 0,0 UV-I 69 W/m² 8,7 °C 12,6 °C 22,5 km/h (4 Bft)
19.03.2017 17:26 12,6 °C 12,6 °C 77 % 1011,7 hPa 0,0 mm 6,7 km/h (2 Bft) W 270 ° 0 min 0,000 mm 0,0 UV-I 65 W/m² 8,7 °C 12,6 °C 11,3 km/h (2 Bft)
19.03.2017 17:27 12,5 °C 12,6 °C 78 % 1011,7 hPa 0,0 mm 6,9 km/h (2 Bft) SW 233 ° 0 min 0,000 mm 0,0 UV-I 63 W/m² 8,8 °C 12,5 °C 11,3 km/h (2 Bft)
19.03.2017 17:28 12,4 °C 12,5 °C 77 % 1011,7 hPa 0,0 mm 5,6 km/h (1 Bft) W-SW 257 ° 0 min 0,000 mm 0,0 UV-I 62 W/m² 8,5 °C 12,4 °C 9,7 km/h (2 Bft)
19.03.2017 17:29 12,4 °C 12,4 °C 78 % 1011,7 hPa 0,0 mm 8,7 km/h (2 Bft) W-SW 239 ° 0 min 0,000 mm 0,0 UV-I 54 W/m² 8,7 °C 12,4 °C 12,9 km/h (3 Bft)
19.03.2017 17:30 12,4 °C 12,4 °C 78 % 1011,7 hPa 0,0 mm 7,6 km/h (2 Bft) S 186 ° 0 min 0,000 mm 0,0 UV-I 53 W/m² 8,7 °C 12,4 °C 12,9 km/h (3 Bft)
19.03.2017 17:31 12,4 °C 12,4 °C 77 % 1011,6 hPa 0,0 mm 8,4 km/h (2 Bft) W-SW 251 ° 0 min 0,000 mm 0,0 UV-I 53 W/m² 8,5 °C 12,4 °C 14,5 km/h (3 Bft)
19.03.2017 17:32 12,4 °C 12,4 °C 78 % 1011,6 hPa 0,0 mm 6,4 km/h (2 Bft) W-SW 252 ° 0 min 0,000 mm 0,0 UV-I 49 W/m² 8,7 °C 12,4 °C 11,3 km/h (2 Bft)
19.03.2017 17:33 12,3 °C 12,4 °C 78 % 1011,6 hPa 0,0 mm 12,6 km/h (3 Bft) SW 233 ° 0 min 0,000 mm 0,0 UV-I 49 W/m² 8,6 °C 12,3 °C 17,7 km/h (3 Bft)
19.03.2017 17:34 12,3 °C 12,3 °C 78 % 1011,5 hPa 0,0 mm 4,1 km/h (1 Bft) SW 234 ° 0 min 0,000 mm 0,0 UV-I 47 W/m² 8,6 °C 12,3 °C 6,4 km/h (2 Bft)
19.03.2017 17:35 12,3 °C 12,3 °C 78 % 1011,6 hPa 0,0 mm 4,5 km/h (1 Bft) W-SW 240 ° 0 min 0,000 mm 0,0 UV-I 44 W/m² 8,6 °C 12,3 °C 6,4 km/h (2 Bft)
19.03.2017 17:36 12,2 °C 12,3 °C 78 % 1011,6 hPa 0,0 mm 7,8 km/h (2 Bft) SW 221 ° 0 min 0,000 mm 0,0 UV-I 42 W/m² 8,5 °C 12,2 °C 14,5 km/h (3 Bft)
19.03.2017 17:37 12,2 °C 12,2 °C 78 % 1011,5 hPa 0,0 mm 11,6 km/h (2 Bft) W 267 ° 0 min 0,000 mm 0,0 UV-I 42 W/m² 8,5 °C 12,2 °C 17,7 km/h (3 Bft)
19.03.2017 17:38 12,2 °C 12,2 °C 79 % 1011,5 hPa 0,0 mm 8,9 km/h (2 Bft) SW 229 ° 0 min 0,000 mm 0,0 UV-I 40 W/m² 8,7 °C 12,2 °C 14,5 km/h (3 Bft)
19.03.2017 17:39 12,2 °C 12,2 °C 78 % 1011,5 hPa 0,0 mm 4,4 km/h (1 Bft) S-SW 203 ° 0 min 0,000 mm 0,0 UV-I 40 W/m² 8,5 °C 12,2 °C 9,7 km/h (2 Bft)
19.03.2017 17:40 12,2 °C 12,2 °C 79 % 1011,5 hPa 0,0 mm 4,8 km/h (1 Bft) S 182 ° 0 min 0,000 mm 0,0 UV-I 37 W/m² 8,7 °C 12,2 °C 6,4 km/h (2 Bft)
19.03.2017 17:41 12,2 °C 12,2 °C 79 % 1011,5 hPa 0,0 mm 3,9 km/h (1 Bft) SW 226 ° 0 min 0,000 mm 0,0 UV-I 35 W/m² 8,7 °C 12,2 °C 6,4 km/h (2 Bft)
19.03.2017 17:42 12,2 °C 12,2 °C 79 % 1011,5 hPa 0,0 mm 5,8 km/h (2 Bft) S-SW 209 ° 0 min 0,000 mm 0,0 UV-I 33 W/m² 8,7 °C 12,2 °C 8,0 km/h (2 Bft)
19.03.2017 17:43 12,1 °C 12,2 °C 79 % 1011,5 hPa 0,0 mm 6,2 km/h (2 Bft) W-SW 258 ° 0 min 0,000 mm 0,0 UV-I 30 W/m² 8,6 °C 12,1 °C 11,3 km/h (2 Bft)
19.03.2017 17:44 12,1 °C 12,1 °C 79 % 1011,5 hPa 0,0 mm 9,4 km/h (2 Bft) W-SW 242 ° 0 min 0,000 mm 0,0 UV-I 28 W/m² 8,6 °C 12,1 °C 14,5 km/h (3 Bft)
19.03.2017 17:45 12,1 °C 12,1 °C 79 % 1011,5 hPa 0,0 mm 5,3 km/h (1 Bft) SW 214 ° 0 min 0,000 mm 0,0 UV-I 25 W/m² 8,6 °C 12,1 °C 8,0 km/h (2 Bft)
19.03.2017 17:46 12,1 °C 12,1 °C 79 % 1011,4 hPa 0,0 mm 5,2 km/h (1 Bft) W-SW 252 ° 0 min 0,000 mm 0,0 UV-I 23 W/m² 8,6 °C 12,1 °C 8,0 km/h (2 Bft)
19.03.2017 17:47 12,1 °C 12,1 °C 79 % 1011,4 hPa 0,0 mm 8,9 km/h (2 Bft) S-SW 212 ° 0 min 0,000 mm 0,0 UV-I 23 W/m² 8,6 °C 12,1 °C 11,3 km/h (2 Bft)
19.03.2017 17:48 12,1 °C 12,1 °C 79 % 1011,4 hPa 0,0 mm 3,9 km/h (1 Bft) SW 217 ° 0 min 0,000 mm 0,0 UV-I 25 W/m² 8,6 °C 12,1 °C 4,8 km/h (1 Bft)
19.03.2017 17:49 12,1 °C 12,1 °C 79 % 1011,3 hPa 0,0 mm 1,9 km/h (1 Bft) SW 217 ° 0 min 0,000 mm 0,0 UV-I 25 W/m² 8,6 °C 12,1 °C 3,2 km/h (1 Bft)
19.03.2017 17:50 12,0 °C 12,1 °C 79 % 1011,4 hPa 0,0 mm 3,0 km/h (1 Bft) SW 221 ° 0 min 0,000 mm 0,0 UV-I 26 W/m² 8,5 °C 12,0 °C 3,2 km/h (1 Bft)
19.03.2017 17:51 12,0 °C 12,0 °C 79 % 1011,3 hPa 0,0 mm 5,9 km/h (2 Bft) W-SW 242 ° 0 min 0,000 mm 0,0 UV-I 26 W/m² 8,5 °C 12,0 °C 14,5 km/h (3 Bft)
19.03.2017 17:52 11,9 °C 12,0 °C 79 % 1011,3 hPa 0,0 mm 7,0 km/h (2 Bft) S-SO 165 ° 0 min 0,000 mm 0,0 UV-I 25 W/m² 8,4 °C 11,9 °C 14,5 km/h (3 Bft)
19.03.2017 17:53 11,9 °C 12,0 °C 79 % 1011,3 hPa 0,0 mm 5,0 km/h (1 Bft) SW 230 ° 0 min 0,000 mm 0,0 UV-I 25 W/m² 8,4 °C 11,9 °C 11,3 km/h (2 Bft)
19.03.2017 17:54 12,0 °C 12,0 °C 79 % 1011,3 hPa 0,0 mm 6,6 km/h (2 Bft) SW 229 ° 0 min 0,000 mm 0,0 UV-I 23 W/m² 8,5 °C 12,0 °C 16,1 km/h (3 Bft)
19.03.2017 17:55 12,0 °C 12,0 °C 79 % 1011,4 hPa 0,0 mm 5,8 km/h (2 Bft) W-SW 240 ° 0 min 0,000 mm 0,0 UV-I 21 W/m² 8,5 °C 12,0 °C 12,9 km/h (3 Bft)
19.03.2017 17:56 11,9 °C 12,0 °C 79 % 1011,3 hPa 0,0 mm 4,6 km/h (1 Bft) S-SW 207 ° 0 min 0,000 mm 0,0 UV-I 19 W/m² 8,4 °C 11,9 °C 6,4 km/h (2 Bft)
19.03.2017 17:57 11,9 °C 12,0 °C 79 % 1011,3 hPa 0,0 mm 7,5 km/h (2 Bft) S-SW 193 ° 0 min 0,000 mm 0,0 UV-I 19 W/m² 8,4 °C 11,9 °C 11,3 km/h (2 Bft)
19.03.2017 17:58 11,9 °C 11,9 °C 79 % 1011,3 hPa 0,0 mm 6,8 km/h (2 Bft) S-SW 209 ° 0 min 0,000 mm 0,0 UV-I 21 W/m² 8,4 °C 11,9 °C 9,7 km/h (2 Bft)
19.03.2017 17:59 11,9 °C 12,0 °C 79 % 1011,3 hPa 0,0 mm 4,9 km/h (1 Bft) W 265 ° 0 min 0,000 mm 0,0 UV-I 21 W/m² 8,4 °C 11,9 °C 6,4 km/h (2 Bft)
19.03.2017 18:00 12,0 °C 12,0 °C 79 % 1011,4 hPa 0,0 mm 4,3 km/h (1 Bft) SW 229 ° 0 min 0,000 mm 0,0 UV-I 23 W/m² 8,5 °C 12,0 °C 6,4 km/h (2 Bft)
19.03.2017 18:01 11,9 °C 12,0 °C 79 % 1011,3 hPa 0,0 mm 4,8 km/h (1 Bft) SW 227 ° 0 min 0,051 mm 0,0 UV-I 23 W/m² 8,4 °C 11,9 °C 6,4 km/h (2 Bft)
19.03.2017 18:02 11,9 °C 12,0 °C 79 % 1011,3 hPa 0,0 mm 4,9 km/h (1 Bft) W 263 ° 0 min 0,000 mm 0,0 UV-I 25 W/m² 8,4 °C 11,9 °C 6,4 km/h (2 Bft)
19.03.2017 18:03 11,9 °C 12,0 °C 79 % 1011,4 hPa 0,0 mm 4,5 km/h (1 Bft) W-SW 248 ° 0 min 0,000 mm 0,0 UV-I 25 W/m² 8,4 °C 11,9 °C 6,4 km/h (2 Bft)
19.03.2017 18:04 11,9 °C 11,9 °C 79 % 1011,4 hPa 0,0 mm 2,7 km/h (1 Bft) W-SW 250 ° 0 min 0,000 mm 0,0 UV-I 25 W/m² 8,4 °C 11,9 °C 6,4 km/h (2 Bft)
19.03.2017 18:05 11,9 °C 11,9 °C 79 % 1011,4 hPa 0,0 mm 4,4 km/h (1 Bft) W-SW 238 ° 0 min 0,000 mm 0,0 UV-I 25 W/m² 8,4 °C 11,9 °C 6,4 km/h (2 Bft)
19.03.2017 18:06 11,9 °C 11,9 °C 79 % 1011,4 hPa 0,0 mm 5,0 km/h (1 Bft) W-SW 237 ° 0 min 0,000 mm 0,0 UV-I 25 W/m² 8,4 °C 11,9 °C 8,0 km/h (2 Bft)
19.03.2017 18:07 11,8 °C 11,9 °C 79 % 1011,5 hPa 0,0 mm 6,2 km/h (2 Bft) SW 233 ° 0 min 0,000 mm 0,0 UV-I 25 W/m² 8,3 °C 11,8 °C 8,0 km/h (2 Bft)
19.03.2017 18:08 11,8 °C 11,8 °C 79 % 1011,4 hPa 0,0 mm 6,6 km/h (2 Bft) W-SW 246 ° 0 min 0,000 mm 0,0 UV-I 21 W/m² 8,3 °C 11,8 °C 11,3 km/h (2 Bft)
19.03.2017 18:09 11,8 °C 11,8 °C 79 % 1011,4 hPa 0,0 mm 2,4 km/h (1 Bft) W-SW 246 ° 0 min 0,000 mm 0,0 UV-I 19 W/m² 8,3 °C 11,8 °C 4,8 km/h (1 Bft)
19.03.2017 18:10 11,8 °C 11,8 °C 79 % 1011,4 hPa 0,0 mm 2,2 km/h (1 Bft) W-SW 246 ° 0 min 0,000 mm 0,0 UV-I 18 W/m² 8,3 °C 11,8 °C 3,2 km/h (1 Bft)
19.03.2017 18:11 11,8 °C 11,8 °C 79 % 1011,5 hPa 0,0 mm 2,4 km/h (1 Bft) W-SW 246 ° 0 min 0,000 mm 0,0 UV-I 16 W/m² 8,3 °C 11,8 °C 4,8 km/h (1 Bft)
19.03.2017 18:12 11,7 °C 11,8 °C 80 % 1011,4 hPa 0,0 mm 3,5 km/h (1 Bft) W-SW 244 ° 0 min 0,000 mm 0,0 UV-I 16 W/m² 8,4 °C 11,7 °C 6,4 km/h (2 Bft)
19.03.2017 18:13 11,7 °C 11,7 °C 79 % 1011,4 hPa 0,0 mm 3,2 km/h (1 Bft) W-SW 252 ° 0 min 0,000 mm 0,0 UV-I 14 W/m² 8,2 °C 11,7 °C 4,8 km/h (1 Bft)
19.03.2017 18:14 11,7 °C 11,7 °C 79 % 1011,5 hPa 0,0 mm 3,1 km/h (1 Bft) W-SW 252 ° 0 min 0,000 mm 0,0 UV-I 12 W/m² 8,2 °C 11,7 °C 4,8 km/h (1 Bft)
19.03.2017 18:15 11,7 °C 11,7 °C 80 % 1011,5 hPa 0,0 mm 3,9 km/h (1 Bft) W-SW 248 ° 0 min 0,000 mm 0,0 UV-I 9 W/m² 8,4 °C 11,7 °C 6,4 km/h (2 Bft)
19.03.2017 18:16 11,7 °C 11,7 °C 79 % 1011,4 hPa 0,0 mm 3,3 km/h (1 Bft) W-SW 247 ° 0 min 0,000 mm 0,0 UV-I 7 W/m² 8,2 °C 11,7 °C 4,8 km/h (1 Bft)
19.03.2017 18:17 11,7 °C 11,7 °C 79 % 1011,4 hPa 0,0 mm 3,1 km/h (1 Bft) W-SW 244 ° 0 min 0,000 mm 0,0 UV-I 7 W/m² 8,2 °C 11,7 °C 4,8 km/h (1 Bft)
19.03.2017 18:18 11,7 °C 11,7 °C 80 % 1011,4 hPa 0,0 mm 2,2 km/h (1 Bft) W-SW 244 ° 0 min 0,000 mm 0,0 UV-I 5 W/m² 8,4 °C 11,7 °C 3,2 km/h (1 Bft)
19.03.2017 18:19 11,7 °C 11,7 °C 79 % 1011,4 hPa 0,0 mm 3,6 km/h (1 Bft) SW 215 ° 0 min 0,000 mm 0,0 UV-I 5 W/m² 8,2 °C 11,7 °C 4,8 km/h (1 Bft)
19.03.2017 18:20 11,7 °C 11,7 °C 79 % 1011,3 hPa 0,0 mm 5,1 km/h (1 Bft) SW 218 ° 0 min 0,000 mm 0,0 UV-I 5 W/m² 8,2 °C 11,7 °C 9,7 km/h (2 Bft)
19.03.2017 18:21 11,6 °C 11,7 °C 79 % 1011,4 hPa 0,0 mm 6,0 km/h (2 Bft) S-SW 204 ° 0 min 0,000 mm 0,0 UV-I 0 W/m² 8,1 °C 11,6 °C 8,0 km/h (2 Bft)
19.03.2017 18:22 11,7 °C 11,7 °C 79 % 1011,3 hPa 0,0 mm 5,4 km/h (1 Bft) SW 217 ° 0 min 0,000 mm 0,0 UV-I 0 W/m² 8,2 °C 11,7 °C 8,0 km/h (2 Bft)
19.03.2017 18:23 11,7 °C 11,7 °C 79 % 1011,3 hPa 0,0 mm 4,0 km/h (1 Bft) S-SW 196 ° 0 min 0,000 mm 0,0 UV-I 0 W/m² 8,2 °C 11,7 °C 8,0 km/h (2 Bft)
19.03.2017 18:24 11,7 °C 11,7 °C 79 % 1011,2 hPa 0,0 mm 3,5 km/h (1 Bft) S-SW 196 ° 0 min 0,000 mm 0,0 UV-I 0 W/m² 8,2 °C 11,7 °C 8,0 km/h (2 Bft)
19.03.2017 18:25 11,7 °C 11,7 °C 79 % 1011,3 hPa 0,0 mm 3,7 km/h (1 Bft) S-SW 196 ° 0 min 0,000 mm 0,0 UV-I 0 W/m² 8,2 °C 11,7 °C 4,8 km/h (1 Bft)
19.03.2017 18:26 11,7 °C 11,7 °C 79 % 1011,3 hPa 0,0 mm 3,6 km/h (1 Bft) SW 215 ° 0 min 0,000 mm 0,0 UV-I 0 W/m² 8,2 °C 11,7 °C 6,4 km/h (2 Bft)
19.03.2017 18:27 11,7 °C 11,7 °C 79 % 1011,4 hPa 0,0 mm 3,5 km/h (1 Bft) W-SW 246 ° 0 min 0,000 mm 0,0 UV-I 0 W/m² 8,2 °C 11,7 °C 4,8 km/h (1 Bft)
19.03.2017 18:28 11,6 °C 11,7 °C 79 % 1011,4 hPa 0,0 mm 3,4 km/h (1 Bft) SW 235 ° 0 min 0,000 mm 0,0 UV-I 0 W/m² 8,1 °C 11,6 °C 6,4 km/h (2 Bft)
19.03.2017 18:29 11,7 °C 11,7 °C 78 % 1011,4 hPa 0,0 mm 4,8 km/h (1 Bft) SW 229 ° 0 min 0,000 mm 0,0 UV-I 0 W/m² 8,0 °C 11,7 °C 6,4 km/h (2 Bft)
19.03.2017 18:30 11,7 °C 11,7 °C 78 % 1011,4 hPa 0,0 mm 3,7 km/h (1 Bft) W-SW 255 ° 0 min 0,000 mm 0,0 UV-I 0 W/m² 8,0 °C 11,7 °C 4,8 km/h (1 Bft)
19.03.2017 18:31 11,6 °C 11,7 °C 78 % 1011,4 hPa 0,0 mm 3,8 km/h (1 Bft) S-SW 192 ° 0 min 0,000 mm 0,0 UV-I 0 W/m² 7,9 °C 11,6 °C 6,4 km/h (2 Bft)
19.03.2017 18:32 11,7 °C 11,7 °C 78 % 1011,4 hPa 0,0 mm 3,0 km/h (1 Bft) S-SW 194 ° 0 min 0,000 mm 0,0 UV-I 0 W/m² 8,0 °C 11,7 °C 4,8 km/h (1 Bft)
19.03.2017 18:33 11,6 °C 11,7 °C 79 % 1011,4 hPa 0,0 mm 3,7 km/h (1 Bft) SW 223 ° 0 min 0,000 mm 0,0 UV-I 0 W/m² 8,1 °C 11,6 °C 4,8 km/h (1 Bft)
19.03.2017 18:34 11,6 °C 11,6 °C 79 % 1011,4 hPa 0,0 mm 2,7 km/h (1 Bft) SW 223 ° 0 min 0,000 mm 0,0 UV-I 0 W/m² 8,1 °C 11,6 °C 4,8 km/h (1 Bft)
19.03.2017 18:35 11,6 °C 11,6 °C 78 % 1011,4 hPa 0,0 mm 1,7 km/h (1 Bft) SW 221 ° 0 min 0,000 mm 0,0 UV-I 0 W/m² 7,9 °C 11,6 °C 4,8 km/h (1 Bft)
19.03.2017 18:36 11,5 °C 11,6 °C 79 % 1011,5 hPa 0,0 mm 2,5 km/h (1 Bft) SW 221 ° 0 min 0,000 mm 0,0 UV-I 0 W/m² 8,0 °C 11,5 °C 4,8 km/h (1 Bft)
19.03.2017 18:37 11,5 °C 11,5 °C 79 % 1011,5 hPa 0,0 mm 1,3 km/h (1 Bft) SW 221 ° 0 min 0,000 mm 0,0 UV-I 0 W/m² 8,0 °C 11,5 °C 3,2 km/h (1 Bft)
19.03.2017 18:38 11,4 °C 11,5 °C 79 % 1011,4 hPa 0,0 mm 2,6 km/h (1 Bft) S-SW 211 ° 0 min 0,000 mm 0,0 UV-I 0 W/m² 7,9 °C 11,4 °C 4,8 km/h (1 Bft)
19.03.2017 18:39 11,4 °C 11,4 °C 78 % 1011,4 hPa 0,0 mm 3,8 km/h (1 Bft) S-SW 210 ° 0 min 0,000 mm 0,0 UV-I 0 W/m² 7,7 °C 11,4 °C 6,4 km/h (2 Bft)
19.03.2017 18:40 11,4 °C 11,4 °C 78 % 1011,4 hPa 0,0 mm 6,2 km/h (2 Bft) S 180 ° 0 min 0,000 mm 0,0 UV-I 0 W/m² 7,7 °C 11,4 °C 9,7 km/h (2 Bft)
19.03.2017 18:41 11,4 °C 11,5 °C 79 % 1011,3 hPa 0,0 mm 8,0 km/h (2 Bft) S-SO 166 ° 0 min 0,000 mm 0,0 UV-I 0 W/m² 7,9 °C 11,4 °C 11,3 km/h (2 Bft)
19.03.2017 18:42 11,5 °C 11,5 °C 78 % 1011,3 hPa 0,0 mm 5,6 km/h (1 Bft) SW 219 ° 0 min 0,000 mm 0,0 UV-I 0 W/m² 7,8 °C 11,5 °C 8,0 km/h (2 Bft)
19.03.2017 18:43 11,6 °C 11,6 °C 78 % 1011,3 hPa 0,0 mm 6,2 km/h (2 Bft) S 190 ° 0 min 0,000 mm 0,0 UV-I 0 W/m² 7,9 °C 11,6 °C 8,0 km/h (2 Bft)
19.03.2017 18:44 11,6 °C 11,6 °C 78 % 1011,3 hPa 0,0 mm 7,2 km/h (2 Bft) S-SW 204 ° 0 min 0,000 mm 0,0 UV-I 0 W/m² 7,9 °C 11,6 °C 8,0 km/h (2 Bft)
19.03.2017 18:45 11,5 °C 11,6 °C 77 % 1011,4 hPa 0,0 mm 4,1 km/h (1 Bft) S-SW 209 ° 0 min 0,000 mm 0,0 UV-I 0 W/m² 7,6 °C 11,5 °C 8,0 km/h (2 Bft)
19.03.2017 18:46 11,6 °C 11,6 °C 77 % 1011,4 hPa 0,0 mm 2,8 km/h (1 Bft) S-SW 207 ° 0 min 0,000 mm 0,0 UV-I 0 W/m² 7,7 °C 11,6 °C 4,8 km/h (1 Bft)
19.03.2017 18:47 11,6 °C 11,6 °C 77 % 1011,3 hPa 0,0 mm 6,2 km/h (2 Bft) S-SW 208 ° 0 min 0,000 mm 0,0 UV-I 0 W/m² 7,7 °C 11,6 °C 9,7 km/h (2 Bft)
19.03.2017 18:48 11,6 °C 11,6 °C 77 % 1011,3 hPa 0,0 mm 2,9 km/h (1 Bft) S-SW 208 ° 0 min 0,000 mm 0,0 UV-I 0 W/m² 7,7 °C 11,6 °C 4,8 km/h (1 Bft)
19.03.2017 18:49 11,5 °C 11,6 °C 77 % 1011,3 hPa 0,0 mm 3,1 km/h (1 Bft) S-SW 208 ° 0 min 0,000 mm 0,0 UV-I 0 W/m² 7,6 °C 11,5 °C 4,8 km/h (1 Bft)
19.03.2017 18:50 11,5 °C 11,5 °C 76 % 1011,3 hPa 0,0 mm 6,3 km/h (2 Bft) S 178 ° 0 min 0,000 mm 0,0 UV-I 0 W/m² 7,4 °C 11,5 °C 9,7 km/h (2 Bft)
19.03.2017 18:51 11,6 °C 11,6 °C 76 % 1011,3 hPa 0,0 mm 7,0 km/h (2 Bft) S-SW 200 ° 0 min 0,000 mm 0,0 UV-I 0 W/m² 7,5 °C 11,6 °C 9,7 km/h (2 Bft)
19.03.2017 18:52 11,6 °C 11,6 °C 76 % 1011,4 hPa 0,0 mm 6,4 km/h (2 Bft) S 172 ° 0 min 0,000 mm 0,0 UV-I 0 W/m² 7,5 °C 11,6 °C 11,3 km/h (2 Bft)
19.03.2017 18:53 11,6 °C 11,6 °C 76 % 1011,4 hPa 0,0 mm 6,2 km/h (2 Bft) S 186 ° 0 min 0,000 mm 0,0 UV-I 0 W/m² 7,5 °C 11,6 °C 9,7 km/h (2 Bft)
19.03.2017 18:54 11,6 °C 11,6 °C 76 % 1011,4 hPa 0,0 mm 7,6 km/h (2 Bft) W-SW 248 ° 0 min 0,000 mm 0,0 UV-I 0 W/m² 7,5 °C 11,6 °C 11,3 km/h (2 Bft)
19.03.2017 18:55 11,6 °C 11,6 °C 76 % 1011,3 hPa 0,0 mm 7,4 km/h (2 Bft) S-SW 212 ° 0 min 0,000 mm 0,0 UV-I 0 W/m² 7,5 °C 11,6 °C 9,7 km/h (2 Bft)
19.03.2017 18:56 11,6 °C 11,6 °C 76 % 1011,3 hPa 0,0 mm 8,3 km/h (2 Bft) S 190 ° 0 min 0,000 mm 0,0 UV-I 0 W/m² 7,5 °C 11,6 °C 14,5 km/h (3 Bft)
19.03.2017 18:57 11,6 °C 11,6 °C 75 % 1011,3 hPa 0,0 mm 8,7 km/h (2 Bft) W 264 ° 0 min 0,000 mm 0,0 UV-I 0 W/m² 7,3 °C 11,6 °C 12,9 km/h (3 Bft)
19.03.2017 18:58 11,6 °C 11,6 °C 75 % 1011,3 hPa 0,0 mm 7,6 km/h (2 Bft) S-SW 197 ° 0 min 0,000 mm 0,0 UV-I 0 W/m² 7,3 °C 11,6 °C 12,9 km/h (3 Bft)
19.03.2017 18:59 11,6 °C 11,6 °C 75 % 1011,3 hPa 0,0 mm 6,8 km/h (2 Bft) S-SW 207 ° 0 min 0,000 mm 0,0 UV-I 0 W/m² 7,3 °C 11,6 °C 9,7 km/h (2 Bft)
19.03.2017 19:00 11,6 °C 11,6 °C 75 % 1011,3 hPa 0,0 mm 8,2 km/h (2 Bft) S-SW 209 ° 0 min 0,000 mm 0,0 UV-I 0 W/m² 7,3 °C 11,6 °C 11,3 km/h (2 Bft)
19.03.2017 19:01 11,6 °C 11,7 °C 75 % 1011,3 hPa 0,0 mm 8,6 km/h (2 Bft) S 188 ° 0 min 0,026 mm 0,0 UV-I 0 W/m² 7,3 °C 11,6 °C 12,9 km/h (3 Bft)
19.03.2017 19:02 11,6 °C 11,6 °C 74 % 1011,2 hPa 0,0 mm 10,1 km/h (2 Bft) W-SW 258 ° 0 min 0,000 mm 0,0 UV-I 0 W/m² 7,1 °C 11,6 °C 14,5 km/h (3 Bft)
19.03.2017 19:03 11,6 °C 11,6 °C 74 % 1011,2 hPa 0,0 mm 8,9 km/h (2 Bft) S-SW 196 ° 0 min 0,000 mm 0,0 UV-I 0 W/m² 7,1 °C 11,6 °C 11,3 km/h (2 Bft)
19.03.2017 19:04 11,6 °C 11,7 °C 74 % 1011,2 hPa 0,0 mm 8,9 km/h (2 Bft) S-SW 196 ° 0 min 0,000 mm 0,0 UV-I 0 W/m² 7,1 °C 11,6 °C 12,9 km/h (3 Bft)
19.03.2017 19:05 11,6 °C 11,7 °C 75 % 1011,1 hPa 0,0 mm 11,8 km/h (2 Bft) S-SW 201 ° 0 min 0,000 mm 0,0 UV-I 0 W/m² 7,3 °C 11,6 °C 14,5 km/h (3 Bft)
19.03.2017 19:06 11,7 °C 11,7 °C 74 % 1011,1 hPa 0,0 mm 11,7 km/h (2 Bft) S 184 ° 0 min 0,000 mm 0,0 UV-I 0 W/m² 7,2 °C 11,7 °C 16,1 km/h (3 Bft)
19.03.2017 19:07 11,6 °C 11,7 °C 74 % 1011,0 hPa 0,0 mm 9,8 km/h (2 Bft) S 187 ° 0 min 0,000 mm 0,0 UV-I 0 W/m² 7,1 °C 11,6 °C 19,3 km/h (3 Bft)
19.03.2017 19:08 11,6 °C 11,6 °C 74 % 1011,0 hPa 0,0 mm 11,5 km/h (2 Bft) S-SW 213 ° 0 min 0,000 mm 0,0 UV-I 0 W/m² 7,1 °C 11,6 °C 17,7 km/h (3 Bft)
19.03.2017 19:09 11,6 °C 11,7 °C 74 % 1011,0 hPa 0,0 mm 6,4 km/h (2 Bft) S 176 ° 0 min 0,000 mm 0,0 UV-I 0 W/m² 7,1 °C 11,6 °C 12,9 km/h (3 Bft)
19.03.2017 19:10 11,6 °C 11,7 °C 74 % 1011,0 hPa 0,0 mm 6,3 km/h (2 Bft) W-SW 237 ° 0 min 0,000 mm 0,0 UV-I 0 W/m² 7,1 °C 11,6 °C 11,3 km/h (2 Bft)
19.03.2017 19:11 11,7 °C 11,7 °C 74 % 1011,0 hPa 0,0 mm 4,5 km/h (1 Bft) SW 225 ° 0 min 0,000 mm 0,0 UV-I 0 W/m² 7,2 °C 11,7 °C 6,4 km/h (2 Bft)
19.03.2017 19:12 11,6 °C 11,7 °C 74 % 1011,0 hPa 0,0 mm 5,2 km/h (1 Bft) W-SW 239 ° 0 min 0,000 mm 0,0 UV-I 0 W/m² 7,1 °C 11,6 °C 9,7 km/h (2 Bft)
19.03.2017 19:13 11,6 °C 11,6 °C 74 % 1011,0 hPa 0,0 mm 8,7 km/h (2 Bft) W-SW 242 ° 0 min 0,000 mm 0,0 UV-I 0 W/m² 7,1 °C 11,6 °C 14,5 km/h (3 Bft)
19.03.2017 19:14 11,6 °C 11,6 °C 74 % 1011,0 hPa 0,0 mm 7,5 km/h (2 Bft) W-NW 298 ° 0 min 0,000 mm 0,0 UV-I 0 W/m² 7,1 °C 11,6 °C 14,5 km/h (3 Bft)
19.03.2017 19:15 11,6 °C 11,6 °C 74 % 1011,0 hPa 0,0 mm 5,2 km/h (1 Bft) W-SW 255 ° 0 min 0,000 mm 0,0 UV-I 0 W/m² 7,1 °C 11,6 °C 11,3 km/h (2 Bft)
19.03.2017 19:16 11,6 °C 11,6 °C 73 % 1010,9 hPa 0,0 mm 4,2 km/h (1 Bft) W 267 ° 0 min 0,000 mm 0,0 UV-I 0 W/m² 6,9 °C 11,6 °C 6,4 km/h (2 Bft)
19.03.2017 19:17 11,5 °C 11,6 °C 74 % 1010,9 hPa 0,0 mm 6,7 km/h (2 Bft) W-SW 252 ° 0 min 0,000 mm 0,0 UV-I 0 W/m² 7,0 °C 11,5 °C 9,7 km/h (2 Bft)
19.03.2017 19:18 11,5 °C 11,5 °C 73 % 1011,0 hPa 0,0 mm 7,2 km/h (2 Bft) W-SW 253 ° 0 min 0,000 mm 0,0 UV-I 0 W/m² 6,8 °C 11,5 °C 11,3 km/h (2 Bft)
19.03.2017 19:19 11,6 °C 11,6 °C 72 % 1010,9 hPa 0,0 mm 4,7 km/h (1 Bft) W-SW 248 ° 0 min 0,000 mm 0,0 UV-I 0 W/m² 6,7 °C 11,6 °C 9,7 km/h (2 Bft)
19.03.2017 19:20 11,5 °C 11,6 °C 73 % 1010,9 hPa 0,0 mm 7,7 km/h (2 Bft) W-SW 256 ° 0 min 0,000 mm 0,0 UV-I 0 W/m² 6,8 °C 11,5 °C 17,7 km/h (3 Bft)
19.03.2017 19:21 11,4 °C 11,5 °C 73 % 1010,9 hPa 0,0 mm 7,3 km/h (2 Bft) W 261 ° 0 min 0,000 mm 0,0 UV-I 0 W/m² 6,7 °C 11,4 °C 17,7 km/h (3 Bft)
19.03.2017 19:22 11,4 °C 11,4 °C 72 % 1011,0 hPa 0,0 mm 5,3 km/h (1 Bft) W 272 ° 0 min 0,000 mm 0,0 UV-I 0 W/m² 6,5 °C 11,4 °C 12,9 km/h (3 Bft)
19.03.2017 19:23 11,4 °C 11,4 °C 71 % 1011,0 hPa 0,0 mm 5,3 km/h (1 Bft) W-SW 238 ° 0 min 0,000 mm 0,0 UV-I 0 W/m² 6,3 °C 11,4 °C 12,9 km/h (3 Bft)
19.03.2017 19:24 11,4 °C 11,4 °C 72 % 1011,0 hPa 0,0 mm 9,3 km/h (2 Bft) W-SW 255 ° 0 min 0,000 mm 0,0 UV-I 0 W/m² 6,5 °C 11,4 °C 12,9 km/h (3 Bft)
19.03.2017 19:25 11,3 °C 11,4 °C 72 % 1011,1 hPa 0,0 mm 4,7 km/h (1 Bft) SW 214 ° 0 min 0,000 mm 0,0 UV-I 0 W/m² 6,4 °C 11,3 °C 8,0 km/h (2 Bft)
19.03.2017 19:26 11,3 °C 11,3 °C 72 % 1011,0 hPa 0,0 mm 9,8 km/h (2 Bft) W-SW 254 ° 0 min 0,000 mm 0,0 UV-I 0 W/m² 6,4 °C 11,3 °C 14,5 km/h (3 Bft)
19.03.2017 19:27 11,3 °C 11,3 °C 72 % 1011,1 hPa 0,0 mm 7,4 km/h (2 Bft) W 261 ° 0 min 0,000 mm 0,0 UV-I 0 W/m² 6,4 °C 11,3 °C 14,5 km/h (3 Bft)
19.03.2017 19:28 11,2 °C 11,3 °C 72 % 1011,0 hPa 0,0 mm 6,7 km/h (2 Bft) W-SW 238 ° 0 min 0,000 mm 0,0 UV-I 0 W/m² 6,3 °C 11,2 °C 11,3 km/h (2 Bft)
19.03.2017 19:29 11,3 °C 11,3 °C 72 % 1011,1 hPa 0,0 mm 4,6 km/h (1 Bft) W-SW 240 ° 0 min 0,000 mm 0,0 UV-I 0 W/m² 6,4 °C 11,3 °C 8,0 km/h (2 Bft)
19.03.2017 19:30 11,3 °C 11,3 °C 72 % 1011,1 hPa 0,0 mm 6,1 km/h (2 Bft) W-SW 252 ° 0 min 0,000 mm 0,0 UV-I 0 W/m² 6,4 °C 11,3 °C 9,7 km/h (2 Bft)
19.03.2017 19:31 11,2 °C 11,3 °C 72 % 1011,1 hPa 0,0 mm 4,0 km/h (1 Bft) W-SW 249 ° 0 min 0,000 mm 0,0 UV-I 0 W/m² 6,3 °C 11,2 °C 8,0 km/h (2 Bft)
19.03.2017 19:32 11,2 °C 11,2 °C 72 % 1011,1 hPa 0,0 mm 5,2 km/h (1 Bft) SW 234 ° 0 min 0,000 mm 0,0 UV-I 0 W/m² 6,3 °C 11,2 °C 6,4 km/h (2 Bft)
19.03.2017 19:33 11,2 °C 11,2 °C 72 % 1011,2 hPa 0,0 mm 9,1 km/h (2 Bft) W-SW 252 ° 0 min 0,000 mm 0,0 UV-I 0 W/m² 6,3 °C 11,2 °C 14,5 km/h (3 Bft)
19.03.2017 19:34 11,1 °C 11,2 °C 72 % 1011,1 hPa 0,0 mm 5,9 km/h (2 Bft) W-SW 256 ° 0 min 0,000 mm 0,0 UV-I 0 W/m² 6,2 °C 11,1 °C 8,0 km/h (2 Bft)
19.03.2017 19:35 11,1 °C 11,1 °C 72 % 1011,2 hPa 0,0 mm 7,7 km/h (2 Bft) SW 222 ° 0 min 0,000 mm 0,0 UV-I 0 W/m² 6,2 °C 11,1 °C 12,9 km/h (3 Bft)
19.03.2017 19:36 11,1 °C 11,1 °C 72 % 1011,2 hPa 0,0 mm 3,7 km/h (1 Bft) SW 234 ° 0 min 0,000 mm 0,0 UV-I 0 W/m² 6,2 °C 11,1 °C 4,8 km/h (1 Bft)
19.03.2017 19:37 11,1 °C 11,1 °C 72 % 1011,2 hPa 0,0 mm 4,4 km/h (1 Bft) SW 231 ° 0 min 0,000 mm 0,0 UV-I 0 W/m² 6,2 °C 11,1 °C 6,4 km/h (2 Bft)
19.03.2017 19:38 11,0 °C 11,1 °C 72 % 1011,2 hPa 0,0 mm 5,6 km/h (1 Bft) W-SW 248 ° 0 min 0,000 mm 0,0 UV-I 0 W/m² 6,2 °C 11,0 °C 9,7 km/h (2 Bft)
19.03.2017 19:39 11,0 °C 11,0 °C 72 % 1011,2 hPa 0,0 mm 3,3 km/h (1 Bft) W-SW 248 ° 0 min 0,000 mm 0,0 UV-I 0 W/m² 6,2 °C 11,0 °C 4,8 km/h (1 Bft)
19.03.2017 19:40 11,0 °C 11,0 °C 72 % 1011,2 hPa 0,0 mm 2,4 km/h (1 Bft) SW 223 ° 0 min 0,000 mm 0,0 UV-I 0 W/m² 6,2 °C 11,0 °C 6,4 km/h (2 Bft)
19.03.2017 19:41 10,9 °C 11,0 °C 72 % 1011,2 hPa 0,0 mm 1,4 km/h (1 Bft) SW 225 ° 0 min 0,000 mm 0,0 UV-I 0 W/m² 6,1 °C 10,9 °C 3,2 km/h (1 Bft)
19.03.2017 19:42 11,0 °C 11,0 °C 71 % 1011,2 hPa 0,0 mm 5,6 km/h (1 Bft) W-SW 252 ° 0 min 0,000 mm 0,0 UV-I 0 W/m² 5,9 °C 11,0 °C 11,3 km/h (2 Bft)
19.03.2017 19:43 10,9 °C 11,0 °C 71 % 1011,2 hPa 0,0 mm 5,9 km/h (2 Bft) SW 230 ° 0 min 0,000 mm 0,0 UV-I 0 W/m² 5,9 °C 10,9 °C 9,7 km/h (2 Bft)
19.03.2017 19:44 10,9 °C 10,9 °C 71 % 1011,2 hPa 0,0 mm 3,4 km/h (1 Bft) S-SW 211 ° 0 min 0,000 mm 0,0 UV-I 0 W/m² 5,9 °C 10,9 °C 4,8 km/h (1 Bft)
19.03.2017 19:45 11,1 °C 11,1 °C 70 % 1011,2 hPa 0,0 mm 4,1 km/h (1 Bft) W-SW 258 ° 0 min 0,000 mm 0,0 UV-I 0 W/m² 5,8 °C 11,1 °C 6,4 km/h (2 Bft)
19.03.2017 19:46 11,1 °C 11,1 °C 70 % 1011,2 hPa 0,0 mm 3,6 km/h (1 Bft) SW 217 ° 0 min 0,000 mm 0,0 UV-I 0 W/m² 5,8 °C 11,1 °C 6,4 km/h (2 Bft)
19.03.2017 19:47 11,1 °C 11,1 °C 70 % 1011,2 hPa 0,0 mm 3,3 km/h (1 Bft) SW 221 ° 0 min 0,000 mm 0,0 UV-I 0 W/m² 5,8 °C 11,1 °C 4,8 km/h (1 Bft)
19.03.2017 19:48 11,2 °C 11,2 °C 70 % 1011,2 hPa 0,0 mm 4,2 km/h (1 Bft) S-SW 200 ° 0 min 0,000 mm 0,0 UV-I 0 W/m² 5,9 °C 11,2 °C 6,4 km/h (2 Bft)
19.03.2017 19:49 11,2 °C 11,2 °C 69 % 1011,2 hPa 0,0 mm 3,2 km/h (1 Bft) S-SW 200 ° 0 min 0,000 mm 0,0 UV-I 0 W/m² 5,7 °C 11,2 °C 6,4 km/h (2 Bft)
19.03.2017 19:50 11,2 °C 11,2 °C 70 % 1011,2 hPa 0,0 mm 1,3 km/h (1 Bft) S-SW 200 ° 0 min 0,000 mm 0,0 UV-I 0 W/m² 5,9 °C 11,2 °C 1,6 km/h (1 Bft)
19.03.2017 19:51 11,1 °C 11,2 °C 70 % 1011,2 hPa 0,0 mm 3,5 km/h (1 Bft) S-SW 204 ° 0 min 0,000 mm 0,0 UV-I 0 W/m² 5,8 °C 11,1 °C 8,0 km/h (2 Bft)
19.03.2017 19:52 11,1 °C 11,1 °C 69 % 1011,2 hPa 0,0 mm 5,9 km/h (2 Bft) W-SW 243 ° 0 min 0,000 mm 0,0 UV-I 0 W/m² 5,6 °C 11,1 °C 11,3 km/h (2 Bft)
19.03.2017 19:53 11,1 °C 11,1 °C 68 % 1011,2 hPa 0,0 mm 4,3 km/h (1 Bft) SW 233 ° 0 min 0,000 mm 0,0 UV-I 0 W/m² 5,4 °C 11,1 °C 6,4 km/h (2 Bft)
19.03.2017 19:54 11,2 °C 11,2 °C 68 % 1011,2 hPa 0,0 mm 2,0 km/h (1 Bft) SW 233 ° 0 min 0,000 mm 0,0 UV-I 0 W/m² 5,5 °C 11,2 °C 3,2 km/h (1 Bft)
19.03.2017 19:55 11,2 °C 11,2 °C 68 % 1011,2 hPa 0,0 mm 1,7 km/h (1 Bft) SW 233 ° 0 min 0,000 mm 0,0 UV-I 0 W/m² 5,5 °C 11,2 °C 3,2 km/h (1 Bft)
19.03.2017 19:56 11,2 °C 11,2 °C 69 % 1011,2 hPa 0,0 mm 1,4 km/h (1 Bft) SW 233 ° 0 min 0,000 mm 0,0 UV-I 0 W/m² 5,7 °C 11,2 °C 3,2 km/h (1 Bft)
19.03.2017 19:57 11,2 °C 11,2 °C 68 % 1011,2 hPa 0,0 mm 2,4 km/h (1 Bft) SW 233 ° 0 min 0,000 mm 0,0 UV-I 0 W/m² 5,5 °C 11,2 °C 3,2 km/h (1 Bft)
19.03.2017 19:58 11,2 °C 11,2 °C 69 % 1011,2 hPa 0,0 mm 3,2 km/h (1 Bft) SW 233 ° 0 min 0,000 mm 0,0 UV-I 0 W/m² 5,7 °C 11,2 °C 4,8 km/h (1 Bft)
19.03.2017 19:59 11,1 °C 11,2 °C 69 % 1011,2 hPa 0,0 mm 3,2 km/h (1 Bft) SW 233 ° 0 min 0,000 mm 0,0 UV-I 0 W/m² 5,6 °C 11,1 °C 4,8 km/h (1 Bft)
19.03.2017 20:00 11,1 °C 11,1 °C 69 % 1011,2 hPa 0,0 mm 3,8 km/h (1 Bft) S-SW 211 ° 0 min 0,000 mm 0,0 UV-I 0 W/m² 5,6 °C 11,1 °C 4,8 km/h (1 Bft)
19.03.2017 20:01 11,1 °C 11,1 °C 68 % 1011,2 hPa 0,0 mm 4,1 km/h (1 Bft) S-SW 208 ° 0 min 0,025 mm 0,0 UV-I 0 W/m² 5,4 °C 11,1 °C 4,8 km/h (1 Bft)
19.03.2017 20:02 11,1 °C 11,1 °C 68 % 1011,1 hPa 0,0 mm 4,0 km/h (1 Bft) S-SW 208 ° 0 min 0,000 mm 0,0 UV-I 0 W/m² 5,4 °C 11,1 °C 6,4 km/h (2 Bft)
19.03.2017 20:03 11,1 °C 11,1 °C 68 % 1011,1 hPa 0,0 mm 3,7 km/h (1 Bft) S-SW 208 ° 0 min 0,000 mm 0,0 UV-I 0 W/m² 5,4 °C 11,1 °C 4,8 km/h (1 Bft)
19.03.2017 20:04 11,1 °C 11,1 °C 68 % 1011,1 hPa 0,0 mm 3,3 km/h (1 Bft) S-SW 208 ° 0 min 0,000 mm 0,0 UV-I 0 W/m² 5,4 °C 11,1 °C 4,8 km/h (1 Bft)
19.03.2017 20:05 11,1 °C 11,1 °C 68 % 1011,1 hPa 0,0 mm 4,6 km/h (1 Bft) S-SW 206 ° 0 min 0,000 mm 0,0 UV-I 0 W/m² 5,4 °C 11,1 °C 6,4 km/h (2 Bft)
19.03.2017 20:06 11,2 °C 11,2 °C 67 % 1011,0 hPa 0,0 mm 3,6 km/h (1 Bft) SW 230 ° 0 min 0,000 mm 0,0 UV-I 0 W/m² 5,3 °C 11,2 °C 6,4 km/h (2 Bft)
19.03.2017 20:07 11,2 °C 11,2 °C 67 % 1011,0 hPa 0,0 mm 4,3 km/h (1 Bft) S-SW 209 ° 0 min 0,000 mm 0,0 UV-I 0 W/m² 5,3 °C 11,2 °C 6,4 km/h (2 Bft)
19.03.2017 20:08 11,1 °C 11,2 °C 67 % 1011,0 hPa 0,0 mm 2,6 km/h (1 Bft) S-SW 194 ° 0 min 0,000 mm 0,0 UV-I 0 W/m² 5,2 °C 11,1 °C 4,8 km/h (1 Bft)
19.03.2017 20:09 11,1 °C 11,1 °C 69 % 1010,9 hPa 0,0 mm 3,1 km/h (1 Bft) S-SW 195 ° 0 min 0,000 mm 0,0 UV-I 0 W/m² 5,6 °C 11,1 °C 6,4 km/h (2 Bft)
19.03.2017 20:10 11,1 °C 11,1 °C 68 % 1010,9 hPa 0,0 mm 5,8 km/h (2 Bft) S-SW 195 ° 0 min 0,000 mm 0,0 UV-I 0 W/m² 5,4 °C 11,1 °C 8,0 km/h (2 Bft)
19.03.2017 20:11 10,9 °C 11,1 °C 69 % 1010,9 hPa 0,0 mm 3,8 km/h (1 Bft) S 185 ° 0 min 0,000 mm 0,0 UV-I 0 W/m² 5,4 °C 10,9 °C 4,8 km/h (1 Bft)
19.03.2017 20:12 10,8 °C 10,9 °C 68 % 1010,8 hPa 0,0 mm 5,0 km/h (1 Bft) S 174 ° 0 min 0,000 mm 0,0 UV-I 0 W/m² 5,1 °C 10,8 °C 8,0 km/h (2 Bft)
19.03.2017 20:13 10,8 °C 10,8 °C 68 % 1010,9 hPa 0,0 mm 5,9 km/h (2 Bft) S-SW 207 ° 0 min 0,000 mm 0,0 UV-I 0 W/m² 5,1 °C 10,8 °C 9,7 km/h (2 Bft)
19.03.2017 20:14 10,9 °C 10,9 °C 67 % 1010,9 hPa 0,0 mm 4,0 km/h (1 Bft) S-SW 207 ° 0 min 0,000 mm 0,0 UV-I 0 W/m² 5,0 °C 10,9 °C 6,4 km/h (2 Bft)
19.03.2017 20:15 10,9 °C 10,9 °C 68 % 1010,9 hPa 0,0 mm 2,3 km/h (1 Bft) S-SW 200 ° 0 min 0,000 mm 0,0 UV-I 0 W/m² 5,2 °C 10,9 °C 4,8 km/h (1 Bft)
19.03.2017 20:16 11,0 °C 11,0 °C 65 % 1010,9 hPa 0,0 mm 3,3 km/h (1 Bft) S-SO 167 ° 0 min 0,000 mm 0,0 UV-I 0 W/m² 4,7 °C 11,0 °C 6,4 km/h (2 Bft)
19.03.2017 20:17 11,1 °C 11,1 °C 66 % 1011,1 hPa 0,0 mm 1,1 km/h (1 Bft) S-SO 167 ° 0 min 0,000 mm 0,0 UV-I 0 W/m² 5,0 °C 11,1 °C 1,6 km/h (1 Bft)
19.03.2017 20:18 11,1 °C 11,1 °C 67 % 1011,1 hPa 0,0 mm 3,1 km/h (1 Bft) SW 227 ° 0 min 0,000 mm 0,0 UV-I 0 W/m² 5,2 °C 11,1 °C 4,8 km/h (1 Bft)
19.03.2017 20:19 11,0 °C 11,1 °C 67 % 1011,1 hPa 0,0 mm 2,7 km/h (1 Bft) SW 229 ° 0 min 0,000 mm 0,0 UV-I 0 W/m² 5,1 °C 11,0 °C 4,8 km/h (1 Bft)
19.03.2017 20:20 10,9 °C 11,0 °C 67 % 1011,1 hPa 0,0 mm 3,1 km/h (1 Bft) W-SW 240 ° 0 min 0,000 mm 0,0 UV-I 0 W/m² 5,0 °C 10,9 °C 4,8 km/h (1 Bft)
19.03.2017 20:21 10,8 °C 10,9 °C 67 % 1011,1 hPa 0,0 mm 0,8 km/h (0 Bft) W-SW 240 ° 0 min 0,000 mm 0,0 UV-I 0 W/m² 4,9 °C 10,8 °C 1,6 km/h (1 Bft)
19.03.2017 20:22 10,7 °C 10,8 °C 68 % 1011,1 hPa 0,0 mm 0,0 km/h (0 Bft) W-SW 240 ° 0 min 0,000 mm 0,0 UV-I 0 W/m² 5,0 °C 10,7 °C 0,0 km/h (0 Bft)
19.03.2017 20:23 10,6 °C 10,7 °C 68 % 1011,2 hPa 0,0 mm 0,0 km/h (0 Bft) W-SW 240 ° 0 min 0,000 mm 0,0 UV-I 0 W/m² 4,9 °C 10,6 °C 0,0 km/h (0 Bft)
19.03.2017 20:24 10,6 °C 10,6 °C 68 % 1011,3 hPa 0,0 mm 0,1 km/h (0 Bft) W-SW 240 ° 0 min 0,000 mm 0,0 UV-I 0 W/m² 4,9 °C 10,6 °C 1,6 km/h (1 Bft)
19.03.2017 20:25 10,4 °C 10,6 °C 69 % 1011,2 hPa 0,0 mm 1,1 km/h (1 Bft) W-SW 240 ° 0 min 0,000 mm 0,0 UV-I 0 W/m² 5,0 °C 10,4 °C 1,6 km/h (1 Bft)
19.03.2017 20:26 10,4 °C 10,4 °C 69 % 1011,3 hPa 0,0 mm 0,8 km/h (0 Bft) W-SW 240 ° 0 min 0,000 mm 0,0 UV-I 0 W/m² 5,0 °C 10,4 °C 1,6 km/h (1 Bft)
19.03.2017 20:27 10,4 °C 10,4 °C 69 % 1011,3 hPa 0,0 mm 0,4 km/h (0 Bft) W-SW 240 ° 0 min 0,000 mm 0,0 UV-I 0 W/m² 5,0 °C 10,4 °C 1,6 km/h (1 Bft)
19.03.2017 20:28 10,4 °C 10,4 °C 69 % 1011,3 hPa 0,0 mm 0,0 km/h (0 Bft) W-SW 240 ° 0 min 0,000 mm 0,0 UV-I 0 W/m² 5,0 °C 10,4 °C 0,0 km/h (0 Bft)
19.03.2017 20:29 10,4 °C 10,4 °C 69 % 1011,3 hPa 0,0 mm 0,0 km/h (0 Bft) W-SW 240 ° 0 min 0,000 mm 0,0 UV-I 0 W/m² 5,0 °C 10,4 °C 0,0 km/h (0 Bft)
19.03.2017 20:30 10,4 °C 10,5 °C 69 % 1011,3 hPa 0,0 mm 1,7 km/h (1 Bft) W-SW 240 ° 0 min 0,000 mm 0,0 UV-I 0 W/m² 5,0 °C 10,4 °C 3,2 km/h (1 Bft)
19.03.2017 20:31 10,4 °C 10,4 °C 69 % 1011,3 hPa 0,0 mm 2,1 km/h (1 Bft) W-SW 240 ° 0 min 0,000 mm 0,0 UV-I 0 W/m² 5,0 °C 10,4 °C 3,2 km/h (1 Bft)
19.03.2017 20:32 10,5 °C 10,5 °C 69 % 1011,3 hPa 0,0 mm 1,6 km/h (1 Bft) W-SW 240 ° 0 min 0,000 mm 0,0 UV-I 0 W/m² 5,1 °C 10,5 °C 3,2 km/h (1 Bft)
19.03.2017 20:33 10,6 °C 10,6 °C 69 % 1011,3 hPa 0,0 mm 1,8 km/h (1 Bft) W-SW 240 ° 0 min 0,000 mm 0,0 UV-I 0 W/m² 5,2 °C 10,6 °C 3,2 km/h (1 Bft)
19.03.2017 20:34 10,4 °C 10,6 °C 69 % 1011,2 hPa 0,0 mm 2,0 km/h (1 Bft) W-SW 241 ° 0 min 0,000 mm 0,0 UV-I 0 W/m² 5,0 °C 10,4 °C 4,8 km/h (1 Bft)
19.03.2017 20:35 10,4 °C 10,4 °C 69 % 1011,2 hPa 0,0 mm 2,0 km/h (1 Bft) W-SW 241 ° 0 min 0,000 mm 0,0 UV-I 0 W/m² 5,0 °C 10,4 °C 3,2 km/h (1 Bft)
19.03.2017 20:36 10,4 °C 10,4 °C 69 % 1011,2 hPa 0,0 mm 3,0 km/h (1 Bft) W-SW 241 ° 0 min 0,000 mm 0,0 UV-I 0 W/m² 5,0 °C 10,4 °C 4,8 km/h (1 Bft)
19.03.2017 20:37 10,5 °C 10,5 °C 68 % 1011,3 hPa 0,0 mm 2,3 km/h (1 Bft) W-SW 241 ° 0 min 0,000 mm 0,0 UV-I 0 W/m² 4,8 °C 10,5 °C 4,8 km/h (1 Bft)
19.03.2017 20:38 10,6 °C 10,6 °C 68 % 1011,3 hPa 0,0 mm 4,4 km/h (1 Bft) W-SW 247 ° 0 min 0,000 mm 0,0 UV-I 0 W/m² 4,9 °C 10,6 °C 6,4 km/h (2 Bft)
19.03.2017 20:39 10,7 °C 10,7 °C 67 % 1011,2 hPa 0,0 mm 3,2 km/h (1 Bft) W-SW 246 ° 0 min 0,000 mm 0,0 UV-I 0 W/m² 4,8 °C 10,7 °C 4,8 km/h (1 Bft)
19.03.2017 20:40 10,7 °C 10,7 °C 68 % 1011,2 hPa 0,0 mm 3,4 km/h (1 Bft) W-SW 246 ° 0 min 0,000 mm 0,0 UV-I 0 W/m² 5,0 °C 10,7 °C 4,8 km/h (1 Bft)
19.03.2017 20:41 10,7 °C 10,7 °C 67 % 1011,1 hPa 0,0 mm 3,8 km/h (1 Bft) W-SW 246 ° 0 min 0,000 mm 0,0 UV-I 0 W/m² 4,8 °C 10,7 °C 6,4 km/h (2 Bft)
19.03.2017 20:42 10,8 °C 10,8 °C 67 % 1011,1 hPa 0,0 mm 4,4 km/h (1 Bft) S-SW 202 ° 0 min 0,000 mm 0,0 UV-I 0 W/m² 4,9 °C 10,8 °C 6,4 km/h (2 Bft)
19.03.2017 20:43 10,8 °C 10,9 °C 67 % 1011,1 hPa 0,0 mm 3,7 km/h (1 Bft) S-SW 213 ° 0 min 0,000 mm 0,0 UV-I 0 W/m² 4,9 °C 10,8 °C 4,8 km/h (1 Bft)
19.03.2017 20:44 10,9 °C 10,9 °C 66 % 1011,1 hPa 0,0 mm 3,6 km/h (1 Bft) S-SW 213 ° 0 min 0,000 mm 0,0 UV-I 0 W/m² 4,8 °C 10,9 °C 4,8 km/h (1 Bft)
19.03.2017 20:45 10,9 °C 10,9 °C 66 % 1011,1 hPa 0,0 mm 4,6 km/h (1 Bft) S-SW 213 ° 0 min 0,000 mm 0,0 UV-I 0 W/m² 4,8 °C 10,9 °C 4,8 km/h (1 Bft)
19.03.2017 20:46 11,1 °C 11,1 °C 66 % 1011,1 hPa 0,0 mm 3,8 km/h (1 Bft) S-SW 202 ° 0 min 0,000 mm 0,0 UV-I 0 W/m² 5,0 °C 11,1 °C 6,4 km/h (2 Bft)
19.03.2017 20:47 11,1 °C 11,1 °C 66 % 1011,0 hPa 0,0 mm 4,5 km/h (1 Bft) S 185 ° 0 min 0,000 mm 0,0 UV-I 0 W/m² 5,0 °C 11,1 °C 6,4 km/h (2 Bft)
19.03.2017 20:48 11,2 °C 11,2 °C 66 % 1011,0 hPa 0,0 mm 4,2 km/h (1 Bft) SW 217 ° 0 min 0,000 mm 0,0 UV-I 0 W/m² 5,1 °C 11,2 °C 4,8 km/h (1 Bft)
19.03.2017 20:49 11,2 °C 11,2 °C 65 % 1010,9 hPa 0,0 mm 4,8 km/h (1 Bft) S-SW 198 ° 0 min 0,000 mm 0,0 UV-I 0 W/m² 4,9 °C 11,2 °C 6,4 km/h (2 Bft)
19.03.2017 20:50 11,2 °C 11,2 °C 65 % 1010,9 hPa 0,0 mm 3,6 km/h (1 Bft) SW 230 ° 0 min 0,000 mm 0,0 UV-I 0 W/m² 4,9 °C 11,2 °C 6,4 km/h (2 Bft)
19.03.2017 20:51 11,2 °C 11,2 °C 65 % 1010,9 hPa 0,0 mm 2,0 km/h (1 Bft) SW 230 ° 0 min 0,000 mm 0,0 UV-I 0 W/m² 4,9 °C 11,2 °C 3,2 km/h (1 Bft)
19.03.2017 20:52 11,2 °C 11,2 °C 66 % 1010,9 hPa 0,0 mm 5,5 km/h (1 Bft) W-SW 257 ° 0 min 0,000 mm 0,0 UV-I 0 W/m² 5,1 °C 11,2 °C 11,3 km/h (2 Bft)
19.03.2017 20:53 11,1 °C 11,2 °C 66 % 1010,9 hPa 0,0 mm 3,8 km/h (1 Bft) W 265 ° 0 min 0,000 mm 0,0 UV-I 0 W/m² 5,0 °C 11,1 °C 4,8 km/h (1 Bft)
19.03.2017 20:54 11,1 °C 11,1 °C 66 % 1010,9 hPa 0,0 mm 4,2 km/h (1 Bft) W-SW 257 ° 0 min 0,000 mm 0,0 UV-I 0 W/m² 5,0 °C 11,1 °C 6,4 km/h (2 Bft)
19.03.2017 20:55 10,9 °C 11,1 °C 67 % 1011,0 hPa 0,0 mm 3,6 km/h (1 Bft) SW 229 ° 0 min 0,000 mm 0,0 UV-I 0 W/m² 5,0 °C 10,9 °C 4,8 km/h (1 Bft)
19.03.2017 20:56 10,9 °C 10,9 °C 67 % 1011,0 hPa 0,0 mm 4,0 km/h (1 Bft) W-SW 238 ° 0 min 0,000 mm 0,0 UV-I 0 W/m² 5,0 °C 10,9 °C 4,8 km/h (1 Bft)
19.03.2017 20:57 10,8 °C 10,9 °C 68 % 1011,0 hPa 0,0 mm 4,8 km/h (1 Bft) W-SW 247 ° 0 min 0,000 mm 0,0 UV-I 0 W/m² 5,1 °C 10,8 °C 6,4 km/h (2 Bft)
19.03.2017 20:58 10,7 °C 10,8 °C 68 % 1011,0 hPa 0,0 mm 5,0 km/h (1 Bft) W-SW 247 ° 0 min 0,000 mm 0,0 UV-I 0 W/m² 5,0 °C 10,7 °C 6,4 km/h (2 Bft)
19.03.2017 20:59 10,7 °C 10,7 °C 67 % 1010,9 hPa 0,0 mm 3,3 km/h (1 Bft) W-SW 247 ° 0 min 0,000 mm 0,0 UV-I 0 W/m² 4,8 °C 10,7 °C 4,8 km/h (1 Bft)
19.03.2017 21:00 10,6 °C 10,7 °C 68 % 1011,0 hPa 0,0 mm 4,3 km/h (1 Bft) W-SW 249 ° 0 min 0,000 mm 0,0 UV-I 0 W/m² 4,9 °C 10,6 °C 6,4 km/h (2 Bft)
19.03.2017 21:01 10,6 °C 10,7 °C 68 % 1011,1 hPa 0,0 mm 2,7 km/h (1 Bft) W-SW 249 ° 0 min 0,025 mm 0,0 UV-I 0 W/m² 4,9 °C 10,6 °C 3,2 km/h (1 Bft)
19.03.2017 21:02 10,6 °C 10,6 °C 68 % 1011,0 hPa 0,0 mm 2,2 km/h (1 Bft) W-SW 249 ° 0 min 0,000 mm 0,0 UV-I 0 W/m² 4,9 °C 10,6 °C 3,2 km/h (1 Bft)
19.03.2017 21:03 10,7 °C 10,7 °C 67 % 1011,0 hPa 0,0 mm 1,5 km/h (1 Bft) W-SW 249 ° 0 min 0,000 mm 0,0 UV-I 0 W/m² 4,8 °C 10,7 °C 3,2 km/h (1 Bft)
19.03.2017 21:04 10,7 °C 10,7 °C 68 % 1010,9 hPa 0,0 mm 1,6 km/h (1 Bft) W-SW 249 ° 0 min 0,000 mm 0,0 UV-I 0 W/m² 5,0 °C 10,7 °C 3,2 km/h (1 Bft)
19.03.2017 21:05 10,7 °C 10,7 °C 68 % 1011,0 hPa 0,0 mm 3,2 km/h (1 Bft) W-SW 249 ° 0 min 0,000 mm 0,0 UV-I 0 W/m² 5,0 °C 10,7 °C 6,4 km/h (2 Bft)
19.03.2017 21:06 10,6 °C 10,7 °C 68 % 1010,9 hPa 0,0 mm 2,6 km/h (1 Bft) W-SW 249 ° 0 min 0,000 mm 0,0 UV-I 0 W/m² 4,9 °C 10,6 °C 3,2 km/h (1 Bft)
19.03.2017 21:07 10,6 °C 10,6 °C 68 % 1011,0 hPa 0,0 mm 3,0 km/h (1 Bft) W-SW 249 ° 0 min 0,000 mm 0,0 UV-I 0 W/m² 4,9 °C 10,6 °C 4,8 km/h (1 Bft)
19.03.2017 21:08 10,6 °C 10,6 °C 69 % 1011,0 hPa 0,0 mm 3,0 km/h (1 Bft) W-SW 249 ° 0 min 0,000 mm 0,0 UV-I 0 W/m² 5,2 °C 10,6 °C 4,8 km/h (1 Bft)
19.03.2017 21:09 10,5 °C 10,6 °C 68 % 1011,0 hPa 0,0 mm 3,2 km/h (1 Bft) W-SW 249 ° 0 min 0,000 mm 0,0 UV-I 0 W/m² 4,8 °C 10,5 °C 4,8 km/h (1 Bft)
19.03.2017 21:10 10,5 °C 10,5 °C 68 % 1011,0 hPa 0,0 mm 2,7 km/h (1 Bft) W-SW 249 ° 0 min 0,000 mm 0,0 UV-I 0 W/m² 4,8 °C 10,5 °C 3,2 km/h (1 Bft)
19.03.2017 21:11 10,5 °C 10,5 °C 69 % 1011,0 hPa 0,0 mm 3,2 km/h (1 Bft) W-SW 249 ° 0 min 0,000 mm 0,0 UV-I 0 W/m² 5,1 °C 10,5 °C 4,8 km/h (1 Bft)
19.03.2017 21:12 10,5 °C 10,5 °C 68 % 1011,0 hPa 0,0 mm 2,6 km/h (1 Bft) W-SW 249 ° 0 min 0,000 mm 0,0 UV-I 0 W/m² 4,8 °C 10,5 °C 4,8 km/h (1 Bft)
19.03.2017 21:13 10,4 °C 10,5 °C 69 % 1011,0 hPa 0,0 mm 2,7 km/h (1 Bft) W-SW 249 ° 0 min 0,000 mm 0,0 UV-I 0 W/m² 5,0 °C 10,4 °C 3,2 km/h (1 Bft)
19.03.2017 21:14 10,4 °C 10,4 °C 69 % 1011,0 hPa 0,0 mm 2,0 km/h (1 Bft) W-SW 249 ° 0 min 0,000 mm 0,0 UV-I 0 W/m² 5,0 °C 10,4 °C 3,2 km/h (1 Bft)
19.03.2017 21:15 10,4 °C 10,4 °C 69 % 1011,0 hPa 0,0 mm 3,2 km/h (1 Bft) W-SW 249 ° 0 min 0,000 mm 0,0 UV-I 0 W/m² 5,0 °C 10,4 °C 4,8 km/h (1 Bft)
19.03.2017 21:16 10,4 °C 10,4 °C 69 % 1011,0 hPa 0,0 mm 3,6 km/h (1 Bft) W-SW 249 ° 0 min 0,000 mm 0,0 UV-I 0 W/m² 5,0 °C 10,4 °C 4,8 km/h (1 Bft)
19.03.2017 21:17 10,3 °C 10,4 °C 69 % 1011,1 hPa 0,0 mm 4,1 km/h (1 Bft) W-SW 249 ° 0 min 0,000 mm 0,0 UV-I 0 W/m² 4,9 °C 10,3 °C 4,8 km/h (1 Bft)
19.03.2017 21:18 10,4 °C 10,4 °C 69 % 1011,0 hPa 0,0 mm 5,7 km/h (1 Bft) W 267 ° 0 min 0,000 mm 0,0 UV-I 0 W/m² 5,0 °C 10,4 °C 9,7 km/h (2 Bft)
19.03.2017 21:19 10,4 °C 10,4 °C 70 % 1011,1 hPa 0,0 mm 3,2 km/h (1 Bft) W 267 ° 0 min 0,000 mm 0,0 UV-I 0 W/m² 5,2 °C 10,4 °C 4,8 km/h (1 Bft)
19.03.2017 21:20 10,3 °C 10,4 °C 70 % 1011,1 hPa 0,0 mm 4,8 km/h (1 Bft) W 280 ° 0 min 0,000 mm 0,0 UV-I 0 W/m² 5,1 °C 10,3 °C 6,4 km/h (2 Bft)
19.03.2017 21:21 10,4 °C 10,4 °C 70 % 1011,1 hPa 0,0 mm 4,1 km/h (1 Bft) W 263 ° 0 min 0,000 mm 0,0 UV-I 0 W/m² 5,2 °C 10,4 °C 6,4 km/h (2 Bft)
19.03.2017 21:22 10,3 °C 10,4 °C 70 % 1011,1 hPa 0,0 mm 5,0 km/h (1 Bft) W 259 ° 0 min 0,000 mm 0,0 UV-I 0 W/m² 5,1 °C 10,3 °C 6,4 km/h (2 Bft)
19.03.2017 21:23 10,3 °C 10,3 °C 70 % 1011,1 hPa 0,0 mm 4,2 km/h (1 Bft) W-SW 257 ° 0 min 0,000 mm 0,0 UV-I 0 W/m² 5,1 °C 10,3 °C 6,4 km/h (2 Bft)
19.03.2017 21:24 10,3 °C 10,3 °C 70 % 1011,1 hPa 0,0 mm 3,5 km/h (1 Bft) W-SW 257 ° 0 min 0,000 mm 0,0 UV-I 0 W/m² 5,1 °C 10,3 °C 6,4 km/h (2 Bft)
19.03.2017 21:25 10,3 °C 10,3 °C 70 % 1011,2 hPa 0,0 mm 7,1 km/h (2 Bft) W-SW 253 ° 0 min 0,000 mm 0,0 UV-I 0 W/m² 5,1 °C 10,3 °C 11,3 km/h (2 Bft)
19.03.2017 21:26 10,3 °C 10,3 °C 70 % 1011,1 hPa 0,0 mm 5,1 km/h (1 Bft) W-SW 243 ° 0 min 0,000 mm 0,0 UV-I 0 W/m² 5,1 °C 10,3 °C 11,3 km/h (2 Bft)
19.03.2017 21:27 10,3 °C 10,3 °C 70 % 1011,1 hPa 0,0 mm 5,9 km/h (2 Bft) W-SW 248 ° 0 min 0,000 mm 0,0 UV-I 0 W/m² 5,1 °C 10,3 °C 11,3 km/h (2 Bft)
19.03.2017 21:28 10,4 °C 10,4 °C 70 % 1011,1 hPa 0,0 mm 6,8 km/h (2 Bft) W-SW 252 ° 0 min 0,000 mm 0,0 UV-I 0 W/m² 5,2 °C 10,4 °C 11,3 km/h (2 Bft)
19.03.2017 21:29 10,4 °C 10,4 °C 70 % 1011,2 hPa 0,0 mm 8,7 km/h (2 Bft) W-SW 251 ° 0 min 0,000 mm 0,0 UV-I 0 W/m² 5,2 °C 10,4 °C 12,9 km/h (3 Bft)
19.03.2017 21:30 10,5 °C 10,5 °C 69 % 1011,2 hPa 0,0 mm 8,9 km/h (2 Bft) W-SW 257 ° 0 min 0,000 mm 0,0 UV-I 0 W/m² 5,1 °C 10,5 °C 11,3 km/h (2 Bft)
19.03.2017 21:31 10,5 °C 10,5 °C 69 % 1011,1 hPa 0,0 mm 9,2 km/h (2 Bft) W-SW 253 ° 0 min 0,000 mm 0,0 UV-I 0 W/m² 5,1 °C 10,5 °C 12,9 km/h (3 Bft)
19.03.2017 21:32 10,5 °C 10,5 °C 70 % 1011,2 hPa 0,0 mm 10,5 km/h (2 Bft) W 275 ° 0 min 0,000 mm 0,0 UV-I 0 W/m² 5,3 °C 10,5 °C 12,9 km/h (3 Bft)
19.03.2017 21:33 10,4 °C 10,5 °C 69 % 1011,2 hPa 0,0 mm 7,3 km/h (2 Bft) W-SW 253 ° 0 min 0,000 mm 0,0 UV-I 0 W/m² 5,0 °C 10,4 °C 9,7 km/h (2 Bft)
19.03.2017 21:34 10,4 °C 10,5 °C 70 % 1011,1 hPa 0,0 mm 8,3 km/h (2 Bft) W-SW 246 ° 0 min 0,000 mm 0,0 UV-I 0 W/m² 5,2 °C 10,4 °C 11,3 km/h (2 Bft)
19.03.2017 21:35 10,4 °C 10,4 °C 70 % 1011,2 hPa 0,0 mm 6,9 km/h (2 Bft) W-SW 251 ° 0 min 0,000 mm 0,0 UV-I 0 W/m² 5,2 °C 10,4 °C 8,0 km/h (2 Bft)
19.03.2017 21:36 10,4 °C 10,4 °C 70 % 1011,1 hPa 0,0 mm 9,3 km/h (2 Bft) W-SW 246 ° 0 min 0,000 mm 0,0 UV-I 0 W/m² 5,2 °C 10,4 °C 14,5 km/h (3 Bft)
19.03.2017 21:37 10,4 °C 10,4 °C 70 % 1011,2 hPa 0,0 mm 9,3 km/h (2 Bft) W-SW 253 ° 0 min 0,000 mm 0,0 UV-I 0 W/m² 5,2 °C 10,4 °C 12,9 km/h (3 Bft)
19.03.2017 21:38 10,4 °C 10,4 °C 70 % 1011,2 hPa 0,0 mm 8,2 km/h (2 Bft) W-SW 255 ° 0 min 0,000 mm 0,0 UV-I 0 W/m² 5,2 °C 10,4 °C 12,9 km/h (3 Bft)
19.03.2017 21:39 10,4 °C 10,4 °C 70 % 1011,1 hPa 0,0 mm 7,0 km/h (2 Bft) W-SW 250 ° 0 min 0,000 mm 0,0 UV-I 0 W/m² 5,2 °C 10,4 °C 12,9 km/h (3 Bft)
19.03.2017 21:40 10,4 °C 10,4 °C 70 % 1011,2 hPa 0,0 mm 8,1 km/h (2 Bft) SW 235 ° 0 min 0,000 mm 0,0 UV-I 0 W/m² 5,2 °C 10,4 °C 14,5 km/h (3 Bft)
19.03.2017 21:41 10,5 °C 10,5 °C 70 % 1011,2 hPa 0,0 mm 5,4 km/h (1 Bft) W-SW 240 ° 0 min 0,000 mm 0,0 UV-I 0 W/m² 5,3 °C 10,5 °C 8,0 km/h (2 Bft)
19.03.2017 21:42 10,5 °C 10,5 °C 70 % 1011,2 hPa 0,0 mm 5,9 km/h (2 Bft) SW 228 ° 0 min 0,000 mm 0,0 UV-I 0 W/m² 5,3 °C 10,5 °C 8,0 km/h (2 Bft)
19.03.2017 21:43 10,5 °C 10,5 °C 70 % 1011,2 hPa 0,0 mm 5,9 km/h (2 Bft) W-SW 252 ° 0 min 0,000 mm 0,0 UV-I 0 W/m² 5,3 °C 10,5 °C 9,7 km/h (2 Bft)
19.03.2017 21:44 10,6 °C 10,6 °C 70 % 1011,1 hPa 0,0 mm 8,0 km/h (2 Bft) S-SW 205 ° 0 min 0,000 mm 0,0 UV-I 0 W/m² 5,4 °C 10,6 °C 11,3 km/h (2 Bft)
19.03.2017 21:45 10,5 °C 10,6 °C 70 % 1011,1 hPa 0,0 mm 6,4 km/h (2 Bft) S-SW 213 ° 0 min 0,000 mm 0,0 UV-I 0 W/m² 5,3 °C 10,5 °C 9,7 km/h (2 Bft)
19.03.2017 21:46 10,5 °C 10,5 °C 70 % 1011,1 hPa 0,0 mm 6,8 km/h (2 Bft) S-SW 207 ° 0 min 0,000 mm 0,0 UV-I 0 W/m² 5,3 °C 10,5 °C 9,7 km/h (2 Bft)
19.03.2017 21:47 10,5 °C 10,5 °C 70 % 1011,2 hPa 0,0 mm 6,4 km/h (2 Bft) S-SW 197 ° 0 min 0,000 mm 0,0 UV-I 0 W/m² 5,3 °C 10,5 °C 9,7 km/h (2 Bft)
19.03.2017 21:48 10,6 °C 10,6 °C 70 % 1011,1 hPa 0,0 mm 6,0 km/h (2 Bft) S-SW 211 ° 0 min 0,000 mm 0,0 UV-I 0 W/m² 5,4 °C 10,6 °C 8,0 km/h (2 Bft)
19.03.2017 21:49 10,6 °C 10,6 °C 70 % 1011,1 hPa 0,0 mm 7,1 km/h (2 Bft) S-SW 205 ° 0 min 0,000 mm 0,0 UV-I 0 W/m² 5,4 °C 10,6 °C 11,3 km/h (2 Bft)
19.03.2017 21:50 10,6 °C 10,6 °C 70 % 1011,2 hPa 0,0 mm 4,4 km/h (1 Bft) S-SW 208 ° 0 min 0,000 mm 0,0 UV-I 0 W/m² 5,4 °C 10,6 °C 9,7 km/h (2 Bft)
19.03.2017 21:51 10,6 °C 10,6 °C 70 % 1011,2 hPa 0,0 mm 8,2 km/h (2 Bft) SW 232 ° 0 min 0,000 mm 0,0 UV-I 0 W/m² 5,4 °C 10,6 °C 12,9 km/h (3 Bft)
19.03.2017 21:52 10,6 °C 10,6 °C 70 % 1011,2 hPa 0,0 mm 5,5 km/h (1 Bft) S-SW 213 ° 0 min 0,000 mm 0,0 UV-I 0 W/m² 5,4 °C 10,6 °C 8,0 km/h (2 Bft)
19.03.2017 21:53 10,6 °C 10,6 °C 70 % 1011,2 hPa 0,0 mm 7,7 km/h (2 Bft) W 273 ° 0 min 0,000 mm 0,0 UV-I 0 W/m² 5,4 °C 10,6 °C 12,9 km/h (3 Bft)
19.03.2017 21:54 10,6 °C 10,6 °C 71 % 1011,2 hPa 0,0 mm 5,4 km/h (1 Bft) SW 234 ° 0 min 0,000 mm 0,0 UV-I 0 W/m² 5,6 °C 10,6 °C 8,0 km/h (2 Bft)
19.03.2017 21:55 10,5 °C 10,6 °C 70 % 1011,2 hPa 0,0 mm 5,9 km/h (2 Bft) S-SW 209 ° 0 min 0,000 mm 0,0 UV-I 0 W/m² 5,3 °C 10,5 °C 9,7 km/h (2 Bft)
19.03.2017 21:56 10,4 °C 10,5 °C 71 % 1011,2 hPa 0,0 mm 6,2 km/h (2 Bft) SW 218 ° 0 min 0,000 mm 0,0 UV-I 0 W/m² 5,4 °C 10,4 °C 8,0 km/h (2 Bft)
19.03.2017 21:57 10,4 °C 10,4 °C 71 % 1011,3 hPa 0,0 mm 5,7 km/h (1 Bft) SW 215 ° 0 min 0,000 mm 0,0 UV-I 0 W/m² 5,4 °C 10,4 °C 6,4 km/h (2 Bft)
19.03.2017 21:58 10,4 °C 10,4 °C 71 % 1011,3 hPa 0,0 mm 5,0 km/h (1 Bft) W 259 ° 0 min 0,000 mm 0,0 UV-I 0 W/m² 5,4 °C 10,4 °C 6,4 km/h (2 Bft)
19.03.2017 21:59 10,4 °C 10,4 °C 71 % 1011,3 hPa 0,0 mm 6,4 km/h (2 Bft) W 261 ° 0 min 0,000 mm 0,0 UV-I 0 W/m² 5,4 °C 10,4 °C 11,3 km/h (2 Bft)
19.03.2017 22:00 10,3 °C 10,4 °C 70 % 1011,3 hPa 0,0 mm 6,7 km/h (2 Bft) W-SW 255 ° 0 min 0,000 mm 0,0 UV-I 0 W/m² 5,1 °C 10,3 °C 9,7 km/h (2 Bft)
19.03.2017 22:01 10,2 °C 10,3 °C 71 % 1011,3 hPa 0,0 mm 5,5 km/h (1 Bft) W-SW 256 ° 0 min 0,026 mm 0,0 UV-I 0 W/m² 5,2 °C 10,2 °C 6,4 km/h (2 Bft)
19.03.2017 22:02 10,2 °C 10,2 °C 71 % 1011,3 hPa 0,0 mm 5,6 km/h (1 Bft) W-SW 250 ° 0 min 0,000 mm 0,0 UV-I 0 W/m² 5,2 °C 10,2 °C 8,0 km/h (2 Bft)
19.03.2017 22:03 10,1 °C 10,2 °C 71 % 1011,3 hPa 0,0 mm 6,0 km/h (2 Bft) W 259 ° 0 min 0,000 mm 0,0 UV-I 0 W/m² 5,1 °C 10,1 °C 8,0 km/h (2 Bft)
19.03.2017 22:04 10,0 °C 10,1 °C 71 % 1011,4 hPa 0,0 mm 5,8 km/h (2 Bft) W-SW 252 ° 0 min 0,000 mm 0,0 UV-I 0 W/m² 5,0 °C 9,5 °C 9,7 km/h (2 Bft)
19.03.2017 22:05 9,9 °C 10,0 °C 71 % 1011,4 hPa 0,0 mm 5,9 km/h (2 Bft) W-SW 248 ° 0 min 0,000 mm 0,0 UV-I 0 W/m² 4,9 °C 9,4 °C 8,0 km/h (2 Bft)
19.03.2017 22:06 9,9 °C 9,9 °C 71 % 1011,4 hPa 0,0 mm 6,1 km/h (2 Bft) W-SW 257 ° 0 min 0,000 mm 0,0 UV-I 0 W/m² 4,9 °C 9,3 °C 9,7 km/h (2 Bft)
19.03.2017 22:07 9,8 °C 9,9 °C 71 % 1011,4 hPa 0,0 mm 4,8 km/h (1 Bft) W-SW 257 ° 0 min 0,000 mm 0,0 UV-I 0 W/m² 4,8 °C 9,6 °C 8,0 km/h (2 Bft)
19.03.2017 22:08 9,8 °C 9,8 °C 71 % 1011,3 hPa 0,0 mm 4,8 km/h (1 Bft) W-SW 257 ° 0 min 0,000 mm 0,0 UV-I 0 W/m² 4,8 °C 9,6 °C 6,4 km/h (2 Bft)
19.03.2017 22:09 9,8 °C 9,8 °C 71 % 1011,4 hPa 0,0 mm 6,2 km/h (2 Bft) W 260 ° 0 min 0,000 mm 0,0 UV-I 0 W/m² 4,8 °C 9,2 °C 11,3 km/h (2 Bft)
19.03.2017 22:10 9,8 °C 9,8 °C 71 % 1011,4 hPa 0,0 mm 7,2 km/h (2 Bft) W 271 ° 0 min 0,000 mm 0,0 UV-I 0 W/m² 4,8 °C 8,9 °C 11,3 km/h (2 Bft)
19.03.2017 22:11 9,8 °C 9,8 °C 71 % 1011,4 hPa 0,0 mm 4,9 km/h (1 Bft) W-SW 257 ° 0 min 0,000 mm 0,0 UV-I 0 W/m² 4,8 °C 9,6 °C 6,4 km/h (2 Bft)
19.03.2017 22:12 9,7 °C 9,8 °C 72 % 1011,5 hPa 0,0 mm 4,8 km/h (1 Bft) W 268 ° 0 min 0,000 mm 0,0 UV-I 0 W/m² 4,9 °C 9,5 °C 6,4 km/h (2 Bft)
19.03.2017 22:13 9,7 °C 9,7 °C 72 % 1011,4 hPa 0,0 mm 5,4 km/h (1 Bft) W 266 ° 0 min 0,000 mm 0,0 UV-I 0 W/m² 4,9 °C 9,3 °C 6,4 km/h (2 Bft)
19.03.2017 22:14 9,6 °C 9,7 °C 72 % 1011,5 hPa 0,0 mm 5,0 km/h (1 Bft) W 259 ° 0 min 0,000 mm 0,0 UV-I 0 W/m² 4,8 °C 9,3 °C 6,4 km/h (2 Bft)
19.03.2017 22:15 9,6 °C 9,6 °C 72 % 1011,5 hPa 0,0 mm 5,4 km/h (1 Bft) W 261 ° 0 min 0,000 mm 0,0 UV-I 0 W/m² 4,8 °C 9,2 °C 6,4 km/h (2 Bft)
19.03.2017 22:16 9,6 °C 9,6 °C 72 % 1011,6 hPa 0,0 mm 6,4 km/h (2 Bft) W-SW 249 ° 0 min 0,000 mm 0,0 UV-I 0 W/m² 4,8 °C 8,9 °C 9,7 km/h (2 Bft)
19.03.2017 22:17 9,6 °C 9,6 °C 73 % 1011,6 hPa 0,0 mm 7,8 km/h (2 Bft) W 260 ° 0 min 0,000 mm 0,0 UV-I 0 W/m² 5,0 °C 8,6 °C 11,3 km/h (2 Bft)
19.03.2017 22:18 9,4 °C 9,6 °C 73 % 1011,6 hPa 0,0 mm 6,7 km/h (2 Bft) W-SW 254 ° 0 min 0,000 mm 0,0 UV-I 0 W/m² 4,8 °C 8,6 °C 9,7 km/h (2 Bft)
19.03.2017 22:19 9,5 °C 9,5 °C 73 % 1011,6 hPa 0,0 mm 7,1 km/h (2 Bft) W-SW 251 ° 0 min 0,000 mm 0,0 UV-I 0 W/m² 4,9 °C 8,6 °C 8,0 km/h (2 Bft)
19.03.2017 22:20 9,5 °C 9,5 °C 73 % 1011,6 hPa 0,0 mm 6,2 km/h (2 Bft) W-SW 250 ° 0 min 0,000 mm 0,0 UV-I 0 W/m² 4,9 °C 8,8 °C 8,0 km/h (2 Bft)
19.03.2017 22:21 9,6 °C 9,6 °C 73 % 1011,7 hPa 0,0 mm 6,6 km/h (2 Bft) W-SW 245 ° 0 min 0,000 mm 0,0 UV-I 0 W/m² 5,0 °C 8,9 °C 11,3 km/h (2 Bft)
19.03.2017 22:22 9,6 °C 9,6 °C 72 % 1011,6 hPa 0,0 mm 6,4 km/h (2 Bft) W-SW 248 ° 0 min 0,000 mm 0,0 UV-I 0 W/m² 4,8 °C 8,9 °C 12,9 km/h (3 Bft)
19.03.2017 22:23 9,7 °C 9,7 °C 72 % 1011,6 hPa 0,0 mm 5,1 km/h (1 Bft) SW 227 ° 0 min 0,000 mm 0,0 UV-I 0 W/m² 4,9 °C 9,4 °C 8,0 km/h (2 Bft)
19.03.2017 22:24 9,8 °C 9,8 °C 72 % 1011,6 hPa 0,0 mm 3,6 km/h (1 Bft) SW 226 ° 0 min 0,000 mm 0,0 UV-I 0 W/m² 5,0 °C 9,8 °C 4,8 km/h (1 Bft)
19.03.2017 22:25 9,9 °C 9,9 °C 71 % 1011,6 hPa 0,0 mm 5,4 km/h (1 Bft) SW 215 ° 0 min 0,000 mm 0,0 UV-I 0 W/m² 4,9 °C 9,5 °C 6,4 km/h (2 Bft)
19.03.2017 22:26 9,9 °C 9,9 °C 71 % 1011,7 hPa 0,0 mm 4,3 km/h (1 Bft) SW 222 ° 0 min 0,000 mm 0,0 UV-I 0 W/m² 4,9 °C 9,9 °C 6,4 km/h (2 Bft)
19.03.2017 22:27 10,1 °C 10,1 °C 71 % 1011,7 hPa 0,0 mm 6,2 km/h (2 Bft) W-SW 257 ° 0 min 0,000 mm 0,0 UV-I 0 W/m² 5,1 °C 10,1 °C 11,3 km/h (2 Bft)
19.03.2017 22:28 10,1 °C 10,1 °C 71 % 1011,7 hPa 0,0 mm 5,5 km/h (1 Bft) W-SW 240 ° 0 min 0,000 mm 0,0 UV-I 0 W/m² 5,1 °C 10,1 °C 11,3 km/h (2 Bft)
19.03.2017 22:29 10,1 °C 10,1 °C 71 % 1011,7 hPa 0,0 mm 5,6 km/h (1 Bft) SW 236 ° 0 min 0,000 mm 0,0 UV-I 0 W/m² 5,1 °C 10,1 °C 9,7 km/h (2 Bft)
19.03.2017 22:30 10,2 °C 10,2 °C 71 % 1011,7 hPa 0,0 mm 4,2 km/h (1 Bft) SW 236 ° 0 min 0,000 mm 0,0 UV-I 0 W/m² 5,2 °C 10,2 °C 4,8 km/h (1 Bft)
19.03.2017 22:31 10,2 °C 10,2 °C 71 % 1011,7 hPa 0,0 mm 6,3 km/h (2 Bft) W-SW 252 ° 0 min 0,000 mm 0,0 UV-I 0 W/m² 5,2 °C 10,2 °C 11,3 km/h (2 Bft)
19.03.2017 22:32 10,2 °C 10,2 °C 70 % 1011,7 hPa 0,0 mm 4,5 km/h (1 Bft) SW 234 ° 0 min 0,000 mm 0,0 UV-I 0 W/m² 5,0 °C 10,2 °C 8,0 km/h (2 Bft)
19.03.2017 22:33 10,2 °C 10,3 °C 71 % 1011,7 hPa 0,0 mm 6,3 km/h (2 Bft) W 262 ° 0 min 0,000 mm 0,0 UV-I 0 W/m² 5,2 °C 10,2 °C 11,3 km/h (2 Bft)
19.03.2017 22:34 10,3 °C 10,3 °C 70 % 1011,6 hPa 0,0 mm 5,9 km/h (2 Bft) SW 235 ° 0 min 0,000 mm 0,0 UV-I 0 W/m² 5,1 °C 10,3 °C 11,3 km/h (2 Bft)
19.03.2017 22:35 10,3 °C 10,3 °C 70 % 1011,6 hPa 0,0 mm 7,1 km/h (2 Bft) SW 215 ° 0 min 0,000 mm 0,0 UV-I 0 W/m² 5,1 °C 10,3 °C 14,5 km/h (3 Bft)
19.03.2017 22:36 10,3 °C 10,3 °C 71 % 1011,6 hPa 0,0 mm 6,3 km/h (2 Bft) W-SW 237 ° 0 min 0,000 mm 0,0 UV-I 0 W/m² 5,3 °C 10,3 °C 9,7 km/h (2 Bft)
19.03.2017 22:37 10,3 °C 10,3 °C 71 % 1011,6 hPa 0,0 mm 5,4 km/h (1 Bft) W-SW 243 ° 0 min 0,000 mm 0,0 UV-I 0 W/m² 5,3 °C 10,3 °C 6,4 km/h (2 Bft)
19.03.2017 22:38 10,3 °C 10,3 °C 70 % 1011,7 hPa 0,0 mm 5,5 km/h (1 Bft) SW 233 ° 0 min 0,000 mm 0,0 UV-I 0 W/m² 5,1 °C 10,3 °C 8,0 km/h (2 Bft)
19.03.2017 22:39 10,3 °C 10,3 °C 71 % 1011,7 hPa 0,0 mm 7,4 km/h (2 Bft) W-SW 238 ° 0 min 0,000 mm 0,0 UV-I 0 W/m² 5,3 °C 10,3 °C 11,3 km/h (2 Bft)
19.03.2017 22:40 10,3 °C 10,3 °C 71 % 1011,6 hPa 0,0 mm 5,3 km/h (1 Bft) W-SW 239 ° 0 min 0,000 mm 0,0 UV-I 0 W/m² 5,3 °C 10,3 °C 6,4 km/h (2 Bft)
19.03.2017 22:41 10,3 °C 10,3 °C 71 % 1011,6 hPa 0,0 mm 7,8 km/h (2 Bft) W 264 ° 0 min 0,000 mm 0,0 UV-I 0 W/m² 5,3 °C 10,3 °C 11,3 km/h (2 Bft)
19.03.2017 22:42 10,3 °C 10,3 °C 71 % 1011,7 hPa 0,0 mm 6,3 km/h (2 Bft) W-SW 240 ° 0 min 0,000 mm 0,0 UV-I 0 W/m² 5,3 °C 10,3 °C 11,3 km/h (2 Bft)
19.03.2017 22:43 10,3 °C 10,3 °C 71 % 1011,6 hPa 0,0 mm 4,9 km/h (1 Bft) W-SW 240 ° 0 min 0,000 mm 0,0 UV-I 0 W/m² 5,3 °C 10,3 °C 8,0 km/h (2 Bft)
19.03.2017 22:44 10,4 °C 10,4 °C 70 % 1011,6 hPa 0,0 mm 5,1 km/h (1 Bft) SW 221 ° 0 min 0,000 mm 0,0 UV-I 0 W/m² 5,2 °C 10,4 °C 9,7 km/h (2 Bft)
19.03.2017 22:45 10,3 °C 10,4 °C 71 % 1011,6 hPa 0,0 mm 9,9 km/h (2 Bft) W-SW 246 ° 0 min 0,000 mm 0,0 UV-I 0 W/m² 5,3 °C 10,3 °C 14,5 km/h (3 Bft)
19.03.2017 22:46 10,4 °C 10,4 °C 70 % 1011,7 hPa 0,0 mm 9,3 km/h (2 Bft) W 261 ° 0 min 0,000 mm 0,0 UV-I 0 W/m² 5,2 °C 10,4 °C 16,1 km/h (3 Bft)
19.03.2017 22:47 10,4 °C 10,4 °C 71 % 1011,7 hPa 0,0 mm 8,2 km/h (2 Bft) W-SW 242 ° 0 min 0,000 mm 0,0 UV-I 0 W/m² 5,4 °C 10,4 °C 12,9 km/h (3 Bft)
19.03.2017 22:48 10,5 °C 10,5 °C 71 % 1011,8 hPa 0,0 mm 11,7 km/h (2 Bft) W-SW 242 ° 0 min 0,000 mm 0,0 UV-I 0 W/m² 5,5 °C 10,5 °C 16,1 km/h (3 Bft)
19.03.2017 22:49 10,5 °C 10,5 °C 71 % 1011,7 hPa 0,0 mm 8,0 km/h (2 Bft) W-SW 246 ° 0 min 0,000 mm 0,0 UV-I 0 W/m² 5,5 °C 10,5 °C 14,5 km/h (3 Bft)
19.03.2017 22:50 10,5 °C 10,6 °C 71 % 1011,8 hPa 0,0 mm 6,8 km/h (2 Bft) W 259 ° 0 min 0,000 mm 0,0 UV-I 0 W/m² 5,5 °C 10,5 °C 11,3 km/h (2 Bft)
19.03.2017 22:51 10,4 °C 10,5 °C 71 % 1011,8 hPa 0,0 mm 9,3 km/h (2 Bft) W-SW 244 ° 0 min 0,000 mm 0,0 UV-I 0 W/m² 5,4 °C 10,4 °C 14,5 km/h (3 Bft)
19.03.2017 22:52 10,4 °C 10,4 °C 71 % 1011,8 hPa 0,0 mm 6,1 km/h (2 Bft) W-SW 246 ° 0 min 0,000 mm 0,0 UV-I 0 W/m² 5,4 °C 10,4 °C 9,7 km/h (2 Bft)
19.03.2017 22:53 10,4 °C 10,4 °C 71 % 1011,8 hPa 0,0 mm 7,4 km/h (2 Bft) SW 236 ° 0 min 0,000 mm 0,0 UV-I 0 W/m² 5,4 °C 10,4 °C 14,5 km/h (3 Bft)
19.03.2017 22:54 10,4 °C 10,4 °C 71 % 1011,9 hPa 0,0 mm 8,9 km/h (2 Bft) W-SW 255 ° 0 min 0,000 mm 0,0 UV-I 0 W/m² 5,4 °C 10,4 °C 14,5 km/h (3 Bft)
19.03.2017 22:55 10,4 °C 10,4 °C 72 % 1011,9 hPa 0,0 mm 10,0 km/h (2 Bft) W-SW 249 ° 0 min 0,000 mm 0,0 UV-I 0 W/m² 5,6 °C 10,4 °C 14,5 km/h (3 Bft)
19.03.2017 22:56 10,3 °C 10,4 °C 72 % 1011,9 hPa 0,0 mm 7,6 km/h (2 Bft) W-SW 248 ° 0 min 0,000 mm 0,0 UV-I 0 W/m² 5,5 °C 10,3 °C 12,9 km/h (3 Bft)
19.03.2017 22:57 10,3 °C 10,3 °C 72 % 1011,9 hPa 0,0 mm 8,0 km/h (2 Bft) SW 225 ° 0 min 0,000 mm 0,0 UV-I 0 W/m² 5,5 °C 10,3 °C 14,5 km/h (3 Bft)
19.03.2017 22:58 10,2 °C 10,3 °C 72 % 1011,9 hPa 0,0 mm 9,3 km/h (2 Bft) SW 222 ° 0 min 0,000 mm 0,0 UV-I 0 W/m² 5,4 °C 10,2 °C 16,1 km/h (3 Bft)
19.03.2017 22:59 10,2 °C 10,3 °C 72 % 1012,0 hPa 0,0 mm 12,7 km/h (3 Bft) SW 234 ° 0 min 0,000 mm 0,0 UV-I 0 W/m² 5,4 °C 10,2 °C 16,1 km/h (3 Bft)
19.03.2017 23:00 10,2 °C 10,3 °C 72 % 1011,9 hPa 0,0 mm 9,7 km/h (2 Bft) W-SW 245 ° 0 min 0,000 mm 0,0 UV-I 0 W/m² 5,4 °C 10,2 °C 12,9 km/h (3 Bft)
19.03.2017 23:01 10,2 °C 10,3 °C 72 % 1011,9 hPa 0,0 mm 7,9 km/h (2 Bft) W-SW 249 ° 0 min 0,025 mm 0,0 UV-I 0 W/m² 5,4 °C 10,2 °C 12,9 km/h (3 Bft)
19.03.2017 23:02 10,3 °C 10,3 °C 72 % 1012,0 hPa 0,0 mm 8,2 km/h (2 Bft) W-SW 242 ° 0 min 0,000 mm 0,0 UV-I 0 W/m² 5,5 °C 10,3 °C 17,7 km/h (3 Bft)
19.03.2017 23:03 10,3 °C 10,3 °C 72 % 1012,0 hPa 0,0 mm 12,7 km/h (3 Bft) W-SW 242 ° 0 min 0,000 mm 0,0 UV-I 0 W/m² 5,5 °C 10,3 °C 17,7 km/h (3 Bft)
19.03.2017 23:04 10,3 °C 10,3 °C 73 % 1012,0 hPa 0,0 mm 12,3 km/h (3 Bft) W 270 ° 0 min 0,000 mm 0,0 UV-I 0 W/m² 5,7 °C 10,3 °C 16,1 km/h (3 Bft)
19.03.2017 23:05 10,3 °C 10,3 °C 73 % 1011,9 hPa 0,0 mm 9,9 km/h (2 Bft) SW 234 ° 0 min 0,000 mm 0,0 UV-I 0 W/m² 5,7 °C 10,3 °C 14,5 km/h (3 Bft)
19.03.2017 23:06 10,3 °C 10,3 °C 72 % 1011,9 hPa 0,0 mm 5,0 km/h (1 Bft) SW 226 ° 0 min 0,000 mm 0,0 UV-I 0 W/m² 5,5 °C 10,3 °C 8,0 km/h (2 Bft)
19.03.2017 23:07 10,3 °C 10,3 °C 72 % 1012,0 hPa 0,0 mm 5,4 km/h (1 Bft) W-SW 238 ° 0 min 0,000 mm 0,0 UV-I 0 W/m² 5,5 °C 10,3 °C 9,7 km/h (2 Bft)
19.03.2017 23:08 10,3 °C 10,3 °C 72 % 1012,0 hPa 0,0 mm 8,7 km/h (2 Bft) W-SW 244 ° 0 min 0,000 mm 0,0 UV-I 0 W/m² 5,5 °C 10,3 °C 12,9 km/h (3 Bft)
19.03.2017 23:09 10,3 °C 10,3 °C 73 % 1012,0 hPa 0,0 mm 6,5 km/h (2 Bft) SW 233 ° 0 min 0,000 mm 0,0 UV-I 0 W/m² 5,7 °C 10,3 °C 9,7 km/h (2 Bft)
19.03.2017 23:10 10,3 °C 10,3 °C 73 % 1012,0 hPa 0,0 mm 8,4 km/h (2 Bft) W-SW 252 ° 0 min 0,000 mm 0,0 UV-I 0 W/m² 5,7 °C 10,3 °C 12,9 km/h (3 Bft)
19.03.2017 23:11 10,3 °C 10,3 °C 73 % 1011,9 hPa 0,0 mm 8,3 km/h (2 Bft) SW 230 ° 0 min 0,000 mm 0,0 UV-I 0 W/m² 5,7 °C 10,3 °C 11,3 km/h (2 Bft)
19.03.2017 23:12 10,3 °C 10,3 °C 73 % 1012,0 hPa 0,0 mm 4,8 km/h (1 Bft) W-SW 240 ° 0 min 0,000 mm 0,0 UV-I 0 W/m² 5,7 °C 10,3 °C 8,0 km/h (2 Bft)
19.03.2017 23:13 10,2 °C 10,3 °C 73 % 1012,0 hPa 0,0 mm 4,6 km/h (1 Bft) W-SW 242 ° 0 min 0,000 mm 0,0 UV-I 0 W/m² 5,6 °C 10,2 °C 6,4 km/h (2 Bft)
19.03.2017 23:14 10,2 °C 10,2 °C 73 % 1012,0 hPa 0,0 mm 6,5 km/h (2 Bft) SW 223 ° 0 min 0,000 mm 0,0 UV-I 0 W/m² 5,6 °C 10,2 °C 9,7 km/h (2 Bft)
19.03.2017 23:15 10,2 °C 10,2 °C 73 % 1011,9 hPa 0,0 mm 6,7 km/h (2 Bft) S-SW 198 ° 0 min 0,000 mm 0,0 UV-I 0 W/m² 5,6 °C 10,2 °C 11,3 km/h (2 Bft)
19.03.2017 23:16 10,2 °C 10,2 °C 74 % 1011,9 hPa 0,0 mm 5,6 km/h (1 Bft) SW 236 ° 0 min 0,000 mm 0,0 UV-I 0 W/m² 5,8 °C 10,2 °C 9,7 km/h (2 Bft)
19.03.2017 23:17 10,1 °C 10,2 °C 74 % 1011,9 hPa 0,0 mm 6,3 km/h (2 Bft) SW 226 ° 0 min 0,000 mm 0,0 UV-I 0 W/m² 5,7 °C 10,1 °C 12,9 km/h (3 Bft)
19.03.2017 23:18 10,2 °C 10,2 °C 74 % 1011,9 hPa 0,0 mm 7,9 km/h (2 Bft) SW 233 ° 0 min 0,000 mm 0,0 UV-I 0 W/m² 5,8 °C 10,2 °C 12,9 km/h (3 Bft)
19.03.2017 23:19 10,2 °C 10,2 °C 74 % 1011,9 hPa 0,0 mm 8,5 km/h (2 Bft) S-SW 202 ° 0 min 0,000 mm 0,0 UV-I 0 W/m² 5,8 °C 10,2 °C 12,9 km/h (3 Bft)
19.03.2017 23:20 10,2 °C 10,2 °C 74 % 1011,9 hPa 0,0 mm 10,4 km/h (2 Bft) SW 232 ° 0 min 0,000 mm 0,0 UV-I 0 W/m² 5,8 °C 10,2 °C 16,1 km/h (3 Bft)
19.03.2017 23:21 10,2 °C 10,2 °C 74 % 1011,9 hPa 0,0 mm 9,3 km/h (2 Bft) W 263 ° 0 min 0,000 mm 0,0 UV-I 0 W/m² 5,8 °C 10,2 °C 12,9 km/h (3 Bft)
19.03.2017 23:22 10,1 °C 10,2 °C 74 % 1011,9 hPa 0,0 mm 11,4 km/h (2 Bft) W-SW 246 ° 0 min 0,000 mm 0,0 UV-I 0 W/m² 5,7 °C 10,1 °C 14,5 km/h (3 Bft)
19.03.2017 23:23 10,1 °C 10,1 °C 75 % 1011,9 hPa 0,0 mm 9,5 km/h (2 Bft) W 268 ° 0 min 0,000 mm 0,0 UV-I 0 W/m² 5,9 °C 10,1 °C 17,7 km/h (3 Bft)
19.03.2017 23:24 10,1 °C 10,1 °C 75 % 1011,9 hPa 0,0 mm 11,2 km/h (2 Bft) W-SW 240 ° 0 min 0,000 mm 0,0 UV-I 0 W/m² 5,9 °C 10,1 °C 19,3 km/h (3 Bft)
19.03.2017 23:25 9,9 °C 10,1 °C 75 % 1011,9 hPa 0,0 mm 9,3 km/h (2 Bft) W-SW 254 ° 0 min 0,000 mm 0,0 UV-I 0 W/m² 5,7 °C 8,6 °C 16,1 km/h (3 Bft)
19.03.2017 23:26 9,9 °C 9,9 °C 76 % 1011,9 hPa 0,0 mm 9,9 km/h (2 Bft) SW 234 ° 0 min 0,000 mm 0,0 UV-I 0 W/m² 5,9 °C 8,5 °C 16,1 km/h (3 Bft)
19.03.2017 23:27 9,9 °C 9,9 °C 76 % 1011,9 hPa 0,0 mm 7,7 km/h (2 Bft) SW 227 ° 0 min 0,000 mm 0,0 UV-I 0 W/m² 5,9 °C 9,0 °C 11,3 km/h (2 Bft)
19.03.2017 23:28 9,9 °C 9,9 °C 76 % 1011,9 hPa 0,0 mm 7,4 km/h (2 Bft) W-SW 254 ° 0 min 0,000 mm 0,0 UV-I 0 W/m² 5,9 °C 9,0 °C 11,3 km/h (2 Bft)
19.03.2017 23:29 9,9 °C 9,9 °C 76 % 1011,8 hPa 0,0 mm 8,2 km/h (2 Bft) W-SW 246 ° 0 min 0,000 mm 0,0 UV-I 0 W/m² 5,9 °C 8,8 °C 12,9 km/h (3 Bft)
19.03.2017 23:30 9,9 °C 9,9 °C 76 % 1011,9 hPa 0,0 mm 8,3 km/h (2 Bft) W 267 ° 0 min 0,000 mm 0,0 UV-I 0 W/m² 5,9 °C 8,8 °C 14,5 km/h (3 Bft)
19.03.2017 23:31 9,9 °C 9,9 °C 76 % 1011,9 hPa 0,0 mm 11,4 km/h (2 Bft) W-SW 252 ° 0 min 0,000 mm 0,0 UV-I 0 W/m² 5,9 °C 8,3 °C 14,5 km/h (3 Bft)
19.03.2017 23:32 9,9 °C 9,9 °C 77 % 1011,8 hPa 0,0 mm 8,6 km/h (2 Bft) W-SW 254 ° 0 min 0,000 mm 0,0 UV-I 0 W/m² 6,1 °C 8,8 °C 11,3 km/h (2 Bft)
19.03.2017 23:33 9,9 °C 9,9 °C 76 % 1011,8 hPa 0,0 mm 8,7 km/h (2 Bft) W 259 ° 0 min 0,000 mm 0,0 UV-I 0 W/m² 5,9 °C 8,7 °C 14,5 km/h (3 Bft)
19.03.2017 23:34 9,9 °C 9,9 °C 77 % 1011,8 hPa 0,0 mm 5,7 km/h (1 Bft) W 272 ° 0 min 0,000 mm 0,0 UV-I 0 W/m² 6,1 °C 9,4 °C 11,3 km/h (2 Bft)
19.03.2017 23:35 9,9 °C 9,9 °C 77 % 1011,9 hPa 0,0 mm 7,1 km/h (2 Bft) SW 225 ° 0 min 0,000 mm 0,0 UV-I 0 W/m² 6,1 °C 9,1 °C 12,9 km/h (3 Bft)
19.03.2017 23:36 9,9 °C 9,9 °C 77 % 1011,8 hPa 0,0 mm 8,8 km/h (2 Bft) W-SW 246 ° 0 min 0,000 mm 0,0 UV-I 0 W/m² 6,1 °C 8,7 °C 14,5 km/h (3 Bft)
19.03.2017 23:37 9,8 °C 9,9 °C 77 % 1011,9 hPa 0,0 mm 8,7 km/h (2 Bft) W 263 ° 0 min 0,000 mm 0,0 UV-I 0 W/m² 6,0 °C 8,6 °C 12,9 km/h (3 Bft)
19.03.2017 23:38 9,8 °C 9,8 °C 77 % 1011,8 hPa 0,0 mm 8,6 km/h (2 Bft) W-SW 254 ° 0 min 0,000 mm 0,0 UV-I 0 W/m² 6,0 °C 8,7 °C 16,1 km/h (3 Bft)
19.03.2017 23:39 9,8 °C 9,8 °C 77 % 1011,9 hPa 0,0 mm 9,5 km/h (2 Bft) SW 227 ° 0 min 0,000 mm 0,0 UV-I 0 W/m² 6,0 °C 8,5 °C 12,9 km/h (3 Bft)
19.03.2017 23:40 9,7 °C 9,8 °C 77 % 1011,9 hPa 0,0 mm 11,1 km/h (2 Bft) S-SW 206 ° 0 min 0,000 mm 0,0 UV-I 0 W/m² 5,9 °C 8,1 °C 14,5 km/h (3 Bft)
19.03.2017 23:41 9,7 °C 9,7 °C 78 % 1011,8 hPa 0,0 mm 6,6 km/h (2 Bft) SW 227 ° 0 min 0,000 mm 0,0 UV-I 0 W/m² 6,1 °C 9,0 °C 11,3 km/h (2 Bft)
19.03.2017 23:42 9,7 °C 9,7 °C 78 % 1011,8 hPa 0,0 mm 14,7 km/h (3 Bft) W-SW 256 ° 0 min 0,000 mm 0,0 UV-I 0 W/m² 6,1 °C 7,6 °C 24,1 km/h (4 Bft)
19.03.2017 23:43 9,7 °C 9,7 °C 78 % 1011,8 hPa 0,0 mm 11,2 km/h (2 Bft) SW 234 ° 0 min 0,000 mm 0,0 UV-I 0 W/m² 6,1 °C 8,1 °C 14,5 km/h (3 Bft)
19.03.2017 23:44 9,7 °C 9,7 °C 78 % 1011,8 hPa 0,0 mm 15,2 km/h (3 Bft) W 269 ° 0 min 0,000 mm 0,0 UV-I 0 W/m² 6,1 °C 7,5 °C 24,1 km/h (4 Bft)
19.03.2017 23:45 9,7 °C 9,7 °C 78 % 1011,9 hPa 0,0 mm 10,1 km/h (2 Bft) W-SW 251 ° 0 min 0,000 mm 0,0 UV-I 0 W/m² 6,1 °C 8,3 °C 12,9 km/h (3 Bft)
19.03.2017 23:46 9,7 °C 9,7 °C 78 % 1011,8 hPa 0,0 mm 13,9 km/h (3 Bft) W-SW 242 ° 0 min 0,000 mm 0,0 UV-I 0 W/m² 6,1 °C 7,7 °C 22,5 km/h (4 Bft)
19.03.2017 23:47 9,7 °C 9,7 °C 78 % 1011,8 hPa 0,0 mm 13,3 km/h (3 Bft) W 265 ° 0 min 0,000 mm 0,0 UV-I 0 W/m² 6,1 °C 7,8 °C 17,7 km/h (3 Bft)
19.03.2017 23:48 9,7 °C 9,7 °C 78 % 1011,8 hPa 0,0 mm 9,6 km/h (2 Bft) SW 233 ° 0 min 0,000 mm 0,0 UV-I 0 W/m² 6,1 °C 8,3 °C 16,1 km/h (3 Bft)
19.03.2017 23:49 9,7 °C 9,7 °C 79 % 1011,7 hPa 0,0 mm 9,2 km/h (2 Bft) W 259 ° 0 min 0,000 mm 0,0 UV-I 0 W/m² 6,2 °C 8,4 °C 12,9 km/h (3 Bft)
19.03.2017 23:50 9,7 °C 9,7 °C 79 % 1011,7 hPa 0,0 mm 8,9 km/h (2 Bft) W 261 ° 0 min 0,000 mm 0,0 UV-I 0 W/m² 6,2 °C 8,5 °C 12,9 km/h (3 Bft)
19.03.2017 23:51 9,7 °C 9,7 °C 79 % 1011,7 hPa 0,0 mm 11,1 km/h (2 Bft) W-SW 248 ° 0 min 0,000 mm 0,0 UV-I 0 W/m² 6,2 °C 8,1 °C 14,5 km/h (3 Bft)
19.03.2017 23:52 9,6 °C 9,7 °C 79 % 1011,8 hPa 0,0 mm 8,2 km/h (2 Bft) W-SW 238 ° 0 min 0,000 mm 0,0 UV-I 0 W/m² 6,1 °C 8,5 °C 12,9 km/h (3 Bft)
19.03.2017 23:53 9,6 °C 9,7 °C 79 % 1011,8 hPa 0,0 mm 11,1 km/h (2 Bft) W-SW 252 ° 0 min 0,000 mm 0,0 UV-I 0 W/m² 6,1 °C 8,0 °C 16,1 km/h (3 Bft)
19.03.2017 23:54 9,6 °C 9,6 °C 79 % 1011,7 hPa 0,0 mm 15,2 km/h (3 Bft) W 273 ° 0 min 0,000 mm 0,0 UV-I 0 W/m² 6,1 °C 7,4 °C 22,5 km/h (4 Bft)
19.03.2017 23:55 9,6 °C 9,6 °C 79 % 1011,8 hPa 0,0 mm 10,9 km/h (2 Bft) SW 220 ° 0 min 0,000 mm 0,0 UV-I 0 W/m² 6,1 °C 8,0 °C 17,7 km/h (3 Bft)
19.03.2017 23:56 9,6 °C 9,7 °C 79 % 1011,7 hPa 0,0 mm 10,8 km/h (2 Bft) W 259 ° 0 min 0,000 mm 0,0 UV-I 0 W/m² 6,1 °C 8,0 °C 14,5 km/h (3 Bft)
19.03.2017 23:57 9,6 °C 9,7 °C 80 % 1011,8 hPa 0,0 mm 13,7 km/h (3 Bft) W-SW 250 ° 0 min 0,000 mm 0,0 UV-I 0 W/m² 6,3 °C 7,6 °C 17,7 km/h (3 Bft)
19.03.2017 23:58 9,7 °C 9,7 °C 80 % 1011,8 hPa 0,0 mm 12,6 km/h (3 Bft) W-SW 252 ° 0 min 0,000 mm 0,0 UV-I 0 W/m² 6,4 °C 7,9 °C 16,1 km/h (3 Bft)
19.03.2017 23:59 9,6 °C 9,7 °C 80 % 1011,8 hPa 0,0 mm 7,4 km/h (2 Bft) W 262 ° 0 min 0,000 mm 0,0 UV-I 0 W/m² 6,3 °C 8,7 °C 14,5 km/h (3 Bft)
_ Min-Zeit 03:03 02:45 20:51 20:12 - 20:29 - - - - - - 20:16 02:16 20:29
Minimum _ 6,3 °C 6,3 °C 65 % 1010,8 hPa - 0,0 km/h (0 Bft) - - - - - - 4,7 °C 2,6 °C 0,0 km/h (0 Bft)
_ Max-Zeit 14:12 14:13 07:36 08:20 07:21 13:08 - - 14:39 14:01 13:03 13:06 12:01 14:12 14:05
Maximum _ 14,3 °C 14,3 °C 93 % 1014,5 hPa 0,2 mm 25,7 km/h
SW (4 Bft)
- - 1 min 0,305 mm 4,6 UV-I 793 W/m² 9,6 °C 14,3 °C 40,2 km/h
W-SW (6 Bft)
Durchschnitt _ 9,8 °C 9,8 °C 82 % 1012,6 hPa #13,4 mm 11,8 km/h (2 Bft) W-SW - #3:39 h #1,727 mm 1,9 UV-I 109 W/m² 6,8 °C 8,7 °C 17,4 km/h (3 Bft)